<?xml version='1.0' encoding='UTF-8'?><gpx version="1.1" creator="JPX - https://github.com/jenetics/jpx" xmlns="http://www.topografix.com/GPX/1/1"><trk><trkseg><trkpt lat="44.1849329" lon="12.1148431"><ele>28.000000000000004</ele><time>2026-03-25T12:36:19.121Z</time></trkpt><trkpt lat="44.1849572" lon="12.1149328"><ele>28.0</ele><time>2026-03-25T12:36:27.648Z</time></trkpt><trkpt lat="44.184971" lon="12.1148324"><ele>28.0</ele><time>2026-03-25T12:37:07.053Z</time></trkpt><trkpt lat="44.1850175" lon="12.1147611"><ele>28.0</ele><time>2026-03-25T12:37:10.031Z</time></trkpt><trkpt lat="44.1850883" lon="12.1146217"><ele>28.000000000000004</ele><time>2026-03-25T12:37:14.053Z</time></trkpt><trkpt lat="44.1851267" lon="12.114515"><ele>28.0</ele><time>2026-03-25T12:37:16.054Z</time></trkpt><trkpt lat="44.1850433" lon="12.114495"><ele>28.000000000000004</ele><time>2026-03-25T12:37:17.053Z</time></trkpt><trkpt lat="44.184955" lon="12.1144683"><ele>28.0</ele><time>2026-03-25T12:37:19.054Z</time></trkpt><trkpt lat="44.1848867" lon="12.114425"><ele>28.0</ele><time>2026-03-25T12:37:21.054Z</time></trkpt><trkpt lat="44.184855" lon="12.1143283"><ele>28.0</ele><time>2026-03-25T12:37:24.054Z</time></trkpt><trkpt lat="44.1848683" lon="12.114225"><ele>28.000000000000004</ele><time>2026-03-25T12:37:26.054Z</time></trkpt><trkpt lat="44.184885" lon="12.114085"><ele>28.0</ele><time>2026-03-25T12:37:29.054Z</time></trkpt><trkpt lat="44.1849433" lon="12.1139733"><ele>27.833333333333336</ele><time>2026-03-25T12:37:32.053Z</time></trkpt><trkpt lat="44.1849783" lon="12.1138917"><ele>27.666666666666668</ele><time>2026-03-25T12:37:35.053Z</time></trkpt><trkpt lat="44.1849933" lon="12.1138"><ele>27.5</ele><time>2026-03-25T12:37:38.054Z</time></trkpt><trkpt lat="44.1849383" lon="12.1137083"><ele>27.333333333333336</ele><time>2026-03-25T12:37:41.054Z</time></trkpt><trkpt lat="44.1848883" lon="12.1136483"><ele>27.166666666666668</ele><time>2026-03-25T12:37:43.054Z</time></trkpt><trkpt lat="44.1847933" lon="12.1135683"><ele>27.0</ele><time>2026-03-25T12:37:46.054Z</time></trkpt><trkpt lat="44.1847317" lon="12.1135217"><ele>27.0</ele><time>2026-03-25T12:37:48.054Z</time></trkpt><trkpt lat="44.184665" lon="12.1134683"><ele>27.0</ele><time>2026-03-25T12:37:50.054Z</time></trkpt><trkpt lat="44.1845967" lon="12.11342"><ele>27.0</ele><time>2026-03-25T12:37:52.054Z</time></trkpt><trkpt lat="44.184535" lon="12.113365"><ele>27.0</ele><time>2026-03-25T12:37:54.054Z</time></trkpt><trkpt lat="44.1844717" lon="12.11331"><ele>27.0</ele><time>2026-03-25T12:37:56.054Z</time></trkpt><trkpt lat="44.184405" lon="12.1132583"><ele>27.0</ele><time>2026-03-25T12:37:58.054Z</time></trkpt><trkpt lat="44.18434" lon="12.1132033"><ele>27.0</ele><time>2026-03-25T12:38:00.054Z</time></trkpt><trkpt lat="44.18428" lon="12.1131367"><ele>27.0</ele><time>2026-03-25T12:38:02.053Z</time></trkpt><trkpt lat="44.1842217" lon="12.11308"><ele>27.0</ele><time>2026-03-25T12:38:04.053Z</time></trkpt><trkpt lat="44.1841433" lon="12.1130433"><ele>27.0</ele><time>2026-03-25T12:38:06.053Z</time></trkpt><trkpt lat="44.1840617" lon="12.1129967"><ele>27.0</ele><time>2026-03-25T12:38:08.054Z</time></trkpt><trkpt lat="44.183985" lon="12.112945"><ele>27.0</ele><time>2026-03-25T12:38:10.054Z</time></trkpt><trkpt lat="44.18391" lon="12.112895"><ele>27.0</ele><time>2026-03-25T12:38:12.054Z</time></trkpt><trkpt lat="44.1838383" lon="12.112845"><ele>27.0</ele><time>2026-03-25T12:38:14.053Z</time></trkpt><trkpt lat="44.18376" lon="12.1127933"><ele>27.0</ele><time>2026-03-25T12:38:16.053Z</time></trkpt><trkpt lat="44.1836817" lon="12.1127367"><ele>27.0</ele><time>2026-03-25T12:38:18.053Z</time></trkpt><trkpt lat="44.1836067" lon="12.1126783"><ele>27.0</ele><time>2026-03-25T12:38:20.053Z</time></trkpt><trkpt lat="44.1835383" lon="12.112615"><ele>27.0</ele><time>2026-03-25T12:38:22.054Z</time></trkpt><trkpt lat="44.1834633" lon="12.112555"><ele>27.0</ele><time>2026-03-25T12:38:24.053Z</time></trkpt><trkpt lat="44.1833867" lon="12.112495"><ele>27.000000000000004</ele><time>2026-03-25T12:38:26.053Z</time></trkpt><trkpt lat="44.1833133" lon="12.112435"><ele>27.000000000000004</ele><time>2026-03-25T12:38:28.055Z</time></trkpt><trkpt lat="44.1832383" lon="12.1123717"><ele>27.0</ele><time>2026-03-25T12:38:30.054Z</time></trkpt><trkpt lat="44.1831217" lon="12.1122733"><ele>27.0</ele><time>2026-03-25T12:38:33.054Z</time></trkpt><trkpt lat="44.1830433" lon="12.1122133"><ele>27.0</ele><time>2026-03-25T12:38:35.055Z</time></trkpt><trkpt lat="44.1829617" lon="12.1121567"><ele>27.000000000000004</ele><time>2026-03-25T12:38:37.055Z</time></trkpt><trkpt lat="44.18288" lon="12.1121017"><ele>27.000000000000004</ele><time>2026-03-25T12:38:39.054Z</time></trkpt><trkpt lat="44.182795" lon="12.112035"><ele>27.0</ele><time>2026-03-25T12:38:41.054Z</time></trkpt><trkpt lat="44.1827167" lon="12.1119667"><ele>27.0</ele><time>2026-03-25T12:38:43.055Z</time></trkpt><trkpt lat="44.1826333" lon="12.1119067"><ele>27.0</ele><time>2026-03-25T12:38:45.054Z</time></trkpt><trkpt lat="44.182545" lon="12.111835"><ele>27.000000000000004</ele><time>2026-03-25T12:38:47.054Z</time></trkpt><trkpt lat="44.1824583" lon="12.1117617"><ele>27.000000000000004</ele><time>2026-03-25T12:38:49.054Z</time></trkpt><trkpt lat="44.1823783" lon="12.1116917"><ele>27.0</ele><time>2026-03-25T12:38:51.054Z</time></trkpt><trkpt lat="44.1822967" lon="12.111625"><ele>27.0</ele><time>2026-03-25T12:38:53.055Z</time></trkpt><trkpt lat="44.182215" lon="12.11156"><ele>27.200000000000003</ele><time>2026-03-25T12:38:55.055Z</time></trkpt><trkpt lat="44.1821317" lon="12.1114967"><ele>27.400000000000002</ele><time>2026-03-25T12:38:57.054Z</time></trkpt><trkpt lat="44.1820467" lon="12.1114333"><ele>27.599999999999998</ele><time>2026-03-25T12:38:59.055Z</time></trkpt><trkpt lat="44.1819617" lon="12.111375"><ele>27.799999999999997</ele><time>2026-03-25T12:39:01.055Z</time></trkpt><trkpt lat="44.181885" lon="12.1113183"><ele>28.0</ele><time>2026-03-25T12:39:03.055Z</time></trkpt><trkpt lat="44.1818117" lon="12.1112617"><ele>28.000000000000004</ele><time>2026-03-25T12:39:05.054Z</time></trkpt><trkpt lat="44.18174" lon="12.1112017"><ele>28.0</ele><time>2026-03-25T12:39:07.055Z</time></trkpt><trkpt lat="44.1816667" lon="12.11114"><ele>28.0</ele><time>2026-03-25T12:39:09.054Z</time></trkpt><trkpt lat="44.1815917" lon="12.1110817"><ele>28.0</ele><time>2026-03-25T12:39:11.054Z</time></trkpt><trkpt lat="44.1815217" lon="12.1110183"><ele>28.000000000000004</ele><time>2026-03-25T12:39:13.054Z</time></trkpt><trkpt lat="44.18144" lon="12.110965"><ele>28.0</ele><time>2026-03-25T12:39:15.055Z</time></trkpt><trkpt lat="44.1813667" lon="12.110905"><ele>28.2</ele><time>2026-03-25T12:39:17.055Z</time></trkpt><trkpt lat="44.1812867" lon="12.1108383"><ele>28.4</ele><time>2026-03-25T12:39:19.055Z</time></trkpt><trkpt lat="44.1812083" lon="12.110775"><ele>28.599999999999998</ele><time>2026-03-25T12:39:21.054Z</time></trkpt><trkpt lat="44.181125" lon="12.110715"><ele>28.799999999999997</ele><time>2026-03-25T12:39:23.055Z</time></trkpt><trkpt lat="44.1810417" lon="12.110655"><ele>29.0</ele><time>2026-03-25T12:39:25.055Z</time></trkpt><trkpt lat="44.1809583" lon="12.1105983"><ele>29.2</ele><time>2026-03-25T12:39:27.054Z</time></trkpt><trkpt lat="44.1808733" lon="12.1105383"><ele>29.4</ele><time>2026-03-25T12:39:29.055Z</time></trkpt><trkpt lat="44.1807933" lon="12.11047"><ele>29.6</ele><time>2026-03-25T12:39:31.055Z</time></trkpt><trkpt lat="44.1807083" lon="12.11041"><ele>29.8</ele><time>2026-03-25T12:39:33.054Z</time></trkpt><trkpt lat="44.1806233" lon="12.1103467"><ele>30.0</ele><time>2026-03-25T12:39:35.055Z</time></trkpt><trkpt lat="44.1805433" lon="12.1102833"><ele>30.0</ele><time>2026-03-25T12:39:37.055Z</time></trkpt><trkpt lat="44.180465" lon="12.1102133"><ele>30.0</ele><time>2026-03-25T12:39:39.055Z</time></trkpt><trkpt lat="44.1803817" lon="12.11015"><ele>30.0</ele><time>2026-03-25T12:39:41.055Z</time></trkpt><trkpt lat="44.1802967" lon="12.110085"><ele>30.0</ele><time>2026-03-25T12:39:43.055Z</time></trkpt><trkpt lat="44.18021" lon="12.1100183"><ele>30.0</ele><time>2026-03-25T12:39:45.054Z</time></trkpt><trkpt lat="44.1801217" lon="12.1099517"><ele>30.2</ele><time>2026-03-25T12:39:47.055Z</time></trkpt><trkpt lat="44.18004" lon="12.1098833"><ele>30.4</ele><time>2026-03-25T12:39:49.055Z</time></trkpt><trkpt lat="44.1799583" lon="12.10981"><ele>30.6</ele><time>2026-03-25T12:39:51.054Z</time></trkpt><trkpt lat="44.1798767" lon="12.1097367"><ele>30.8</ele><time>2026-03-25T12:39:53.054Z</time></trkpt><trkpt lat="44.1797983" lon="12.1096683"><ele>31.0</ele><time>2026-03-25T12:39:55.054Z</time></trkpt><trkpt lat="44.1797283" lon="12.10959"><ele>31.0</ele><time>2026-03-25T12:39:57.055Z</time></trkpt><trkpt lat="44.1796467" lon="12.109515"><ele>31.0</ele><time>2026-03-25T12:39:59.054Z</time></trkpt><trkpt lat="44.179565" lon="12.1094417"><ele>31.0</ele><time>2026-03-25T12:40:01.055Z</time></trkpt><trkpt lat="44.1794833" lon="12.10937"><ele>31.0</ele><time>2026-03-25T12:40:03.054Z</time></trkpt><trkpt lat="44.1794017" lon="12.1092933"><ele>31.0</ele><time>2026-03-25T12:40:05.054Z</time></trkpt><trkpt lat="44.1793217" lon="12.1092183"><ele>31.0</ele><time>2026-03-25T12:40:07.055Z</time></trkpt><trkpt lat="44.1792433" lon="12.109145"><ele>31.0</ele><time>2026-03-25T12:40:09.055Z</time></trkpt><trkpt lat="44.17916" lon="12.1090717"><ele>31.0</ele><time>2026-03-25T12:40:11.055Z</time></trkpt><trkpt lat="44.17908" lon="12.109"><ele>31.0</ele><time>2026-03-25T12:40:13.055Z</time></trkpt><trkpt lat="44.1790067" lon="12.1089317"><ele>31.0</ele><time>2026-03-25T12:40:15.055Z</time></trkpt><trkpt lat="44.178935" lon="12.1088667"><ele>30.833333333333336</ele><time>2026-03-25T12:40:17.054Z</time></trkpt><trkpt lat="44.17887" lon="12.1087983"><ele>30.666666666666668</ele><time>2026-03-25T12:40:19.054Z</time></trkpt><trkpt lat="44.1788" lon="12.10873"><ele>30.5</ele><time>2026-03-25T12:40:21.054Z</time></trkpt><trkpt lat="44.1787317" lon="12.1086633"><ele>30.333333333333336</ele><time>2026-03-25T12:40:23.055Z</time></trkpt><trkpt lat="44.1786617" lon="12.1085967"><ele>30.166666666666668</ele><time>2026-03-25T12:40:25.055Z</time></trkpt><trkpt lat="44.178585" lon="12.10853"><ele>30.0</ele><time>2026-03-25T12:40:27.055Z</time></trkpt><trkpt lat="44.17851" lon="12.1084683"><ele>30.0</ele><time>2026-03-25T12:40:29.054Z</time></trkpt><trkpt lat="44.17843" lon="12.1083967"><ele>30.0</ele><time>2026-03-25T12:40:31.054Z</time></trkpt><trkpt lat="44.1783567" lon="12.1083233"><ele>30.0</ele><time>2026-03-25T12:40:33.055Z</time></trkpt><trkpt lat="44.1782817" lon="12.108255"><ele>30.0</ele><time>2026-03-25T12:40:35.054Z</time></trkpt><trkpt lat="44.1782083" lon="12.108185"><ele>30.0</ele><time>2026-03-25T12:40:37.054Z</time></trkpt><trkpt lat="44.178135" lon="12.10812"><ele>30.166666666666668</ele><time>2026-03-25T12:40:39.055Z</time></trkpt><trkpt lat="44.1780617" lon="12.1080533"><ele>30.333333333333336</ele><time>2026-03-25T12:40:41.054Z</time></trkpt><trkpt lat="44.17799" lon="12.107985"><ele>30.5</ele><time>2026-03-25T12:40:43.055Z</time></trkpt><trkpt lat="44.1779167" lon="12.1079167"><ele>30.666666666666668</ele><time>2026-03-25T12:40:45.054Z</time></trkpt><trkpt lat="44.1778433" lon="12.1078483"><ele>30.833333333333336</ele><time>2026-03-25T12:40:47.054Z</time></trkpt><trkpt lat="44.17777" lon="12.1077817"><ele>31.0</ele><time>2026-03-25T12:40:49.055Z</time></trkpt><trkpt lat="44.177695" lon="12.1077117"><ele>31.0</ele><time>2026-03-25T12:40:51.055Z</time></trkpt><trkpt lat="44.1776217" lon="12.1076367"><ele>31.0</ele><time>2026-03-25T12:40:53.055Z</time></trkpt><trkpt lat="44.177545" lon="12.1075683"><ele>31.0</ele><time>2026-03-25T12:40:55.055Z</time></trkpt><trkpt lat="44.17747" lon="12.1074983"><ele>31.0</ele><time>2026-03-25T12:40:57.055Z</time></trkpt><trkpt lat="44.1773967" lon="12.1074317"><ele>31.0</ele><time>2026-03-25T12:40:59.055Z</time></trkpt><trkpt lat="44.1773217" lon="12.1073567"><ele>31.200000000000003</ele><time>2026-03-25T12:41:01.054Z</time></trkpt><trkpt lat="44.1772467" lon="12.107285"><ele>31.400000000000002</ele><time>2026-03-25T12:41:03.054Z</time></trkpt><trkpt lat="44.17717" lon="12.1072233"><ele>31.6</ele><time>2026-03-25T12:41:05.055Z</time></trkpt><trkpt lat="44.17709" lon="12.1071567"><ele>31.8</ele><time>2026-03-25T12:41:07.055Z</time></trkpt><trkpt lat="44.177015" lon="12.107085"><ele>32.0</ele><time>2026-03-25T12:41:09.055Z</time></trkpt><trkpt lat="44.176935" lon="12.1070167"><ele>32.0</ele><time>2026-03-25T12:41:11.055Z</time></trkpt><trkpt lat="44.1768533" lon="12.10694"><ele>32.0</ele><time>2026-03-25T12:41:13.055Z</time></trkpt><trkpt lat="44.176775" lon="12.1068633"><ele>32.0</ele><time>2026-03-25T12:41:15.054Z</time></trkpt><trkpt lat="44.1766983" lon="12.1067883"><ele>32.0</ele><time>2026-03-25T12:41:17.055Z</time></trkpt><trkpt lat="44.17662" lon="12.1067233"><ele>32.0</ele><time>2026-03-25T12:41:19.055Z</time></trkpt><trkpt lat="44.1765367" lon="12.1066433"><ele>32.0</ele><time>2026-03-25T12:41:21.054Z</time></trkpt><trkpt lat="44.1764533" lon="12.1065783"><ele>32.0</ele><time>2026-03-25T12:41:23.055Z</time></trkpt><trkpt lat="44.1763683" lon="12.10651"><ele>32.0</ele><time>2026-03-25T12:41:25.054Z</time></trkpt><trkpt lat="44.1762767" lon="12.106435"><ele>32.0</ele><time>2026-03-25T12:41:27.055Z</time></trkpt><trkpt lat="44.1761833" lon="12.1063483"><ele>32.0</ele><time>2026-03-25T12:41:29.054Z</time></trkpt><trkpt lat="44.1760967" lon="12.1062683"><ele>32.0</ele><time>2026-03-25T12:41:31.054Z</time></trkpt><trkpt lat="44.1760133" lon="12.1061917"><ele>32.0</ele><time>2026-03-25T12:41:33.055Z</time></trkpt><trkpt lat="44.1759383" lon="12.1061117"><ele>32.0</ele><time>2026-03-25T12:41:35.055Z</time></trkpt><trkpt lat="44.175865" lon="12.1060583"><ele>32.0</ele><time>2026-03-25T12:41:37.055Z</time></trkpt><trkpt lat="44.1757867" lon="12.10607"><ele>32.0</ele><time>2026-03-25T12:41:39.055Z</time></trkpt><trkpt lat="44.1757217" lon="12.106165"><ele>32.2</ele><time>2026-03-25T12:41:41.055Z</time></trkpt><trkpt lat="44.1756767" lon="12.1062917"><ele>32.400000000000006</ele><time>2026-03-25T12:41:43.054Z</time></trkpt><trkpt lat="44.1756317" lon="12.1064267"><ele>32.599999999999994</ele><time>2026-03-25T12:41:45.055Z</time></trkpt><trkpt lat="44.1755717" lon="12.1065517"><ele>32.8</ele><time>2026-03-25T12:41:47.054Z</time></trkpt><trkpt lat="44.1755167" lon="12.1066767"><ele>33.0</ele><time>2026-03-25T12:41:49.055Z</time></trkpt><trkpt lat="44.17546" lon="12.1067983"><ele>33.199999999999996</ele><time>2026-03-25T12:41:51.054Z</time></trkpt><trkpt lat="44.1754083" lon="12.1069167"><ele>33.4</ele><time>2026-03-25T12:41:53.055Z</time></trkpt><trkpt lat="44.175365" lon="12.10703"><ele>33.599999999999994</ele><time>2026-03-25T12:41:55.055Z</time></trkpt><trkpt lat="44.1753067" lon="12.1071283"><ele>33.8</ele><time>2026-03-25T12:41:57.054Z</time></trkpt><trkpt lat="44.1752267" lon="12.1071667"><ele>34.0</ele><time>2026-03-25T12:41:59.055Z</time></trkpt><trkpt lat="44.1751483" lon="12.1071"><ele>34.0</ele><time>2026-03-25T12:42:01.055Z</time></trkpt><trkpt lat="44.175095" lon="12.1069867"><ele>34.0</ele><time>2026-03-25T12:42:03.054Z</time></trkpt><trkpt lat="44.1750367" lon="12.1068617"><ele>34.0</ele><time>2026-03-25T12:42:05.054Z</time></trkpt><trkpt lat="44.1749833" lon="12.10674"><ele>34.0</ele><time>2026-03-25T12:42:07.055Z</time></trkpt><trkpt lat="44.1749333" lon="12.1066067"><ele>34.0</ele><time>2026-03-25T12:42:09.054Z</time></trkpt><trkpt lat="44.1748767" lon="12.1064817"><ele>33.6</ele><time>2026-03-25T12:42:11.055Z</time></trkpt><trkpt lat="44.1748267" lon="12.1063567"><ele>33.2</ele><time>2026-03-25T12:42:13.054Z</time></trkpt><trkpt lat="44.1747767" lon="12.1062283"><ele>32.800000000000004</ele><time>2026-03-25T12:42:15.054Z</time></trkpt><trkpt lat="44.17472" lon="12.106105"><ele>32.4</ele><time>2026-03-25T12:42:17.055Z</time></trkpt><trkpt lat="44.174665" lon="12.1059733"><ele>32.0</ele><time>2026-03-25T12:42:19.054Z</time></trkpt><trkpt lat="44.1746083" lon="12.1058417"><ele>32.2</ele><time>2026-03-25T12:42:21.055Z</time></trkpt><trkpt lat="44.174555" lon="12.105715"><ele>32.400000000000006</ele><time>2026-03-25T12:42:23.055Z</time></trkpt><trkpt lat="44.1745083" lon="12.1055817"><ele>32.599999999999994</ele><time>2026-03-25T12:42:25.054Z</time></trkpt><trkpt lat="44.174455" lon="12.1054517"><ele>32.8</ele><time>2026-03-25T12:42:27.055Z</time></trkpt><trkpt lat="44.1744033" lon="12.1053333"><ele>33.0</ele><time>2026-03-25T12:42:29.054Z</time></trkpt><trkpt lat="44.1743483" lon="12.1052333"><ele>33.0</ele><time>2026-03-25T12:42:31.055Z</time></trkpt><trkpt lat="44.1742683" lon="12.1051417"><ele>33.0</ele><time>2026-03-25T12:42:33.054Z</time></trkpt><trkpt lat="44.1741917" lon="12.1050267"><ele>33.0</ele><time>2026-03-25T12:42:35.054Z</time></trkpt><trkpt lat="44.17413" lon="12.10491"><ele>33.0</ele><time>2026-03-25T12:42:37.055Z</time></trkpt><trkpt lat="44.1740833" lon="12.10481"><ele>33.0</ele><time>2026-03-25T12:42:39.055Z</time></trkpt><trkpt lat="44.1740417" lon="12.10468"><ele>33.199999999999996</ele><time>2026-03-25T12:42:41.054Z</time></trkpt><trkpt lat="44.17402" lon="12.10455"><ele>33.4</ele><time>2026-03-25T12:42:43.055Z</time></trkpt><trkpt lat="44.1740167" lon="12.1044133"><ele>33.599999999999994</ele><time>2026-03-25T12:42:45.054Z</time></trkpt><trkpt lat="44.17401" lon="12.1042933"><ele>33.8</ele><time>2026-03-25T12:42:47.054Z</time></trkpt><trkpt lat="44.1739817" lon="12.104165"><ele>34.0</ele><time>2026-03-25T12:42:49.054Z</time></trkpt><trkpt lat="44.1739417" lon="12.1040417"><ele>34.0</ele><time>2026-03-25T12:42:51.055Z</time></trkpt><trkpt lat="44.173885" lon="12.1039333"><ele>34.0</ele><time>2026-03-25T12:42:53.055Z</time></trkpt><trkpt lat="44.1738217" lon="12.103825"><ele>34.0</ele><time>2026-03-25T12:42:55.055Z</time></trkpt><trkpt lat="44.17375" lon="12.1037233"><ele>34.0</ele><time>2026-03-25T12:42:57.055Z</time></trkpt><trkpt lat="44.1736717" lon="12.1036267"><ele>34.0</ele><time>2026-03-25T12:42:59.055Z</time></trkpt><trkpt lat="44.1735967" lon="12.1035283"><ele>34.0</ele><time>2026-03-25T12:43:01.054Z</time></trkpt><trkpt lat="44.1735217" lon="12.1034317"><ele>34.0</ele><time>2026-03-25T12:43:03.055Z</time></trkpt><trkpt lat="44.1734483" lon="12.1033383"><ele>34.0</ele><time>2026-03-25T12:43:05.055Z</time></trkpt><trkpt lat="44.1733717" lon="12.103255"><ele>34.0</ele><time>2026-03-25T12:43:07.054Z</time></trkpt><trkpt lat="44.1732883" lon="12.1031667"><ele>34.0</ele><time>2026-03-25T12:43:09.055Z</time></trkpt><trkpt lat="44.1732083" lon="12.10307"><ele>33.8</ele><time>2026-03-25T12:43:11.054Z</time></trkpt><trkpt lat="44.1731317" lon="12.10297"><ele>33.599999999999994</ele><time>2026-03-25T12:43:13.054Z</time></trkpt><trkpt lat="44.1730517" lon="12.1028683"><ele>33.4</ele><time>2026-03-25T12:43:15.054Z</time></trkpt><trkpt lat="44.1729733" lon="12.1027633"><ele>33.199999999999996</ele><time>2026-03-25T12:43:17.055Z</time></trkpt><trkpt lat="44.172895" lon="12.1026567"><ele>33.0</ele><time>2026-03-25T12:43:19.055Z</time></trkpt><trkpt lat="44.1728183" lon="12.1025617"><ele>33.0</ele><time>2026-03-25T12:43:21.055Z</time></trkpt><trkpt lat="44.17274" lon="12.1024633"><ele>33.0</ele><time>2026-03-25T12:43:23.055Z</time></trkpt><trkpt lat="44.1726667" lon="12.1023667"><ele>33.0</ele><time>2026-03-25T12:43:25.055Z</time></trkpt><trkpt lat="44.17259" lon="12.1022583"><ele>33.0</ele><time>2026-03-25T12:43:27.054Z</time></trkpt><trkpt lat="44.172515" lon="12.102155"><ele>33.0</ele><time>2026-03-25T12:43:29.055Z</time></trkpt><trkpt lat="44.1724433" lon="12.102055"><ele>33.0</ele><time>2026-03-25T12:43:31.055Z</time></trkpt><trkpt lat="44.1723717" lon="12.1019533"><ele>33.0</ele><time>2026-03-25T12:43:33.054Z</time></trkpt><trkpt lat="44.172295" lon="12.10185"><ele>33.0</ele><time>2026-03-25T12:43:35.055Z</time></trkpt><trkpt lat="44.17222" lon="12.1017483"><ele>33.0</ele><time>2026-03-25T12:43:37.054Z</time></trkpt><trkpt lat="44.1721467" lon="12.1016417"><ele>33.0</ele><time>2026-03-25T12:43:39.055Z</time></trkpt><trkpt lat="44.1720733" lon="12.1015317"><ele>33.199999999999996</ele><time>2026-03-25T12:43:41.055Z</time></trkpt><trkpt lat="44.171995" lon="12.1014267"><ele>33.4</ele><time>2026-03-25T12:43:43.054Z</time></trkpt><trkpt lat="44.1719167" lon="12.1013233"><ele>33.599999999999994</ele><time>2026-03-25T12:43:45.054Z</time></trkpt><trkpt lat="44.17184" lon="12.1012183"><ele>33.8</ele><time>2026-03-25T12:43:47.055Z</time></trkpt><trkpt lat="44.1717633" lon="12.10111"><ele>34.0</ele><time>2026-03-25T12:43:49.055Z</time></trkpt><trkpt lat="44.171685" lon="12.1010033"><ele>34.0</ele><time>2026-03-25T12:43:51.055Z</time></trkpt><trkpt lat="44.1716033" lon="12.1008967"><ele>34.0</ele><time>2026-03-25T12:43:53.054Z</time></trkpt><trkpt lat="44.1715267" lon="12.1007933"><ele>34.0</ele><time>2026-03-25T12:43:55.055Z</time></trkpt><trkpt lat="44.1714533" lon="12.1006833"><ele>34.0</ele><time>2026-03-25T12:43:57.055Z</time></trkpt><trkpt lat="44.17138" lon="12.10058"><ele>34.0</ele><time>2026-03-25T12:43:59.055Z</time></trkpt><trkpt lat="44.1713033" lon="12.100475"><ele>34.4</ele><time>2026-03-25T12:44:01.054Z</time></trkpt><trkpt lat="44.1712267" lon="12.10037"><ele>34.8</ele><time>2026-03-25T12:44:03.055Z</time></trkpt><trkpt lat="44.1711533" lon="12.1002667"><ele>35.2</ele><time>2026-03-25T12:44:05.055Z</time></trkpt><trkpt lat="44.1710817" lon="12.1001683"><ele>35.6</ele><time>2026-03-25T12:44:07.055Z</time></trkpt><trkpt lat="44.1710067" lon="12.10006"><ele>36.0</ele><time>2026-03-25T12:44:09.055Z</time></trkpt><trkpt lat="44.1709317" lon="12.0999633"><ele>35.8</ele><time>2026-03-25T12:44:11.055Z</time></trkpt><trkpt lat="44.1708667" lon="12.0998733"><ele>35.6</ele><time>2026-03-25T12:44:13.054Z</time></trkpt><trkpt lat="44.170805" lon="12.0997717"><ele>35.4</ele><time>2026-03-25T12:44:15.055Z</time></trkpt><trkpt lat="44.17074" lon="12.099665"><ele>35.2</ele><time>2026-03-25T12:44:17.054Z</time></trkpt><trkpt lat="44.1706633" lon="12.09956"><ele>35.0</ele><time>2026-03-25T12:44:19.054Z</time></trkpt><trkpt lat="44.17058" lon="12.09945"><ele>35.0</ele><time>2026-03-25T12:44:21.054Z</time></trkpt><trkpt lat="44.1705" lon="12.0993367"><ele>35.0</ele><time>2026-03-25T12:44:23.055Z</time></trkpt><trkpt lat="44.1704217" lon="12.0992267"><ele>35.0</ele><time>2026-03-25T12:44:25.055Z</time></trkpt><trkpt lat="44.170325" lon="12.0991267"><ele>35.0</ele><time>2026-03-25T12:44:27.054Z</time></trkpt><trkpt lat="44.17027" lon="12.09908"><ele>35.0</ele><time>2026-03-25T12:44:28.054Z</time></trkpt><trkpt lat="44.1702117" lon="12.0990283"><ele>34.857142857142854</ele><time>2026-03-25T12:44:29.054Z</time></trkpt><trkpt lat="44.1701467" lon="12.0989633"><ele>34.714285714285715</ele><time>2026-03-25T12:44:30.054Z</time></trkpt><trkpt lat="44.170085" lon="12.09891"><ele>34.57142857142857</ele><time>2026-03-25T12:44:31.054Z</time></trkpt><trkpt lat="44.1700233" lon="12.09886"><ele>34.42857142857143</ele><time>2026-03-25T12:44:32.055Z</time></trkpt><trkpt lat="44.1699617" lon="12.0988"><ele>34.285714285714285</ele><time>2026-03-25T12:44:33.054Z</time></trkpt><trkpt lat="44.1698983" lon="12.0987433"><ele>34.14285714285714</ele><time>2026-03-25T12:44:34.054Z</time></trkpt><trkpt lat="44.169835" lon="12.0986883"><ele>34.0</ele><time>2026-03-25T12:44:35.054Z</time></trkpt><trkpt lat="44.1697767" lon="12.098635"><ele>34.0</ele><time>2026-03-25T12:44:36.055Z</time></trkpt><trkpt lat="44.16972" lon="12.0985833"><ele>34.0</ele><time>2026-03-25T12:44:37.055Z</time></trkpt><trkpt lat="44.1696617" lon="12.0985433"><ele>34.0</ele><time>2026-03-25T12:44:38.055Z</time></trkpt><trkpt lat="44.1695983" lon="12.0985033"><ele>34.0</ele><time>2026-03-25T12:44:39.054Z</time></trkpt><trkpt lat="44.1694783" lon="12.0984633"><ele>34.0</ele><time>2026-03-25T12:44:41.054Z</time></trkpt><trkpt lat="44.1694133" lon="12.0984517"><ele>34.0</ele><time>2026-03-25T12:44:42.055Z</time></trkpt><trkpt lat="44.169305" lon="12.098435"><ele>34.0</ele><time>2026-03-25T12:44:44.055Z</time></trkpt><trkpt lat="44.1692" lon="12.0984167"><ele>34.0</ele><time>2026-03-25T12:44:46.055Z</time></trkpt><trkpt lat="44.1691083" lon="12.0984067"><ele>34.0</ele><time>2026-03-25T12:44:48.055Z</time></trkpt><trkpt lat="44.1690267" lon="12.0984167"><ele>34.0</ele><time>2026-03-25T12:44:50.054Z</time></trkpt><trkpt lat="44.1689483" lon="12.0984133"><ele>34.0</ele><time>2026-03-25T12:44:52.055Z</time></trkpt><trkpt lat="44.168865" lon="12.0984083"><ele>34.0</ele><time>2026-03-25T12:44:54.055Z</time></trkpt><trkpt lat="44.1687733" lon="12.0984033"><ele>34.4</ele><time>2026-03-25T12:44:56.055Z</time></trkpt><trkpt lat="44.1686733" lon="12.09838"><ele>34.8</ele><time>2026-03-25T12:44:58.056Z</time></trkpt><trkpt lat="44.1685783" lon="12.098335"><ele>35.2</ele><time>2026-03-25T12:45:00.055Z</time></trkpt><trkpt lat="44.1684967" lon="12.0982633"><ele>35.6</ele><time>2026-03-25T12:45:02.056Z</time></trkpt><trkpt lat="44.1684183" lon="12.0981867"><ele>36.0</ele><time>2026-03-25T12:45:04.055Z</time></trkpt><trkpt lat="44.1683483" lon="12.0981067"><ele>35.0</ele><time>2026-03-25T12:45:06.055Z</time></trkpt><trkpt lat="44.1682717" lon="12.098035"><ele>34.0</ele><time>2026-03-25T12:45:08.055Z</time></trkpt><trkpt lat="44.1681917" lon="12.0979783"><ele>33.0</ele><time>2026-03-25T12:45:10.055Z</time></trkpt><trkpt lat="44.1681017" lon="12.0979567"><ele>32.0</ele><time>2026-03-25T12:45:12.055Z</time></trkpt><trkpt lat="44.1680067" lon="12.0979933"><ele>31.0</ele><time>2026-03-25T12:45:14.055Z</time></trkpt><trkpt lat="44.1679233" lon="12.098075"><ele>30.6</ele><time>2026-03-25T12:45:16.056Z</time></trkpt><trkpt lat="44.1678517" lon="12.0981817"><ele>30.200000000000003</ele><time>2026-03-25T12:45:18.055Z</time></trkpt><trkpt lat="44.16778" lon="12.098285"><ele>29.799999999999997</ele><time>2026-03-25T12:45:20.056Z</time></trkpt><trkpt lat="44.1677133" lon="12.0984017"><ele>29.4</ele><time>2026-03-25T12:45:22.055Z</time></trkpt><trkpt lat="44.1676367" lon="12.0985217"><ele>29.0</ele><time>2026-03-25T12:45:24.056Z</time></trkpt><trkpt lat="44.1675717" lon="12.09864"><ele>30.0</ele><time>2026-03-25T12:45:26.056Z</time></trkpt><trkpt lat="44.1675083" lon="12.09876"><ele>31.0</ele><time>2026-03-25T12:45:28.056Z</time></trkpt><trkpt lat="44.167445" lon="12.0988817"><ele>32.0</ele><time>2026-03-25T12:45:30.056Z</time></trkpt><trkpt lat="44.1673783" lon="12.0990117"><ele>33.0</ele><time>2026-03-25T12:45:32.056Z</time></trkpt><trkpt lat="44.167315" lon="12.0991367"><ele>34.0</ele><time>2026-03-25T12:45:34.056Z</time></trkpt><trkpt lat="44.167255" lon="12.09925"><ele>34.0</ele><time>2026-03-25T12:45:36.056Z</time></trkpt><trkpt lat="44.1671933" lon="12.0993567"><ele>34.0</ele><time>2026-03-25T12:45:38.056Z</time></trkpt><trkpt lat="44.167135" lon="12.09947"><ele>34.0</ele><time>2026-03-25T12:45:40.055Z</time></trkpt><trkpt lat="44.1670717" lon="12.099575"><ele>34.0</ele><time>2026-03-25T12:45:42.055Z</time></trkpt><trkpt lat="44.1670133" lon="12.0996783"><ele>34.0</ele><time>2026-03-25T12:45:44.055Z</time></trkpt><trkpt lat="44.1669567" lon="12.0997783"><ele>34.0</ele><time>2026-03-25T12:45:46.055Z</time></trkpt><trkpt lat="44.1669167" lon="12.0998817"><ele>34.0</ele><time>2026-03-25T12:45:48.056Z</time></trkpt><trkpt lat="44.1668767" lon="12.09998"><ele>34.0</ele><time>2026-03-25T12:45:50.055Z</time></trkpt><trkpt lat="44.1668383" lon="12.100095"><ele>34.0</ele><time>2026-03-25T12:45:52.055Z</time></trkpt><trkpt lat="44.1667817" lon="12.1002117"><ele>34.0</ele><time>2026-03-25T12:45:54.056Z</time></trkpt><trkpt lat="44.1667033" lon="12.1002967"><ele>33.8</ele><time>2026-03-25T12:45:56.056Z</time></trkpt><trkpt lat="44.166595" lon="12.1003117"><ele>33.599999999999994</ele><time>2026-03-25T12:45:58.056Z</time></trkpt><trkpt lat="44.1664867" lon="12.100255"><ele>33.4</ele><time>2026-03-25T12:46:00.055Z</time></trkpt><trkpt lat="44.1663883" lon="12.1001833"><ele>33.199999999999996</ele><time>2026-03-25T12:46:02.056Z</time></trkpt><trkpt lat="44.1662883" lon="12.1001083"><ele>33.0</ele><time>2026-03-25T12:46:04.055Z</time></trkpt><trkpt lat="44.1661833" lon="12.1000317"><ele>33.0</ele><time>2026-03-25T12:46:06.055Z</time></trkpt><trkpt lat="44.1660717" lon="12.0999483"><ele>33.0</ele><time>2026-03-25T12:46:08.055Z</time></trkpt><trkpt lat="44.16596" lon="12.0998733"><ele>33.0</ele><time>2026-03-25T12:46:10.056Z</time></trkpt><trkpt lat="44.1658433" lon="12.0998083"><ele>33.0</ele><time>2026-03-25T12:46:12.056Z</time></trkpt><trkpt lat="44.1657833" lon="12.0997733"><ele>33.0</ele><time>2026-03-25T12:46:13.055Z</time></trkpt><trkpt lat="44.16568" lon="12.0996967"><ele>32.333333333333336</ele><time>2026-03-25T12:46:15.056Z</time></trkpt><trkpt lat="44.1656217" lon="12.0996517"><ele>31.666666666666664</ele><time>2026-03-25T12:46:16.055Z</time></trkpt><trkpt lat="44.1655633" lon="12.099605"><ele>31.0</ele><time>2026-03-25T12:46:17.056Z</time></trkpt><trkpt lat="44.1655033" lon="12.099565"><ele>30.333333333333332</ele><time>2026-03-25T12:46:18.056Z</time></trkpt><trkpt lat="44.165445" lon="12.0995233"><ele>29.666666666666664</ele><time>2026-03-25T12:46:19.056Z</time></trkpt><trkpt lat="44.1653867" lon="12.09948"><ele>29.0</ele><time>2026-03-25T12:46:20.056Z</time></trkpt><trkpt lat="44.1652767" lon="12.0993983"><ele>28.999999999999996</ele><time>2026-03-25T12:46:22.056Z</time></trkpt><trkpt lat="44.16516" lon="12.09932"><ele>29.0</ele><time>2026-03-25T12:46:24.056Z</time></trkpt><trkpt lat="44.1650967" lon="12.0992767"><ele>29.0</ele><time>2026-03-25T12:46:25.056Z</time></trkpt><trkpt lat="44.16504" lon="12.0992367"><ele>29.0</ele><time>2026-03-25T12:46:26.056Z</time></trkpt><trkpt lat="44.1649817" lon="12.099195"><ele>28.999999999999996</ele><time>2026-03-25T12:46:27.056Z</time></trkpt><trkpt lat="44.1649217" lon="12.0991483"><ele>29.0</ele><time>2026-03-25T12:46:28.055Z</time></trkpt><trkpt lat="44.1648617" lon="12.099105"><ele>28.999999999999996</ele><time>2026-03-25T12:46:29.055Z</time></trkpt><trkpt lat="44.1648033" lon="12.0990617"><ele>29.0</ele><time>2026-03-25T12:46:30.055Z</time></trkpt><trkpt lat="44.1646933" lon="12.09898"><ele>29.0</ele><time>2026-03-25T12:46:32.055Z</time></trkpt><trkpt lat="44.164635" lon="12.0989383"><ele>29.0</ele><time>2026-03-25T12:46:33.056Z</time></trkpt><trkpt lat="44.1645333" lon="12.09887"><ele>28.999999999999996</ele><time>2026-03-25T12:46:35.055Z</time></trkpt><trkpt lat="44.1644767" lon="12.0988267"><ele>29.0</ele><time>2026-03-25T12:46:36.056Z</time></trkpt><trkpt lat="44.1643733" lon="12.0987467"><ele>29.000000000000004</ele><time>2026-03-25T12:46:38.055Z</time></trkpt><trkpt lat="44.1642683" lon="12.0986617"><ele>29.0</ele><time>2026-03-25T12:46:40.056Z</time></trkpt><trkpt lat="44.1642117" lon="12.0986217"><ele>29.000000000000004</ele><time>2026-03-25T12:46:41.056Z</time></trkpt><trkpt lat="44.1641567" lon="12.0985783"><ele>29.000000000000004</ele><time>2026-03-25T12:46:42.055Z</time></trkpt><trkpt lat="44.1640967" lon="12.0985367"><ele>29.0</ele><time>2026-03-25T12:46:43.056Z</time></trkpt><trkpt lat="44.1640417" lon="12.0984933"><ele>29.000000000000004</ele><time>2026-03-25T12:46:44.056Z</time></trkpt><trkpt lat="44.1639833" lon="12.0984533"><ele>29.000000000000004</ele><time>2026-03-25T12:46:45.055Z</time></trkpt><trkpt lat="44.16388" lon="12.09837"><ele>29.2</ele><time>2026-03-25T12:46:47.055Z</time></trkpt><trkpt lat="44.1637783" lon="12.0982983"><ele>29.4</ele><time>2026-03-25T12:46:49.056Z</time></trkpt><trkpt lat="44.16368" lon="12.0982283"><ele>29.6</ele><time>2026-03-25T12:46:51.056Z</time></trkpt><trkpt lat="44.1635833" lon="12.09816"><ele>29.8</ele><time>2026-03-25T12:46:53.056Z</time></trkpt><trkpt lat="44.1634817" lon="12.098085"><ele>30.0</ele><time>2026-03-25T12:46:55.056Z</time></trkpt><trkpt lat="44.16338" lon="12.0980133"><ele>30.2</ele><time>2026-03-25T12:46:57.056Z</time></trkpt><trkpt lat="44.1632817" lon="12.09794"><ele>30.4</ele><time>2026-03-25T12:46:59.055Z</time></trkpt><trkpt lat="44.1631817" lon="12.0978717"><ele>30.6</ele><time>2026-03-25T12:47:01.055Z</time></trkpt><trkpt lat="44.1630817" lon="12.0977967"><ele>30.8</ele><time>2026-03-25T12:47:03.056Z</time></trkpt><trkpt lat="44.1629833" lon="12.097725"><ele>31.0</ele><time>2026-03-25T12:47:05.056Z</time></trkpt><trkpt lat="44.16288" lon="12.0976517"><ele>31.0</ele><time>2026-03-25T12:47:07.056Z</time></trkpt><trkpt lat="44.1627783" lon="12.09757"><ele>31.0</ele><time>2026-03-25T12:47:09.055Z</time></trkpt><trkpt lat="44.1626717" lon="12.0974867"><ele>31.0</ele><time>2026-03-25T12:47:11.055Z</time></trkpt><trkpt lat="44.16257" lon="12.0974133"><ele>31.0</ele><time>2026-03-25T12:47:13.055Z</time></trkpt><trkpt lat="44.1624683" lon="12.0973367"><ele>31.25</ele><time>2026-03-25T12:47:15.055Z</time></trkpt><trkpt lat="44.1623633" lon="12.09726"><ele>31.5</ele><time>2026-03-25T12:47:17.056Z</time></trkpt><trkpt lat="44.1622583" lon="12.0971917"><ele>31.75</ele><time>2026-03-25T12:47:19.055Z</time></trkpt><trkpt lat="44.1621533" lon="12.097115"><ele>32.0</ele><time>2026-03-25T12:47:21.055Z</time></trkpt><trkpt lat="44.16205" lon="12.0970383"><ele>32.0</ele><time>2026-03-25T12:47:23.056Z</time></trkpt><trkpt lat="44.161955" lon="12.0969683"><ele>32.0</ele><time>2026-03-25T12:47:25.056Z</time></trkpt><trkpt lat="44.1618633" lon="12.0968833"><ele>32.0</ele><time>2026-03-25T12:47:27.055Z</time></trkpt><trkpt lat="44.1617617" lon="12.0968133"><ele>32.0</ele><time>2026-03-25T12:47:29.055Z</time></trkpt><trkpt lat="44.161655" lon="12.0967383"><ele>32.0</ele><time>2026-03-25T12:47:31.055Z</time></trkpt><trkpt lat="44.1615467" lon="12.09666"><ele>32.0</ele><time>2026-03-25T12:47:33.056Z</time></trkpt><trkpt lat="44.1614483" lon="12.096585"><ele>32.0</ele><time>2026-03-25T12:47:35.056Z</time></trkpt><trkpt lat="44.161355" lon="12.0965217"><ele>32.0</ele><time>2026-03-25T12:47:37.055Z</time></trkpt><trkpt lat="44.1612617" lon="12.096455"><ele>32.0</ele><time>2026-03-25T12:47:39.056Z</time></trkpt><trkpt lat="44.1611633" lon="12.0963767"><ele>31.5</ele><time>2026-03-25T12:47:41.055Z</time></trkpt><trkpt lat="44.1610583" lon="12.0963067"><ele>31.0</ele><time>2026-03-25T12:47:43.056Z</time></trkpt><trkpt lat="44.160955" lon="12.0962283"><ele>30.5</ele><time>2026-03-25T12:47:45.055Z</time></trkpt><trkpt lat="44.16085" lon="12.09615"><ele>30.0</ele><time>2026-03-25T12:47:47.055Z</time></trkpt><trkpt lat="44.16075" lon="12.096075"><ele>30.2</ele><time>2026-03-25T12:47:49.055Z</time></trkpt><trkpt lat="44.16065" lon="12.096005"><ele>30.4</ele><time>2026-03-25T12:47:51.056Z</time></trkpt><trkpt lat="44.160555" lon="12.0959333"><ele>30.6</ele><time>2026-03-25T12:47:53.055Z</time></trkpt><trkpt lat="44.16046" lon="12.09586"><ele>30.8</ele><time>2026-03-25T12:47:55.056Z</time></trkpt><trkpt lat="44.1603667" lon="12.0957883"><ele>31.0</ele><time>2026-03-25T12:47:57.055Z</time></trkpt><trkpt lat="44.160275" lon="12.09572"><ele>31.0</ele><time>2026-03-25T12:47:59.056Z</time></trkpt><trkpt lat="44.16018" lon="12.0956467"><ele>31.0</ele><time>2026-03-25T12:48:01.055Z</time></trkpt><trkpt lat="44.160085" lon="12.0955683"><ele>31.0</ele><time>2026-03-25T12:48:03.056Z</time></trkpt><trkpt lat="44.159985" lon="12.0955"><ele>31.0</ele><time>2026-03-25T12:48:05.055Z</time></trkpt><trkpt lat="44.1598883" lon="12.0954267"><ele>31.0</ele><time>2026-03-25T12:48:07.056Z</time></trkpt><trkpt lat="44.1597933" lon="12.0953533"><ele>31.200000000000003</ele><time>2026-03-25T12:48:09.055Z</time></trkpt><trkpt lat="44.1596967" lon="12.0952833"><ele>31.400000000000002</ele><time>2026-03-25T12:48:11.056Z</time></trkpt><trkpt lat="44.1596017" lon="12.0952117"><ele>31.6</ele><time>2026-03-25T12:48:13.056Z</time></trkpt><trkpt lat="44.15951" lon="12.0951433"><ele>31.8</ele><time>2026-03-25T12:48:15.056Z</time></trkpt><trkpt lat="44.15942" lon="12.095065"><ele>32.0</ele><time>2026-03-25T12:48:17.055Z</time></trkpt><trkpt lat="44.159325" lon="12.09499"><ele>32.0</ele><time>2026-03-25T12:48:19.055Z</time></trkpt><trkpt lat="44.15923" lon="12.0949217"><ele>32.0</ele><time>2026-03-25T12:48:21.056Z</time></trkpt><trkpt lat="44.159135" lon="12.0948533"><ele>32.0</ele><time>2026-03-25T12:48:23.055Z</time></trkpt><trkpt lat="44.1590367" lon="12.0947883"><ele>32.0</ele><time>2026-03-25T12:48:25.055Z</time></trkpt><trkpt lat="44.1589467" lon="12.0947283"><ele>32.0</ele><time>2026-03-25T12:48:27.055Z</time></trkpt><trkpt lat="44.15885" lon="12.0946583"><ele>32.0</ele><time>2026-03-25T12:48:29.055Z</time></trkpt><trkpt lat="44.1587583" lon="12.0945883"><ele>32.0</ele><time>2026-03-25T12:48:31.055Z</time></trkpt><trkpt lat="44.1586667" lon="12.0945233"><ele>32.0</ele><time>2026-03-25T12:48:33.056Z</time></trkpt><trkpt lat="44.1585767" lon="12.0944567"><ele>32.0</ele><time>2026-03-25T12:48:35.056Z</time></trkpt><trkpt lat="44.1584833" lon="12.094395"><ele>32.0</ele><time>2026-03-25T12:48:37.056Z</time></trkpt><trkpt lat="44.158385" lon="12.09433"><ele>32.0</ele><time>2026-03-25T12:48:39.055Z</time></trkpt><trkpt lat="44.1582883" lon="12.0942633"><ele>32.0</ele><time>2026-03-25T12:48:41.055Z</time></trkpt><trkpt lat="44.1582017" lon="12.094195"><ele>32.0</ele><time>2026-03-25T12:48:43.055Z</time></trkpt><trkpt lat="44.1581117" lon="12.094125"><ele>32.0</ele><time>2026-03-25T12:48:45.056Z</time></trkpt><trkpt lat="44.1580117" lon="12.0940583"><ele>32.0</ele><time>2026-03-25T12:48:47.056Z</time></trkpt><trkpt lat="44.157915" lon="12.0939883"><ele>31.8</ele><time>2026-03-25T12:48:49.056Z</time></trkpt><trkpt lat="44.1578183" lon="12.09392"><ele>31.6</ele><time>2026-03-25T12:48:51.055Z</time></trkpt><trkpt lat="44.1577117" lon="12.0938467"><ele>31.400000000000002</ele><time>2026-03-25T12:48:53.056Z</time></trkpt><trkpt lat="44.1576183" lon="12.0937767"><ele>31.200000000000003</ele><time>2026-03-25T12:48:55.056Z</time></trkpt><trkpt lat="44.157515" lon="12.0937083"><ele>31.0</ele><time>2026-03-25T12:48:57.056Z</time></trkpt><trkpt lat="44.1574133" lon="12.0936333"><ele>31.200000000000003</ele><time>2026-03-25T12:48:59.055Z</time></trkpt><trkpt lat="44.1573167" lon="12.0935633"><ele>31.400000000000002</ele><time>2026-03-25T12:49:01.056Z</time></trkpt><trkpt lat="44.15722" lon="12.0934933"><ele>31.6</ele><time>2026-03-25T12:49:03.055Z</time></trkpt><trkpt lat="44.1571267" lon="12.0934267"><ele>31.8</ele><time>2026-03-25T12:49:05.056Z</time></trkpt><trkpt lat="44.1570267" lon="12.0933633"><ele>32.0</ele><time>2026-03-25T12:49:07.056Z</time></trkpt><trkpt lat="44.1569367" lon="12.0932867"><ele>31.6</ele><time>2026-03-25T12:49:09.055Z</time></trkpt><trkpt lat="44.1568417" lon="12.093205"><ele>31.200000000000003</ele><time>2026-03-25T12:49:11.055Z</time></trkpt><trkpt lat="44.15674" lon="12.0931267"><ele>30.8</ele><time>2026-03-25T12:49:13.055Z</time></trkpt><trkpt lat="44.156645" lon="12.0930517"><ele>30.4</ele><time>2026-03-25T12:49:15.056Z</time></trkpt><trkpt lat="44.15655" lon="12.0929883"><ele>30.0</ele><time>2026-03-25T12:49:17.056Z</time></trkpt><trkpt lat="44.1564583" lon="12.092925"><ele>30.8</ele><time>2026-03-25T12:49:19.055Z</time></trkpt><trkpt lat="44.1563683" lon="12.092865"><ele>31.6</ele><time>2026-03-25T12:49:21.055Z</time></trkpt><trkpt lat="44.1562917" lon="12.0928117"><ele>32.4</ele><time>2026-03-25T12:49:23.055Z</time></trkpt><trkpt lat="44.1562033" lon="12.092785"><ele>33.2</ele><time>2026-03-25T12:49:25.056Z</time></trkpt><trkpt lat="44.1561133" lon="12.0927333"><ele>34.0</ele><time>2026-03-25T12:49:27.055Z</time></trkpt><trkpt lat="44.1560317" lon="12.092665"><ele>34.0</ele><time>2026-03-25T12:49:29.056Z</time></trkpt><trkpt lat="44.1559633" lon="12.0926217"><ele>34.0</ele><time>2026-03-25T12:49:31.055Z</time></trkpt><trkpt lat="44.1558967" lon="12.092675"><ele>34.0</ele><time>2026-03-25T12:49:33.055Z</time></trkpt><trkpt lat="44.1558383" lon="12.0927983"><ele>34.0</ele><time>2026-03-25T12:49:35.056Z</time></trkpt><trkpt lat="44.1557783" lon="12.0929383"><ele>34.0</ele><time>2026-03-25T12:49:37.056Z</time></trkpt><trkpt lat="44.1557183" lon="12.0930933"><ele>33.8</ele><time>2026-03-25T12:49:39.056Z</time></trkpt><trkpt lat="44.1556267" lon="12.0931833"><ele>33.599999999999994</ele><time>2026-03-25T12:49:41.055Z</time></trkpt><trkpt lat="44.1555117" lon="12.09316"><ele>33.4</ele><time>2026-03-25T12:49:43.056Z</time></trkpt><trkpt lat="44.1554183" lon="12.0930883"><ele>33.199999999999996</ele><time>2026-03-25T12:49:45.056Z</time></trkpt><trkpt lat="44.15533" lon="12.0930383"><ele>33.0</ele><time>2026-03-25T12:49:47.055Z</time></trkpt><trkpt lat="44.155245" lon="12.0930233"><ele>33.0</ele><time>2026-03-25T12:49:49.056Z</time></trkpt><trkpt lat="44.1551617" lon="12.0930283"><ele>33.0</ele><time>2026-03-25T12:49:51.056Z</time></trkpt><trkpt lat="44.1550717" lon="12.0930483"><ele>33.0</ele><time>2026-03-25T12:49:53.056Z</time></trkpt><trkpt lat="44.1549833" lon="12.09308"><ele>33.0</ele><time>2026-03-25T12:49:55.055Z</time></trkpt><trkpt lat="44.15489" lon="12.093135"><ele>33.0</ele><time>2026-03-25T12:49:57.055Z</time></trkpt><trkpt lat="44.1548" lon="12.093215"><ele>32.8</ele><time>2026-03-25T12:49:59.056Z</time></trkpt><trkpt lat="44.1547217" lon="12.0933167"><ele>32.599999999999994</ele><time>2026-03-25T12:50:01.055Z</time></trkpt><trkpt lat="44.1546533" lon="12.09343"><ele>32.400000000000006</ele><time>2026-03-25T12:50:03.055Z</time></trkpt><trkpt lat="44.1545933" lon="12.0935683"><ele>32.2</ele><time>2026-03-25T12:50:05.056Z</time></trkpt><trkpt lat="44.1545417" lon="12.0937167"><ele>32.0</ele><time>2026-03-25T12:50:07.056Z</time></trkpt><trkpt lat="44.154485" lon="12.09385"><ele>32.0</ele><time>2026-03-25T12:50:09.055Z</time></trkpt><trkpt lat="44.154425" lon="12.093965"><ele>32.0</ele><time>2026-03-25T12:50:11.055Z</time></trkpt><trkpt lat="44.154345" lon="12.0940433"><ele>32.0</ele><time>2026-03-25T12:50:13.055Z</time></trkpt><trkpt lat="44.15424" lon="12.0940483"><ele>32.0</ele><time>2026-03-25T12:50:15.055Z</time></trkpt><trkpt lat="44.1541267" lon="12.0940217"><ele>32.0</ele><time>2026-03-25T12:50:17.055Z</time></trkpt><trkpt lat="44.1540183" lon="12.0939883"><ele>32.2</ele><time>2026-03-25T12:50:19.056Z</time></trkpt><trkpt lat="44.1539117" lon="12.09396"><ele>32.400000000000006</ele><time>2026-03-25T12:50:21.056Z</time></trkpt><trkpt lat="44.1538083" lon="12.09392"><ele>32.599999999999994</ele><time>2026-03-25T12:50:23.056Z</time></trkpt><trkpt lat="44.15371" lon="12.0938817"><ele>32.8</ele><time>2026-03-25T12:50:25.056Z</time></trkpt><trkpt lat="44.153605" lon="12.0938467"><ele>33.0</ele><time>2026-03-25T12:50:27.055Z</time></trkpt><trkpt lat="44.1535083" lon="12.0937983"><ele>33.0</ele><time>2026-03-25T12:50:29.056Z</time></trkpt><trkpt lat="44.1534067" lon="12.0937533"><ele>33.0</ele><time>2026-03-25T12:50:31.056Z</time></trkpt><trkpt lat="44.1533067" lon="12.0937133"><ele>33.0</ele><time>2026-03-25T12:50:33.056Z</time></trkpt><trkpt lat="44.1532067" lon="12.09367"><ele>33.0</ele><time>2026-03-25T12:50:35.056Z</time></trkpt><trkpt lat="44.1531083" lon="12.0936383"><ele>33.0</ele><time>2026-03-25T12:50:37.056Z</time></trkpt><trkpt lat="44.153005" lon="12.09361"><ele>33.4</ele><time>2026-03-25T12:50:39.056Z</time></trkpt><trkpt lat="44.1529033" lon="12.0935767"><ele>33.8</ele><time>2026-03-25T12:50:41.056Z</time></trkpt><trkpt lat="44.1528" lon="12.0935367"><ele>34.2</ele><time>2026-03-25T12:50:43.055Z</time></trkpt><trkpt lat="44.152695" lon="12.0934883"><ele>34.6</ele><time>2026-03-25T12:50:45.056Z</time></trkpt><trkpt lat="44.1525933" lon="12.0934483"><ele>35.0</ele><time>2026-03-25T12:50:47.056Z</time></trkpt><trkpt lat="44.152495" lon="12.093405"><ele>35.0</ele><time>2026-03-25T12:50:49.056Z</time></trkpt><trkpt lat="44.1524033" lon="12.0933467"><ele>35.0</ele><time>2026-03-25T12:50:51.055Z</time></trkpt><trkpt lat="44.152305" lon="12.09329"><ele>35.0</ele><time>2026-03-25T12:50:53.055Z</time></trkpt><trkpt lat="44.1522083" lon="12.0932333"><ele>35.0</ele><time>2026-03-25T12:50:55.056Z</time></trkpt><trkpt lat="44.1521167" lon="12.0931533"><ele>35.0</ele><time>2026-03-25T12:50:57.056Z</time></trkpt><trkpt lat="44.15202" lon="12.09307"><ele>34.8</ele><time>2026-03-25T12:50:59.055Z</time></trkpt><trkpt lat="44.1519317" lon="12.092985"><ele>34.6</ele><time>2026-03-25T12:51:01.055Z</time></trkpt><trkpt lat="44.151845" lon="12.092895"><ele>34.4</ele><time>2026-03-25T12:51:03.055Z</time></trkpt><trkpt lat="44.1517483" lon="12.0927967"><ele>34.2</ele><time>2026-03-25T12:51:05.055Z</time></trkpt><trkpt lat="44.151665" lon="12.0926983"><ele>34.0</ele><time>2026-03-25T12:51:07.056Z</time></trkpt><trkpt lat="44.151585" lon="12.0926117"><ele>34.2</ele><time>2026-03-25T12:51:09.056Z</time></trkpt><trkpt lat="44.1515017" lon="12.0925333"><ele>34.4</ele><time>2026-03-25T12:51:11.056Z</time></trkpt><trkpt lat="44.15141" lon="12.0924817"><ele>34.6</ele><time>2026-03-25T12:51:13.056Z</time></trkpt><trkpt lat="44.151305" lon="12.0924383"><ele>34.8</ele><time>2026-03-25T12:51:15.055Z</time></trkpt><trkpt lat="44.151195" lon="12.0924117"><ele>35.0</ele><time>2026-03-25T12:51:17.055Z</time></trkpt><trkpt lat="44.1510867" lon="12.0924083"><ele>35.0</ele><time>2026-03-25T12:51:19.055Z</time></trkpt><trkpt lat="44.1509783" lon="12.092425"><ele>35.0</ele><time>2026-03-25T12:51:21.056Z</time></trkpt><trkpt lat="44.1508867" lon="12.0924367"><ele>35.0</ele><time>2026-03-25T12:51:23.056Z</time></trkpt><trkpt lat="44.1508" lon="12.0924417"><ele>35.0</ele><time>2026-03-25T12:51:25.055Z</time></trkpt><trkpt lat="44.15071" lon="12.09245"><ele>35.0</ele><time>2026-03-25T12:51:27.056Z</time></trkpt><trkpt lat="44.150635" lon="12.0924517"><ele>35.4</ele><time>2026-03-25T12:51:29.056Z</time></trkpt><trkpt lat="44.1505517" lon="12.0924517"><ele>35.8</ele><time>2026-03-25T12:51:31.055Z</time></trkpt><trkpt lat="44.1504583" lon="12.092455"><ele>36.2</ele><time>2026-03-25T12:51:33.056Z</time></trkpt><trkpt lat="44.1503667" lon="12.092445"><ele>36.6</ele><time>2026-03-25T12:51:35.055Z</time></trkpt><trkpt lat="44.15027" lon="12.0924317"><ele>37.0</ele><time>2026-03-25T12:51:37.056Z</time></trkpt><trkpt lat="44.1501733" lon="12.09242"><ele>36.16666666666667</ele><time>2026-03-25T12:51:39.055Z</time></trkpt><trkpt lat="44.1500817" lon="12.0924"><ele>35.333333333333336</ele><time>2026-03-25T12:51:41.055Z</time></trkpt><trkpt lat="44.14999" lon="12.0923817"><ele>34.5</ele><time>2026-03-25T12:51:43.055Z</time></trkpt><trkpt lat="44.1498983" lon="12.0923733"><ele>33.666666666666664</ele><time>2026-03-25T12:51:45.056Z</time></trkpt><trkpt lat="44.1498117" lon="12.0923667"><ele>32.83333333333333</ele><time>2026-03-25T12:51:47.055Z</time></trkpt><trkpt lat="44.14974" lon="12.0923667"><ele>32.0</ele><time>2026-03-25T12:51:49.055Z</time></trkpt><trkpt lat="44.1496633" lon="12.0923717"><ele>31.999999999999996</ele><time>2026-03-25T12:51:51.055Z</time></trkpt><trkpt lat="44.1495867" lon="12.0923817"><ele>32.0</ele><time>2026-03-25T12:51:53.056Z</time></trkpt><trkpt lat="44.149515" lon="12.0924067"><ele>32.0</ele><time>2026-03-25T12:51:55.055Z</time></trkpt><trkpt lat="44.1494433" lon="12.0924433"><ele>32.0</ele><time>2026-03-25T12:51:57.056Z</time></trkpt><trkpt lat="44.149375" lon="12.0924667"><ele>31.999999999999996</ele><time>2026-03-25T12:51:59.055Z</time></trkpt><trkpt lat="44.1492983" lon="12.0925067"><ele>32.0</ele><time>2026-03-25T12:52:01.055Z</time></trkpt><trkpt lat="44.1492133" lon="12.09253"><ele>32.5</ele><time>2026-03-25T12:52:03.056Z</time></trkpt><trkpt lat="44.1491367" lon="12.0925583"><ele>33.0</ele><time>2026-03-25T12:52:05.055Z</time></trkpt><trkpt lat="44.1490567" lon="12.0925917"><ele>33.5</ele><time>2026-03-25T12:52:07.055Z</time></trkpt><trkpt lat="44.14896" lon="12.09262"><ele>34.0</ele><time>2026-03-25T12:52:09.055Z</time></trkpt><trkpt lat="44.1488733" lon="12.09264"><ele>34.5</ele><time>2026-03-25T12:52:11.055Z</time></trkpt><trkpt lat="44.148785" lon="12.0926617"><ele>35.0</ele><time>2026-03-25T12:52:13.056Z</time></trkpt><trkpt lat="44.1486933" lon="12.0926817"><ele>35.0</ele><time>2026-03-25T12:52:15.055Z</time></trkpt><trkpt lat="44.1486033" lon="12.0926917"><ele>35.0</ele><time>2026-03-25T12:52:17.055Z</time></trkpt><trkpt lat="44.1485167" lon="12.092715"><ele>35.0</ele><time>2026-03-25T12:52:19.055Z</time></trkpt><trkpt lat="44.1484467" lon="12.092775"><ele>35.0</ele><time>2026-03-25T12:52:21.056Z</time></trkpt><trkpt lat="44.1483933" lon="12.0928533"><ele>35.0</ele><time>2026-03-25T12:52:23.056Z</time></trkpt><trkpt lat="44.1483733" lon="12.0929517"><ele>35.0</ele><time>2026-03-25T12:52:25.056Z</time></trkpt><trkpt lat="44.1483433" lon="12.0930517"><ele>35.0</ele><time>2026-03-25T12:52:27.055Z</time></trkpt><trkpt lat="44.1482917" lon="12.0931633"><ele>35.0</ele><time>2026-03-25T12:52:29.055Z</time></trkpt><trkpt lat="44.1482367" lon="12.0932833"><ele>35.0</ele><time>2026-03-25T12:52:31.055Z</time></trkpt><trkpt lat="44.14818" lon="12.0934083"><ele>35.0</ele><time>2026-03-25T12:52:33.055Z</time></trkpt><trkpt lat="44.1481283" lon="12.0935333"><ele>35.0</ele><time>2026-03-25T12:52:35.056Z</time></trkpt><trkpt lat="44.14808" lon="12.0936567"><ele>36.2</ele><time>2026-03-25T12:52:37.055Z</time></trkpt><trkpt lat="44.148035" lon="12.0937867"><ele>37.4</ele><time>2026-03-25T12:52:39.056Z</time></trkpt><trkpt lat="44.147995" lon="12.0939067"><ele>38.599999999999994</ele><time>2026-03-25T12:52:41.055Z</time></trkpt><trkpt lat="44.1479517" lon="12.0940367"><ele>39.8</ele><time>2026-03-25T12:52:43.056Z</time></trkpt><trkpt lat="44.1479067" lon="12.0941733"><ele>41.0</ele><time>2026-03-25T12:52:45.056Z</time></trkpt><trkpt lat="44.147865" lon="12.0942967"><ele>41.599999999999994</ele><time>2026-03-25T12:52:47.056Z</time></trkpt><trkpt lat="44.14782" lon="12.0944233"><ele>42.2</ele><time>2026-03-25T12:52:49.055Z</time></trkpt><trkpt lat="44.1477733" lon="12.0945417"><ele>42.8</ele><time>2026-03-25T12:52:51.055Z</time></trkpt><trkpt lat="44.1477267" lon="12.0946867"><ele>43.400000000000006</ele><time>2026-03-25T12:52:53.055Z</time></trkpt><trkpt lat="44.1476867" lon="12.0948267"><ele>44.0</ele><time>2026-03-25T12:52:55.056Z</time></trkpt><trkpt lat="44.14764" lon="12.0949633"><ele>44.0</ele><time>2026-03-25T12:52:57.056Z</time></trkpt><trkpt lat="44.147595" lon="12.0950967"><ele>44.0</ele><time>2026-03-25T12:52:59.055Z</time></trkpt><trkpt lat="44.1475483" lon="12.0952283"><ele>44.0</ele><time>2026-03-25T12:53:01.056Z</time></trkpt><trkpt lat="44.14751" lon="12.09536"><ele>44.0</ele><time>2026-03-25T12:53:03.056Z</time></trkpt><trkpt lat="44.1474683" lon="12.0954967"><ele>44.0</ele><time>2026-03-25T12:53:05.055Z</time></trkpt><trkpt lat="44.1474317" lon="12.0956317"><ele>43.75</ele><time>2026-03-25T12:53:07.056Z</time></trkpt><trkpt lat="44.147385" lon="12.0957717"><ele>43.5</ele><time>2026-03-25T12:53:09.055Z</time></trkpt><trkpt lat="44.14733" lon="12.0959167"><ele>43.25</ele><time>2026-03-25T12:53:11.056Z</time></trkpt><trkpt lat="44.147275" lon="12.09606"><ele>43.0</ele><time>2026-03-25T12:53:13.056Z</time></trkpt><trkpt lat="44.14723" lon="12.0962"><ele>43.599999999999994</ele><time>2026-03-25T12:53:15.055Z</time></trkpt><trkpt lat="44.147185" lon="12.09633"><ele>44.199999999999996</ele><time>2026-03-25T12:53:17.056Z</time></trkpt><trkpt lat="44.147145" lon="12.09645"><ele>44.8</ele><time>2026-03-25T12:53:19.056Z</time></trkpt><trkpt lat="44.1471133" lon="12.0965617"><ele>45.4</ele><time>2026-03-25T12:53:21.056Z</time></trkpt><trkpt lat="44.1470917" lon="12.096685"><ele>46.0</ele><time>2026-03-25T12:53:23.056Z</time></trkpt><trkpt lat="44.1471217" lon="12.096815"><ele>46.16666666666667</ele><time>2026-03-25T12:53:25.055Z</time></trkpt><trkpt lat="44.1472267" lon="12.0968883"><ele>46.333333333333336</ele><time>2026-03-25T12:53:27.056Z</time></trkpt><trkpt lat="44.1472933" lon="12.0969033"><ele>46.5</ele><time>2026-03-25T12:53:28.056Z</time></trkpt><trkpt lat="44.1473567" lon="12.09692"><ele>46.666666666666664</ele><time>2026-03-25T12:53:29.055Z</time></trkpt><trkpt lat="44.1474233" lon="12.096935"><ele>46.83333333333333</ele><time>2026-03-25T12:53:30.056Z</time></trkpt><trkpt lat="44.1475367" lon="12.09699"><ele>47.0</ele><time>2026-03-25T12:53:32.055Z</time></trkpt><trkpt lat="44.1476217" lon="12.0971033"><ele>46.400000000000006</ele><time>2026-03-25T12:53:34.055Z</time></trkpt><trkpt lat="44.147665" lon="12.0972733"><ele>45.800000000000004</ele><time>2026-03-25T12:53:36.055Z</time></trkpt><trkpt lat="44.1476817" lon="12.0973667"><ele>45.2</ele><time>2026-03-25T12:53:37.055Z</time></trkpt><trkpt lat="44.1477233" lon="12.0975183"><ele>44.6</ele><time>2026-03-25T12:53:39.055Z</time></trkpt><trkpt lat="44.1477833" lon="12.0976483"><ele>44.0</ele><time>2026-03-25T12:53:41.056Z</time></trkpt><trkpt lat="44.1478383" lon="12.0977633"><ele>43.6</ele><time>2026-03-25T12:53:43.055Z</time></trkpt><trkpt lat="44.1478933" lon="12.0978817"><ele>43.2</ele><time>2026-03-25T12:53:45.055Z</time></trkpt><trkpt lat="44.1479483" lon="12.0980133"><ele>42.800000000000004</ele><time>2026-03-25T12:53:47.056Z</time></trkpt><trkpt lat="44.1479883" lon="12.0981817"><ele>42.400000000000006</ele><time>2026-03-25T12:53:49.056Z</time></trkpt><trkpt lat="44.1480033" lon="12.0982783"><ele>42.0</ele><time>2026-03-25T12:53:50.055Z</time></trkpt><trkpt lat="44.148015" lon="12.09838"><ele>41.833333333333336</ele><time>2026-03-25T12:53:51.056Z</time></trkpt><trkpt lat="44.1480233" lon="12.0984817"><ele>41.666666666666664</ele><time>2026-03-25T12:53:52.056Z</time></trkpt><trkpt lat="44.1480283" lon="12.0985833"><ele>41.5</ele><time>2026-03-25T12:53:53.057Z</time></trkpt><trkpt lat="44.14803" lon="12.09869"><ele>41.33333333333333</ele><time>2026-03-25T12:53:54.056Z</time></trkpt><trkpt lat="44.1480367" lon="12.0987983"><ele>41.166666666666664</ele><time>2026-03-25T12:53:55.056Z</time></trkpt><trkpt lat="44.14804" lon="12.0989033"><ele>41.0</ele><time>2026-03-25T12:53:56.057Z</time></trkpt><trkpt lat="44.1480483" lon="12.0990083"><ele>41.166666666666664</ele><time>2026-03-25T12:53:57.057Z</time></trkpt><trkpt lat="44.1480567" lon="12.0991133"><ele>41.33333333333333</ele><time>2026-03-25T12:53:58.056Z</time></trkpt><trkpt lat="44.148065" lon="12.099215"><ele>41.5</ele><time>2026-03-25T12:53:59.057Z</time></trkpt><trkpt lat="44.1480717" lon="12.099315"><ele>41.666666666666664</ele><time>2026-03-25T12:54:00.057Z</time></trkpt><trkpt lat="44.1480833" lon="12.0994033"><ele>41.833333333333336</ele><time>2026-03-25T12:54:01.057Z</time></trkpt><trkpt lat="44.14809" lon="12.099565"><ele>42.0</ele><time>2026-03-25T12:54:03.057Z</time></trkpt><trkpt lat="44.14809" lon="12.09971"><ele>42.0</ele><time>2026-03-25T12:54:05.057Z</time></trkpt><trkpt lat="44.1481017" lon="12.09985"><ele>42.0</ele><time>2026-03-25T12:54:07.057Z</time></trkpt><trkpt lat="44.1481133" lon="12.099985"><ele>42.0</ele><time>2026-03-25T12:54:09.056Z</time></trkpt><trkpt lat="44.1481067" lon="12.1000817"><ele>42.0</ele><time>2026-03-25T12:54:11.057Z</time></trkpt><trkpt lat="44.1480467" lon="12.10015"><ele>42.0</ele><time>2026-03-25T12:54:13.057Z</time></trkpt><trkpt lat="44.1479567" lon="12.1001717"><ele>42.0</ele><time>2026-03-25T12:54:15.056Z</time></trkpt><trkpt lat="44.1478633" lon="12.1001867"><ele>42.400000000000006</ele><time>2026-03-25T12:54:17.056Z</time></trkpt><trkpt lat="44.1477717" lon="12.100205"><ele>42.800000000000004</ele><time>2026-03-25T12:54:19.057Z</time></trkpt><trkpt lat="44.1476833" lon="12.100225"><ele>43.2</ele><time>2026-03-25T12:54:21.057Z</time></trkpt><trkpt lat="44.1475833" lon="12.1002583"><ele>43.6</ele><time>2026-03-25T12:54:23.057Z</time></trkpt><trkpt lat="44.14749" lon="12.1002917"><ele>44.0</ele><time>2026-03-25T12:54:25.057Z</time></trkpt><trkpt lat="44.1473967" lon="12.1003333"><ele>44.166666666666664</ele><time>2026-03-25T12:54:27.056Z</time></trkpt><trkpt lat="44.147315" lon="12.1003883"><ele>44.33333333333333</ele><time>2026-03-25T12:54:29.057Z</time></trkpt><trkpt lat="44.1472767" lon="12.1004933"><ele>44.5</ele><time>2026-03-25T12:54:31.057Z</time></trkpt><trkpt lat="44.147285" lon="12.100615"><ele>44.666666666666664</ele><time>2026-03-25T12:54:33.056Z</time></trkpt><trkpt lat="44.147295" lon="12.10073"><ele>44.833333333333336</ele><time>2026-03-25T12:54:35.057Z</time></trkpt><trkpt lat="44.1472833" lon="12.1008467"><ele>45.0</ele><time>2026-03-25T12:54:37.056Z</time></trkpt><trkpt lat="44.14727" lon="12.1009817"><ele>45.8</ele><time>2026-03-25T12:54:39.057Z</time></trkpt><trkpt lat="44.1472567" lon="12.1011133"><ele>46.6</ele><time>2026-03-25T12:54:41.057Z</time></trkpt><trkpt lat="44.147245" lon="12.101245"><ele>47.400000000000006</ele><time>2026-03-25T12:54:43.056Z</time></trkpt><trkpt lat="44.147235" lon="12.1013817"><ele>48.2</ele><time>2026-03-25T12:54:45.056Z</time></trkpt><trkpt lat="44.147225" lon="12.101515"><ele>49.0</ele><time>2026-03-25T12:54:47.057Z</time></trkpt><trkpt lat="44.1472167" lon="12.1016467"><ele>49.2</ele><time>2026-03-25T12:54:49.057Z</time></trkpt><trkpt lat="44.1472017" lon="12.101775"><ele>49.400000000000006</ele><time>2026-03-25T12:54:51.057Z</time></trkpt><trkpt lat="44.1471817" lon="12.1019083"><ele>49.6</ele><time>2026-03-25T12:54:53.057Z</time></trkpt><trkpt lat="44.147145" lon="12.10202"><ele>49.8</ele><time>2026-03-25T12:54:55.056Z</time></trkpt><trkpt lat="44.1470717" lon="12.1020817"><ele>50.0</ele><time>2026-03-25T12:54:57.057Z</time></trkpt><trkpt lat="44.14698" lon="12.102125"><ele>50.0</ele><time>2026-03-25T12:54:59.057Z</time></trkpt><trkpt lat="44.14688" lon="12.1021783"><ele>50.0</ele><time>2026-03-25T12:55:01.057Z</time></trkpt><trkpt lat="44.1467867" lon="12.1022167"><ele>50.0</ele><time>2026-03-25T12:55:03.057Z</time></trkpt><trkpt lat="44.1466983" lon="12.1022633"><ele>50.0</ele><time>2026-03-25T12:55:05.056Z</time></trkpt><trkpt lat="44.146605" lon="12.1023117"><ele>50.0</ele><time>2026-03-25T12:55:07.056Z</time></trkpt><trkpt lat="44.14652" lon="12.102355"><ele>49.8</ele><time>2026-03-25T12:55:09.056Z</time></trkpt><trkpt lat="44.146445" lon="12.1023933"><ele>49.6</ele><time>2026-03-25T12:55:11.057Z</time></trkpt><trkpt lat="44.1463583" lon="12.1024267"><ele>49.400000000000006</ele><time>2026-03-25T12:55:13.057Z</time></trkpt><trkpt lat="44.1462633" lon="12.1024717"><ele>49.2</ele><time>2026-03-25T12:55:15.057Z</time></trkpt><trkpt lat="44.1461567" lon="12.102515"><ele>49.0</ele><time>2026-03-25T12:55:17.057Z</time></trkpt><trkpt lat="44.1460583" lon="12.1025667"><ele>49.400000000000006</ele><time>2026-03-25T12:55:19.057Z</time></trkpt><trkpt lat="44.14596" lon="12.1026167"><ele>49.8</ele><time>2026-03-25T12:55:21.057Z</time></trkpt><trkpt lat="44.1458733" lon="12.1026633"><ele>50.2</ele><time>2026-03-25T12:55:23.056Z</time></trkpt><trkpt lat="44.1457883" lon="12.1026983"><ele>50.599999999999994</ele><time>2026-03-25T12:55:25.056Z</time></trkpt><trkpt lat="44.1457017" lon="12.1027433"><ele>51.0</ele><time>2026-03-25T12:55:27.056Z</time></trkpt><trkpt lat="44.1456067" lon="12.1027783"><ele>51.199999999999996</ele><time>2026-03-25T12:55:29.056Z</time></trkpt><trkpt lat="44.1455117" lon="12.10282"><ele>51.4</ele><time>2026-03-25T12:55:31.057Z</time></trkpt><trkpt lat="44.1454233" lon="12.10286"><ele>51.6</ele><time>2026-03-25T12:55:33.056Z</time></trkpt><trkpt lat="44.1452983" lon="12.1029067"><ele>51.8</ele><time>2026-03-25T12:55:36.057Z</time></trkpt><trkpt lat="44.1452317" lon="12.1029433"><ele>52.0</ele><time>2026-03-25T12:55:38.057Z</time></trkpt><trkpt lat="44.1451617" lon="12.1029833"><ele>52.0</ele><time>2026-03-25T12:55:40.057Z</time></trkpt><trkpt lat="44.1450983" lon="12.1030133"><ele>52.0</ele><time>2026-03-25T12:55:42.056Z</time></trkpt><trkpt lat="44.14503" lon="12.103035"><ele>52.0</ele><time>2026-03-25T12:55:44.057Z</time></trkpt><trkpt lat="44.1449617" lon="12.1030483"><ele>52.0</ele><time>2026-03-25T12:55:46.057Z</time></trkpt><trkpt lat="44.14489" lon="12.1030517"><ele>52.0</ele><time>2026-03-25T12:55:48.056Z</time></trkpt><trkpt lat="44.1448083" lon="12.103065"><ele>52.0</ele><time>2026-03-25T12:55:50.057Z</time></trkpt><trkpt lat="44.1447333" lon="12.1030833"><ele>52.0</ele><time>2026-03-25T12:55:52.057Z</time></trkpt><trkpt lat="44.144655" lon="12.103105"><ele>52.166666666666664</ele><time>2026-03-25T12:55:54.057Z</time></trkpt><trkpt lat="44.144575" lon="12.10312"><ele>52.33333333333333</ele><time>2026-03-25T12:55:56.056Z</time></trkpt><trkpt lat="44.1444917" lon="12.1031383"><ele>52.5</ele><time>2026-03-25T12:55:58.057Z</time></trkpt><trkpt lat="44.1444083" lon="12.10316"><ele>52.66666666666667</ele><time>2026-03-25T12:56:00.057Z</time></trkpt><trkpt lat="44.14433" lon="12.1031767"><ele>52.833333333333336</ele><time>2026-03-25T12:56:02.057Z</time></trkpt><trkpt lat="44.144245" lon="12.103185"><ele>53.0</ele><time>2026-03-25T12:56:04.057Z</time></trkpt><trkpt lat="44.144165" lon="12.103205"><ele>53.00000000000001</ele><time>2026-03-25T12:56:06.056Z</time></trkpt><trkpt lat="44.1440883" lon="12.1032183"><ele>53.0</ele><time>2026-03-25T12:56:08.056Z</time></trkpt><trkpt lat="44.144005" lon="12.1032283"><ele>53.0</ele><time>2026-03-25T12:56:10.056Z</time></trkpt><trkpt lat="44.1439217" lon="12.1032267"><ele>53.0</ele><time>2026-03-25T12:56:12.056Z</time></trkpt><trkpt lat="44.1438333" lon="12.103205"><ele>53.00000000000001</ele><time>2026-03-25T12:56:14.056Z</time></trkpt><trkpt lat="44.1437467" lon="12.1031767"><ele>53.0</ele><time>2026-03-25T12:56:16.057Z</time></trkpt><trkpt lat="44.14366" lon="12.103125"><ele>53.599999999999994</ele><time>2026-03-25T12:56:18.056Z</time></trkpt><trkpt lat="44.143575" lon="12.103075"><ele>54.199999999999996</ele><time>2026-03-25T12:56:20.056Z</time></trkpt><trkpt lat="44.1434867" lon="12.10303"><ele>54.8</ele><time>2026-03-25T12:56:22.056Z</time></trkpt><trkpt lat="44.1433983" lon="12.1029817"><ele>55.4</ele><time>2026-03-25T12:56:24.056Z</time></trkpt><trkpt lat="44.1433067" lon="12.102925"><ele>56.0</ele><time>2026-03-25T12:56:26.056Z</time></trkpt><trkpt lat="44.1432233" lon="12.10287"><ele>57.199999999999996</ele><time>2026-03-25T12:56:28.056Z</time></trkpt><trkpt lat="44.1431317" lon="12.10281"><ele>58.39999999999999</ele><time>2026-03-25T12:56:30.057Z</time></trkpt><trkpt lat="44.14305" lon="12.1027667"><ele>59.6</ele><time>2026-03-25T12:56:32.056Z</time></trkpt><trkpt lat="44.1429633" lon="12.1027133"><ele>60.8</ele><time>2026-03-25T12:56:34.056Z</time></trkpt><trkpt lat="44.1428733" lon="12.1026733"><ele>62.0</ele><time>2026-03-25T12:56:36.056Z</time></trkpt><trkpt lat="44.1427817" lon="12.1026267"><ele>62.0</ele><time>2026-03-25T12:56:38.057Z</time></trkpt><trkpt lat="44.1426983" lon="12.1025867"><ele>62.0</ele><time>2026-03-25T12:56:40.057Z</time></trkpt><trkpt lat="44.1426083" lon="12.1025433"><ele>62.0</ele><time>2026-03-25T12:56:42.056Z</time></trkpt><trkpt lat="44.142515" lon="12.1025133"><ele>62.0</ele><time>2026-03-25T12:56:44.056Z</time></trkpt><trkpt lat="44.1424217" lon="12.102475"><ele>62.0</ele><time>2026-03-25T12:56:46.057Z</time></trkpt><trkpt lat="44.1423483" lon="12.1024367"><ele>62.2</ele><time>2026-03-25T12:56:48.056Z</time></trkpt><trkpt lat="44.1422833" lon="12.1024033"><ele>62.400000000000006</ele><time>2026-03-25T12:56:50.056Z</time></trkpt><trkpt lat="44.1422417" lon="12.1023283"><ele>62.599999999999994</ele><time>2026-03-25T12:56:53.056Z</time></trkpt><trkpt lat="44.1422633" lon="12.102215"><ele>62.8</ele><time>2026-03-25T12:56:55.056Z</time></trkpt><trkpt lat="44.1423083" lon="12.102075"><ele>63.0</ele><time>2026-03-25T12:56:57.057Z</time></trkpt><trkpt lat="44.1423483" lon="12.10191"><ele>61.4</ele><time>2026-03-25T12:56:59.056Z</time></trkpt><trkpt lat="44.1423817" lon="12.1017433"><ele>59.8</ele><time>2026-03-25T12:57:01.056Z</time></trkpt><trkpt lat="44.1424317" lon="12.1015817"><ele>58.2</ele><time>2026-03-25T12:57:03.056Z</time></trkpt><trkpt lat="44.14246" lon="12.1014483"><ele>56.6</ele><time>2026-03-25T12:57:05.057Z</time></trkpt><trkpt lat="44.1424883" lon="12.1013533"><ele>55.0</ele><time>2026-03-25T12:57:07.056Z</time></trkpt><trkpt lat="44.1425083" lon="12.10127"><ele>54.166666666666664</ele><time>2026-03-25T12:57:09.057Z</time></trkpt><trkpt lat="44.1425517" lon="12.10117"><ele>53.33333333333333</ele><time>2026-03-25T12:57:12.057Z</time></trkpt><trkpt lat="44.1426033" lon="12.1010717"><ele>52.5</ele><time>2026-03-25T12:57:15.056Z</time></trkpt><trkpt lat="44.14263" lon="12.1009683"><ele>51.66666666666667</ele><time>2026-03-25T12:57:17.056Z</time></trkpt><trkpt lat="44.1426367" lon="12.1008367"><ele>50.833333333333336</ele><time>2026-03-25T12:57:19.056Z</time></trkpt><trkpt lat="44.1426183" lon="12.1007"><ele>50.0</ele><time>2026-03-25T12:57:21.056Z</time></trkpt><trkpt lat="44.1425983" lon="12.1005533"><ele>50.0</ele><time>2026-03-25T12:57:23.056Z</time></trkpt><trkpt lat="44.1425733" lon="12.1003983"><ele>50.0</ele><time>2026-03-25T12:57:25.056Z</time></trkpt><trkpt lat="44.14254" lon="12.1002433"><ele>50.0</ele><time>2026-03-25T12:57:27.057Z</time></trkpt><trkpt lat="44.1424967" lon="12.1001033"><ele>50.0</ele><time>2026-03-25T12:57:29.057Z</time></trkpt><trkpt lat="44.1424583" lon="12.0999833"><ele>50.0</ele><time>2026-03-25T12:57:31.056Z</time></trkpt><trkpt lat="44.1424267" lon="12.0998833"><ele>50.50000000000001</ele><time>2026-03-25T12:57:33.057Z</time></trkpt><trkpt lat="44.142405" lon="12.099795"><ele>51.0</ele><time>2026-03-25T12:57:35.057Z</time></trkpt><trkpt lat="44.1423817" lon="12.0997067"><ele>51.5</ele><time>2026-03-25T12:57:37.057Z</time></trkpt><trkpt lat="44.14235" lon="12.0995833"><ele>52.0</ele><time>2026-03-25T12:57:40.056Z</time></trkpt><trkpt lat="44.1423267" lon="12.0994917"><ele>52.50000000000001</ele><time>2026-03-25T12:57:42.056Z</time></trkpt><trkpt lat="44.1423117" lon="12.0993733"><ele>53.0</ele><time>2026-03-25T12:57:45.056Z</time></trkpt><trkpt lat="44.1423117" lon="12.0992717"><ele>53.00000000000001</ele><time>2026-03-25T12:57:48.056Z</time></trkpt><trkpt lat="44.1423367" lon="12.0991633"><ele>53.0</ele><time>2026-03-25T12:57:51.056Z</time></trkpt><trkpt lat="44.142365" lon="12.0990683"><ele>53.0</ele><time>2026-03-25T12:57:54.057Z</time></trkpt><trkpt lat="44.1423867" lon="12.0989617"><ele>53.0</ele><time>2026-03-25T12:57:57.056Z</time></trkpt><trkpt lat="44.1424067" lon="12.0988633"><ele>53.00000000000001</ele><time>2026-03-25T12:58:00.057Z</time></trkpt><trkpt lat="44.1424333" lon="12.0987517"><ele>53.0</ele><time>2026-03-25T12:58:03.056Z</time></trkpt><trkpt lat="44.1424567" lon="12.0986367"><ele>53.833333333333336</ele><time>2026-03-25T12:58:06.057Z</time></trkpt><trkpt lat="44.1424783" lon="12.0985417"><ele>54.66666666666667</ele><time>2026-03-25T12:58:08.056Z</time></trkpt><trkpt lat="44.1424967" lon="12.0984517"><ele>55.5</ele><time>2026-03-25T12:58:10.056Z</time></trkpt><trkpt lat="44.142525" lon="12.09835"><ele>56.33333333333333</ele><time>2026-03-25T12:58:12.057Z</time></trkpt><trkpt lat="44.1425683" lon="12.0982317"><ele>57.166666666666664</ele><time>2026-03-25T12:58:14.057Z</time></trkpt><trkpt lat="44.1426183" lon="12.0980817"><ele>58.0</ele><time>2026-03-25T12:58:16.057Z</time></trkpt><trkpt lat="44.1426617" lon="12.0979333"><ele>57.99999999999999</ele><time>2026-03-25T12:58:18.057Z</time></trkpt><trkpt lat="44.142705" lon="12.0977967"><ele>58.0</ele><time>2026-03-25T12:58:20.056Z</time></trkpt><trkpt lat="44.1427517" lon="12.0977033"><ele>58.0</ele><time>2026-03-25T12:58:22.056Z</time></trkpt><trkpt lat="44.142785" lon="12.097615"><ele>58.0</ele><time>2026-03-25T12:58:27.057Z</time></trkpt><trkpt lat="44.1427967" lon="12.0975033"><ele>57.99999999999999</ele><time>2026-03-25T12:58:31.056Z</time></trkpt><trkpt lat="44.142785" lon="12.0974117"><ele>58.0</ele><time>2026-03-25T12:58:33.056Z</time></trkpt><trkpt lat="44.1427517" lon="12.097325"><ele>57.49999999999999</ele><time>2026-03-25T12:58:35.056Z</time></trkpt><trkpt lat="44.14272" lon="12.09723"><ele>57.0</ele><time>2026-03-25T12:58:37.057Z</time></trkpt><trkpt lat="44.1426833" lon="12.0971283"><ele>56.5</ele><time>2026-03-25T12:58:39.057Z</time></trkpt><trkpt lat="44.142645" lon="12.0970167"><ele>56.0</ele><time>2026-03-25T12:58:41.057Z</time></trkpt><trkpt lat="44.1426067" lon="12.09691"><ele>55.49999999999999</ele><time>2026-03-25T12:58:43.056Z</time></trkpt><trkpt lat="44.1425617" lon="12.096785"><ele>55.0</ele><time>2026-03-25T12:58:45.057Z</time></trkpt><trkpt lat="44.142525" lon="12.0966633"><ele>55.4</ele><time>2026-03-25T12:58:47.057Z</time></trkpt><trkpt lat="44.14248" lon="12.0965433"><ele>55.8</ele><time>2026-03-25T12:58:49.056Z</time></trkpt><trkpt lat="44.14243" lon="12.0964233"><ele>56.2</ele><time>2026-03-25T12:58:51.056Z</time></trkpt><trkpt lat="44.1423767" lon="12.0963267"><ele>56.6</ele><time>2026-03-25T12:58:53.057Z</time></trkpt><trkpt lat="44.14233" lon="12.0962217"><ele>57.0</ele><time>2026-03-25T12:58:55.057Z</time></trkpt><trkpt lat="44.14229" lon="12.09612"><ele>57.5</ele><time>2026-03-25T12:58:57.056Z</time></trkpt><trkpt lat="44.142245" lon="12.0960133"><ele>58.0</ele><time>2026-03-25T12:58:59.056Z</time></trkpt><trkpt lat="44.142195" lon="12.095915"><ele>58.5</ele><time>2026-03-25T12:59:01.056Z</time></trkpt><trkpt lat="44.1421383" lon="12.0958217"><ele>59.0</ele><time>2026-03-25T12:59:03.057Z</time></trkpt><trkpt lat="44.14208" lon="12.0957233"><ele>59.5</ele><time>2026-03-25T12:59:05.057Z</time></trkpt><trkpt lat="44.1420283" lon="12.0956233"><ele>60.0</ele><time>2026-03-25T12:59:07.057Z</time></trkpt><trkpt lat="44.1419883" lon="12.095515"><ele>60.0</ele><time>2026-03-25T12:59:09.057Z</time></trkpt><trkpt lat="44.1419383" lon="12.0954067"><ele>60.0</ele><time>2026-03-25T12:59:11.056Z</time></trkpt><trkpt lat="44.1418983" lon="12.095295"><ele>60.0</ele><time>2026-03-25T12:59:13.056Z</time></trkpt><trkpt lat="44.141865" lon="12.095195"><ele>60.0</ele><time>2026-03-25T12:59:15.056Z</time></trkpt><trkpt lat="44.1418267" lon="12.0950967"><ele>60.0</ele><time>2026-03-25T12:59:17.057Z</time></trkpt><trkpt lat="44.1417917" lon="12.095"><ele>60.0</ele><time>2026-03-25T12:59:19.056Z</time></trkpt><trkpt lat="44.1417533" lon="12.0949083"><ele>60.0</ele><time>2026-03-25T12:59:21.057Z</time></trkpt><trkpt lat="44.1417117" lon="12.0948083"><ele>60.0</ele><time>2026-03-25T12:59:23.057Z</time></trkpt><trkpt lat="44.14167" lon="12.0947167"><ele>60.0</ele><time>2026-03-25T12:59:25.056Z</time></trkpt><trkpt lat="44.141635" lon="12.0946217"><ele>60.0</ele><time>2026-03-25T12:59:27.057Z</time></trkpt><trkpt lat="44.1416033" lon="12.0945267"><ele>60.0</ele><time>2026-03-25T12:59:29.057Z</time></trkpt><trkpt lat="44.14157" lon="12.0944383"><ele>60.0</ele><time>2026-03-25T12:59:31.056Z</time></trkpt><trkpt lat="44.1415417" lon="12.09434"><ele>60.85714285714286</ele><time>2026-03-25T12:59:33.056Z</time></trkpt><trkpt lat="44.1415083" lon="12.094245"><ele>61.71428571428571</ele><time>2026-03-25T12:59:35.057Z</time></trkpt><trkpt lat="44.1414683" lon="12.0941567"><ele>62.57142857142857</ele><time>2026-03-25T12:59:37.056Z</time></trkpt><trkpt lat="44.1414317" lon="12.0940733"><ele>63.42857142857143</ele><time>2026-03-25T12:59:39.056Z</time></trkpt><trkpt lat="44.1413933" lon="12.093985"><ele>64.28571428571429</ele><time>2026-03-25T12:59:41.057Z</time></trkpt><trkpt lat="44.1413633" lon="12.0938967"><ele>65.14285714285714</ele><time>2026-03-25T12:59:43.056Z</time></trkpt><trkpt lat="44.1413333" lon="12.0938183"><ele>66.0</ele><time>2026-03-25T12:59:45.056Z</time></trkpt><trkpt lat="44.1412833" lon="12.093705"><ele>66.0</ele><time>2026-03-25T12:59:48.057Z</time></trkpt><trkpt lat="44.1412333" lon="12.0935983"><ele>66.0</ele><time>2026-03-25T12:59:51.057Z</time></trkpt><trkpt lat="44.141205" lon="12.0935167"><ele>66.0</ele><time>2026-03-25T12:59:53.056Z</time></trkpt><trkpt lat="44.141175" lon="12.0934317"><ele>66.0</ele><time>2026-03-25T12:59:55.057Z</time></trkpt><trkpt lat="44.1411367" lon="12.093345"><ele>66.0</ele><time>2026-03-25T12:59:57.057Z</time></trkpt><trkpt lat="44.1411083" lon="12.0932517"><ele>66.0</ele><time>2026-03-25T12:59:59.056Z</time></trkpt><trkpt lat="44.141075" lon="12.0931667"><ele>66.0</ele><time>2026-03-25T13:00:01.056Z</time></trkpt><trkpt lat="44.1410217" lon="12.0930583"><ele>65.71428571428571</ele><time>2026-03-25T13:00:04.057Z</time></trkpt><trkpt lat="44.1409933" lon="12.09298"><ele>65.42857142857143</ele><time>2026-03-25T13:00:06.057Z</time></trkpt><trkpt lat="44.1409617" lon="12.0928967"><ele>65.14285714285714</ele><time>2026-03-25T13:00:08.056Z</time></trkpt><trkpt lat="44.1409333" lon="12.0928083"><ele>64.85714285714286</ele><time>2026-03-25T13:00:10.056Z</time></trkpt><trkpt lat="44.1408983" lon="12.0927283"><ele>64.57142857142857</ele><time>2026-03-25T13:00:12.056Z</time></trkpt><trkpt lat="44.1408633" lon="12.0926483"><ele>64.28571428571428</ele><time>2026-03-25T13:00:14.056Z</time></trkpt><trkpt lat="44.1408317" lon="12.0925633"><ele>64.0</ele><time>2026-03-25T13:00:16.056Z</time></trkpt><trkpt lat="44.1407983" lon="12.0924717"><ele>64.28571428571428</ele><time>2026-03-25T13:00:18.057Z</time></trkpt><trkpt lat="44.14076" lon="12.0923883"><ele>64.57142857142857</ele><time>2026-03-25T13:00:20.056Z</time></trkpt><trkpt lat="44.140725" lon="12.0922967"><ele>64.85714285714286</ele><time>2026-03-25T13:00:22.057Z</time></trkpt><trkpt lat="44.14069" lon="12.0922"><ele>65.14285714285714</ele><time>2026-03-25T13:00:24.057Z</time></trkpt><trkpt lat="44.1406533" lon="12.09211"><ele>65.42857142857143</ele><time>2026-03-25T13:00:26.057Z</time></trkpt><trkpt lat="44.1406117" lon="12.0920233"><ele>65.71428571428571</ele><time>2026-03-25T13:00:28.056Z</time></trkpt><trkpt lat="44.1405783" lon="12.0919267"><ele>66.0</ele><time>2026-03-25T13:00:30.057Z</time></trkpt><trkpt lat="44.1405383" lon="12.0918367"><ele>66.14285714285714</ele><time>2026-03-25T13:00:32.057Z</time></trkpt><trkpt lat="44.1405067" lon="12.09175"><ele>66.28571428571429</ele><time>2026-03-25T13:00:34.057Z</time></trkpt><trkpt lat="44.1404667" lon="12.0916633"><ele>66.42857142857143</ele><time>2026-03-25T13:00:36.057Z</time></trkpt><trkpt lat="44.1404283" lon="12.0915683"><ele>66.57142857142857</ele><time>2026-03-25T13:00:38.057Z</time></trkpt><trkpt lat="44.1403933" lon="12.0914817"><ele>66.71428571428571</ele><time>2026-03-25T13:00:40.057Z</time></trkpt><trkpt lat="44.1403633" lon="12.0913917"><ele>66.85714285714286</ele><time>2026-03-25T13:00:42.057Z</time></trkpt><trkpt lat="44.1403283" lon="12.0912933"><ele>67.0</ele><time>2026-03-25T13:00:44.057Z</time></trkpt><trkpt lat="44.1402933" lon="12.0912017"><ele>67.0</ele><time>2026-03-25T13:00:46.057Z</time></trkpt><trkpt lat="44.140265" lon="12.0911117"><ele>67.0</ele><time>2026-03-25T13:00:48.056Z</time></trkpt><trkpt lat="44.1402283" lon="12.09102"><ele>67.0</ele><time>2026-03-25T13:00:50.057Z</time></trkpt><trkpt lat="44.1401967" lon="12.0909317"><ele>67.0</ele><time>2026-03-25T13:00:52.056Z</time></trkpt><trkpt lat="44.14015" lon="12.090835"><ele>67.0</ele><time>2026-03-25T13:00:54.056Z</time></trkpt><trkpt lat="44.1401067" lon="12.090735"><ele>67.0</ele><time>2026-03-25T13:00:56.057Z</time></trkpt><trkpt lat="44.1400617" lon="12.090635"><ele>66.8</ele><time>2026-03-25T13:00:58.057Z</time></trkpt><trkpt lat="44.1400217" lon="12.0905383"><ele>66.6</ele><time>2026-03-25T13:01:00.056Z</time></trkpt><trkpt lat="44.1399767" lon="12.0904317"><ele>66.39999999999999</ele><time>2026-03-25T13:01:02.056Z</time></trkpt><trkpt lat="44.1399283" lon="12.090325"><ele>66.2</ele><time>2026-03-25T13:01:04.057Z</time></trkpt><trkpt lat="44.139875" lon="12.0902117"><ele>66.0</ele><time>2026-03-25T13:01:06.056Z</time></trkpt><trkpt lat="44.1398233" lon="12.0900967"><ele>66.0</ele><time>2026-03-25T13:01:08.056Z</time></trkpt><trkpt lat="44.1397633" lon="12.089985"><ele>66.0</ele><time>2026-03-25T13:01:10.057Z</time></trkpt><trkpt lat="44.139695" lon="12.08988"><ele>66.0</ele><time>2026-03-25T13:01:12.056Z</time></trkpt><trkpt lat="44.139615" lon="12.0897767"><ele>66.0</ele><time>2026-03-25T13:01:14.056Z</time></trkpt><trkpt lat="44.139535" lon="12.0896783"><ele>66.0</ele><time>2026-03-25T13:01:16.057Z</time></trkpt><trkpt lat="44.1394533" lon="12.08958"><ele>64.5</ele><time>2026-03-25T13:01:18.056Z</time></trkpt><trkpt lat="44.1393633" lon="12.08948"><ele>63.0</ele><time>2026-03-25T13:01:20.057Z</time></trkpt><trkpt lat="44.13927" lon="12.08939"><ele>61.5</ele><time>2026-03-25T13:01:22.057Z</time></trkpt><trkpt lat="44.13918" lon="12.08929"><ele>60.0</ele><time>2026-03-25T13:01:24.056Z</time></trkpt><trkpt lat="44.1390983" lon="12.089185"><ele>60.0</ele><time>2026-03-25T13:01:26.056Z</time></trkpt><trkpt lat="44.13901" lon="12.0890883"><ele>60.0</ele><time>2026-03-25T13:01:28.057Z</time></trkpt><trkpt lat="44.1389167" lon="12.088995"><ele>60.0</ele><time>2026-03-25T13:01:30.057Z</time></trkpt><trkpt lat="44.13883" lon="12.0889"><ele>60.0</ele><time>2026-03-25T13:01:32.057Z</time></trkpt><trkpt lat="44.1387383" lon="12.0888083"><ele>60.0</ele><time>2026-03-25T13:01:34.056Z</time></trkpt><trkpt lat="44.1386467" lon="12.0887167"><ele>60.0</ele><time>2026-03-25T13:01:36.057Z</time></trkpt><trkpt lat="44.1385667" lon="12.0886217"><ele>60.0</ele><time>2026-03-25T13:01:38.056Z</time></trkpt><trkpt lat="44.1384883" lon="12.0885517"><ele>60.0</ele><time>2026-03-25T13:01:40.057Z</time></trkpt><trkpt lat="44.1384017" lon="12.0884617"><ele>60.0</ele><time>2026-03-25T13:01:42.056Z</time></trkpt><trkpt lat="44.1383183" lon="12.0883783"><ele>60.0</ele><time>2026-03-25T13:01:44.057Z</time></trkpt><trkpt lat="44.1382383" lon="12.0882833"><ele>60.0</ele><time>2026-03-25T13:01:46.057Z</time></trkpt><trkpt lat="44.138155" lon="12.0881917"><ele>60.0</ele><time>2026-03-25T13:01:48.057Z</time></trkpt><trkpt lat="44.1380717" lon="12.0881083"><ele>60.0</ele><time>2026-03-25T13:01:50.057Z</time></trkpt><trkpt lat="44.1379917" lon="12.088015"><ele>60.0</ele><time>2026-03-25T13:01:52.056Z</time></trkpt><trkpt lat="44.1379033" lon="12.08792"><ele>60.4</ele><time>2026-03-25T13:01:54.057Z</time></trkpt><trkpt lat="44.1378117" lon="12.08783"><ele>60.8</ele><time>2026-03-25T13:01:56.056Z</time></trkpt><trkpt lat="44.1377233" lon="12.0877317"><ele>61.2</ele><time>2026-03-25T13:01:58.057Z</time></trkpt><trkpt lat="44.1376417" lon="12.08764"><ele>61.6</ele><time>2026-03-25T13:02:00.056Z</time></trkpt><trkpt lat="44.1375583" lon="12.08756"><ele>62.0</ele><time>2026-03-25T13:02:02.056Z</time></trkpt><trkpt lat="44.1374817" lon="12.0874717"><ele>62.0</ele><time>2026-03-25T13:02:04.056Z</time></trkpt><trkpt lat="44.1374" lon="12.0873833"><ele>62.0</ele><time>2026-03-25T13:02:06.056Z</time></trkpt><trkpt lat="44.137315" lon="12.0872933"><ele>62.0</ele><time>2026-03-25T13:02:08.057Z</time></trkpt><trkpt lat="44.1372217" lon="12.0872083"><ele>62.0</ele><time>2026-03-25T13:02:10.056Z</time></trkpt><trkpt lat="44.1371333" lon="12.0871217"><ele>62.0</ele><time>2026-03-25T13:02:12.057Z</time></trkpt><trkpt lat="44.1370517" lon="12.08703"><ele>62.0</ele><time>2026-03-25T13:02:14.057Z</time></trkpt><trkpt lat="44.13697" lon="12.0869467"><ele>62.0</ele><time>2026-03-25T13:02:16.056Z</time></trkpt><trkpt lat="44.13689" lon="12.0868633"><ele>62.0</ele><time>2026-03-25T13:02:18.057Z</time></trkpt><trkpt lat="44.13681" lon="12.0867717"><ele>62.0</ele><time>2026-03-25T13:02:20.057Z</time></trkpt><trkpt lat="44.13673" lon="12.086685"><ele>62.0</ele><time>2026-03-25T13:02:22.056Z</time></trkpt><trkpt lat="44.1366517" lon="12.0865983"><ele>62.0</ele><time>2026-03-25T13:02:24.057Z</time></trkpt><trkpt lat="44.1365683" lon="12.0865217"><ele>62.0</ele><time>2026-03-25T13:02:26.057Z</time></trkpt><trkpt lat="44.1364917" lon="12.0864467"><ele>62.0</ele><time>2026-03-25T13:02:28.056Z</time></trkpt><trkpt lat="44.1364167" lon="12.0863683"><ele>62.0</ele><time>2026-03-25T13:02:30.057Z</time></trkpt><trkpt lat="44.1363433" lon="12.0862917"><ele>62.0</ele><time>2026-03-25T13:02:32.056Z</time></trkpt><trkpt lat="44.1362633" lon="12.0862067"><ele>62.0</ele><time>2026-03-25T13:02:34.057Z</time></trkpt><trkpt lat="44.1361867" lon="12.0861183"><ele>62.0</ele><time>2026-03-25T13:02:36.056Z</time></trkpt><trkpt lat="44.1361033" lon="12.0860333"><ele>62.0</ele><time>2026-03-25T13:02:38.057Z</time></trkpt><trkpt lat="44.1360217" lon="12.0859483"><ele>62.0</ele><time>2026-03-25T13:02:40.057Z</time></trkpt><trkpt lat="44.1359383" lon="12.0858617"><ele>62.0</ele><time>2026-03-25T13:02:42.057Z</time></trkpt><trkpt lat="44.1358583" lon="12.0857683"><ele>62.2</ele><time>2026-03-25T13:02:44.057Z</time></trkpt><trkpt lat="44.1357783" lon="12.0856767"><ele>62.400000000000006</ele><time>2026-03-25T13:02:46.056Z</time></trkpt><trkpt lat="44.1356933" lon="12.085595"><ele>62.599999999999994</ele><time>2026-03-25T13:02:48.056Z</time></trkpt><trkpt lat="44.1356133" lon="12.0855117"><ele>62.8</ele><time>2026-03-25T13:02:50.056Z</time></trkpt><trkpt lat="44.13553" lon="12.085425"><ele>63.0</ele><time>2026-03-25T13:02:52.057Z</time></trkpt><trkpt lat="44.1354467" lon="12.0853433"><ele>63.0</ele><time>2026-03-25T13:02:54.057Z</time></trkpt><trkpt lat="44.135365" lon="12.08526"><ele>63.0</ele><time>2026-03-25T13:02:56.056Z</time></trkpt><trkpt lat="44.1352867" lon="12.0851717"><ele>63.0</ele><time>2026-03-25T13:02:58.056Z</time></trkpt><trkpt lat="44.135205" lon="12.0850817"><ele>63.0</ele><time>2026-03-25T13:03:00.057Z</time></trkpt><trkpt lat="44.135125" lon="12.084995"><ele>63.0</ele><time>2026-03-25T13:03:02.056Z</time></trkpt><trkpt lat="44.1350483" lon="12.0849033"><ele>62.4</ele><time>2026-03-25T13:03:04.056Z</time></trkpt><trkpt lat="44.13497" lon="12.08481"><ele>61.8</ele><time>2026-03-25T13:03:06.056Z</time></trkpt><trkpt lat="44.134895" lon="12.0847183"><ele>61.2</ele><time>2026-03-25T13:03:08.056Z</time></trkpt><trkpt lat="44.134815" lon="12.084625"><ele>60.6</ele><time>2026-03-25T13:03:10.057Z</time></trkpt><trkpt lat="44.1347433" lon="12.084525"><ele>60.0</ele><time>2026-03-25T13:03:12.057Z</time></trkpt><trkpt lat="44.1346767" lon="12.084415"><ele>60.4</ele><time>2026-03-25T13:03:14.057Z</time></trkpt><trkpt lat="44.1346083" lon="12.0843167"><ele>60.8</ele><time>2026-03-25T13:03:16.056Z</time></trkpt><trkpt lat="44.1345467" lon="12.0842083"><ele>61.2</ele><time>2026-03-25T13:03:18.057Z</time></trkpt><trkpt lat="44.134485" lon="12.0841067"><ele>61.6</ele><time>2026-03-25T13:03:20.056Z</time></trkpt><trkpt lat="44.1344333" lon="12.0840067"><ele>62.0</ele><time>2026-03-25T13:03:22.057Z</time></trkpt><trkpt lat="44.1343883" lon="12.0839"><ele>62.0</ele><time>2026-03-25T13:03:24.057Z</time></trkpt><trkpt lat="44.1343483" lon="12.0837867"><ele>62.0</ele><time>2026-03-25T13:03:26.056Z</time></trkpt><trkpt lat="44.1343167" lon="12.0836567"><ele>62.0</ele><time>2026-03-25T13:03:28.056Z</time></trkpt><trkpt lat="44.1342783" lon="12.08352"><ele>62.0</ele><time>2026-03-25T13:03:30.057Z</time></trkpt><trkpt lat="44.1342417" lon="12.083385"><ele>62.0</ele><time>2026-03-25T13:03:32.056Z</time></trkpt><trkpt lat="44.1342067" lon="12.083245"><ele>62.25</ele><time>2026-03-25T13:03:34.057Z</time></trkpt><trkpt lat="44.1341617" lon="12.0831033"><ele>62.5</ele><time>2026-03-25T13:03:36.057Z</time></trkpt><trkpt lat="44.13412" lon="12.0829533"><ele>62.75</ele><time>2026-03-25T13:03:38.056Z</time></trkpt><trkpt lat="44.1340733" lon="12.0827967"><ele>63.0</ele><time>2026-03-25T13:03:40.057Z</time></trkpt><trkpt lat="44.13402" lon="12.082645"><ele>63.0</ele><time>2026-03-25T13:03:42.056Z</time></trkpt><trkpt lat="44.133975" lon="12.0824867"><ele>63.0</ele><time>2026-03-25T13:03:44.057Z</time></trkpt><trkpt lat="44.1339467" lon="12.082405"><ele>63.0</ele><time>2026-03-25T13:03:45.056Z</time></trkpt><trkpt lat="44.1339233" lon="12.0823183"><ele>63.0</ele><time>2026-03-25T13:03:46.057Z</time></trkpt><trkpt lat="44.1338967" lon="12.082235"><ele>63.0</ele><time>2026-03-25T13:03:47.057Z</time></trkpt><trkpt lat="44.1338683" lon="12.08215"><ele>63.0</ele><time>2026-03-25T13:03:48.056Z</time></trkpt><trkpt lat="44.1338433" lon="12.082065"><ele>62.599999999999994</ele><time>2026-03-25T13:03:49.057Z</time></trkpt><trkpt lat="44.1338167" lon="12.0819817"><ele>62.199999999999996</ele><time>2026-03-25T13:03:50.057Z</time></trkpt><trkpt lat="44.1337917" lon="12.0819"><ele>61.8</ele><time>2026-03-25T13:03:51.057Z</time></trkpt><trkpt lat="44.1337383" lon="12.08175"><ele>61.4</ele><time>2026-03-25T13:03:53.057Z</time></trkpt><trkpt lat="44.1336933" lon="12.0816"><ele>61.0</ele><time>2026-03-25T13:03:55.056Z</time></trkpt><trkpt lat="44.1336567" lon="12.081445"><ele>60.666666666666664</ele><time>2026-03-25T13:03:57.056Z</time></trkpt><trkpt lat="44.1336117" lon="12.0812733"><ele>60.33333333333333</ele><time>2026-03-25T13:03:59.056Z</time></trkpt><trkpt lat="44.1335917" lon="12.0811817"><ele>60.0</ele><time>2026-03-25T13:04:00.057Z</time></trkpt><trkpt lat="44.1335683" lon="12.0810833"><ele>59.66666666666667</ele><time>2026-03-25T13:04:01.056Z</time></trkpt><trkpt lat="44.1335383" lon="12.0809983"><ele>59.333333333333336</ele><time>2026-03-25T13:04:02.057Z</time></trkpt><trkpt lat="44.1335167" lon="12.0809117"><ele>59.0</ele><time>2026-03-25T13:04:03.056Z</time></trkpt><trkpt lat="44.1334567" lon="12.080755"><ele>58.16666666666667</ele><time>2026-03-25T13:04:05.057Z</time></trkpt><trkpt lat="44.1334183" lon="12.080665"><ele>57.333333333333336</ele><time>2026-03-25T13:04:06.057Z</time></trkpt><trkpt lat="44.1333833" lon="12.0805567"><ele>56.5</ele><time>2026-03-25T13:04:07.056Z</time></trkpt><trkpt lat="44.133355" lon="12.08045"><ele>55.66666666666667</ele><time>2026-03-25T13:04:08.056Z</time></trkpt><trkpt lat="44.133325" lon="12.08034"><ele>54.833333333333336</ele><time>2026-03-25T13:04:09.056Z</time></trkpt><trkpt lat="44.1333" lon="12.0802317"><ele>54.0</ele><time>2026-03-25T13:04:10.056Z</time></trkpt><trkpt lat="44.133275" lon="12.0801267"><ele>54.0</ele><time>2026-03-25T13:04:11.057Z</time></trkpt><trkpt lat="44.1332483" lon="12.080025"><ele>54.00000000000001</ele><time>2026-03-25T13:04:12.056Z</time></trkpt><trkpt lat="44.1332233" lon="12.0799333"><ele>54.00000000000001</ele><time>2026-03-25T13:04:13.056Z</time></trkpt><trkpt lat="44.1331817" lon="12.0797867"><ele>54.0</ele><time>2026-03-25T13:04:15.056Z</time></trkpt><trkpt lat="44.13314" lon="12.079645"><ele>54.0</ele><time>2026-03-25T13:04:17.057Z</time></trkpt><trkpt lat="44.1331033" lon="12.0795183"><ele>54.833333333333336</ele><time>2026-03-25T13:04:19.056Z</time></trkpt><trkpt lat="44.1330733" lon="12.079415"><ele>55.66666666666667</ele><time>2026-03-25T13:04:21.057Z</time></trkpt><trkpt lat="44.133045" lon="12.0793217"><ele>56.5</ele><time>2026-03-25T13:04:23.057Z</time></trkpt><trkpt lat="44.133015" lon="12.0792283"><ele>57.333333333333336</ele><time>2026-03-25T13:04:25.056Z</time></trkpt><trkpt lat="44.1329817" lon="12.0791267"><ele>58.16666666666667</ele><time>2026-03-25T13:04:27.057Z</time></trkpt><trkpt lat="44.1329517" lon="12.07902"><ele>59.0</ele><time>2026-03-25T13:04:29.056Z</time></trkpt><trkpt lat="44.1329217" lon="12.0789117"><ele>59.0</ele><time>2026-03-25T13:04:31.056Z</time></trkpt><trkpt lat="44.132885" lon="12.0787883"><ele>59.00000000000001</ele><time>2026-03-25T13:04:33.057Z</time></trkpt><trkpt lat="44.1328483" lon="12.0786567"><ele>59.00000000000001</ele><time>2026-03-25T13:04:35.056Z</time></trkpt><trkpt lat="44.1328117" lon="12.0785317"><ele>59.0</ele><time>2026-03-25T13:04:37.057Z</time></trkpt><trkpt lat="44.1327783" lon="12.0784017"><ele>59.0</ele><time>2026-03-25T13:04:39.057Z</time></trkpt><trkpt lat="44.132745" lon="12.07827"><ele>58.800000000000004</ele><time>2026-03-25T13:04:41.057Z</time></trkpt><trkpt lat="44.1327017" lon="12.0781417"><ele>58.60000000000001</ele><time>2026-03-25T13:04:43.057Z</time></trkpt><trkpt lat="44.13266" lon="12.078015"><ele>58.4</ele><time>2026-03-25T13:04:45.057Z</time></trkpt><trkpt lat="44.1326267" lon="12.077885"><ele>58.2</ele><time>2026-03-25T13:04:47.056Z</time></trkpt><trkpt lat="44.13259" lon="12.077755"><ele>58.0</ele><time>2026-03-25T13:04:49.057Z</time></trkpt><trkpt lat="44.132555" lon="12.0776283"><ele>58.0</ele><time>2026-03-25T13:04:51.057Z</time></trkpt><trkpt lat="44.1325167" lon="12.077505"><ele>58.0</ele><time>2026-03-25T13:04:53.056Z</time></trkpt><trkpt lat="44.1324767" lon="12.077375"><ele>58.0</ele><time>2026-03-25T13:04:55.056Z</time></trkpt><trkpt lat="44.13244" lon="12.0772383"><ele>58.0</ele><time>2026-03-25T13:04:57.056Z</time></trkpt><trkpt lat="44.1324033" lon="12.0771033"><ele>58.0</ele><time>2026-03-25T13:04:59.057Z</time></trkpt><trkpt lat="44.132365" lon="12.0769683"><ele>58.4</ele><time>2026-03-25T13:05:01.057Z</time></trkpt><trkpt lat="44.1323233" lon="12.0768283"><ele>58.8</ele><time>2026-03-25T13:05:03.056Z</time></trkpt><trkpt lat="44.13228" lon="12.076695"><ele>59.2</ele><time>2026-03-25T13:05:05.057Z</time></trkpt><trkpt lat="44.13224" lon="12.0765517"><ele>59.6</ele><time>2026-03-25T13:05:07.057Z</time></trkpt><trkpt lat="44.132195" lon="12.0764067"><ele>60.0</ele><time>2026-03-25T13:05:09.056Z</time></trkpt><trkpt lat="44.13215" lon="12.07626"><ele>60.2</ele><time>2026-03-25T13:05:11.056Z</time></trkpt><trkpt lat="44.13211" lon="12.07612"><ele>60.4</ele><time>2026-03-25T13:05:13.057Z</time></trkpt><trkpt lat="44.132065" lon="12.0759817"><ele>60.599999999999994</ele><time>2026-03-25T13:05:15.056Z</time></trkpt><trkpt lat="44.1320267" lon="12.0758433"><ele>60.8</ele><time>2026-03-25T13:05:17.057Z</time></trkpt><trkpt lat="44.13198" lon="12.0757"><ele>61.0</ele><time>2026-03-25T13:05:19.057Z</time></trkpt><trkpt lat="44.13194" lon="12.07558"><ele>60.199999999999996</ele><time>2026-03-25T13:05:21.056Z</time></trkpt><trkpt lat="44.1319033" lon="12.0754433"><ele>59.39999999999999</ele><time>2026-03-25T13:05:23.057Z</time></trkpt><trkpt lat="44.1318633" lon="12.0753133"><ele>58.6</ele><time>2026-03-25T13:05:25.056Z</time></trkpt><trkpt lat="44.1318267" lon="12.075175"><ele>57.8</ele><time>2026-03-25T13:05:27.057Z</time></trkpt><trkpt lat="44.1317883" lon="12.075035"><ele>57.0</ele><time>2026-03-25T13:05:29.057Z</time></trkpt><trkpt lat="44.1317533" lon="12.074885"><ele>56.25</ele><time>2026-03-25T13:05:31.056Z</time></trkpt><trkpt lat="44.13171" lon="12.0747417"><ele>55.5</ele><time>2026-03-25T13:05:33.057Z</time></trkpt><trkpt lat="44.1316667" lon="12.0746"><ele>54.75</ele><time>2026-03-25T13:05:35.057Z</time></trkpt><trkpt lat="44.1316067" lon="12.07447"><ele>54.0</ele><time>2026-03-25T13:05:37.056Z</time></trkpt><trkpt lat="44.1315383" lon="12.0743383"><ele>53.75</ele><time>2026-03-25T13:05:39.057Z</time></trkpt><trkpt lat="44.13146" lon="12.07422"><ele>53.5</ele><time>2026-03-25T13:05:41.057Z</time></trkpt><trkpt lat="44.1313817" lon="12.0740933"><ele>53.25</ele><time>2026-03-25T13:05:43.057Z</time></trkpt><trkpt lat="44.131305" lon="12.07398"><ele>53.0</ele><time>2026-03-25T13:05:45.057Z</time></trkpt><trkpt lat="44.131235" lon="12.07385"><ele>52.75</ele><time>2026-03-25T13:05:47.057Z</time></trkpt><trkpt lat="44.1311667" lon="12.0737167"><ele>52.5</ele><time>2026-03-25T13:05:49.056Z</time></trkpt><trkpt lat="44.131105" lon="12.07359"><ele>52.25</ele><time>2026-03-25T13:05:51.057Z</time></trkpt><trkpt lat="44.1310417" lon="12.0734567"><ele>52.0</ele><time>2026-03-25T13:05:53.056Z</time></trkpt><trkpt lat="44.1309733" lon="12.0733233"><ele>51.8</ele><time>2026-03-25T13:05:55.056Z</time></trkpt><trkpt lat="44.1309067" lon="12.0731917"><ele>51.6</ele><time>2026-03-25T13:05:57.056Z</time></trkpt><trkpt lat="44.1308683" lon="12.0731183"><ele>51.4</ele><time>2026-03-25T13:05:58.057Z</time></trkpt><trkpt lat="44.1308033" lon="12.0729767"><ele>51.199999999999996</ele><time>2026-03-25T13:06:00.056Z</time></trkpt><trkpt lat="44.1307333" lon="12.0728417"><ele>51.0</ele><time>2026-03-25T13:06:02.057Z</time></trkpt><trkpt lat="44.1306683" lon="12.0727083"><ele>50.199999999999996</ele><time>2026-03-25T13:06:04.056Z</time></trkpt><trkpt lat="44.13061" lon="12.0725533"><ele>49.4</ele><time>2026-03-25T13:06:06.056Z</time></trkpt><trkpt lat="44.1305433" lon="12.0724133"><ele>48.6</ele><time>2026-03-25T13:06:08.057Z</time></trkpt><trkpt lat="44.1305083" lon="12.0723367"><ele>47.8</ele><time>2026-03-25T13:06:09.057Z</time></trkpt><trkpt lat="44.1304433" lon="12.0721967"><ele>47.0</ele><time>2026-03-25T13:06:11.056Z</time></trkpt><trkpt lat="44.1303783" lon="12.0720533"><ele>47.0</ele><time>2026-03-25T13:06:13.057Z</time></trkpt><trkpt lat="44.130315" lon="12.0719067"><ele>47.0</ele><time>2026-03-25T13:06:15.057Z</time></trkpt><trkpt lat="44.1302783" lon="12.0718267"><ele>47.0</ele><time>2026-03-25T13:06:16.057Z</time></trkpt><trkpt lat="44.1302417" lon="12.07175"><ele>47.0</ele><time>2026-03-25T13:06:17.057Z</time></trkpt><trkpt lat="44.1302033" lon="12.0716767"><ele>47.0</ele><time>2026-03-25T13:06:18.056Z</time></trkpt><trkpt lat="44.1301683" lon="12.071595"><ele>47.0</ele><time>2026-03-25T13:06:19.056Z</time></trkpt><trkpt lat="44.1301383" lon="12.0715133"><ele>46.857142857142854</ele><time>2026-03-25T13:06:20.056Z</time></trkpt><trkpt lat="44.130105" lon="12.0714317"><ele>46.71428571428571</ele><time>2026-03-25T13:06:21.057Z</time></trkpt><trkpt lat="44.13007" lon="12.0713483"><ele>46.57142857142857</ele><time>2026-03-25T13:06:22.057Z</time></trkpt><trkpt lat="44.1300317" lon="12.0712617"><ele>46.42857142857143</ele><time>2026-03-25T13:06:23.057Z</time></trkpt><trkpt lat="44.1299767" lon="12.0711883"><ele>46.285714285714285</ele><time>2026-03-25T13:06:24.057Z</time></trkpt><trkpt lat="44.1299117" lon="12.07113"><ele>46.142857142857146</ele><time>2026-03-25T13:06:25.056Z</time></trkpt><trkpt lat="44.129835" lon="12.0710917"><ele>46.0</ele><time>2026-03-25T13:06:26.056Z</time></trkpt><trkpt lat="44.1297533" lon="12.0710783"><ele>45.833333333333336</ele><time>2026-03-25T13:06:27.057Z</time></trkpt><trkpt lat="44.1296667" lon="12.071085"><ele>45.66666666666667</ele><time>2026-03-25T13:06:28.056Z</time></trkpt><trkpt lat="44.1295833" lon="12.0711133"><ele>45.5</ele><time>2026-03-25T13:06:29.056Z</time></trkpt><trkpt lat="44.1295083" lon="12.071165"><ele>45.333333333333336</ele><time>2026-03-25T13:06:30.057Z</time></trkpt><trkpt lat="44.129445" lon="12.07122"><ele>45.166666666666664</ele><time>2026-03-25T13:06:31.057Z</time></trkpt><trkpt lat="44.1293783" lon="12.071275"><ele>45.0</ele><time>2026-03-25T13:06:32.057Z</time></trkpt><trkpt lat="44.1293083" lon="12.0713383"><ele>45.0</ele><time>2026-03-25T13:06:33.056Z</time></trkpt><trkpt lat="44.1292417" lon="12.0714017"><ele>45.0</ele><time>2026-03-25T13:06:34.056Z</time></trkpt><trkpt lat="44.12918" lon="12.0714683"><ele>45.0</ele><time>2026-03-25T13:06:35.057Z</time></trkpt><trkpt lat="44.1291267" lon="12.0715183"><ele>45.0</ele><time>2026-03-25T13:06:36.056Z</time></trkpt><trkpt lat="44.1290383" lon="12.0715967"><ele>45.0</ele><time>2026-03-25T13:06:38.057Z</time></trkpt><trkpt lat="44.1289483" lon="12.07167"><ele>45.0</ele><time>2026-03-25T13:06:40.057Z</time></trkpt><trkpt lat="44.1288833" lon="12.07178"><ele>45.8</ele><time>2026-03-25T13:06:42.056Z</time></trkpt><trkpt lat="44.1288383" lon="12.071895"><ele>46.6</ele><time>2026-03-25T13:06:44.057Z</time></trkpt><trkpt lat="44.12878" lon="12.0720067"><ele>47.400000000000006</ele><time>2026-03-25T13:06:46.056Z</time></trkpt><trkpt lat="44.1287317" lon="12.07214"><ele>48.2</ele><time>2026-03-25T13:06:48.056Z</time></trkpt><trkpt lat="44.1286767" lon="12.0722667"><ele>49.0</ele><time>2026-03-25T13:06:50.056Z</time></trkpt><trkpt lat="44.12862" lon="12.07239"><ele>49.0</ele><time>2026-03-25T13:06:52.057Z</time></trkpt><trkpt lat="44.128565" lon="12.0725167"><ele>49.0</ele><time>2026-03-25T13:06:54.057Z</time></trkpt><trkpt lat="44.12849" lon="12.0725817"><ele>49.0</ele><time>2026-03-25T13:06:56.056Z</time></trkpt><trkpt lat="44.1283967" lon="12.0725633"><ele>49.0</ele><time>2026-03-25T13:06:58.057Z</time></trkpt><trkpt lat="44.1282933" lon="12.0724783"><ele>49.0</ele><time>2026-03-25T13:07:00.056Z</time></trkpt><trkpt lat="44.1281983" lon="12.072395"><ele>49.400000000000006</ele><time>2026-03-25T13:07:02.057Z</time></trkpt><trkpt lat="44.1281" lon="12.0723267"><ele>49.8</ele><time>2026-03-25T13:07:04.057Z</time></trkpt><trkpt lat="44.128" lon="12.0722433"><ele>50.2</ele><time>2026-03-25T13:07:06.057Z</time></trkpt><trkpt lat="44.127915" lon="12.0721517"><ele>50.599999999999994</ele><time>2026-03-25T13:07:08.056Z</time></trkpt><trkpt lat="44.1278267" lon="12.0720717"><ele>51.0</ele><time>2026-03-25T13:07:10.057Z</time></trkpt><trkpt lat="44.127735" lon="12.0719817"><ele>51.0</ele><time>2026-03-25T13:07:12.056Z</time></trkpt><trkpt lat="44.1276517" lon="12.07192"><ele>51.0</ele><time>2026-03-25T13:07:14.057Z</time></trkpt><trkpt lat="44.1275767" lon="12.0718567"><ele>51.0</ele><time>2026-03-25T13:07:16.057Z</time></trkpt><trkpt lat="44.1274933" lon="12.0717767"><ele>51.0</ele><time>2026-03-25T13:07:18.057Z</time></trkpt><trkpt lat="44.1274033" lon="12.0717033"><ele>51.0</ele><time>2026-03-25T13:07:20.057Z</time></trkpt><trkpt lat="44.1273133" lon="12.0716317"><ele>51.0</ele><time>2026-03-25T13:07:22.057Z</time></trkpt><trkpt lat="44.127225" lon="12.0715533"><ele>51.0</ele><time>2026-03-25T13:07:24.056Z</time></trkpt><trkpt lat="44.1271417" lon="12.07148"><ele>51.0</ele><time>2026-03-25T13:07:26.057Z</time></trkpt><trkpt lat="44.1270583" lon="12.071405"><ele>51.0</ele><time>2026-03-25T13:07:28.056Z</time></trkpt><trkpt lat="44.126975" lon="12.0713333"><ele>51.0</ele><time>2026-03-25T13:07:30.057Z</time></trkpt><trkpt lat="44.1269" lon="12.07125"><ele>51.0</ele><time>2026-03-25T13:07:32.056Z</time></trkpt><trkpt lat="44.1268467" lon="12.0711567"><ele>51.0</ele><time>2026-03-25T13:07:34.057Z</time></trkpt><trkpt lat="44.126815" lon="12.0710383"><ele>51.0</ele><time>2026-03-25T13:07:36.057Z</time></trkpt><trkpt lat="44.12681" lon="12.0709117"><ele>51.0</ele><time>2026-03-25T13:07:38.057Z</time></trkpt><trkpt lat="44.1268017" lon="12.07078"><ele>51.0</ele><time>2026-03-25T13:07:40.056Z</time></trkpt><trkpt lat="44.1268" lon="12.0706683"><ele>51.0</ele><time>2026-03-25T13:07:42.057Z</time></trkpt><trkpt lat="44.126795" lon="12.0705333"><ele>51.0</ele><time>2026-03-25T13:07:44.057Z</time></trkpt><trkpt lat="44.1267983" lon="12.07041"><ele>51.0</ele><time>2026-03-25T13:07:46.057Z</time></trkpt><trkpt lat="44.1268033" lon="12.0703133"><ele>51.0</ele><time>2026-03-25T13:07:48.057Z</time></trkpt><trkpt lat="44.1268083" lon="12.0702133"><ele>51.0</ele><time>2026-03-25T13:07:50.057Z</time></trkpt><trkpt lat="44.1268067" lon="12.0700983"><ele>51.0</ele><time>2026-03-25T13:07:52.056Z</time></trkpt><trkpt lat="44.1268117" lon="12.0699717"><ele>51.0</ele><time>2026-03-25T13:07:54.057Z</time></trkpt><trkpt lat="44.12683" lon="12.06983"><ele>51.199999999999996</ele><time>2026-03-25T13:07:56.057Z</time></trkpt><trkpt lat="44.1268383" lon="12.069695"><ele>51.4</ele><time>2026-03-25T13:07:58.056Z</time></trkpt><trkpt lat="44.1268517" lon="12.0695567"><ele>51.6</ele><time>2026-03-25T13:08:00.056Z</time></trkpt><trkpt lat="44.1268733" lon="12.0694317"><ele>51.8</ele><time>2026-03-25T13:08:02.057Z</time></trkpt><trkpt lat="44.1268767" lon="12.0693"><ele>52.0</ele><time>2026-03-25T13:08:04.056Z</time></trkpt><trkpt lat="44.1268817" lon="12.0691633"><ele>51.8</ele><time>2026-03-25T13:08:06.057Z</time></trkpt><trkpt lat="44.1268883" lon="12.0690183"><ele>51.6</ele><time>2026-03-25T13:08:08.056Z</time></trkpt><trkpt lat="44.1269" lon="12.0688817"><ele>51.4</ele><time>2026-03-25T13:08:10.057Z</time></trkpt><trkpt lat="44.1269033" lon="12.06875"><ele>51.199999999999996</ele><time>2026-03-25T13:08:12.056Z</time></trkpt><trkpt lat="44.1268933" lon="12.0686317"><ele>51.0</ele><time>2026-03-25T13:08:14.057Z</time></trkpt><trkpt lat="44.1268483" lon="12.0685633"><ele>51.0</ele><time>2026-03-25T13:08:16.057Z</time></trkpt><trkpt lat="44.1267833" lon="12.0685333"><ele>51.0</ele><time>2026-03-25T13:08:18.056Z</time></trkpt><trkpt lat="44.1267067" lon="12.0685033"><ele>51.0</ele><time>2026-03-25T13:08:20.057Z</time></trkpt><trkpt lat="44.12661" lon="12.0684783"><ele>51.0</ele><time>2026-03-25T13:08:22.057Z</time></trkpt><trkpt lat="44.126515" lon="12.068455"><ele>51.0</ele><time>2026-03-25T13:08:24.057Z</time></trkpt><trkpt lat="44.1264183" lon="12.0684367"><ele>51.0</ele><time>2026-03-25T13:08:26.057Z</time></trkpt><trkpt lat="44.1263117" lon="12.0684133"><ele>50.833333333333336</ele><time>2026-03-25T13:08:28.057Z</time></trkpt><trkpt lat="44.1262183" lon="12.06837"><ele>50.66666666666667</ele><time>2026-03-25T13:08:30.056Z</time></trkpt><trkpt lat="44.12614" lon="12.068315"><ele>50.5</ele><time>2026-03-25T13:08:32.057Z</time></trkpt><trkpt lat="44.1260667" lon="12.0682633"><ele>50.333333333333336</ele><time>2026-03-25T13:08:34.057Z</time></trkpt><trkpt lat="44.126" lon="12.068205"><ele>50.16666666666667</ele><time>2026-03-25T13:08:36.057Z</time></trkpt><trkpt lat="44.12593" lon="12.06821"><ele>50.0</ele><time>2026-03-25T13:08:39.056Z</time></trkpt><trkpt lat="44.1259733" lon="12.0682867"><ele>50.00000000000001</ele><time>2026-03-25T13:08:42.056Z</time></trkpt><trkpt lat="44.126045" lon="12.06832"><ele>50.0</ele><time>2026-03-25T13:08:44.057Z</time></trkpt><trkpt lat="44.1261267" lon="12.0683583"><ele>50.0</ele><time>2026-03-25T13:08:46.057Z</time></trkpt><trkpt lat="44.1261983" lon="12.06841"><ele>50.0</ele><time>2026-03-25T13:08:48.057Z</time></trkpt><trkpt lat="44.1262783" lon="12.0684433"><ele>50.00000000000001</ele><time>2026-03-25T13:08:50.056Z</time></trkpt><trkpt lat="44.1263667" lon="12.0684617"><ele>50.0</ele><time>2026-03-25T13:08:52.056Z</time></trkpt><trkpt lat="44.1264583" lon="12.06849"><ele>50.00000000000001</ele><time>2026-03-25T13:08:54.057Z</time></trkpt><trkpt lat="44.126555" lon="12.06852"><ele>50.0</ele><time>2026-03-25T13:08:56.056Z</time></trkpt><trkpt lat="44.12665" lon="12.06855"><ele>50.0</ele><time>2026-03-25T13:08:58.056Z</time></trkpt><trkpt lat="44.1267333" lon="12.0685717"><ele>50.0</ele><time>2026-03-25T13:09:00.056Z</time></trkpt><trkpt lat="44.1268083" lon="12.0685717"><ele>50.00000000000001</ele><time>2026-03-25T13:09:02.057Z</time></trkpt><trkpt lat="44.1268767" lon="12.06855"><ele>50.0</ele><time>2026-03-25T13:09:04.057Z</time></trkpt><trkpt lat="44.1269117" lon="12.0684733"><ele>50.2</ele><time>2026-03-25T13:09:06.057Z</time></trkpt><trkpt lat="44.1269267" lon="12.0683667"><ele>50.4</ele><time>2026-03-25T13:09:08.057Z</time></trkpt><trkpt lat="44.12694" lon="12.0682417"><ele>50.599999999999994</ele><time>2026-03-25T13:09:10.057Z</time></trkpt><trkpt lat="44.12694" lon="12.0680933"><ele>50.8</ele><time>2026-03-25T13:09:12.056Z</time></trkpt><trkpt lat="44.1269383" lon="12.0679383"><ele>51.0</ele><time>2026-03-25T13:09:14.057Z</time></trkpt><trkpt lat="44.1269433" lon="12.06779"><ele>51.4</ele><time>2026-03-25T13:09:16.057Z</time></trkpt><trkpt lat="44.1269417" lon="12.0676667"><ele>51.8</ele><time>2026-03-25T13:09:18.057Z</time></trkpt><trkpt lat="44.12694" lon="12.0675283"><ele>52.199999999999996</ele><time>2026-03-25T13:09:20.057Z</time></trkpt><trkpt lat="44.1269417" lon="12.0673767"><ele>52.599999999999994</ele><time>2026-03-25T13:09:22.056Z</time></trkpt><trkpt lat="44.1269367" lon="12.0672233"><ele>53.0</ele><time>2026-03-25T13:09:24.056Z</time></trkpt><trkpt lat="44.126925" lon="12.067085"><ele>53.0</ele><time>2026-03-25T13:09:26.056Z</time></trkpt><trkpt lat="44.1269167" lon="12.06694"><ele>53.0</ele><time>2026-03-25T13:09:28.056Z</time></trkpt><trkpt lat="44.1269183" lon="12.0668067"><ele>53.0</ele><time>2026-03-25T13:09:30.057Z</time></trkpt><trkpt lat="44.12692" lon="12.06667"><ele>53.0</ele><time>2026-03-25T13:09:32.056Z</time></trkpt><trkpt lat="44.1269167" lon="12.0665433"><ele>53.0</ele><time>2026-03-25T13:09:34.057Z</time></trkpt><trkpt lat="44.1269117" lon="12.06641"><ele>53.25</ele><time>2026-03-25T13:09:36.056Z</time></trkpt><trkpt lat="44.12691" lon="12.0662567"><ele>53.5</ele><time>2026-03-25T13:09:38.056Z</time></trkpt><trkpt lat="44.1269033" lon="12.0661017"><ele>53.75</ele><time>2026-03-25T13:09:40.057Z</time></trkpt><trkpt lat="44.1269033" lon="12.0659417"><ele>54.0</ele><time>2026-03-25T13:09:42.056Z</time></trkpt><trkpt lat="44.1268967" lon="12.0657583"><ele>54.0</ele><time>2026-03-25T13:09:44.056Z</time></trkpt><trkpt lat="44.1268933" lon="12.065605"><ele>54.00000000000001</ele><time>2026-03-25T13:09:46.057Z</time></trkpt><trkpt lat="44.1268833" lon="12.0654617"><ele>54.00000000000001</ele><time>2026-03-25T13:09:48.057Z</time></trkpt><trkpt lat="44.1268817" lon="12.06533"><ele>54.0</ele><time>2026-03-25T13:09:50.057Z</time></trkpt><trkpt lat="44.1268867" lon="12.0651833"><ele>54.0</ele><time>2026-03-25T13:09:52.056Z</time></trkpt><trkpt lat="44.1269" lon="12.0650483"><ele>53.833333333333336</ele><time>2026-03-25T13:09:54.057Z</time></trkpt><trkpt lat="44.1269067" lon="12.06492"><ele>53.66666666666667</ele><time>2026-03-25T13:09:56.057Z</time></trkpt><trkpt lat="44.1268867" lon="12.0648183"><ele>53.5</ele><time>2026-03-25T13:09:58.057Z</time></trkpt><trkpt lat="44.1268267" lon="12.0647833"><ele>53.333333333333336</ele><time>2026-03-25T13:10:00.057Z</time></trkpt><trkpt lat="44.1267533" lon="12.064775"><ele>53.16666666666667</ele><time>2026-03-25T13:10:02.057Z</time></trkpt><trkpt lat="44.126675" lon="12.06478"><ele>53.0</ele><time>2026-03-25T13:10:04.057Z</time></trkpt><trkpt lat="44.1266083" lon="12.064765"><ele>53.0</ele><time>2026-03-25T13:10:06.057Z</time></trkpt><trkpt lat="44.126535" lon="12.0647633"><ele>53.0</ele><time>2026-03-25T13:10:08.056Z</time></trkpt><trkpt lat="44.12644" lon="12.064765"><ele>53.0</ele><time>2026-03-25T13:10:10.056Z</time></trkpt><trkpt lat="44.1263433" lon="12.064765"><ele>53.0</ele><time>2026-03-25T13:10:12.056Z</time></trkpt><trkpt lat="44.126255" lon="12.0647233"><ele>53.0</ele><time>2026-03-25T13:10:14.057Z</time></trkpt><trkpt lat="44.1261967" lon="12.064625"><ele>53.00000000000001</ele><time>2026-03-25T13:10:16.056Z</time></trkpt><trkpt lat="44.1261483" lon="12.0645217"><ele>53.0</ele><time>2026-03-25T13:10:18.057Z</time></trkpt><trkpt lat="44.1261083" lon="12.0644083"><ele>53.0</ele><time>2026-03-25T13:10:20.057Z</time></trkpt><trkpt lat="44.1260567" lon="12.064295"><ele>53.0</ele><time>2026-03-25T13:10:22.057Z</time></trkpt><trkpt lat="44.1260233" lon="12.064185"><ele>53.00000000000001</ele><time>2026-03-25T13:10:24.056Z</time></trkpt><trkpt lat="44.1259917" lon="12.0640767"><ele>53.0</ele><time>2026-03-25T13:10:26.057Z</time></trkpt><trkpt lat="44.12596" lon="12.06398"><ele>53.00000000000001</ele><time>2026-03-25T13:10:28.057Z</time></trkpt><trkpt lat="44.1259333" lon="12.06388"><ele>53.0</ele><time>2026-03-25T13:10:31.057Z</time></trkpt><trkpt lat="44.1258717" lon="12.06386"><ele>53.0</ele><time>2026-03-25T13:10:35.056Z</time></trkpt><trkpt lat="44.125815" lon="12.0639617"><ele>53.0</ele><time>2026-03-25T13:10:38.057Z</time></trkpt><trkpt lat="44.1257617" lon="12.06404"><ele>53.00000000000001</ele><time>2026-03-25T13:10:40.057Z</time></trkpt><trkpt lat="44.1256967" lon="12.064125"><ele>53.0</ele><time>2026-03-25T13:10:42.057Z</time></trkpt><trkpt lat="44.125645" lon="12.064215"><ele>53.00000000000001</ele><time>2026-03-25T13:10:44.056Z</time></trkpt><trkpt lat="44.12561" lon="12.0643233"><ele>53.0</ele><time>2026-03-25T13:10:46.056Z</time></trkpt><trkpt lat="44.1255733" lon="12.064425"><ele>53.0</ele><time>2026-03-25T13:10:48.057Z</time></trkpt><trkpt lat="44.1255117" lon="12.0644917"><ele>53.0</ele><time>2026-03-25T13:10:50.056Z</time></trkpt><trkpt lat="44.1254233" lon="12.0645117"><ele>53.00000000000001</ele><time>2026-03-25T13:10:52.057Z</time></trkpt><trkpt lat="44.12534" lon="12.06448"><ele>53.0</ele><time>2026-03-25T13:10:54.057Z</time></trkpt><trkpt lat="44.1252633" lon="12.0644467"><ele>53.0</ele><time>2026-03-25T13:10:56.056Z</time></trkpt><trkpt lat="44.1252033" lon="12.0643833"><ele>53.0</ele><time>2026-03-25T13:10:58.057Z</time></trkpt><trkpt lat="44.1251867" lon="12.06427"><ele>53.0</ele><time>2026-03-25T13:11:00.056Z</time></trkpt><trkpt lat="44.1251983" lon="12.0641333"><ele>53.0</ele><time>2026-03-25T13:11:02.057Z</time></trkpt><trkpt lat="44.1252083" lon="12.0639967"><ele>53.0</ele><time>2026-03-25T13:11:04.057Z</time></trkpt><trkpt lat="44.1252283" lon="12.0638483"><ele>53.4</ele><time>2026-03-25T13:11:06.057Z</time></trkpt><trkpt lat="44.1252417" lon="12.0637067"><ele>53.8</ele><time>2026-03-25T13:11:08.056Z</time></trkpt><trkpt lat="44.1252617" lon="12.06357"><ele>54.2</ele><time>2026-03-25T13:11:10.056Z</time></trkpt><trkpt lat="44.1252817" lon="12.0634183"><ele>54.6</ele><time>2026-03-25T13:11:12.056Z</time></trkpt><trkpt lat="44.1252867" lon="12.0632783"><ele>55.0</ele><time>2026-03-25T13:11:14.056Z</time></trkpt><trkpt lat="44.1252967" lon="12.06314"><ele>55.2</ele><time>2026-03-25T13:11:16.057Z</time></trkpt><trkpt lat="44.1253117" lon="12.0629983"><ele>55.4</ele><time>2026-03-25T13:11:18.057Z</time></trkpt><trkpt lat="44.1253333" lon="12.06287"><ele>55.599999999999994</ele><time>2026-03-25T13:11:20.056Z</time></trkpt><trkpt lat="44.125345" lon="12.062745"><ele>55.8</ele><time>2026-03-25T13:11:22.056Z</time></trkpt><trkpt lat="44.1253617" lon="12.0626"><ele>56.0</ele><time>2026-03-25T13:11:24.057Z</time></trkpt><trkpt lat="44.1253733" lon="12.0624683"><ele>56.16666666666667</ele><time>2026-03-25T13:11:26.056Z</time></trkpt><trkpt lat="44.1253967" lon="12.0623317"><ele>56.333333333333336</ele><time>2026-03-25T13:11:28.057Z</time></trkpt><trkpt lat="44.125415" lon="12.062195"><ele>56.5</ele><time>2026-03-25T13:11:30.056Z</time></trkpt><trkpt lat="44.1254283" lon="12.06208"><ele>56.66666666666667</ele><time>2026-03-25T13:11:32.056Z</time></trkpt><trkpt lat="44.1254383" lon="12.0619883"><ele>56.833333333333336</ele><time>2026-03-25T13:11:34.057Z</time></trkpt><trkpt lat="44.12537" lon="12.061925"><ele>57.0</ele><time>2026-03-25T13:11:38.057Z</time></trkpt><trkpt lat="44.12526" lon="12.0618733"><ele>57.0</ele><time>2026-03-25T13:11:51.057Z</time></trkpt><trkpt lat="44.1251817" lon="12.061875"><ele>57.0</ele><time>2026-03-25T13:11:54.056Z</time></trkpt><trkpt lat="44.1250933" lon="12.0618533"><ele>57.0</ele><time>2026-03-25T13:11:57.057Z</time></trkpt><trkpt lat="44.125025" lon="12.0618383"><ele>57.0</ele><time>2026-03-25T13:11:59.056Z</time></trkpt><trkpt lat="44.124945" lon="12.061825"><ele>57.0</ele><time>2026-03-25T13:12:01.057Z</time></trkpt><trkpt lat="44.1248533" lon="12.0617933"><ele>57.0</ele><time>2026-03-25T13:12:03.056Z</time></trkpt><trkpt lat="44.1247617" lon="12.0617783"><ele>57.0</ele><time>2026-03-25T13:12:05.057Z</time></trkpt><trkpt lat="44.1246683" lon="12.061755"><ele>57.0</ele><time>2026-03-25T13:12:07.056Z</time></trkpt><trkpt lat="44.124575" lon="12.0617317"><ele>57.0</ele><time>2026-03-25T13:12:09.057Z</time></trkpt><trkpt lat="44.1244783" lon="12.0617217"><ele>57.0</ele><time>2026-03-25T13:12:11.057Z</time></trkpt><trkpt lat="44.12439" lon="12.0617083"><ele>57.0</ele><time>2026-03-25T13:12:13.056Z</time></trkpt><trkpt lat="44.1243033" lon="12.061695"><ele>57.0</ele><time>2026-03-25T13:12:15.057Z</time></trkpt><trkpt lat="44.1242033" lon="12.0616833"><ele>57.0</ele><time>2026-03-25T13:12:17.056Z</time></trkpt><trkpt lat="44.1241033" lon="12.0616717"><ele>57.0</ele><time>2026-03-25T13:12:19.057Z</time></trkpt><trkpt lat="44.1240133" lon="12.0616517"><ele>57.0</ele><time>2026-03-25T13:12:21.056Z</time></trkpt><trkpt lat="44.1239133" lon="12.0616267"><ele>57.0</ele><time>2026-03-25T13:12:23.056Z</time></trkpt><trkpt lat="44.1238133" lon="12.0616133"><ele>57.400000000000006</ele><time>2026-03-25T13:12:25.056Z</time></trkpt><trkpt lat="44.1237167" lon="12.06161"><ele>57.800000000000004</ele><time>2026-03-25T13:12:27.057Z</time></trkpt><trkpt lat="44.1236267" lon="12.0615917"><ele>58.2</ele><time>2026-03-25T13:12:29.057Z</time></trkpt><trkpt lat="44.123525" lon="12.06158"><ele>58.6</ele><time>2026-03-25T13:12:31.057Z</time></trkpt><trkpt lat="44.12342" lon="12.06157"><ele>59.0</ele><time>2026-03-25T13:12:33.057Z</time></trkpt><trkpt lat="44.1233233" lon="12.061555"><ele>59.2</ele><time>2026-03-25T13:12:35.057Z</time></trkpt><trkpt lat="44.1232133" lon="12.0615283"><ele>59.400000000000006</ele><time>2026-03-25T13:12:37.056Z</time></trkpt><trkpt lat="44.123115" lon="12.0615183"><ele>59.6</ele><time>2026-03-25T13:12:39.056Z</time></trkpt><trkpt lat="44.123005" lon="12.0615083"><ele>59.8</ele><time>2026-03-25T13:12:41.057Z</time></trkpt><trkpt lat="44.1229" lon="12.0615017"><ele>60.0</ele><time>2026-03-25T13:12:43.057Z</time></trkpt><trkpt lat="44.1227933" lon="12.0614767"><ele>60.0</ele><time>2026-03-25T13:12:45.057Z</time></trkpt><trkpt lat="44.1226817" lon="12.06146"><ele>60.0</ele><time>2026-03-25T13:12:47.057Z</time></trkpt><trkpt lat="44.1225683" lon="12.06146"><ele>60.0</ele><time>2026-03-25T13:12:49.057Z</time></trkpt><trkpt lat="44.1224533" lon="12.06145"><ele>60.0</ele><time>2026-03-25T13:12:51.057Z</time></trkpt><trkpt lat="44.12234" lon="12.0614333"><ele>59.0</ele><time>2026-03-25T13:12:53.056Z</time></trkpt><trkpt lat="44.12223" lon="12.061415"><ele>58.0</ele><time>2026-03-25T13:12:55.057Z</time></trkpt><trkpt lat="44.1221267" lon="12.061405"><ele>57.0</ele><time>2026-03-25T13:12:57.057Z</time></trkpt><trkpt lat="44.1220233" lon="12.0614017"><ele>56.0</ele><time>2026-03-25T13:12:59.057Z</time></trkpt><trkpt lat="44.1219283" lon="12.0613717"><ele>55.0</ele><time>2026-03-25T13:13:01.056Z</time></trkpt><trkpt lat="44.1218367" lon="12.0613683"><ele>55.0</ele><time>2026-03-25T13:13:03.056Z</time></trkpt><trkpt lat="44.1217467" lon="12.0614133"><ele>55.0</ele><time>2026-03-25T13:13:05.056Z</time></trkpt><trkpt lat="44.1216633" lon="12.0614633"><ele>55.0</ele><time>2026-03-25T13:13:07.057Z</time></trkpt><trkpt lat="44.1215817" lon="12.0615217"><ele>55.0</ele><time>2026-03-25T13:13:09.057Z</time></trkpt><trkpt lat="44.1215017" lon="12.0615833"><ele>55.0</ele><time>2026-03-25T13:13:11.057Z</time></trkpt><trkpt lat="44.1214217" lon="12.061635"><ele>54.99999999999999</ele><time>2026-03-25T13:13:13.056Z</time></trkpt><trkpt lat="44.1213483" lon="12.0616883"><ele>55.0</ele><time>2026-03-25T13:13:15.056Z</time></trkpt><trkpt lat="44.1212733" lon="12.0617333"><ele>55.0</ele><time>2026-03-25T13:13:17.056Z</time></trkpt><trkpt lat="44.1212" lon="12.061785"><ele>55.0</ele><time>2026-03-25T13:13:19.057Z</time></trkpt><trkpt lat="44.1211217" lon="12.061835"><ele>54.99999999999999</ele><time>2026-03-25T13:13:21.056Z</time></trkpt><trkpt lat="44.1210433" lon="12.0618983"><ele>55.0</ele><time>2026-03-25T13:13:23.056Z</time></trkpt><trkpt lat="44.1209767" lon="12.061975"><ele>54.99999999999999</ele><time>2026-03-25T13:13:25.057Z</time></trkpt><trkpt lat="44.120905" lon="12.06205"><ele>55.0</ele><time>2026-03-25T13:13:27.056Z</time></trkpt><trkpt lat="44.1208417" lon="12.0621383"><ele>55.0</ele><time>2026-03-25T13:13:29.057Z</time></trkpt><trkpt lat="44.1207717" lon="12.0622133"><ele>55.0</ele><time>2026-03-25T13:13:31.056Z</time></trkpt><trkpt lat="44.1207083" lon="12.0622867"><ele>54.99999999999999</ele><time>2026-03-25T13:13:33.057Z</time></trkpt><trkpt lat="44.12064" lon="12.062365"><ele>55.0</ele><time>2026-03-25T13:13:35.057Z</time></trkpt><trkpt lat="44.1205667" lon="12.0624417"><ele>55.33333333333333</ele><time>2026-03-25T13:13:37.056Z</time></trkpt><trkpt lat="44.1204983" lon="12.0625167"><ele>55.666666666666664</ele><time>2026-03-25T13:13:39.057Z</time></trkpt><trkpt lat="44.120425" lon="12.0625917"><ele>56.0</ele><time>2026-03-25T13:13:41.056Z</time></trkpt><trkpt lat="44.1203633" lon="12.06267"><ele>56.33333333333333</ele><time>2026-03-25T13:13:43.057Z</time></trkpt><trkpt lat="44.1202917" lon="12.0627533"><ele>56.666666666666664</ele><time>2026-03-25T13:13:45.057Z</time></trkpt><trkpt lat="44.1202267" lon="12.0628383"><ele>57.0</ele><time>2026-03-25T13:13:47.057Z</time></trkpt><trkpt lat="44.1201733" lon="12.06292"><ele>57.0</ele><time>2026-03-25T13:13:49.056Z</time></trkpt><trkpt lat="44.120115" lon="12.0629967"><ele>57.0</ele><time>2026-03-25T13:13:51.056Z</time></trkpt><trkpt lat="44.1200417" lon="12.06308"><ele>57.0</ele><time>2026-03-25T13:13:53.056Z</time></trkpt><trkpt lat="44.1199833" lon="12.063185"><ele>57.0</ele><time>2026-03-25T13:13:55.057Z</time></trkpt><trkpt lat="44.119935" lon="12.0633017"><ele>57.0</ele><time>2026-03-25T13:13:57.056Z</time></trkpt><trkpt lat="44.1198917" lon="12.0634167"><ele>57.2</ele><time>2026-03-25T13:13:59.057Z</time></trkpt><trkpt lat="44.1198417" lon="12.06354"><ele>57.400000000000006</ele><time>2026-03-25T13:14:01.056Z</time></trkpt><trkpt lat="44.1197983" lon="12.0636567"><ele>57.599999999999994</ele><time>2026-03-25T13:14:03.057Z</time></trkpt><trkpt lat="44.11975" lon="12.063775"><ele>57.8</ele><time>2026-03-25T13:14:05.056Z</time></trkpt><trkpt lat="44.1197017" lon="12.0639067"><ele>58.0</ele><time>2026-03-25T13:14:07.056Z</time></trkpt><trkpt lat="44.1196617" lon="12.06404"><ele>58.0</ele><time>2026-03-25T13:14:09.057Z</time></trkpt><trkpt lat="44.1196233" lon="12.0641783"><ele>58.0</ele><time>2026-03-25T13:14:11.057Z</time></trkpt><trkpt lat="44.11959" lon="12.0643117"><ele>58.0</ele><time>2026-03-25T13:14:13.056Z</time></trkpt><trkpt lat="44.1195517" lon="12.064435"><ele>58.0</ele><time>2026-03-25T13:14:15.056Z</time></trkpt><trkpt lat="44.1195133" lon="12.064565"><ele>58.0</ele><time>2026-03-25T13:14:17.057Z</time></trkpt><trkpt lat="44.1194767" lon="12.0646817"><ele>58.0</ele><time>2026-03-25T13:14:19.057Z</time></trkpt><trkpt lat="44.1194433" lon="12.0648083"><ele>58.0</ele><time>2026-03-25T13:14:21.057Z</time></trkpt><trkpt lat="44.1193833" lon="12.0649367"><ele>58.0</ele><time>2026-03-25T13:14:23.056Z</time></trkpt><trkpt lat="44.119345" lon="12.065055"><ele>58.0</ele><time>2026-03-25T13:14:25.057Z</time></trkpt><trkpt lat="44.1193117" lon="12.0651733"><ele>58.0</ele><time>2026-03-25T13:14:27.056Z</time></trkpt><trkpt lat="44.1192667" lon="12.0653117"><ele>58.4</ele><time>2026-03-25T13:14:29.056Z</time></trkpt><trkpt lat="44.1192283" lon="12.065445"><ele>58.8</ele><time>2026-03-25T13:14:31.057Z</time></trkpt><trkpt lat="44.1191933" lon="12.065585"><ele>59.2</ele><time>2026-03-25T13:14:33.057Z</time></trkpt><trkpt lat="44.11916" lon="12.0657117"><ele>59.6</ele><time>2026-03-25T13:14:35.057Z</time></trkpt><trkpt lat="44.1191167" lon="12.0658433"><ele>60.0</ele><time>2026-03-25T13:14:37.056Z</time></trkpt><trkpt lat="44.11908" lon="12.0659733"><ele>59.4</ele><time>2026-03-25T13:14:39.057Z</time></trkpt><trkpt lat="44.1190317" lon="12.0661083"><ele>58.8</ele><time>2026-03-25T13:14:41.056Z</time></trkpt><trkpt lat="44.1189917" lon="12.0662267"><ele>58.2</ele><time>2026-03-25T13:14:43.057Z</time></trkpt><trkpt lat="44.1189483" lon="12.0663483"><ele>57.6</ele><time>2026-03-25T13:14:45.057Z</time></trkpt><trkpt lat="44.1189017" lon="12.0664683"><ele>57.0</ele><time>2026-03-25T13:14:47.057Z</time></trkpt><trkpt lat="44.1188533" lon="12.0665917"><ele>57.6</ele><time>2026-03-25T13:14:49.057Z</time></trkpt><trkpt lat="44.1188083" lon="12.066715"><ele>58.2</ele><time>2026-03-25T13:14:51.056Z</time></trkpt><trkpt lat="44.1187717" lon="12.066835"><ele>58.8</ele><time>2026-03-25T13:14:53.057Z</time></trkpt><trkpt lat="44.11871" lon="12.06695"><ele>59.4</ele><time>2026-03-25T13:14:55.057Z</time></trkpt><trkpt lat="44.1186633" lon="12.067065"><ele>60.0</ele><time>2026-03-25T13:14:57.057Z</time></trkpt><trkpt lat="44.1186" lon="12.0671783"><ele>60.0</ele><time>2026-03-25T13:14:59.056Z</time></trkpt><trkpt lat="44.118535" lon="12.06728"><ele>60.0</ele><time>2026-03-25T13:15:01.056Z</time></trkpt><trkpt lat="44.1184583" lon="12.0673817"><ele>60.0</ele><time>2026-03-25T13:15:03.056Z</time></trkpt><trkpt lat="44.1183817" lon="12.06747"><ele>60.0</ele><time>2026-03-25T13:15:05.056Z</time></trkpt><trkpt lat="44.11831" lon="12.0675467"><ele>60.0</ele><time>2026-03-25T13:15:07.057Z</time></trkpt><trkpt lat="44.11824" lon="12.06762"><ele>60.2</ele><time>2026-03-25T13:15:09.057Z</time></trkpt><trkpt lat="44.1181617" lon="12.0676883"><ele>60.4</ele><time>2026-03-25T13:15:11.057Z</time></trkpt><trkpt lat="44.1180833" lon="12.06775"><ele>60.599999999999994</ele><time>2026-03-25T13:15:13.057Z</time></trkpt><trkpt lat="44.1180067" lon="12.06781"><ele>60.8</ele><time>2026-03-25T13:15:15.056Z</time></trkpt><trkpt lat="44.11792" lon="12.0678683"><ele>61.0</ele><time>2026-03-25T13:15:17.057Z</time></trkpt><trkpt lat="44.1178383" lon="12.06793"><ele>61.0</ele><time>2026-03-25T13:15:19.056Z</time></trkpt><trkpt lat="44.1177617" lon="12.0680033"><ele>60.99999999999999</ele><time>2026-03-25T13:15:21.056Z</time></trkpt><trkpt lat="44.1176867" lon="12.06807"><ele>60.99999999999999</ele><time>2026-03-25T13:15:23.057Z</time></trkpt><trkpt lat="44.1176083" lon="12.0681333"><ele>61.0</ele><time>2026-03-25T13:15:25.056Z</time></trkpt><trkpt lat="44.1175283" lon="12.0682"><ele>61.0</ele><time>2026-03-25T13:15:27.056Z</time></trkpt><trkpt lat="44.11745" lon="12.0682533"><ele>61.666666666666664</ele><time>2026-03-25T13:15:29.057Z</time></trkpt><trkpt lat="44.1173717" lon="12.0683117"><ele>62.33333333333333</ele><time>2026-03-25T13:15:31.057Z</time></trkpt><trkpt lat="44.1172883" lon="12.068375"><ele>63.0</ele><time>2026-03-25T13:15:33.056Z</time></trkpt><trkpt lat="44.1172233" lon="12.0684233"><ele>63.66666666666667</ele><time>2026-03-25T13:15:35.057Z</time></trkpt><trkpt lat="44.1171617" lon="12.0684683"><ele>64.33333333333334</ele><time>2026-03-25T13:15:37.057Z</time></trkpt><trkpt lat="44.1171067" lon="12.0685117"><ele>65.0</ele><time>2026-03-25T13:15:39.056Z</time></trkpt><trkpt lat="44.1170483" lon="12.0685583"><ele>65.00000000000001</ele><time>2026-03-25T13:15:41.057Z</time></trkpt><trkpt lat="44.116985" lon="12.0685983"><ele>65.0</ele><time>2026-03-25T13:15:43.057Z</time></trkpt><trkpt lat="44.1169183" lon="12.06863"><ele>65.0</ele><time>2026-03-25T13:15:45.058Z</time></trkpt><trkpt lat="44.1168517" lon="12.0686767"><ele>65.0</ele><time>2026-03-25T13:15:47.058Z</time></trkpt><trkpt lat="44.11678" lon="12.068725"><ele>65.0</ele><time>2026-03-25T13:15:49.058Z</time></trkpt><trkpt lat="44.116705" lon="12.0687583"><ele>65.00000000000001</ele><time>2026-03-25T13:15:51.057Z</time></trkpt><trkpt lat="44.11664" lon="12.06881"><ele>65.0</ele><time>2026-03-25T13:15:53.058Z</time></trkpt><trkpt lat="44.1165783" lon="12.068845"><ele>64.83333333333334</ele><time>2026-03-25T13:15:55.057Z</time></trkpt><trkpt lat="44.1165067" lon="12.0688767"><ele>64.66666666666667</ele><time>2026-03-25T13:15:57.058Z</time></trkpt><trkpt lat="44.1164433" lon="12.0689233"><ele>64.5</ele><time>2026-03-25T13:15:59.058Z</time></trkpt><trkpt lat="44.1163733" lon="12.0689633"><ele>64.33333333333333</ele><time>2026-03-25T13:16:01.057Z</time></trkpt><trkpt lat="44.1163117" lon="12.068995"><ele>64.16666666666666</ele><time>2026-03-25T13:16:03.057Z</time></trkpt><trkpt lat="44.11623" lon="12.0690383"><ele>64.0</ele><time>2026-03-25T13:16:06.057Z</time></trkpt><trkpt lat="44.1161583" lon="12.0690967"><ele>65.5</ele><time>2026-03-25T13:16:09.057Z</time></trkpt><trkpt lat="44.1160733" lon="12.0691417"><ele>67.0</ele><time>2026-03-25T13:16:12.057Z</time></trkpt><trkpt lat="44.115995" lon="12.0691917"><ele>68.5</ele><time>2026-03-25T13:16:15.058Z</time></trkpt><trkpt lat="44.115915" lon="12.0692333"><ele>70.0</ele><time>2026-03-25T13:16:18.057Z</time></trkpt><trkpt lat="44.1158433" lon="12.069265"><ele>71.5</ele><time>2026-03-25T13:16:21.058Z</time></trkpt><trkpt lat="44.1157733" lon="12.0693067"><ele>73.0</ele><time>2026-03-25T13:16:24.058Z</time></trkpt><trkpt lat="44.1157017" lon="12.0693317"><ele>73.0</ele><time>2026-03-25T13:16:27.057Z</time></trkpt><trkpt lat="44.1156133" lon="12.069345"><ele>73.0</ele><time>2026-03-25T13:16:30.057Z</time></trkpt><trkpt lat="44.1155367" lon="12.0693633"><ele>73.0</ele><time>2026-03-25T13:16:33.058Z</time></trkpt><trkpt lat="44.1154667" lon="12.0693967"><ele>73.0</ele><time>2026-03-25T13:16:36.058Z</time></trkpt><trkpt lat="44.1153933" lon="12.06943"><ele>73.0</ele><time>2026-03-25T13:16:39.058Z</time></trkpt><trkpt lat="44.1153133" lon="12.0694583"><ele>73.0</ele><time>2026-03-25T13:16:42.058Z</time></trkpt><trkpt lat="44.11524" lon="12.0695067"><ele>73.0</ele><time>2026-03-25T13:16:45.057Z</time></trkpt><trkpt lat="44.115165" lon="12.0695433"><ele>73.0</ele><time>2026-03-25T13:16:48.058Z</time></trkpt><trkpt lat="44.1151" lon="12.0695833"><ele>73.0</ele><time>2026-03-25T13:16:51.057Z</time></trkpt><trkpt lat="44.1150383" lon="12.06964"><ele>73.0</ele><time>2026-03-25T13:16:54.057Z</time></trkpt><trkpt lat="44.11498" lon="12.069695"><ele>73.0</ele><time>2026-03-25T13:16:57.057Z</time></trkpt><trkpt lat="44.1149167" lon="12.0697317"><ele>73.0</ele><time>2026-03-25T13:17:00.058Z</time></trkpt><trkpt lat="44.1148533" lon="12.0697883"><ele>73.0</ele><time>2026-03-25T13:17:03.057Z</time></trkpt><trkpt lat="44.11478" lon="12.0698483"><ele>73.5</ele><time>2026-03-25T13:17:06.057Z</time></trkpt><trkpt lat="44.1147117" lon="12.0699083"><ele>74.0</ele><time>2026-03-25T13:17:09.057Z</time></trkpt><trkpt lat="44.1146317" lon="12.0699567"><ele>74.5</ele><time>2026-03-25T13:17:12.057Z</time></trkpt><trkpt lat="44.11456" lon="12.0700067"><ele>75.0</ele><time>2026-03-25T13:17:15.058Z</time></trkpt><trkpt lat="44.1144867" lon="12.0700583"><ele>75.5</ele><time>2026-03-25T13:17:18.057Z</time></trkpt><trkpt lat="44.1144267" lon="12.0701067"><ele>76.0</ele><time>2026-03-25T13:17:21.057Z</time></trkpt><trkpt lat="44.1143617" lon="12.07015"><ele>77.57142857142857</ele><time>2026-03-25T13:17:24.057Z</time></trkpt><trkpt lat="44.1142967" lon="12.0702117"><ele>79.14285714285715</ele><time>2026-03-25T13:17:27.057Z</time></trkpt><trkpt lat="44.11423" lon="12.0702633"><ele>80.71428571428572</ele><time>2026-03-25T13:17:30.057Z</time></trkpt><trkpt lat="44.114175" lon="12.070315"><ele>82.28571428571428</ele><time>2026-03-25T13:17:33.058Z</time></trkpt><trkpt lat="44.11412" lon="12.0703617"><ele>83.85714285714286</ele><time>2026-03-25T13:17:36.058Z</time></trkpt><trkpt lat="44.1140533" lon="12.07041"><ele>85.42857142857143</ele><time>2026-03-25T13:17:39.057Z</time></trkpt><trkpt lat="44.11399" lon="12.070445"><ele>87.0</ele><time>2026-03-25T13:17:42.057Z</time></trkpt><trkpt lat="44.1139217" lon="12.07047"><ele>87.0</ele><time>2026-03-25T13:17:45.058Z</time></trkpt><trkpt lat="44.1138433" lon="12.0705133"><ele>87.0</ele><time>2026-03-25T13:17:48.057Z</time></trkpt><trkpt lat="44.1137717" lon="12.0705583"><ele>87.0</ele><time>2026-03-25T13:17:51.057Z</time></trkpt><trkpt lat="44.1136917" lon="12.0705967"><ele>87.0</ele><time>2026-03-25T13:17:54.058Z</time></trkpt><trkpt lat="44.1136217" lon="12.0706283"><ele>87.0</ele><time>2026-03-25T13:17:57.057Z</time></trkpt><trkpt lat="44.1135517" lon="12.0706517"><ele>87.0</ele><time>2026-03-25T13:18:00.058Z</time></trkpt><trkpt lat="44.11347" lon="12.0706467"><ele>87.0</ele><time>2026-03-25T13:18:03.058Z</time></trkpt><trkpt lat="44.113385" lon="12.070665"><ele>87.0</ele><time>2026-03-25T13:18:06.057Z</time></trkpt><trkpt lat="44.1133" lon="12.0706783"><ele>87.0</ele><time>2026-03-25T13:18:09.057Z</time></trkpt><trkpt lat="44.1132183" lon="12.0706833"><ele>87.0</ele><time>2026-03-25T13:18:12.057Z</time></trkpt><trkpt lat="44.11314" lon="12.0706683"><ele>87.0</ele><time>2026-03-25T13:18:15.057Z</time></trkpt><trkpt lat="44.1130617" lon="12.0706583"><ele>87.0</ele><time>2026-03-25T13:18:18.058Z</time></trkpt><trkpt lat="44.1129867" lon="12.0706567"><ele>87.0</ele><time>2026-03-25T13:18:21.057Z</time></trkpt><trkpt lat="44.1129183" lon="12.0706533"><ele>87.0</ele><time>2026-03-25T13:18:24.058Z</time></trkpt><trkpt lat="44.112845" lon="12.070645"><ele>87.0</ele><time>2026-03-25T13:18:27.058Z</time></trkpt><trkpt lat="44.11277" lon="12.0706367"><ele>87.0</ele><time>2026-03-25T13:18:30.057Z</time></trkpt><trkpt lat="44.112685" lon="12.070615"><ele>87.0</ele><time>2026-03-25T13:18:33.057Z</time></trkpt><trkpt lat="44.11261" lon="12.0705983"><ele>87.0</ele><time>2026-03-25T13:18:36.058Z</time></trkpt><trkpt lat="44.11252" lon="12.070595"><ele>87.0</ele><time>2026-03-25T13:18:39.058Z</time></trkpt><trkpt lat="44.1124333" lon="12.070595"><ele>87.0</ele><time>2026-03-25T13:18:42.058Z</time></trkpt><trkpt lat="44.1123617" lon="12.0706117"><ele>87.0</ele><time>2026-03-25T13:18:45.058Z</time></trkpt><trkpt lat="44.112285" lon="12.070635"><ele>87.0</ele><time>2026-03-25T13:18:48.058Z</time></trkpt><trkpt lat="44.112205" lon="12.07066"><ele>87.0</ele><time>2026-03-25T13:18:51.057Z</time></trkpt><trkpt lat="44.1121317" lon="12.0706733"><ele>87.0</ele><time>2026-03-25T13:18:54.058Z</time></trkpt><trkpt lat="44.112045" lon="12.0707067"><ele>87.16666666666667</ele><time>2026-03-25T13:18:58.058Z</time></trkpt><trkpt lat="44.11195" lon="12.0707167"><ele>87.33333333333333</ele><time>2026-03-25T13:19:01.057Z</time></trkpt><trkpt lat="44.1118617" lon="12.0707283"><ele>87.5</ele><time>2026-03-25T13:19:04.058Z</time></trkpt><trkpt lat="44.1117983" lon="12.0707317"><ele>87.66666666666666</ele><time>2026-03-25T13:19:06.057Z</time></trkpt><trkpt lat="44.1117333" lon="12.0707333"><ele>87.83333333333333</ele><time>2026-03-25T13:19:08.058Z</time></trkpt><trkpt lat="44.11164" lon="12.07074"><ele>88.0</ele><time>2026-03-25T13:19:11.057Z</time></trkpt><trkpt lat="44.1115717" lon="12.0707467"><ele>88.0</ele><time>2026-03-25T13:19:13.057Z</time></trkpt><trkpt lat="44.111505" lon="12.0707567"><ele>88.0</ele><time>2026-03-25T13:19:15.057Z</time></trkpt><trkpt lat="44.11141" lon="12.0707717"><ele>88.0</ele><time>2026-03-25T13:19:18.058Z</time></trkpt><trkpt lat="44.1113433" lon="12.0707983"><ele>88.0</ele><time>2026-03-25T13:19:20.058Z</time></trkpt><trkpt lat="44.1112733" lon="12.0708417"><ele>88.0</ele><time>2026-03-25T13:19:22.058Z</time></trkpt><trkpt lat="44.1112117" lon="12.0708933"><ele>88.0</ele><time>2026-03-25T13:19:24.058Z</time></trkpt><trkpt lat="44.1111567" lon="12.0709467"><ele>88.0</ele><time>2026-03-25T13:19:26.058Z</time></trkpt><trkpt lat="44.1110817" lon="12.0710383"><ele>88.71428571428572</ele><time>2026-03-25T13:19:29.058Z</time></trkpt><trkpt lat="44.1110317" lon="12.0711083"><ele>89.42857142857143</ele><time>2026-03-25T13:19:31.058Z</time></trkpt><trkpt lat="44.1109883" lon="12.0711783"><ele>90.14285714285714</ele><time>2026-03-25T13:19:33.058Z</time></trkpt><trkpt lat="44.110945" lon="12.0712533"><ele>90.85714285714286</ele><time>2026-03-25T13:19:35.058Z</time></trkpt><trkpt lat="44.1108817" lon="12.071355"><ele>91.57142857142857</ele><time>2026-03-25T13:19:38.058Z</time></trkpt><trkpt lat="44.1108367" lon="12.0714233"><ele>92.28571428571429</ele><time>2026-03-25T13:19:40.058Z</time></trkpt><trkpt lat="44.1107883" lon="12.0714933"><ele>93.0</ele><time>2026-03-25T13:19:42.058Z</time></trkpt><trkpt lat="44.110735" lon="12.0715717"><ele>94.83333333333333</ele><time>2026-03-25T13:19:44.058Z</time></trkpt><trkpt lat="44.1106867" lon="12.07164"><ele>96.66666666666666</ele><time>2026-03-25T13:19:46.057Z</time></trkpt><trkpt lat="44.1106333" lon="12.0717"><ele>98.5</ele><time>2026-03-25T13:19:48.057Z</time></trkpt><trkpt lat="44.11058" lon="12.0717583"><ele>100.33333333333333</ele><time>2026-03-25T13:19:50.058Z</time></trkpt><trkpt lat="44.110525" lon="12.0718083"><ele>102.16666666666666</ele><time>2026-03-25T13:19:52.058Z</time></trkpt><trkpt lat="44.11042" lon="12.0719167"><ele>104.0</ele><time>2026-03-25T13:19:54.491Z</time></trkpt><trkpt lat="44.110365" lon="12.0719883"><ele>103.99999999999999</ele><time>2026-03-25T13:19:56.55Z</time></trkpt><trkpt lat="44.1102833" lon="12.0720583"><ele>104.0</ele><time>2026-03-25T13:19:59.05Z</time></trkpt><trkpt lat="44.11021" lon="12.072105"><ele>104.0</ele><time>2026-03-25T13:20:01.049Z</time></trkpt><trkpt lat="44.11014" lon="12.0721733"><ele>104.0</ele><time>2026-03-25T13:20:03.05Z</time></trkpt><trkpt lat="44.1100733" lon="12.0722367"><ele>103.99999999999999</ele><time>2026-03-25T13:20:05.05Z</time></trkpt><trkpt lat="44.110005" lon="12.072305"><ele>104.0</ele><time>2026-03-25T13:20:07.051Z</time></trkpt><trkpt lat="44.1099417" lon="12.072375"><ele>103.99999999999999</ele><time>2026-03-25T13:20:09.051Z</time></trkpt><trkpt lat="44.10988" lon="12.072445"><ele>104.0</ele><time>2026-03-25T13:20:11.051Z</time></trkpt><trkpt lat="44.10982" lon="12.0725233"><ele>104.0</ele><time>2026-03-25T13:20:13.05Z</time></trkpt><trkpt lat="44.1097567" lon="12.072605"><ele>104.0</ele><time>2026-03-25T13:20:15.05Z</time></trkpt><trkpt lat="44.1096933" lon="12.0726867"><ele>103.99999999999999</ele><time>2026-03-25T13:20:17.051Z</time></trkpt><trkpt lat="44.1096283" lon="12.0727683"><ele>104.0</ele><time>2026-03-25T13:20:19.05Z</time></trkpt><trkpt lat="44.1095667" lon="12.072855"><ele>103.99999999999999</ele><time>2026-03-25T13:20:21.051Z</time></trkpt><trkpt lat="44.1095067" lon="12.0729433"><ele>104.0</ele><time>2026-03-25T13:20:23.05Z</time></trkpt><trkpt lat="44.109445" lon="12.0730233"><ele>104.0</ele><time>2026-03-25T13:20:25.05Z</time></trkpt><trkpt lat="44.1093867" lon="12.07312"><ele>104.0</ele><time>2026-03-25T13:20:27.051Z</time></trkpt><trkpt lat="44.1093233" lon="12.073205"><ele>103.99999999999999</ele><time>2026-03-25T13:20:29.05Z</time></trkpt><trkpt lat="44.109255" lon="12.073285"><ele>104.0</ele><time>2026-03-25T13:20:31.051Z</time></trkpt><trkpt lat="44.109185" lon="12.0733617"><ele>105.16666666666666</ele><time>2026-03-25T13:20:33.05Z</time></trkpt><trkpt lat="44.1091183" lon="12.0734417"><ele>106.33333333333333</ele><time>2026-03-25T13:20:35.051Z</time></trkpt><trkpt lat="44.1090517" lon="12.0735133"><ele>107.5</ele><time>2026-03-25T13:20:37.05Z</time></trkpt><trkpt lat="44.1089817" lon="12.0735733"><ele>108.66666666666666</ele><time>2026-03-25T13:20:39.05Z</time></trkpt><trkpt lat="44.1089017" lon="12.0736233"><ele>109.83333333333333</ele><time>2026-03-25T13:20:41.051Z</time></trkpt><trkpt lat="44.1088183" lon="12.0736633"><ele>111.0</ele><time>2026-03-25T13:20:43.051Z</time></trkpt><trkpt lat="44.1087317" lon="12.0736883"><ele>111.0</ele><time>2026-03-25T13:20:45.05Z</time></trkpt><trkpt lat="44.1086483" lon="12.07371"><ele>111.0</ele><time>2026-03-25T13:20:47.051Z</time></trkpt><trkpt lat="44.1085683" lon="12.0737183"><ele>111.0</ele><time>2026-03-25T13:20:49.05Z</time></trkpt><trkpt lat="44.1084767" lon="12.073725"><ele>111.0</ele><time>2026-03-25T13:20:51.05Z</time></trkpt><trkpt lat="44.108395" lon="12.0737333"><ele>111.0</ele><time>2026-03-25T13:20:53.051Z</time></trkpt><trkpt lat="44.1083167" lon="12.07374"><ele>111.0</ele><time>2026-03-25T13:20:55.051Z</time></trkpt><trkpt lat="44.10823" lon="12.0737483"><ele>110.5</ele><time>2026-03-25T13:20:57.05Z</time></trkpt><trkpt lat="44.10815" lon="12.0737517"><ele>110.0</ele><time>2026-03-25T13:20:59.051Z</time></trkpt><trkpt lat="44.108065" lon="12.0737633"><ele>109.5</ele><time>2026-03-25T13:21:01.051Z</time></trkpt><trkpt lat="44.1079783" lon="12.07378"><ele>109.0</ele><time>2026-03-25T13:21:03.051Z</time></trkpt><trkpt lat="44.1078967" lon="12.073805"><ele>108.5</ele><time>2026-03-25T13:21:05.05Z</time></trkpt><trkpt lat="44.1078217" lon="12.0738267"><ele>108.0</ele><time>2026-03-25T13:21:07.05Z</time></trkpt><trkpt lat="44.1077483" lon="12.073855"><ele>108.0</ele><time>2026-03-25T13:21:09.05Z</time></trkpt><trkpt lat="44.1076783" lon="12.07389"><ele>108.0</ele><time>2026-03-25T13:21:11.05Z</time></trkpt><trkpt lat="44.1076067" lon="12.0739317"><ele>108.0</ele><time>2026-03-25T13:21:13.05Z</time></trkpt><trkpt lat="44.107535" lon="12.073985"><ele>108.0</ele><time>2026-03-25T13:21:15.051Z</time></trkpt><trkpt lat="44.107455" lon="12.0740317"><ele>108.0</ele><time>2026-03-25T13:21:17.051Z</time></trkpt><trkpt lat="44.1073667" lon="12.0740667"><ele>108.0</ele><time>2026-03-25T13:21:19.051Z</time></trkpt><trkpt lat="44.1072817" lon="12.07409"><ele>108.28571428571428</ele><time>2026-03-25T13:21:21.05Z</time></trkpt><trkpt lat="44.10721" lon="12.0741033"><ele>108.57142857142857</ele><time>2026-03-25T13:21:23.051Z</time></trkpt><trkpt lat="44.10714" lon="12.0741167"><ele>108.85714285714286</ele><time>2026-03-25T13:21:25.05Z</time></trkpt><trkpt lat="44.1070683" lon="12.0741267"><ele>109.14285714285714</ele><time>2026-03-25T13:21:27.051Z</time></trkpt><trkpt lat="44.1070017" lon="12.07414"><ele>109.42857142857143</ele><time>2026-03-25T13:21:29.05Z</time></trkpt><trkpt lat="44.1069383" lon="12.0741583"><ele>109.71428571428571</ele><time>2026-03-25T13:21:31.05Z</time></trkpt><trkpt lat="44.1068717" lon="12.0741767"><ele>110.0</ele><time>2026-03-25T13:21:33.051Z</time></trkpt><trkpt lat="44.106805" lon="12.0742017"><ele>110.71428571428571</ele><time>2026-03-25T13:21:35.05Z</time></trkpt><trkpt lat="44.10672" lon="12.0742483"><ele>111.42857142857142</ele><time>2026-03-25T13:21:38.05Z</time></trkpt><trkpt lat="44.10666" lon="12.0742883"><ele>112.14285714285714</ele><time>2026-03-25T13:21:40.051Z</time></trkpt><trkpt lat="44.1065983" lon="12.0743367"><ele>112.85714285714285</ele><time>2026-03-25T13:21:42.051Z</time></trkpt><trkpt lat="44.106535" lon="12.0743933"><ele>113.57142857142857</ele><time>2026-03-25T13:21:44.05Z</time></trkpt><trkpt lat="44.1064783" lon="12.07445"><ele>114.28571428571426</ele><time>2026-03-25T13:21:46.05Z</time></trkpt><trkpt lat="44.1064267" lon="12.0745133"><ele>114.99999999999999</ele><time>2026-03-25T13:21:48.05Z</time></trkpt><trkpt lat="44.1063767" lon="12.0745733"><ele>115.00000000000001</ele><time>2026-03-25T13:21:50.05Z</time></trkpt><trkpt lat="44.1063283" lon="12.074635"><ele>115.0</ele><time>2026-03-25T13:21:52.05Z</time></trkpt><trkpt lat="44.10628" lon="12.0747067"><ele>115.0</ele><time>2026-03-25T13:21:54.05Z</time></trkpt><trkpt lat="44.10623" lon="12.0747867"><ele>115.0</ele><time>2026-03-25T13:21:56.051Z</time></trkpt><trkpt lat="44.10616" lon="12.07488"><ele>115.00000000000001</ele><time>2026-03-25T13:21:58.05Z</time></trkpt><trkpt lat="44.1060983" lon="12.07497"><ele>115.0</ele><time>2026-03-25T13:22:00.051Z</time></trkpt><trkpt lat="44.10604" lon="12.07506"><ele>114.66666666666667</ele><time>2026-03-25T13:22:02.051Z</time></trkpt><trkpt lat="44.1059867" lon="12.0751367"><ele>114.33333333333334</ele><time>2026-03-25T13:22:04.051Z</time></trkpt><trkpt lat="44.10593" lon="12.07522"><ele>114.0</ele><time>2026-03-25T13:22:06.051Z</time></trkpt><trkpt lat="44.1058783" lon="12.0753"><ele>113.66666666666666</ele><time>2026-03-25T13:22:08.051Z</time></trkpt><trkpt lat="44.105835" lon="12.0753817"><ele>113.33333333333333</ele><time>2026-03-25T13:22:10.05Z</time></trkpt><trkpt lat="44.1057867" lon="12.0754617"><ele>113.0</ele><time>2026-03-25T13:22:12.05Z</time></trkpt><trkpt lat="44.105745" lon="12.0755367"><ele>113.0</ele><time>2026-03-25T13:22:14.051Z</time></trkpt><trkpt lat="44.105705" lon="12.0756167"><ele>113.0</ele><time>2026-03-25T13:22:16.051Z</time></trkpt><trkpt lat="44.1056617" lon="12.0756967"><ele>113.0</ele><time>2026-03-25T13:22:18.051Z</time></trkpt><trkpt lat="44.1056133" lon="12.0757767"><ele>113.0</ele><time>2026-03-25T13:22:20.05Z</time></trkpt><trkpt lat="44.105565" lon="12.07586"><ele>113.0</ele><time>2026-03-25T13:22:22.05Z</time></trkpt><trkpt lat="44.1055233" lon="12.0759483"><ele>113.0</ele><time>2026-03-25T13:22:24.05Z</time></trkpt><trkpt lat="44.1054917" lon="12.0760417"><ele>113.0</ele><time>2026-03-25T13:22:26.051Z</time></trkpt><trkpt lat="44.105465" lon="12.07614"><ele>114.16666666666666</ele><time>2026-03-25T13:22:28.051Z</time></trkpt><trkpt lat="44.1054433" lon="12.0762367"><ele>115.33333333333333</ele><time>2026-03-25T13:22:30.05Z</time></trkpt><trkpt lat="44.105435" lon="12.0763367"><ele>116.5</ele><time>2026-03-25T13:22:32.051Z</time></trkpt><trkpt lat="44.10543" lon="12.0764483"><ele>117.66666666666666</ele><time>2026-03-25T13:22:34.051Z</time></trkpt><trkpt lat="44.1054333" lon="12.0765517"><ele>118.83333333333333</ele><time>2026-03-25T13:22:36.05Z</time></trkpt><trkpt lat="44.1054383" lon="12.0766567"><ele>120.0</ele><time>2026-03-25T13:22:38.051Z</time></trkpt><trkpt lat="44.1054483" lon="12.07676"><ele>120.33333333333333</ele><time>2026-03-25T13:22:40.051Z</time></trkpt><trkpt lat="44.1054567" lon="12.076865"><ele>120.66666666666666</ele><time>2026-03-25T13:22:42.05Z</time></trkpt><trkpt lat="44.1054683" lon="12.076975"><ele>121.0</ele><time>2026-03-25T13:22:44.051Z</time></trkpt><trkpt lat="44.1054767" lon="12.0770717"><ele>121.33333333333333</ele><time>2026-03-25T13:22:46.051Z</time></trkpt><trkpt lat="44.1054833" lon="12.0771767"><ele>121.66666666666666</ele><time>2026-03-25T13:22:48.05Z</time></trkpt><trkpt lat="44.105485" lon="12.0772867"><ele>122.0</ele><time>2026-03-25T13:22:50.051Z</time></trkpt><trkpt lat="44.1054867" lon="12.0774"><ele>122.66666666666666</ele><time>2026-03-25T13:22:52.051Z</time></trkpt><trkpt lat="44.10548" lon="12.0775183"><ele>123.33333333333333</ele><time>2026-03-25T13:22:54.051Z</time></trkpt><trkpt lat="44.1054517" lon="12.0776317"><ele>124.0</ele><time>2026-03-25T13:22:56.05Z</time></trkpt><trkpt lat="44.1054" lon="12.0777233"><ele>124.66666666666666</ele><time>2026-03-25T13:22:58.051Z</time></trkpt><trkpt lat="44.105335" lon="12.0777867"><ele>125.33333333333333</ele><time>2026-03-25T13:23:00.05Z</time></trkpt><trkpt lat="44.1052617" lon="12.077835"><ele>126.0</ele><time>2026-03-25T13:23:02.051Z</time></trkpt><trkpt lat="44.105185" lon="12.0778767"><ele>126.0</ele><time>2026-03-25T13:23:04.051Z</time></trkpt><trkpt lat="44.1051" lon="12.077915"><ele>126.0</ele><time>2026-03-25T13:23:06.05Z</time></trkpt><trkpt lat="44.1050033" lon="12.0779633"><ele>126.0</ele><time>2026-03-25T13:23:08.05Z</time></trkpt><trkpt lat="44.1048983" lon="12.078025"><ele>126.0</ele><time>2026-03-25T13:23:10.05Z</time></trkpt><trkpt lat="44.1048383" lon="12.0780517"><ele>126.0</ele><time>2026-03-25T13:23:11.05Z</time></trkpt><trkpt lat="44.1047783" lon="12.0780783"><ele>126.0</ele><time>2026-03-25T13:23:12.05Z</time></trkpt><trkpt lat="44.1047183" lon="12.07811"><ele>125.71428571428572</ele><time>2026-03-25T13:23:13.05Z</time></trkpt><trkpt lat="44.1046567" lon="12.078145"><ele>125.42857142857143</ele><time>2026-03-25T13:23:14.05Z</time></trkpt><trkpt lat="44.1045833" lon="12.0781867"><ele>125.14285714285714</ele><time>2026-03-25T13:23:15.051Z</time></trkpt><trkpt lat="44.10452" lon="12.07822"><ele>124.85714285714286</ele><time>2026-03-25T13:23:16.051Z</time></trkpt><trkpt lat="44.104455" lon="12.078255"><ele>124.57142857142858</ele><time>2026-03-25T13:23:17.051Z</time></trkpt><trkpt lat="44.104385" lon="12.078295"><ele>124.28571428571429</ele><time>2026-03-25T13:23:18.051Z</time></trkpt><trkpt lat="44.104315" lon="12.07833"><ele>124.0</ele><time>2026-03-25T13:23:19.051Z</time></trkpt><trkpt lat="44.1042467" lon="12.078375"><ele>124.0</ele><time>2026-03-25T13:23:20.05Z</time></trkpt><trkpt lat="44.1041767" lon="12.0784183"><ele>124.00000000000001</ele><time>2026-03-25T13:23:21.051Z</time></trkpt><trkpt lat="44.1041133" lon="12.0784767"><ele>124.0</ele><time>2026-03-25T13:23:22.05Z</time></trkpt><trkpt lat="44.104055" lon="12.0785467"><ele>124.0</ele><time>2026-03-25T13:23:23.05Z</time></trkpt><trkpt lat="44.104015" lon="12.0786233"><ele>124.00000000000001</ele><time>2026-03-25T13:23:24.051Z</time></trkpt><trkpt lat="44.1039883" lon="12.0787083"><ele>124.0</ele><time>2026-03-25T13:23:25.051Z</time></trkpt><trkpt lat="44.1039717" lon="12.0788"><ele>124.0</ele><time>2026-03-25T13:23:26.051Z</time></trkpt><trkpt lat="44.1039683" lon="12.0788983"><ele>123.71428571428572</ele><time>2026-03-25T13:23:27.05Z</time></trkpt><trkpt lat="44.1039817" lon="12.0789933"><ele>123.42857142857144</ele><time>2026-03-25T13:23:28.05Z</time></trkpt><trkpt lat="44.1040033" lon="12.079085"><ele>123.14285714285714</ele><time>2026-03-25T13:23:29.051Z</time></trkpt><trkpt lat="44.104025" lon="12.0791783"><ele>122.85714285714286</ele><time>2026-03-25T13:23:30.051Z</time></trkpt><trkpt lat="44.1040433" lon="12.07927"><ele>122.57142857142857</ele><time>2026-03-25T13:23:31.051Z</time></trkpt><trkpt lat="44.104055" lon="12.0793583"><ele>122.28571428571428</ele><time>2026-03-25T13:23:32.051Z</time></trkpt><trkpt lat="44.10405" lon="12.07945"><ele>121.99999999999999</ele><time>2026-03-25T13:23:33.051Z</time></trkpt><trkpt lat="44.1040183" lon="12.0795317"><ele>121.99999999999999</ele><time>2026-03-25T13:23:34.051Z</time></trkpt><trkpt lat="44.1039117" lon="12.0796367"><ele>122.0</ele><time>2026-03-25T13:23:36.05Z</time></trkpt><trkpt lat="44.1038467" lon="12.0796383"><ele>122.0</ele><time>2026-03-25T13:23:37.051Z</time></trkpt><trkpt lat="44.103785" lon="12.0796117"><ele>122.0</ele><time>2026-03-25T13:23:38.05Z</time></trkpt><trkpt lat="44.1037267" lon="12.0795633"><ele>121.99999999999999</ele><time>2026-03-25T13:23:39.051Z</time></trkpt><trkpt lat="44.10367" lon="12.0795083"><ele>122.0</ele><time>2026-03-25T13:23:40.05Z</time></trkpt><trkpt lat="44.1036167" lon="12.0794567"><ele>121.99999999999999</ele><time>2026-03-25T13:23:41.051Z</time></trkpt><trkpt lat="44.103515" lon="12.07936"><ele>122.0</ele><time>2026-03-25T13:23:43.05Z</time></trkpt><trkpt lat="44.103465" lon="12.0793067"><ele>122.0</ele><time>2026-03-25T13:23:44.05Z</time></trkpt><trkpt lat="44.1034183" lon="12.0792467"><ele>122.0</ele><time>2026-03-25T13:23:45.051Z</time></trkpt><trkpt lat="44.1033317" lon="12.0791317"><ele>121.99999999999999</ele><time>2026-03-25T13:23:47.05Z</time></trkpt><trkpt lat="44.1032783" lon="12.0790783"><ele>122.0</ele><time>2026-03-25T13:23:48.051Z</time></trkpt><trkpt lat="44.1032217" lon="12.0790233"><ele>121.57142857142856</ele><time>2026-03-25T13:23:49.05Z</time></trkpt><trkpt lat="44.1031633" lon="12.0789733"><ele>121.14285714285714</ele><time>2026-03-25T13:23:50.051Z</time></trkpt><trkpt lat="44.1031017" lon="12.0789283"><ele>120.71428571428571</ele><time>2026-03-25T13:23:51.05Z</time></trkpt><trkpt lat="44.103035" lon="12.0789067"><ele>120.28571428571428</ele><time>2026-03-25T13:23:52.05Z</time></trkpt><trkpt lat="44.10297" lon="12.0789267"><ele>119.85714285714286</ele><time>2026-03-25T13:23:53.051Z</time></trkpt><trkpt lat="44.1029083" lon="12.0789733"><ele>119.42857142857143</ele><time>2026-03-25T13:23:54.051Z</time></trkpt><trkpt lat="44.1028583" lon="12.0790433"><ele>119.0</ele><time>2026-03-25T13:23:55.05Z</time></trkpt><trkpt lat="44.1028033" lon="12.079115"><ele>118.99999999999999</ele><time>2026-03-25T13:23:56.05Z</time></trkpt><trkpt lat="44.1027333" lon="12.07917"><ele>119.0</ele><time>2026-03-25T13:23:57.05Z</time></trkpt><trkpt lat="44.1026533" lon="12.0792017"><ele>119.0</ele><time>2026-03-25T13:23:58.051Z</time></trkpt><trkpt lat="44.1025667" lon="12.0791983"><ele>119.0</ele><time>2026-03-25T13:23:59.051Z</time></trkpt><trkpt lat="44.1024767" lon="12.079155"><ele>118.99999999999999</ele><time>2026-03-25T13:24:00.05Z</time></trkpt><trkpt lat="44.1023867" lon="12.0790933"><ele>119.0</ele><time>2026-03-25T13:24:01.051Z</time></trkpt><trkpt lat="44.1023033" lon="12.0790283"><ele>116.0</ele><time>2026-03-25T13:24:02.05Z</time></trkpt><trkpt lat="44.10222" lon="12.0789633"><ele>113.0</ele><time>2026-03-25T13:24:03.05Z</time></trkpt><trkpt lat="44.10214" lon="12.0788867"><ele>110.0</ele><time>2026-03-25T13:24:04.051Z</time></trkpt><trkpt lat="44.10206" lon="12.0787983"><ele>107.0</ele><time>2026-03-25T13:24:05.05Z</time></trkpt><trkpt lat="44.1019867" lon="12.0787033"><ele>104.0</ele><time>2026-03-25T13:24:06.05Z</time></trkpt><trkpt lat="44.1019217" lon="12.078605"><ele>103.99999999999999</ele><time>2026-03-25T13:24:07.051Z</time></trkpt><trkpt lat="44.1018617" lon="12.0785233"><ele>104.0</ele><time>2026-03-25T13:24:08.051Z</time></trkpt><trkpt lat="44.10179" lon="12.0784717"><ele>104.0</ele><time>2026-03-25T13:24:09.05Z</time></trkpt><trkpt lat="44.1017133" lon="12.0784483"><ele>104.0</ele><time>2026-03-25T13:24:10.051Z</time></trkpt><trkpt lat="44.1016417" lon="12.0784667"><ele>103.99999999999999</ele><time>2026-03-25T13:24:11.05Z</time></trkpt><trkpt lat="44.1015817" lon="12.07852"><ele>104.0</ele><time>2026-03-25T13:24:12.051Z</time></trkpt><trkpt lat="44.1015283" lon="12.0785983"><ele>102.2</ele><time>2026-03-25T13:24:13.05Z</time></trkpt><trkpt lat="44.10148" lon="12.0787"><ele>100.4</ele><time>2026-03-25T13:24:14.05Z</time></trkpt><trkpt lat="44.1014317" lon="12.0788133"><ele>98.6</ele><time>2026-03-25T13:24:15.05Z</time></trkpt><trkpt lat="44.1013783" lon="12.078925"><ele>96.8</ele><time>2026-03-25T13:24:16.05Z</time></trkpt><trkpt lat="44.1013267" lon="12.0790417"><ele>95.0</ele><time>2026-03-25T13:24:17.051Z</time></trkpt><trkpt lat="44.1012683" lon="12.0791583"><ele>95.0</ele><time>2026-03-25T13:24:18.051Z</time></trkpt><trkpt lat="44.1012067" lon="12.0792633"><ele>95.0</ele><time>2026-03-25T13:24:19.051Z</time></trkpt><trkpt lat="44.10113" lon="12.07936"><ele>95.0</ele><time>2026-03-25T13:24:20.051Z</time></trkpt><trkpt lat="44.1010383" lon="12.0794467"><ele>95.0</ele><time>2026-03-25T13:24:21.051Z</time></trkpt><trkpt lat="44.1009433" lon="12.0795067"><ele>95.0</ele><time>2026-03-25T13:24:22.051Z</time></trkpt><trkpt lat="44.1008417" lon="12.0795517"><ele>91.4</ele><time>2026-03-25T13:24:23.05Z</time></trkpt><trkpt lat="44.1007383" lon="12.079595"><ele>87.8</ele><time>2026-03-25T13:24:24.051Z</time></trkpt><trkpt lat="44.1006333" lon="12.0796217"><ele>84.2</ele><time>2026-03-25T13:24:25.051Z</time></trkpt><trkpt lat="44.100525" lon="12.0796483"><ele>80.6</ele><time>2026-03-25T13:24:26.051Z</time></trkpt><trkpt lat="44.1004183" lon="12.079685"><ele>77.0</ele><time>2026-03-25T13:24:27.05Z</time></trkpt><trkpt lat="44.1003217" lon="12.0797317"><ele>77.0</ele><time>2026-03-25T13:24:28.05Z</time></trkpt><trkpt lat="44.100235" lon="12.0797967"><ele>77.0</ele><time>2026-03-25T13:24:29.051Z</time></trkpt><trkpt lat="44.1001533" lon="12.0798767"><ele>77.0</ele><time>2026-03-25T13:24:30.051Z</time></trkpt><trkpt lat="44.1000767" lon="12.0799683"><ele>77.0</ele><time>2026-03-25T13:24:31.05Z</time></trkpt><trkpt lat="44.0999983" lon="12.08007"><ele>77.0</ele><time>2026-03-25T13:24:32.051Z</time></trkpt><trkpt lat="44.099925" lon="12.0801733"><ele>76.6</ele><time>2026-03-25T13:24:33.051Z</time></trkpt><trkpt lat="44.0998483" lon="12.0802783"><ele>76.2</ele><time>2026-03-25T13:24:34.051Z</time></trkpt><trkpt lat="44.0997717" lon="12.080385"><ele>75.8</ele><time>2026-03-25T13:24:35.05Z</time></trkpt><trkpt lat="44.099695" lon="12.0805017"><ele>75.4</ele><time>2026-03-25T13:24:36.05Z</time></trkpt><trkpt lat="44.099625" lon="12.080615"><ele>75.0</ele><time>2026-03-25T13:24:37.051Z</time></trkpt><trkpt lat="44.09957" lon="12.080735"><ele>76.33333333333333</ele><time>2026-03-25T13:24:38.051Z</time></trkpt><trkpt lat="44.0995383" lon="12.0808617"><ele>77.66666666666667</ele><time>2026-03-25T13:24:39.051Z</time></trkpt><trkpt lat="44.0995083" lon="12.080985"><ele>79.0</ele><time>2026-03-25T13:24:40.051Z</time></trkpt><trkpt lat="44.0994833" lon="12.0811"><ele>80.33333333333334</ele><time>2026-03-25T13:24:41.051Z</time></trkpt><trkpt lat="44.0994483" lon="12.0812017"><ele>81.66666666666667</ele><time>2026-03-25T13:24:42.05Z</time></trkpt><trkpt lat="44.0994033" lon="12.0812817"><ele>83.0</ele><time>2026-03-25T13:24:43.05Z</time></trkpt><trkpt lat="44.0993467" lon="12.0813467"><ele>83.0</ele><time>2026-03-25T13:24:44.051Z</time></trkpt><trkpt lat="44.0992817" lon="12.0813767"><ele>83.0</ele><time>2026-03-25T13:24:45.05Z</time></trkpt><trkpt lat="44.0992117" lon="12.0813767"><ele>83.0</ele><time>2026-03-25T13:24:46.051Z</time></trkpt><trkpt lat="44.0991433" lon="12.0813467"><ele>83.0</ele><time>2026-03-25T13:24:47.051Z</time></trkpt><trkpt lat="44.0990817" lon="12.0812983"><ele>83.0</ele><time>2026-03-25T13:24:48.05Z</time></trkpt><trkpt lat="44.0990217" lon="12.0812517"><ele>83.0</ele><time>2026-03-25T13:24:49.051Z</time></trkpt><trkpt lat="44.0989583" lon="12.0812083"><ele>83.0</ele><time>2026-03-25T13:24:50.051Z</time></trkpt><trkpt lat="44.0989" lon="12.0811667"><ele>83.0</ele><time>2026-03-25T13:24:51.051Z</time></trkpt><trkpt lat="44.0988417" lon="12.081125"><ele>83.0</ele><time>2026-03-25T13:24:52.05Z</time></trkpt><trkpt lat="44.0987783" lon="12.0810917"><ele>83.0</ele><time>2026-03-25T13:24:53.051Z</time></trkpt><trkpt lat="44.098715" lon="12.0810667"><ele>83.0</ele><time>2026-03-25T13:24:54.051Z</time></trkpt><trkpt lat="44.0986517" lon="12.081055"><ele>83.0</ele><time>2026-03-25T13:24:55.05Z</time></trkpt><trkpt lat="44.0985883" lon="12.081055"><ele>83.0</ele><time>2026-03-25T13:24:56.05Z</time></trkpt><trkpt lat="44.098525" lon="12.0810567"><ele>83.0</ele><time>2026-03-25T13:24:57.051Z</time></trkpt><trkpt lat="44.0984033" lon="12.0810583"><ele>83.0</ele><time>2026-03-25T13:24:59.05Z</time></trkpt><trkpt lat="44.0982833" lon="12.08106"><ele>83.0</ele><time>2026-03-25T13:25:01.05Z</time></trkpt><trkpt lat="44.0981667" lon="12.0810367"><ele>83.0</ele><time>2026-03-25T13:25:03.051Z</time></trkpt><trkpt lat="44.09806" lon="12.0809783"><ele>83.0</ele><time>2026-03-25T13:25:05.05Z</time></trkpt><trkpt lat="44.0979633" lon="12.0809233"><ele>82.2</ele><time>2026-03-25T13:25:07.05Z</time></trkpt><trkpt lat="44.0978633" lon="12.0808883"><ele>81.4</ele><time>2026-03-25T13:25:09.05Z</time></trkpt><trkpt lat="44.0977667" lon="12.0808867"><ele>80.60000000000001</ele><time>2026-03-25T13:25:11.051Z</time></trkpt><trkpt lat="44.0976717" lon="12.0809533"><ele>79.80000000000001</ele><time>2026-03-25T13:25:13.051Z</time></trkpt><trkpt lat="44.097585" lon="12.081065"><ele>79.0</ele><time>2026-03-25T13:25:15.05Z</time></trkpt><trkpt lat="44.0975117" lon="12.0811867"><ele>79.0</ele><time>2026-03-25T13:25:17.05Z</time></trkpt><trkpt lat="44.0974333" lon="12.0813167"><ele>79.0</ele><time>2026-03-25T13:25:19.051Z</time></trkpt><trkpt lat="44.0973583" lon="12.081445"><ele>79.0</ele><time>2026-03-25T13:25:21.05Z</time></trkpt><trkpt lat="44.0972733" lon="12.0815683"><ele>79.0</ele><time>2026-03-25T13:25:23.051Z</time></trkpt><trkpt lat="44.097175" lon="12.08167"><ele>79.0</ele><time>2026-03-25T13:25:25.051Z</time></trkpt><trkpt lat="44.0970833" lon="12.0817633"><ele>79.0</ele><time>2026-03-25T13:25:27.05Z</time></trkpt><trkpt lat="44.0969967" lon="12.0818583"><ele>79.0</ele><time>2026-03-25T13:25:29.051Z</time></trkpt><trkpt lat="44.0969217" lon="12.081965"><ele>79.0</ele><time>2026-03-25T13:25:31.051Z</time></trkpt><trkpt lat="44.0968467" lon="12.0820833"><ele>79.0</ele><time>2026-03-25T13:25:33.051Z</time></trkpt><trkpt lat="44.096755" lon="12.0821917"><ele>79.0</ele><time>2026-03-25T13:25:35.05Z</time></trkpt><trkpt lat="44.0966517" lon="12.0822767"><ele>79.0</ele><time>2026-03-25T13:25:37.051Z</time></trkpt><trkpt lat="44.0965333" lon="12.082315"><ele>79.0</ele><time>2026-03-25T13:25:39.05Z</time></trkpt><trkpt lat="44.09642" lon="12.0823283"><ele>79.0</ele><time>2026-03-25T13:25:41.051Z</time></trkpt><trkpt lat="44.096305" lon="12.0823367"><ele>78.5</ele><time>2026-03-25T13:25:43.051Z</time></trkpt><trkpt lat="44.096185" lon="12.0823317"><ele>78.0</ele><time>2026-03-25T13:25:45.051Z</time></trkpt><trkpt lat="44.09608" lon="12.0823317"><ele>77.5</ele><time>2026-03-25T13:25:47.05Z</time></trkpt><trkpt lat="44.095975" lon="12.0823333"><ele>77.0</ele><time>2026-03-25T13:25:49.05Z</time></trkpt><trkpt lat="44.0958517" lon="12.0823317"><ele>76.5</ele><time>2026-03-25T13:25:51.05Z</time></trkpt><trkpt lat="44.0957317" lon="12.0823183"><ele>76.0</ele><time>2026-03-25T13:25:53.051Z</time></trkpt><trkpt lat="44.0956267" lon="12.082285"><ele>75.5</ele><time>2026-03-25T13:25:55.051Z</time></trkpt><trkpt lat="44.095515" lon="12.082255"><ele>75.0</ele><time>2026-03-25T13:25:57.051Z</time></trkpt><trkpt lat="44.0954117" lon="12.0822083"><ele>75.0</ele><time>2026-03-25T13:25:59.051Z</time></trkpt><trkpt lat="44.0953067" lon="12.0821683"><ele>75.0</ele><time>2026-03-25T13:26:01.05Z</time></trkpt><trkpt lat="44.09519" lon="12.082125"><ele>75.0</ele><time>2026-03-25T13:26:03.05Z</time></trkpt><trkpt lat="44.095075" lon="12.0821067"><ele>75.0</ele><time>2026-03-25T13:26:05.05Z</time></trkpt><trkpt lat="44.0949633" lon="12.0821267"><ele>75.2</ele><time>2026-03-25T13:26:07.051Z</time></trkpt><trkpt lat="44.094865" lon="12.0822133"><ele>75.4</ele><time>2026-03-25T13:26:09.051Z</time></trkpt><trkpt lat="44.0948117" lon="12.0822717"><ele>75.6</ele><time>2026-03-25T13:26:10.051Z</time></trkpt><trkpt lat="44.0947283" lon="12.082385"><ele>75.8</ele><time>2026-03-25T13:26:12.051Z</time></trkpt><trkpt lat="44.09466" lon="12.0825"><ele>76.0</ele><time>2026-03-25T13:26:14.051Z</time></trkpt><trkpt lat="44.0945933" lon="12.0826117"><ele>76.0</ele><time>2026-03-25T13:26:16.051Z</time></trkpt><trkpt lat="44.094535" lon="12.0827217"><ele>76.0</ele><time>2026-03-25T13:26:18.05Z</time></trkpt><trkpt lat="44.0944833" lon="12.0828367"><ele>76.0</ele><time>2026-03-25T13:26:20.051Z</time></trkpt><trkpt lat="44.0944433" lon="12.08296"><ele>76.0</ele><time>2026-03-25T13:26:22.051Z</time></trkpt><trkpt lat="44.094375" lon="12.083075"><ele>76.0</ele><time>2026-03-25T13:26:24.05Z</time></trkpt><trkpt lat="44.0942883" lon="12.08317"><ele>76.0</ele><time>2026-03-25T13:26:26.051Z</time></trkpt><trkpt lat="44.0942067" lon="12.0832317"><ele>76.0</ele><time>2026-03-25T13:26:28.051Z</time></trkpt><trkpt lat="44.0941117" lon="12.0832983"><ele>76.0</ele><time>2026-03-25T13:26:30.051Z</time></trkpt><trkpt lat="44.094025" lon="12.0833917"><ele>76.0</ele><time>2026-03-25T13:26:32.05Z</time></trkpt><trkpt lat="44.0939483" lon="12.083515"><ele>76.0</ele><time>2026-03-25T13:26:34.05Z</time></trkpt><trkpt lat="44.093875" lon="12.0836333"><ele>76.0</ele><time>2026-03-25T13:26:36.051Z</time></trkpt><trkpt lat="44.0938067" lon="12.0837533"><ele>76.0</ele><time>2026-03-25T13:26:38.05Z</time></trkpt><trkpt lat="44.0937417" lon="12.0838783"><ele>76.0</ele><time>2026-03-25T13:26:40.051Z</time></trkpt><trkpt lat="44.0936817" lon="12.084005"><ele>76.0</ele><time>2026-03-25T13:26:42.051Z</time></trkpt><trkpt lat="44.09362" lon="12.084125"><ele>76.0</ele><time>2026-03-25T13:26:44.051Z</time></trkpt><trkpt lat="44.0935517" lon="12.0842433"><ele>75.39999999999999</ele><time>2026-03-25T13:26:46.05Z</time></trkpt><trkpt lat="44.093485" lon="12.0843567"><ele>74.8</ele><time>2026-03-25T13:26:48.051Z</time></trkpt><trkpt lat="44.0934167" lon="12.0844667"><ele>74.19999999999999</ele><time>2026-03-25T13:26:50.051Z</time></trkpt><trkpt lat="44.09334" lon="12.0845933"><ele>73.6</ele><time>2026-03-25T13:26:52.05Z</time></trkpt><trkpt lat="44.0932633" lon="12.0847233"><ele>73.0</ele><time>2026-03-25T13:26:54.05Z</time></trkpt><trkpt lat="44.0931867" lon="12.0848267"><ele>73.0</ele><time>2026-03-25T13:26:56.051Z</time></trkpt><trkpt lat="44.0930967" lon="12.0849133"><ele>73.0</ele><time>2026-03-25T13:26:58.05Z</time></trkpt><trkpt lat="44.0929983" lon="12.0849833"><ele>73.0</ele><time>2026-03-25T13:27:00.05Z</time></trkpt><trkpt lat="44.0928933" lon="12.085045"><ele>73.0</ele><time>2026-03-25T13:27:02.051Z</time></trkpt><trkpt lat="44.0928317" lon="12.085075"><ele>73.0</ele><time>2026-03-25T13:27:03.051Z</time></trkpt><trkpt lat="44.092765" lon="12.08511"><ele>73.83333333333333</ele><time>2026-03-25T13:27:04.051Z</time></trkpt><trkpt lat="44.092695" lon="12.085145"><ele>74.66666666666666</ele><time>2026-03-25T13:27:05.05Z</time></trkpt><trkpt lat="44.0926217" lon="12.08518"><ele>75.5</ele><time>2026-03-25T13:27:06.051Z</time></trkpt><trkpt lat="44.092545" lon="12.0852217"><ele>76.33333333333333</ele><time>2026-03-25T13:27:07.051Z</time></trkpt><trkpt lat="44.0924617" lon="12.08526"><ele>77.16666666666667</ele><time>2026-03-25T13:27:08.051Z</time></trkpt><trkpt lat="44.0923767" lon="12.0852983"><ele>78.0</ele><time>2026-03-25T13:27:09.05Z</time></trkpt><trkpt lat="44.0922833" lon="12.0853167"><ele>78.0</ele><time>2026-03-25T13:27:10.05Z</time></trkpt><trkpt lat="44.0921867" lon="12.08532"><ele>78.0</ele><time>2026-03-25T13:27:11.051Z</time></trkpt><trkpt lat="44.0920833" lon="12.0853033"><ele>78.0</ele><time>2026-03-25T13:27:12.051Z</time></trkpt><trkpt lat="44.0919767" lon="12.0852683"><ele>78.0</ele><time>2026-03-25T13:27:13.051Z</time></trkpt><trkpt lat="44.09187" lon="12.08522"><ele>78.0</ele><time>2026-03-25T13:27:14.051Z</time></trkpt><trkpt lat="44.091765" lon="12.08516"><ele>78.0</ele><time>2026-03-25T13:27:15.05Z</time></trkpt><trkpt lat="44.0916517" lon="12.08509"><ele>78.0</ele><time>2026-03-25T13:27:16.05Z</time></trkpt><trkpt lat="44.0915417" lon="12.0850233"><ele>78.0</ele><time>2026-03-25T13:27:17.05Z</time></trkpt><trkpt lat="44.0914317" lon="12.0849583"><ele>78.0</ele><time>2026-03-25T13:27:18.051Z</time></trkpt><trkpt lat="44.09133" lon="12.0849"><ele>77.4</ele><time>2026-03-25T13:27:19.051Z</time></trkpt><trkpt lat="44.091225" lon="12.0848367"><ele>76.8</ele><time>2026-03-25T13:27:20.051Z</time></trkpt><trkpt lat="44.0911217" lon="12.0847817"><ele>76.2</ele><time>2026-03-25T13:27:21.051Z</time></trkpt><trkpt lat="44.0910183" lon="12.0847233"><ele>75.6</ele><time>2026-03-25T13:27:22.051Z</time></trkpt><trkpt lat="44.09092" lon="12.084665"><ele>75.0</ele><time>2026-03-25T13:27:23.051Z</time></trkpt><trkpt lat="44.090815" lon="12.0846167"><ele>75.4</ele><time>2026-03-25T13:27:24.051Z</time></trkpt><trkpt lat="44.0907133" lon="12.08457"><ele>75.8</ele><time>2026-03-25T13:27:25.051Z</time></trkpt><trkpt lat="44.0906133" lon="12.0845283"><ele>76.2</ele><time>2026-03-25T13:27:26.051Z</time></trkpt><trkpt lat="44.0905167" lon="12.084495"><ele>76.6</ele><time>2026-03-25T13:27:27.05Z</time></trkpt><trkpt lat="44.090425" lon="12.084455"><ele>77.0</ele><time>2026-03-25T13:27:28.05Z</time></trkpt><trkpt lat="44.0903317" lon="12.0844217"><ele>77.0</ele><time>2026-03-25T13:27:29.051Z</time></trkpt><trkpt lat="44.0902417" lon="12.0843917"><ele>77.0</ele><time>2026-03-25T13:27:30.051Z</time></trkpt><trkpt lat="44.0901533" lon="12.0843617"><ele>77.0</ele><time>2026-03-25T13:27:31.051Z</time></trkpt><trkpt lat="44.0900733" lon="12.084335"><ele>77.0</ele><time>2026-03-25T13:27:32.051Z</time></trkpt><trkpt lat="44.0899933" lon="12.0843117"><ele>77.0</ele><time>2026-03-25T13:27:33.051Z</time></trkpt><trkpt lat="44.0899183" lon="12.0842867"><ele>77.0</ele><time>2026-03-25T13:27:34.051Z</time></trkpt><trkpt lat="44.08985" lon="12.08426"><ele>77.2</ele><time>2026-03-25T13:27:35.051Z</time></trkpt><trkpt lat="44.0897833" lon="12.0842383"><ele>77.4</ele><time>2026-03-25T13:27:36.05Z</time></trkpt><trkpt lat="44.0897167" lon="12.0842217"><ele>77.6</ele><time>2026-03-25T13:27:37.05Z</time></trkpt><trkpt lat="44.0895983" lon="12.0841917"><ele>77.8</ele><time>2026-03-25T13:27:39.051Z</time></trkpt><trkpt lat="44.089485" lon="12.084165"><ele>78.0</ele><time>2026-03-25T13:27:41.05Z</time></trkpt><trkpt lat="44.0893833" lon="12.0841483"><ele>78.0</ele><time>2026-03-25T13:27:43.05Z</time></trkpt><trkpt lat="44.0892783" lon="12.0841533"><ele>78.0</ele><time>2026-03-25T13:27:45.051Z</time></trkpt><trkpt lat="44.089185" lon="12.08419"><ele>78.0</ele><time>2026-03-25T13:27:47.051Z</time></trkpt><trkpt lat="44.089105" lon="12.084245"><ele>78.0</ele><time>2026-03-25T13:27:49.051Z</time></trkpt><trkpt lat="44.08902" lon="12.0843183"><ele>78.0</ele><time>2026-03-25T13:27:51.051Z</time></trkpt><trkpt lat="44.0889283" lon="12.08439"><ele>78.4</ele><time>2026-03-25T13:27:53.051Z</time></trkpt><trkpt lat="44.088835" lon="12.0844533"><ele>78.8</ele><time>2026-03-25T13:27:55.05Z</time></trkpt><trkpt lat="44.0887367" lon="12.0845067"><ele>79.2</ele><time>2026-03-25T13:27:57.051Z</time></trkpt><trkpt lat="44.08863" lon="12.08455"><ele>79.6</ele><time>2026-03-25T13:27:59.051Z</time></trkpt><trkpt lat="44.0885267" lon="12.084545"><ele>80.0</ele><time>2026-03-25T13:28:01.051Z</time></trkpt><trkpt lat="44.0884167" lon="12.084505"><ele>80.0</ele><time>2026-03-25T13:28:03.051Z</time></trkpt><trkpt lat="44.0883233" lon="12.0844467"><ele>80.0</ele><time>2026-03-25T13:28:05.051Z</time></trkpt><trkpt lat="44.088235" lon="12.0844017"><ele>80.0</ele><time>2026-03-25T13:28:07.051Z</time></trkpt><trkpt lat="44.088135" lon="12.0843717"><ele>80.0</ele><time>2026-03-25T13:28:09.05Z</time></trkpt><trkpt lat="44.0880283" lon="12.0843567"><ele>80.0</ele><time>2026-03-25T13:28:11.051Z</time></trkpt><trkpt lat="44.0879267" lon="12.0843467"><ele>80.4</ele><time>2026-03-25T13:28:13.05Z</time></trkpt><trkpt lat="44.0878283" lon="12.0843317"><ele>80.8</ele><time>2026-03-25T13:28:15.051Z</time></trkpt><trkpt lat="44.087735" lon="12.0843083"><ele>81.19999999999999</ele><time>2026-03-25T13:28:17.051Z</time></trkpt><trkpt lat="44.087645" lon="12.0842817"><ele>81.6</ele><time>2026-03-25T13:28:19.05Z</time></trkpt><trkpt lat="44.087555" lon="12.08426"><ele>82.0</ele><time>2026-03-25T13:28:21.05Z</time></trkpt><trkpt lat="44.08747" lon="12.0842367"><ele>82.5</ele><time>2026-03-25T13:28:23.051Z</time></trkpt><trkpt lat="44.08739" lon="12.0842217"><ele>83.0</ele><time>2026-03-25T13:28:25.051Z</time></trkpt><trkpt lat="44.08732" lon="12.08422"><ele>83.5</ele><time>2026-03-25T13:28:27.05Z</time></trkpt><trkpt lat="44.0872483" lon="12.08421"><ele>84.0</ele><time>2026-03-25T13:28:29.05Z</time></trkpt><trkpt lat="44.0871767" lon="12.0842033"><ele>84.5</ele><time>2026-03-25T13:28:31.051Z</time></trkpt><trkpt lat="44.0871017" lon="12.0842083"><ele>85.0</ele><time>2026-03-25T13:28:33.051Z</time></trkpt><trkpt lat="44.08702" lon="12.084215"><ele>85.0</ele><time>2026-03-25T13:28:35.05Z</time></trkpt><trkpt lat="44.0869417" lon="12.0842167"><ele>85.0</ele><time>2026-03-25T13:28:37.05Z</time></trkpt><trkpt lat="44.086865" lon="12.08423"><ele>85.0</ele><time>2026-03-25T13:28:39.051Z</time></trkpt><trkpt lat="44.0867883" lon="12.0842467"><ele>85.0</ele><time>2026-03-25T13:28:41.05Z</time></trkpt><trkpt lat="44.0867167" lon="12.0842617"><ele>85.0</ele><time>2026-03-25T13:28:43.051Z</time></trkpt><trkpt lat="44.0866433" lon="12.0842817"><ele>85.0</ele><time>2026-03-25T13:28:45.05Z</time></trkpt><trkpt lat="44.08655" lon="12.0843133"><ele>84.5</ele><time>2026-03-25T13:28:48.051Z</time></trkpt><trkpt lat="44.08648" lon="12.084345"><ele>84.0</ele><time>2026-03-25T13:28:50.05Z</time></trkpt><trkpt lat="44.0863983" lon="12.08439"><ele>83.5</ele><time>2026-03-25T13:28:52.051Z</time></trkpt><trkpt lat="44.0863267" lon="12.0844383"><ele>83.0</ele><time>2026-03-25T13:28:54.05Z</time></trkpt><trkpt lat="44.08626" lon="12.084485"><ele>82.5</ele><time>2026-03-25T13:28:56.05Z</time></trkpt><trkpt lat="44.0861917" lon="12.0845333"><ele>82.0</ele><time>2026-03-25T13:28:58.05Z</time></trkpt><trkpt lat="44.0861233" lon="12.0845767"><ele>82.0</ele><time>2026-03-25T13:29:00.05Z</time></trkpt><trkpt lat="44.08607" lon="12.0846283"><ele>82.0</ele><time>2026-03-25T13:29:02.051Z</time></trkpt><trkpt lat="44.0860067" lon="12.0846883"><ele>82.0</ele><time>2026-03-25T13:29:04.051Z</time></trkpt><trkpt lat="44.085945" lon="12.0847383"><ele>82.0</ele><time>2026-03-25T13:29:06.05Z</time></trkpt><trkpt lat="44.0858767" lon="12.0848"><ele>82.0</ele><time>2026-03-25T13:29:08.05Z</time></trkpt><trkpt lat="44.0857983" lon="12.0848617"><ele>82.0</ele><time>2026-03-25T13:29:10.051Z</time></trkpt><trkpt lat="44.0857217" lon="12.0849183"><ele>82.39999999999999</ele><time>2026-03-25T13:29:12.051Z</time></trkpt><trkpt lat="44.0856483" lon="12.0849783"><ele>82.8</ele><time>2026-03-25T13:29:14.05Z</time></trkpt><trkpt lat="44.0855633" lon="12.0850417"><ele>83.2</ele><time>2026-03-25T13:29:16.051Z</time></trkpt><trkpt lat="44.0854867" lon="12.08511"><ele>83.6</ele><time>2026-03-25T13:29:18.051Z</time></trkpt><trkpt lat="44.08541" lon="12.085175"><ele>84.0</ele><time>2026-03-25T13:29:20.051Z</time></trkpt><trkpt lat="44.0853317" lon="12.0852383"><ele>84.0</ele><time>2026-03-25T13:29:22.051Z</time></trkpt><trkpt lat="44.0852467" lon="12.0852967"><ele>84.0</ele><time>2026-03-25T13:29:24.05Z</time></trkpt><trkpt lat="44.0851733" lon="12.0853567"><ele>84.0</ele><time>2026-03-25T13:29:26.051Z</time></trkpt><trkpt lat="44.0850867" lon="12.0854167"><ele>84.0</ele><time>2026-03-25T13:29:28.051Z</time></trkpt><trkpt lat="44.084995" lon="12.0854833"><ele>84.0</ele><time>2026-03-25T13:29:30.051Z</time></trkpt><trkpt lat="44.084915" lon="12.0855533"><ele>84.2</ele><time>2026-03-25T13:29:32.051Z</time></trkpt><trkpt lat="44.0848367" lon="12.0856383"><ele>84.4</ele><time>2026-03-25T13:29:34.05Z</time></trkpt><trkpt lat="44.0847717" lon="12.085735"><ele>84.6</ele><time>2026-03-25T13:29:36.05Z</time></trkpt><trkpt lat="44.0847167" lon="12.0858433"><ele>84.8</ele><time>2026-03-25T13:29:38.051Z</time></trkpt><trkpt lat="44.0846633" lon="12.08596"><ele>85.0</ele><time>2026-03-25T13:29:40.05Z</time></trkpt><trkpt lat="44.0846083" lon="12.086075"><ele>85.0</ele><time>2026-03-25T13:29:42.051Z</time></trkpt><trkpt lat="44.0845583" lon="12.0861783"><ele>85.0</ele><time>2026-03-25T13:29:44.05Z</time></trkpt><trkpt lat="44.08451" lon="12.08628"><ele>85.0</ele><time>2026-03-25T13:29:46.051Z</time></trkpt><trkpt lat="44.084465" lon="12.0863767"><ele>85.0</ele><time>2026-03-25T13:29:48.051Z</time></trkpt><trkpt lat="44.0844167" lon="12.086455"><ele>85.0</ele><time>2026-03-25T13:29:50.051Z</time></trkpt><trkpt lat="44.0843617" lon="12.0865383"><ele>85.0</ele><time>2026-03-25T13:29:52.051Z</time></trkpt><trkpt lat="44.0842917" lon="12.08661"><ele>85.8</ele><time>2026-03-25T13:29:54.05Z</time></trkpt><trkpt lat="44.0842067" lon="12.086675"><ele>86.6</ele><time>2026-03-25T13:29:56.051Z</time></trkpt><trkpt lat="44.0841167" lon="12.0867217"><ele>87.4</ele><time>2026-03-25T13:29:58.051Z</time></trkpt><trkpt lat="44.084025" lon="12.08677"><ele>88.2</ele><time>2026-03-25T13:30:00.051Z</time></trkpt><trkpt lat="44.08394" lon="12.086795"><ele>89.0</ele><time>2026-03-25T13:30:02.05Z</time></trkpt><trkpt lat="44.0838533" lon="12.086825"><ele>89.0</ele><time>2026-03-25T13:30:04.051Z</time></trkpt><trkpt lat="44.083765" lon="12.0868567"><ele>89.0</ele><time>2026-03-25T13:30:06.051Z</time></trkpt><trkpt lat="44.083685" lon="12.0868883"><ele>89.0</ele><time>2026-03-25T13:30:08.05Z</time></trkpt><trkpt lat="44.0835967" lon="12.0869067"><ele>89.0</ele><time>2026-03-25T13:30:10.05Z</time></trkpt><trkpt lat="44.08351" lon="12.08691"><ele>89.0</ele><time>2026-03-25T13:30:12.05Z</time></trkpt><trkpt lat="44.0834283" lon="12.0869133"><ele>89.0</ele><time>2026-03-25T13:30:14.051Z</time></trkpt><trkpt lat="44.0833467" lon="12.086925"><ele>88.66666666666667</ele><time>2026-03-25T13:30:16.05Z</time></trkpt><trkpt lat="44.0832633" lon="12.0869467"><ele>88.33333333333334</ele><time>2026-03-25T13:30:18.05Z</time></trkpt><trkpt lat="44.0831767" lon="12.0869483"><ele>88.0</ele><time>2026-03-25T13:30:20.051Z</time></trkpt><trkpt lat="44.0830967" lon="12.0869517"><ele>87.66666666666667</ele><time>2026-03-25T13:30:22.051Z</time></trkpt><trkpt lat="44.083" lon="12.08696"><ele>87.33333333333333</ele><time>2026-03-25T13:30:43.05Z</time></trkpt><trkpt lat="44.0829267" lon="12.0869767"><ele>87.0</ele><time>2026-03-25T13:30:46.051Z</time></trkpt><trkpt lat="44.08286" lon="12.0869767"><ele>87.0</ele><time>2026-03-25T13:30:48.051Z</time></trkpt><trkpt lat="44.082785" lon="12.08698"><ele>87.0</ele><time>2026-03-25T13:30:50.051Z</time></trkpt><trkpt lat="44.0827067" lon="12.0869867"><ele>87.0</ele><time>2026-03-25T13:30:52.05Z</time></trkpt><trkpt lat="44.082635" lon="12.08699"><ele>87.0</ele><time>2026-03-25T13:30:54.05Z</time></trkpt><trkpt lat="44.08256" lon="12.0869767"><ele>87.0</ele><time>2026-03-25T13:30:56.051Z</time></trkpt><trkpt lat="44.0824567" lon="12.0869683"><ele>87.0</ele><time>2026-03-25T13:30:58.05Z</time></trkpt><trkpt lat="44.08236" lon="12.086965"><ele>87.19999999999999</ele><time>2026-03-25T13:31:00.051Z</time></trkpt><trkpt lat="44.0822617" lon="12.0869683"><ele>87.4</ele><time>2026-03-25T13:31:02.051Z</time></trkpt><trkpt lat="44.0821617" lon="12.086965"><ele>87.6</ele><time>2026-03-25T13:31:04.05Z</time></trkpt><trkpt lat="44.0820583" lon="12.086955"><ele>87.80000000000001</ele><time>2026-03-25T13:31:06.05Z</time></trkpt><trkpt lat="44.08197" lon="12.0869567"><ele>88.0</ele><time>2026-03-25T13:31:08.05Z</time></trkpt><trkpt lat="44.08189" lon="12.086965"><ele>88.0</ele><time>2026-03-25T13:31:10.051Z</time></trkpt><trkpt lat="44.0817983" lon="12.0869567"><ele>88.0</ele><time>2026-03-25T13:31:12.05Z</time></trkpt><trkpt lat="44.0817167" lon="12.0869517"><ele>88.0</ele><time>2026-03-25T13:31:14.05Z</time></trkpt><trkpt lat="44.0816217" lon="12.086945"><ele>88.0</ele><time>2026-03-25T13:31:16.05Z</time></trkpt><trkpt lat="44.0815217" lon="12.086955"><ele>88.0</ele><time>2026-03-25T13:31:18.05Z</time></trkpt><trkpt lat="44.08143" lon="12.0869767"><ele>88.2</ele><time>2026-03-25T13:31:20.049Z</time></trkpt><trkpt lat="44.0813367" lon="12.087"><ele>88.4</ele><time>2026-03-25T13:31:22.049Z</time></trkpt><trkpt lat="44.0812533" lon="12.0870133"><ele>88.60000000000001</ele><time>2026-03-25T13:31:24.05Z</time></trkpt><trkpt lat="44.0811683" lon="12.087045"><ele>88.80000000000001</ele><time>2026-03-25T13:31:26.05Z</time></trkpt><trkpt lat="44.08107" lon="12.0870767"><ele>89.0</ele><time>2026-03-25T13:31:28.049Z</time></trkpt><trkpt lat="44.0809817" lon="12.0870983"><ele>89.0</ele><time>2026-03-25T13:31:30.049Z</time></trkpt><trkpt lat="44.0809017" lon="12.08713"><ele>89.0</ele><time>2026-03-25T13:31:32.049Z</time></trkpt><trkpt lat="44.0808167" lon="12.0871533"><ele>89.0</ele><time>2026-03-25T13:31:34.05Z</time></trkpt><trkpt lat="44.0807333" lon="12.0871833"><ele>89.0</ele><time>2026-03-25T13:31:36.049Z</time></trkpt><trkpt lat="44.0806367" lon="12.0872033"><ele>89.0</ele><time>2026-03-25T13:31:38.05Z</time></trkpt><trkpt lat="44.0805367" lon="12.0872183"><ele>89.0</ele><time>2026-03-25T13:31:40.049Z</time></trkpt><trkpt lat="44.0804483" lon="12.0872333"><ele>89.0</ele><time>2026-03-25T13:31:42.049Z</time></trkpt><trkpt lat="44.0803517" lon="12.0872483"><ele>89.0</ele><time>2026-03-25T13:31:44.05Z</time></trkpt><trkpt lat="44.080255" lon="12.087265"><ele>89.0</ele><time>2026-03-25T13:31:46.05Z</time></trkpt><trkpt lat="44.0801633" lon="12.0872667"><ele>89.0</ele><time>2026-03-25T13:31:48.05Z</time></trkpt><trkpt lat="44.080065" lon="12.0872517"><ele>89.0</ele><time>2026-03-25T13:31:50.05Z</time></trkpt><trkpt lat="44.079965" lon="12.0872383"><ele>89.0</ele><time>2026-03-25T13:31:52.049Z</time></trkpt><trkpt lat="44.0798667" lon="12.0872233"><ele>89.0</ele><time>2026-03-25T13:31:54.05Z</time></trkpt><trkpt lat="44.079785" lon="12.08721"><ele>89.0</ele><time>2026-03-25T13:31:56.05Z</time></trkpt><trkpt lat="44.079695" lon="12.0871967"><ele>89.0</ele><time>2026-03-25T13:31:58.049Z</time></trkpt><trkpt lat="44.079605" lon="12.0871767"><ele>88.80000000000001</ele><time>2026-03-25T13:32:00.049Z</time></trkpt><trkpt lat="44.079515" lon="12.087165"><ele>88.60000000000001</ele><time>2026-03-25T13:32:02.05Z</time></trkpt><trkpt lat="44.0794233" lon="12.087175"><ele>88.4</ele><time>2026-03-25T13:32:04.05Z</time></trkpt><trkpt lat="44.0793383" lon="12.0871867"><ele>88.2</ele><time>2026-03-25T13:32:06.05Z</time></trkpt><trkpt lat="44.07925" lon="12.0872083"><ele>88.0</ele><time>2026-03-25T13:32:08.049Z</time></trkpt><trkpt lat="44.0791517" lon="12.08726"><ele>88.80000000000001</ele><time>2026-03-25T13:32:10.049Z</time></trkpt><trkpt lat="44.0790533" lon="12.08732"><ele>89.6</ele><time>2026-03-25T13:32:12.049Z</time></trkpt><trkpt lat="44.0789567" lon="12.0873667"><ele>90.4</ele><time>2026-03-25T13:32:14.05Z</time></trkpt><trkpt lat="44.078855" lon="12.08738"><ele>91.19999999999999</ele><time>2026-03-25T13:32:16.05Z</time></trkpt><trkpt lat="44.078745" lon="12.087375"><ele>92.0</ele><time>2026-03-25T13:32:18.049Z</time></trkpt><trkpt lat="44.07864" lon="12.0873483"><ele>92.0</ele><time>2026-03-25T13:32:20.049Z</time></trkpt><trkpt lat="44.0785383" lon="12.087305"><ele>92.0</ele><time>2026-03-25T13:32:22.049Z</time></trkpt><trkpt lat="44.0784517" lon="12.08725"><ele>92.0</ele><time>2026-03-25T13:32:24.049Z</time></trkpt><trkpt lat="44.0783617" lon="12.0872"><ele>92.0</ele><time>2026-03-25T13:32:26.049Z</time></trkpt><trkpt lat="44.0782783" lon="12.08716"><ele>92.0</ele><time>2026-03-25T13:32:28.05Z</time></trkpt><trkpt lat="44.0782033" lon="12.0871083"><ele>92.33333333333334</ele><time>2026-03-25T13:32:30.05Z</time></trkpt><trkpt lat="44.0781183" lon="12.087065"><ele>92.66666666666667</ele><time>2026-03-25T13:32:32.049Z</time></trkpt><trkpt lat="44.0780333" lon="12.087015"><ele>93.0</ele><time>2026-03-25T13:32:34.05Z</time></trkpt><trkpt lat="44.0779633" lon="12.0869767"><ele>93.33333333333333</ele><time>2026-03-25T13:32:36.049Z</time></trkpt><trkpt lat="44.0778833" lon="12.0869483"><ele>93.66666666666666</ele><time>2026-03-25T13:32:38.05Z</time></trkpt><trkpt lat="44.0778083" lon="12.086955"><ele>94.0</ele><time>2026-03-25T13:32:40.05Z</time></trkpt><trkpt lat="44.0777133" lon="12.0869783"><ele>94.0</ele><time>2026-03-25T13:32:42.049Z</time></trkpt><trkpt lat="44.077615" lon="12.0870233"><ele>94.0</ele><time>2026-03-25T13:32:44.05Z</time></trkpt><trkpt lat="44.0775267" lon="12.087095"><ele>94.0</ele><time>2026-03-25T13:32:46.05Z</time></trkpt><trkpt lat="44.0774567" lon="12.0871717"><ele>94.0</ele><time>2026-03-25T13:32:48.049Z</time></trkpt><trkpt lat="44.0773817" lon="12.0872367"><ele>94.0</ele><time>2026-03-25T13:32:50.05Z</time></trkpt><trkpt lat="44.0773183" lon="12.0873083"><ele>94.16666666666666</ele><time>2026-03-25T13:32:52.05Z</time></trkpt><trkpt lat="44.0772533" lon="12.0873817"><ele>94.33333333333333</ele><time>2026-03-25T13:32:54.049Z</time></trkpt><trkpt lat="44.07719" lon="12.08746"><ele>94.5</ele><time>2026-03-25T13:32:56.05Z</time></trkpt><trkpt lat="44.077125" lon="12.0875333"><ele>94.66666666666667</ele><time>2026-03-25T13:32:58.049Z</time></trkpt><trkpt lat="44.0770517" lon="12.087605"><ele>94.83333333333334</ele><time>2026-03-25T13:33:00.05Z</time></trkpt><trkpt lat="44.076985" lon="12.0876833"><ele>95.0</ele><time>2026-03-25T13:33:02.049Z</time></trkpt><trkpt lat="44.0769033" lon="12.0877517"><ele>95.0</ele><time>2026-03-25T13:33:04.049Z</time></trkpt><trkpt lat="44.0768267" lon="12.0878183"><ele>95.0</ele><time>2026-03-25T13:33:06.05Z</time></trkpt><trkpt lat="44.0767517" lon="12.0878633"><ele>95.0</ele><time>2026-03-25T13:33:08.05Z</time></trkpt><trkpt lat="44.0766833" lon="12.087895"><ele>95.0</ele><time>2026-03-25T13:33:10.05Z</time></trkpt><trkpt lat="44.0765983" lon="12.08794"><ele>95.0</ele><time>2026-03-25T13:33:13.05Z</time></trkpt><trkpt lat="44.0765233" lon="12.0879867"><ele>95.0</ele><time>2026-03-25T13:33:15.049Z</time></trkpt><trkpt lat="44.0764533" lon="12.088055"><ele>95.4</ele><time>2026-03-25T13:33:17.05Z</time></trkpt><trkpt lat="44.076375" lon="12.0881367"><ele>95.8</ele><time>2026-03-25T13:33:19.05Z</time></trkpt><trkpt lat="44.076305" lon="12.088225"><ele>96.19999999999999</ele><time>2026-03-25T13:33:21.05Z</time></trkpt><trkpt lat="44.07624" lon="12.08831"><ele>96.6</ele><time>2026-03-25T13:33:23.049Z</time></trkpt><trkpt lat="44.07618" lon="12.0883917"><ele>97.0</ele><time>2026-03-25T13:33:25.05Z</time></trkpt><trkpt lat="44.07612" lon="12.088485"><ele>97.00000000000001</ele><time>2026-03-25T13:33:27.049Z</time></trkpt><trkpt lat="44.0760533" lon="12.088595"><ele>97.0</ele><time>2026-03-25T13:33:29.049Z</time></trkpt><trkpt lat="44.07599" lon="12.08869"><ele>97.0</ele><time>2026-03-25T13:33:31.049Z</time></trkpt><trkpt lat="44.0759283" lon="12.088775"><ele>97.0</ele><time>2026-03-25T13:33:33.049Z</time></trkpt><trkpt lat="44.07588" lon="12.088845"><ele>97.00000000000001</ele><time>2026-03-25T13:33:35.049Z</time></trkpt><trkpt lat="44.07583" lon="12.08894"><ele>97.0</ele><time>2026-03-25T13:33:37.05Z</time></trkpt><trkpt lat="44.0757833" lon="12.08904"><ele>96.83333333333334</ele><time>2026-03-25T13:33:39.05Z</time></trkpt><trkpt lat="44.075725" lon="12.0891367"><ele>96.66666666666667</ele><time>2026-03-25T13:33:41.05Z</time></trkpt><trkpt lat="44.0756517" lon="12.08922"><ele>96.5</ele><time>2026-03-25T13:33:43.05Z</time></trkpt><trkpt lat="44.0755917" lon="12.0892933"><ele>96.33333333333334</ele><time>2026-03-25T13:33:45.049Z</time></trkpt><trkpt lat="44.07554" lon="12.089375"><ele>96.16666666666667</ele><time>2026-03-25T13:33:47.049Z</time></trkpt><trkpt lat="44.0754983" lon="12.0894567"><ele>96.0</ele><time>2026-03-25T13:33:49.05Z</time></trkpt><trkpt lat="44.07544" lon="12.0895283"><ele>96.0</ele><time>2026-03-25T13:33:51.05Z</time></trkpt><trkpt lat="44.0753717" lon="12.0895983"><ele>96.0</ele><time>2026-03-25T13:33:53.05Z</time></trkpt><trkpt lat="44.0752983" lon="12.0896617"><ele>96.0</ele><time>2026-03-25T13:33:55.049Z</time></trkpt><trkpt lat="44.0752217" lon="12.089725"><ele>96.0</ele><time>2026-03-25T13:33:57.05Z</time></trkpt><trkpt lat="44.0751467" lon="12.0897917"><ele>96.0</ele><time>2026-03-25T13:33:59.05Z</time></trkpt><trkpt lat="44.07509" lon="12.089855"><ele>96.0</ele><time>2026-03-25T13:34:01.049Z</time></trkpt><trkpt lat="44.0750283" lon="12.0899233"><ele>97.14285714285714</ele><time>2026-03-25T13:34:03.049Z</time></trkpt><trkpt lat="44.0749783" lon="12.0900033"><ele>98.28571428571428</ele><time>2026-03-25T13:34:05.05Z</time></trkpt><trkpt lat="44.0749333" lon="12.0900717"><ele>99.42857142857142</ele><time>2026-03-25T13:34:07.05Z</time></trkpt><trkpt lat="44.07488" lon="12.0901333"><ele>100.57142857142857</ele><time>2026-03-25T13:34:09.049Z</time></trkpt><trkpt lat="44.0748167" lon="12.090185"><ele>101.71428571428572</ele><time>2026-03-25T13:34:11.05Z</time></trkpt><trkpt lat="44.074755" lon="12.09025"><ele>102.85714285714285</ele><time>2026-03-25T13:34:13.05Z</time></trkpt><trkpt lat="44.07469" lon="12.0903067"><ele>104.0</ele><time>2026-03-25T13:34:15.05Z</time></trkpt><trkpt lat="44.0746233" lon="12.0903683"><ele>104.0</ele><time>2026-03-25T13:34:17.049Z</time></trkpt><trkpt lat="44.0745483" lon="12.09042"><ele>104.0</ele><time>2026-03-25T13:34:19.049Z</time></trkpt><trkpt lat="44.0744667" lon="12.0904617"><ele>104.0</ele><time>2026-03-25T13:34:21.05Z</time></trkpt><trkpt lat="44.0743867" lon="12.090525"><ele>104.0</ele><time>2026-03-25T13:34:23.049Z</time></trkpt><trkpt lat="44.0742967" lon="12.0905933"><ele>104.0</ele><time>2026-03-25T13:34:25.05Z</time></trkpt><trkpt lat="44.0742017" lon="12.0906567"><ele>103.99999999999999</ele><time>2026-03-25T13:34:27.05Z</time></trkpt><trkpt lat="44.0740917" lon="12.0907083"><ele>104.0</ele><time>2026-03-25T13:34:29.05Z</time></trkpt><trkpt lat="44.0739683" lon="12.090745"><ele>104.0</ele><time>2026-03-25T13:34:31.049Z</time></trkpt><trkpt lat="44.073905" lon="12.09076"><ele>104.0</ele><time>2026-03-25T13:34:32.049Z</time></trkpt><trkpt lat="44.0738367" lon="12.090765"><ele>103.99999999999999</ele><time>2026-03-25T13:34:33.05Z</time></trkpt><trkpt lat="44.07377" lon="12.0907617"><ele>104.0</ele><time>2026-03-25T13:34:34.05Z</time></trkpt><trkpt lat="44.0737" lon="12.0907533"><ele>104.25</ele><time>2026-03-25T13:34:35.05Z</time></trkpt><trkpt lat="44.073575" lon="12.0907283"><ele>104.5</ele><time>2026-03-25T13:34:37.05Z</time></trkpt><trkpt lat="44.0734533" lon="12.0907"><ele>104.75</ele><time>2026-03-25T13:34:39.05Z</time></trkpt><trkpt lat="44.0733367" lon="12.090665"><ele>105.0</ele><time>2026-03-25T13:34:41.049Z</time></trkpt><trkpt lat="44.0732283" lon="12.090635"><ele>105.0</ele><time>2026-03-25T13:34:43.049Z</time></trkpt><trkpt lat="44.0731217" lon="12.0906083"><ele>105.0</ele><time>2026-03-25T13:34:45.049Z</time></trkpt><trkpt lat="44.073035" lon="12.090565"><ele>105.0</ele><time>2026-03-25T13:34:47.05Z</time></trkpt><trkpt lat="44.0729433" lon="12.0905333"><ele>105.0</ele><time>2026-03-25T13:34:49.049Z</time></trkpt><trkpt lat="44.0728567" lon="12.0905117"><ele>105.0</ele><time>2026-03-25T13:34:51.05Z</time></trkpt><trkpt lat="44.07277" lon="12.090485"><ele>105.0</ele><time>2026-03-25T13:34:53.049Z</time></trkpt><trkpt lat="44.072685" lon="12.09046"><ele>105.0</ele><time>2026-03-25T13:34:55.05Z</time></trkpt><trkpt lat="44.0726017" lon="12.0904283"><ele>105.0</ele><time>2026-03-25T13:34:57.05Z</time></trkpt><trkpt lat="44.0725117" lon="12.0903933"><ele>105.0</ele><time>2026-03-25T13:34:59.049Z</time></trkpt><trkpt lat="44.0724183" lon="12.0903683"><ele>105.0</ele><time>2026-03-25T13:35:01.05Z</time></trkpt><trkpt lat="44.0723267" lon="12.0903483"><ele>104.83333333333333</ele><time>2026-03-25T13:35:03.049Z</time></trkpt><trkpt lat="44.0722367" lon="12.090335"><ele>104.66666666666666</ele><time>2026-03-25T13:35:05.05Z</time></trkpt><trkpt lat="44.07215" lon="12.0903283"><ele>104.5</ele><time>2026-03-25T13:35:07.05Z</time></trkpt><trkpt lat="44.0720733" lon="12.0903283"><ele>104.33333333333333</ele><time>2026-03-25T13:35:09.05Z</time></trkpt><trkpt lat="44.0719867" lon="12.090345"><ele>104.16666666666666</ele><time>2026-03-25T13:35:11.049Z</time></trkpt><trkpt lat="44.0719083" lon="12.0903583"><ele>104.0</ele><time>2026-03-25T13:35:13.049Z</time></trkpt><trkpt lat="44.071825" lon="12.0903883"><ele>104.0</ele><time>2026-03-25T13:35:15.049Z</time></trkpt><trkpt lat="44.07175" lon="12.09043"><ele>104.0</ele><time>2026-03-25T13:35:17.049Z</time></trkpt><trkpt lat="44.0716683" lon="12.0904917"><ele>104.0</ele><time>2026-03-25T13:35:19.05Z</time></trkpt><trkpt lat="44.0715717" lon="12.09057"><ele>104.0</ele><time>2026-03-25T13:35:21.049Z</time></trkpt><trkpt lat="44.0714717" lon="12.0906667"><ele>104.0</ele><time>2026-03-25T13:35:23.05Z</time></trkpt><trkpt lat="44.0714217" lon="12.090725"><ele>103.42857142857143</ele><time>2026-03-25T13:35:24.05Z</time></trkpt><trkpt lat="44.0713683" lon="12.0907867"><ele>102.85714285714286</ele><time>2026-03-25T13:35:25.049Z</time></trkpt><trkpt lat="44.0713133" lon="12.0908467"><ele>102.28571428571429</ele><time>2026-03-25T13:35:26.05Z</time></trkpt><trkpt lat="44.0712567" lon="12.0909117"><ele>101.71428571428572</ele><time>2026-03-25T13:35:27.05Z</time></trkpt><trkpt lat="44.0712017" lon="12.0909767"><ele>101.14285714285714</ele><time>2026-03-25T13:35:28.049Z</time></trkpt><trkpt lat="44.0711433" lon="12.0910383"><ele>100.57142857142858</ele><time>2026-03-25T13:35:29.05Z</time></trkpt><trkpt lat="44.0710867" lon="12.0911017"><ele>100.0</ele><time>2026-03-25T13:35:30.049Z</time></trkpt><trkpt lat="44.0710267" lon="12.09116"><ele>100.00000000000001</ele><time>2026-03-25T13:35:31.05Z</time></trkpt><trkpt lat="44.0709617" lon="12.0912217"><ele>100.0</ele><time>2026-03-25T13:35:32.05Z</time></trkpt><trkpt lat="44.0708967" lon="12.09128"><ele>100.0</ele><time>2026-03-25T13:35:33.049Z</time></trkpt><trkpt lat="44.0708267" lon="12.0913317"><ele>100.0</ele><time>2026-03-25T13:35:34.05Z</time></trkpt><trkpt lat="44.0707567" lon="12.09138"><ele>100.00000000000001</ele><time>2026-03-25T13:35:35.049Z</time></trkpt><trkpt lat="44.0706833" lon="12.091425"><ele>100.0</ele><time>2026-03-25T13:35:36.05Z</time></trkpt><trkpt lat="44.0706" lon="12.091465"><ele>100.00000000000001</ele><time>2026-03-25T13:35:37.049Z</time></trkpt><trkpt lat="44.0705133" lon="12.0915017"><ele>100.0</ele><time>2026-03-25T13:35:38.049Z</time></trkpt><trkpt lat="44.0704233" lon="12.0915267"><ele>100.0</ele><time>2026-03-25T13:35:39.049Z</time></trkpt><trkpt lat="44.070335" lon="12.091555"><ele>100.0</ele><time>2026-03-25T13:35:40.049Z</time></trkpt><trkpt lat="44.0702483" lon="12.09157"><ele>100.00000000000001</ele><time>2026-03-25T13:35:41.05Z</time></trkpt><trkpt lat="44.0701633" lon="12.0915833"><ele>100.0</ele><time>2026-03-25T13:35:42.049Z</time></trkpt><trkpt lat="44.0700767" lon="12.091595"><ele>100.00000000000001</ele><time>2026-03-25T13:35:43.05Z</time></trkpt><trkpt lat="44.06999" lon="12.0916083"><ele>100.0</ele><time>2026-03-25T13:35:44.049Z</time></trkpt><trkpt lat="44.0699033" lon="12.091625"><ele>100.0</ele><time>2026-03-25T13:35:45.049Z</time></trkpt><trkpt lat="44.0698217" lon="12.0916367"><ele>100.0</ele><time>2026-03-25T13:35:46.05Z</time></trkpt><trkpt lat="44.069735" lon="12.0916517"><ele>100.00000000000001</ele><time>2026-03-25T13:35:47.05Z</time></trkpt><trkpt lat="44.06965" lon="12.0916617"><ele>100.0</ele><time>2026-03-25T13:35:48.049Z</time></trkpt><trkpt lat="44.0695767" lon="12.0916733"><ele>100.28571428571429</ele><time>2026-03-25T13:35:49.05Z</time></trkpt><trkpt lat="44.0695033" lon="12.091685"><ele>100.57142857142857</ele><time>2026-03-25T13:35:50.049Z</time></trkpt><trkpt lat="44.06943" lon="12.0917"><ele>100.85714285714286</ele><time>2026-03-25T13:35:51.049Z</time></trkpt><trkpt lat="44.0693567" lon="12.09171"><ele>101.14285714285714</ele><time>2026-03-25T13:35:52.049Z</time></trkpt><trkpt lat="44.0692917" lon="12.091715"><ele>101.42857142857143</ele><time>2026-03-25T13:35:53.05Z</time></trkpt><trkpt lat="44.0692217" lon="12.0917283"><ele>101.71428571428572</ele><time>2026-03-25T13:35:54.05Z</time></trkpt><trkpt lat="44.06915" lon="12.0917433"><ele>102.0</ele><time>2026-03-25T13:35:55.05Z</time></trkpt><trkpt lat="44.0690767" lon="12.0917517"><ele>103.8</ele><time>2026-03-25T13:35:56.05Z</time></trkpt><trkpt lat="44.0690117" lon="12.091765"><ele>105.6</ele><time>2026-03-25T13:35:57.049Z</time></trkpt><trkpt lat="44.0688867" lon="12.0917833"><ele>107.39999999999999</ele><time>2026-03-25T13:35:59.05Z</time></trkpt><trkpt lat="44.0687783" lon="12.0917983"><ele>109.19999999999999</ele><time>2026-03-25T13:36:01.05Z</time></trkpt><trkpt lat="44.0686683" lon="12.0918083"><ele>111.0</ele><time>2026-03-25T13:36:03.05Z</time></trkpt><trkpt lat="44.0685817" lon="12.0917983"><ele>111.0</ele><time>2026-03-25T13:36:05.05Z</time></trkpt><trkpt lat="44.0685017" lon="12.091785"><ele>111.0</ele><time>2026-03-25T13:36:07.05Z</time></trkpt><trkpt lat="44.0684333" lon="12.0917617"><ele>111.0</ele><time>2026-03-25T13:36:09.05Z</time></trkpt><trkpt lat="44.0683533" lon="12.0917333"><ele>111.0</ele><time>2026-03-25T13:36:11.05Z</time></trkpt><trkpt lat="44.068275" lon="12.0917117"><ele>111.0</ele><time>2026-03-25T13:36:13.05Z</time></trkpt><trkpt lat="44.068195" lon="12.09168"><ele>111.0</ele><time>2026-03-25T13:36:15.049Z</time></trkpt><trkpt lat="44.068115" lon="12.0916417"><ele>111.0</ele><time>2026-03-25T13:36:17.049Z</time></trkpt><trkpt lat="44.0680217" lon="12.0915917"><ele>111.0</ele><time>2026-03-25T13:36:19.049Z</time></trkpt><trkpt lat="44.067945" lon="12.091525"><ele>111.0</ele><time>2026-03-25T13:36:21.049Z</time></trkpt><trkpt lat="44.0678717" lon="12.09145"><ele>111.0</ele><time>2026-03-25T13:36:23.05Z</time></trkpt><trkpt lat="44.0677917" lon="12.091365"><ele>111.0</ele><time>2026-03-25T13:36:25.05Z</time></trkpt><trkpt lat="44.06771" lon="12.0912833"><ele>111.0</ele><time>2026-03-25T13:36:27.05Z</time></trkpt><trkpt lat="44.067645" lon="12.0911967"><ele>111.0</ele><time>2026-03-25T13:36:29.049Z</time></trkpt><trkpt lat="44.0675933" lon="12.09109"><ele>111.0</ele><time>2026-03-25T13:36:31.049Z</time></trkpt><trkpt lat="44.0675467" lon="12.09099"><ele>111.0</ele><time>2026-03-25T13:36:33.049Z</time></trkpt><trkpt lat="44.0675017" lon="12.0909083"><ele>111.0</ele><time>2026-03-25T13:36:35.049Z</time></trkpt><trkpt lat="44.067465" lon="12.0908267"><ele>111.0</ele><time>2026-03-25T13:36:37.05Z</time></trkpt><trkpt lat="44.0674233" lon="12.09074"><ele>112.0</ele><time>2026-03-25T13:36:39.049Z</time></trkpt><trkpt lat="44.067375" lon="12.0906517"><ele>113.0</ele><time>2026-03-25T13:36:41.05Z</time></trkpt><trkpt lat="44.0673317" lon="12.09058"><ele>114.0</ele><time>2026-03-25T13:36:43.049Z</time></trkpt><trkpt lat="44.0672883" lon="12.0905033"><ele>115.0</ele><time>2026-03-25T13:36:45.05Z</time></trkpt><trkpt lat="44.067245" lon="12.0904283"><ele>116.0</ele><time>2026-03-25T13:36:47.049Z</time></trkpt><trkpt lat="44.0672033" lon="12.0903467"><ele>117.0</ele><time>2026-03-25T13:36:49.05Z</time></trkpt><trkpt lat="44.0671633" lon="12.090275"><ele>118.0</ele><time>2026-03-25T13:36:51.05Z</time></trkpt><trkpt lat="44.0671133" lon="12.090205"><ele>118.00000000000001</ele><time>2026-03-25T13:36:53.049Z</time></trkpt><trkpt lat="44.06706" lon="12.0901367"><ele>118.0</ele><time>2026-03-25T13:36:55.05Z</time></trkpt><trkpt lat="44.0670033" lon="12.0900617"><ele>118.0</ele><time>2026-03-25T13:36:57.05Z</time></trkpt><trkpt lat="44.066955" lon="12.0899833"><ele>118.0</ele><time>2026-03-25T13:36:59.05Z</time></trkpt><trkpt lat="44.066895" lon="12.0899083"><ele>118.00000000000001</ele><time>2026-03-25T13:37:01.05Z</time></trkpt><trkpt lat="44.0668383" lon="12.089835"><ele>118.0</ele><time>2026-03-25T13:37:03.05Z</time></trkpt><trkpt lat="44.066775" lon="12.089765"><ele>117.66666666666667</ele><time>2026-03-25T13:37:05.05Z</time></trkpt><trkpt lat="44.06671" lon="12.0897017"><ele>117.33333333333334</ele><time>2026-03-25T13:37:07.049Z</time></trkpt><trkpt lat="44.0666483" lon="12.0896383"><ele>117.0</ele><time>2026-03-25T13:37:09.05Z</time></trkpt><trkpt lat="44.0665917" lon="12.0895667"><ele>116.66666666666666</ele><time>2026-03-25T13:37:11.049Z</time></trkpt><trkpt lat="44.0665233" lon="12.0894983"><ele>116.33333333333333</ele><time>2026-03-25T13:37:13.05Z</time></trkpt><trkpt lat="44.0664567" lon="12.089445"><ele>116.0</ele><time>2026-03-25T13:37:15.05Z</time></trkpt><trkpt lat="44.0663967" lon="12.0893817"><ele>115.99999999999999</ele><time>2026-03-25T13:37:17.049Z</time></trkpt><trkpt lat="44.066335" lon="12.0893167"><ele>116.0</ele><time>2026-03-25T13:37:19.05Z</time></trkpt><trkpt lat="44.0662733" lon="12.0892467"><ele>116.0</ele><time>2026-03-25T13:37:21.049Z</time></trkpt><trkpt lat="44.0662117" lon="12.08918"><ele>116.0</ele><time>2026-03-25T13:37:23.049Z</time></trkpt><trkpt lat="44.0661467" lon="12.0891133"><ele>115.99999999999999</ele><time>2026-03-25T13:37:25.05Z</time></trkpt><trkpt lat="44.0660733" lon="12.0890467"><ele>116.0</ele><time>2026-03-25T13:37:27.05Z</time></trkpt><trkpt lat="44.0659983" lon="12.0889833"><ele>114.33333333333333</ele><time>2026-03-25T13:37:29.05Z</time></trkpt><trkpt lat="44.0659267" lon="12.0889333"><ele>112.66666666666666</ele><time>2026-03-25T13:37:31.049Z</time></trkpt><trkpt lat="44.065865" lon="12.08889"><ele>111.0</ele><time>2026-03-25T13:37:33.05Z</time></trkpt><trkpt lat="44.0658" lon="12.08886"><ele>109.33333333333334</ele><time>2026-03-25T13:37:35.049Z</time></trkpt><trkpt lat="44.0657233" lon="12.0888417"><ele>107.66666666666667</ele><time>2026-03-25T13:37:37.049Z</time></trkpt><trkpt lat="44.0656383" lon="12.08883"><ele>106.0</ele><time>2026-03-25T13:37:39.049Z</time></trkpt><trkpt lat="44.0655417" lon="12.08882"><ele>106.00000000000001</ele><time>2026-03-25T13:37:41.05Z</time></trkpt><trkpt lat="44.0654633" lon="12.08881"><ele>106.0</ele><time>2026-03-25T13:37:43.05Z</time></trkpt><trkpt lat="44.0653783" lon="12.0888167"><ele>106.0</ele><time>2026-03-25T13:37:45.049Z</time></trkpt><trkpt lat="44.065295" lon="12.088825"><ele>106.0</ele><time>2026-03-25T13:37:47.05Z</time></trkpt><trkpt lat="44.0652067" lon="12.0888283"><ele>106.00000000000001</ele><time>2026-03-25T13:37:49.05Z</time></trkpt><trkpt lat="44.065125" lon="12.0888333"><ele>106.0</ele><time>2026-03-25T13:37:51.049Z</time></trkpt><trkpt lat="44.0650433" lon="12.08883"><ele>106.0</ele><time>2026-03-25T13:37:53.05Z</time></trkpt><trkpt lat="44.064955" lon="12.088835"><ele>106.0</ele><time>2026-03-25T13:37:55.049Z</time></trkpt><trkpt lat="44.0648633" lon="12.0888483"><ele>106.0</ele><time>2026-03-25T13:37:57.05Z</time></trkpt><trkpt lat="44.0647733" lon="12.088865"><ele>106.0</ele><time>2026-03-25T13:37:59.049Z</time></trkpt><trkpt lat="44.0646733" lon="12.0888783"><ele>106.0</ele><time>2026-03-25T13:38:01.05Z</time></trkpt><trkpt lat="44.0645833" lon="12.0888933"><ele>105.6</ele><time>2026-03-25T13:38:03.05Z</time></trkpt><trkpt lat="44.0644883" lon="12.088915"><ele>105.19999999999999</ele><time>2026-03-25T13:38:05.05Z</time></trkpt><trkpt lat="44.0643883" lon="12.0889383"><ele>104.80000000000001</ele><time>2026-03-25T13:38:07.05Z</time></trkpt><trkpt lat="44.064295" lon="12.08898"><ele>104.4</ele><time>2026-03-25T13:38:09.05Z</time></trkpt><trkpt lat="44.064205" lon="12.0890367"><ele>104.0</ele><time>2026-03-25T13:38:11.049Z</time></trkpt><trkpt lat="44.0641217" lon="12.0890983"><ele>105.2</ele><time>2026-03-25T13:38:13.049Z</time></trkpt><trkpt lat="44.0640383" lon="12.0891767"><ele>106.4</ele><time>2026-03-25T13:38:15.05Z</time></trkpt><trkpt lat="44.0639533" lon="12.0892483"><ele>107.6</ele><time>2026-03-25T13:38:17.049Z</time></trkpt><trkpt lat="44.0638783" lon="12.08932"><ele>108.8</ele><time>2026-03-25T13:38:19.049Z</time></trkpt><trkpt lat="44.0637967" lon="12.0893967"><ele>110.0</ele><time>2026-03-25T13:38:21.049Z</time></trkpt><trkpt lat="44.0637083" lon="12.0894683"><ele>110.0</ele><time>2026-03-25T13:38:23.049Z</time></trkpt><trkpt lat="44.0636283" lon="12.0895367"><ele>110.0</ele><time>2026-03-25T13:38:25.05Z</time></trkpt><trkpt lat="44.0635533" lon="12.0896017"><ele>110.0</ele><time>2026-03-25T13:38:27.05Z</time></trkpt><trkpt lat="44.0634717" lon="12.0896817"><ele>110.0</ele><time>2026-03-25T13:38:29.049Z</time></trkpt><trkpt lat="44.0633883" lon="12.0897667"><ele>110.0</ele><time>2026-03-25T13:38:31.049Z</time></trkpt><trkpt lat="44.0633033" lon="12.0898333"><ele>110.8</ele><time>2026-03-25T13:38:33.05Z</time></trkpt><trkpt lat="44.0632183" lon="12.089905"><ele>111.6</ele><time>2026-03-25T13:38:35.05Z</time></trkpt><trkpt lat="44.063135" lon="12.0899717"><ele>112.4</ele><time>2026-03-25T13:38:37.049Z</time></trkpt><trkpt lat="44.063045" lon="12.0900383"><ele>113.2</ele><time>2026-03-25T13:38:39.05Z</time></trkpt><trkpt lat="44.0629617" lon="12.0900783"><ele>114.0</ele><time>2026-03-25T13:38:41.05Z</time></trkpt><trkpt lat="44.0628767" lon="12.0900917"><ele>115.33333333333333</ele><time>2026-03-25T13:38:43.05Z</time></trkpt><trkpt lat="44.062785" lon="12.0900917"><ele>116.66666666666666</ele><time>2026-03-25T13:38:45.049Z</time></trkpt><trkpt lat="44.0626867" lon="12.090095"><ele>118.0</ele><time>2026-03-25T13:38:47.05Z</time></trkpt><trkpt lat="44.0626" lon="12.0900933"><ele>119.33333333333333</ele><time>2026-03-25T13:38:49.05Z</time></trkpt><trkpt lat="44.06252" lon="12.0900833"><ele>120.66666666666666</ele><time>2026-03-25T13:38:51.05Z</time></trkpt><trkpt lat="44.0624383" lon="12.09007"><ele>122.0</ele><time>2026-03-25T13:38:53.05Z</time></trkpt><trkpt lat="44.0623583" lon="12.0900633"><ele>121.8</ele><time>2026-03-25T13:38:55.05Z</time></trkpt><trkpt lat="44.0622817" lon="12.090045"><ele>121.6</ele><time>2026-03-25T13:38:57.05Z</time></trkpt><trkpt lat="44.062195" lon="12.0900017"><ele>121.39999999999999</ele><time>2026-03-25T13:38:59.05Z</time></trkpt><trkpt lat="44.0621033" lon="12.0899267"><ele>121.19999999999999</ele><time>2026-03-25T13:39:01.049Z</time></trkpt><trkpt lat="44.06205" lon="12.0898117"><ele>121.0</ele><time>2026-03-25T13:39:03.049Z</time></trkpt><trkpt lat="44.062025" lon="12.0897017"><ele>121.00000000000001</ele><time>2026-03-25T13:39:05.049Z</time></trkpt><trkpt lat="44.06201" lon="12.0895867"><ele>121.0</ele><time>2026-03-25T13:39:07.049Z</time></trkpt><trkpt lat="44.06203" lon="12.0894633"><ele>121.0</ele><time>2026-03-25T13:39:09.05Z</time></trkpt><trkpt lat="44.062055" lon="12.0893417"><ele>121.0</ele><time>2026-03-25T13:39:11.049Z</time></trkpt><trkpt lat="44.0620817" lon="12.089215"><ele>121.00000000000001</ele><time>2026-03-25T13:39:13.049Z</time></trkpt><trkpt lat="44.0620867" lon="12.0890917"><ele>121.0</ele><time>2026-03-25T13:39:15.049Z</time></trkpt><trkpt lat="44.06208" lon="12.08897"><ele>120.16666666666667</ele><time>2026-03-25T13:39:17.05Z</time></trkpt><trkpt lat="44.06206" lon="12.08886"><ele>119.33333333333334</ele><time>2026-03-25T13:39:19.051Z</time></trkpt><trkpt lat="44.0620233" lon="12.088755"><ele>118.5</ele><time>2026-03-25T13:39:21.051Z</time></trkpt><trkpt lat="44.061975" lon="12.0886533"><ele>117.66666666666666</ele><time>2026-03-25T13:39:23.051Z</time></trkpt><trkpt lat="44.06192" lon="12.0885483"><ele>116.83333333333333</ele><time>2026-03-25T13:39:25.05Z</time></trkpt><trkpt lat="44.0618533" lon="12.08845"><ele>116.0</ele><time>2026-03-25T13:39:27.051Z</time></trkpt><trkpt lat="44.06178" lon="12.088365"><ele>116.0</ele><time>2026-03-25T13:39:29.051Z</time></trkpt><trkpt lat="44.0617" lon="12.0882917"><ele>116.0</ele><time>2026-03-25T13:39:31.05Z</time></trkpt><trkpt lat="44.0616183" lon="12.08822"><ele>116.0</ele><time>2026-03-25T13:39:33.05Z</time></trkpt><trkpt lat="44.06153" lon="12.0881533"><ele>116.0</ele><time>2026-03-25T13:39:35.05Z</time></trkpt><trkpt lat="44.0614433" lon="12.0880933"><ele>116.0</ele><time>2026-03-25T13:39:37.05Z</time></trkpt><trkpt lat="44.061355" lon="12.088045"><ele>115.6</ele><time>2026-03-25T13:39:39.051Z</time></trkpt><trkpt lat="44.0612583" lon="12.088015"><ele>115.19999999999999</ele><time>2026-03-25T13:39:41.05Z</time></trkpt><trkpt lat="44.061165" lon="12.0880133"><ele>114.80000000000001</ele><time>2026-03-25T13:39:43.05Z</time></trkpt><trkpt lat="44.0610667" lon="12.0880333"><ele>114.4</ele><time>2026-03-25T13:39:45.051Z</time></trkpt><trkpt lat="44.060975" lon="12.0880733"><ele>114.0</ele><time>2026-03-25T13:39:47.051Z</time></trkpt><trkpt lat="44.060895" lon="12.0881467"><ele>114.0</ele><time>2026-03-25T13:39:49.05Z</time></trkpt><trkpt lat="44.0608083" lon="12.08823"><ele>114.0</ele><time>2026-03-25T13:39:51.051Z</time></trkpt><trkpt lat="44.06072" lon="12.0883083"><ele>114.0</ele><time>2026-03-25T13:39:53.051Z</time></trkpt><trkpt lat="44.0606267" lon="12.0883733"><ele>114.0</ele><time>2026-03-25T13:39:55.051Z</time></trkpt><trkpt lat="44.0605417" lon="12.088435"><ele>114.0</ele><time>2026-03-25T13:39:57.051Z</time></trkpt><trkpt lat="44.0604567" lon="12.0885083"><ele>112.0</ele><time>2026-03-25T13:39:59.05Z</time></trkpt><trkpt lat="44.0598867" lon="12.08881"><ele>112.5</ele><time>2026-03-25T13:40:01.017Z</time></trkpt><trkpt lat="44.0601033" lon="12.0886667"><ele>113.0</ele><time>2026-03-25T13:40:02.049Z</time></trkpt><trkpt lat="44.06019" lon="12.0886567"><ele>113.5</ele><time>2026-03-25T13:40:03.05Z</time></trkpt><trkpt lat="44.06012" lon="12.0887533"><ele>114.0</ele><time>2026-03-25T13:40:06.049Z</time></trkpt><trkpt lat="44.0600333" lon="12.0888283"><ele>113.80000000000001</ele><time>2026-03-25T13:40:08.05Z</time></trkpt><trkpt lat="44.0599483" lon="12.0889033"><ele>113.60000000000001</ele><time>2026-03-25T13:40:10.05Z</time></trkpt><trkpt lat="44.059855" lon="12.0889683"><ele>113.4</ele><time>2026-03-25T13:40:12.05Z</time></trkpt><trkpt lat="44.05976" lon="12.089035"><ele>113.2</ele><time>2026-03-25T13:40:14.049Z</time></trkpt><trkpt lat="44.05968" lon="12.0891117"><ele>113.0</ele><time>2026-03-25T13:40:16.05Z</time></trkpt><trkpt lat="44.0596117" lon="12.0892017"><ele>113.0</ele><time>2026-03-25T13:40:18.049Z</time></trkpt><trkpt lat="44.0595467" lon="12.0893067"><ele>113.00000000000001</ele><time>2026-03-25T13:40:20.05Z</time></trkpt><trkpt lat="44.0594883" lon="12.0894117"><ele>113.00000000000001</ele><time>2026-03-25T13:40:22.05Z</time></trkpt><trkpt lat="44.0594333" lon="12.0895283"><ele>113.0</ele><time>2026-03-25T13:40:24.05Z</time></trkpt><trkpt lat="44.0593767" lon="12.0896467"><ele>113.0</ele><time>2026-03-25T13:40:26.05Z</time></trkpt><trkpt lat="44.0593233" lon="12.0897733"><ele>113.0</ele><time>2026-03-25T13:40:28.05Z</time></trkpt><trkpt lat="44.05927" lon="12.0899017"><ele>113.00000000000001</ele><time>2026-03-25T13:40:30.049Z</time></trkpt><trkpt lat="44.059215" lon="12.09004"><ele>113.00000000000001</ele><time>2026-03-25T13:40:32.05Z</time></trkpt><trkpt lat="44.0591517" lon="12.0901633"><ele>113.0</ele><time>2026-03-25T13:40:34.05Z</time></trkpt><trkpt lat="44.0590733" lon="12.0902667"><ele>113.0</ele><time>2026-03-25T13:40:36.05Z</time></trkpt><trkpt lat="44.0589917" lon="12.0903467"><ele>114.0</ele><time>2026-03-25T13:40:38.049Z</time></trkpt><trkpt lat="44.058895" lon="12.0903967"><ele>115.00000000000001</ele><time>2026-03-25T13:40:40.049Z</time></trkpt><trkpt lat="44.0587867" lon="12.0904133"><ele>116.00000000000001</ele><time>2026-03-25T13:40:42.049Z</time></trkpt><trkpt lat="44.0586783" lon="12.0904033"><ele>117.0</ele><time>2026-03-25T13:40:44.049Z</time></trkpt><trkpt lat="44.058575" lon="12.0903633"><ele>118.0</ele><time>2026-03-25T13:40:46.05Z</time></trkpt><trkpt lat="44.0584733" lon="12.090305"><ele>118.0</ele><time>2026-03-25T13:40:48.05Z</time></trkpt><trkpt lat="44.058375" lon="12.0902217"><ele>118.00000000000001</ele><time>2026-03-25T13:40:50.049Z</time></trkpt><trkpt lat="44.0582983" lon="12.0901183"><ele>118.00000000000001</ele><time>2026-03-25T13:40:52.049Z</time></trkpt><trkpt lat="44.05823" lon="12.0900083"><ele>118.0</ele><time>2026-03-25T13:40:54.05Z</time></trkpt><trkpt lat="44.05816" lon="12.0899033"><ele>118.0</ele><time>2026-03-25T13:40:56.049Z</time></trkpt><trkpt lat="44.0580917" lon="12.0897933"><ele>119.0</ele><time>2026-03-25T13:40:58.05Z</time></trkpt><trkpt lat="44.0580217" lon="12.0896867"><ele>120.00000000000001</ele><time>2026-03-25T13:41:00.05Z</time></trkpt><trkpt lat="44.0579433" lon="12.0895817"><ele>121.00000000000001</ele><time>2026-03-25T13:41:02.05Z</time></trkpt><trkpt lat="44.05788" lon="12.08948"><ele>122.0</ele><time>2026-03-25T13:41:04.05Z</time></trkpt><trkpt lat="44.057815" lon="12.0893917"><ele>123.0</ele><time>2026-03-25T13:41:06.05Z</time></trkpt><trkpt lat="44.057755" lon="12.0893083"><ele>123.0</ele><time>2026-03-25T13:41:08.05Z</time></trkpt><trkpt lat="44.0577" lon="12.0892217"><ele>123.0</ele><time>2026-03-25T13:41:10.049Z</time></trkpt><trkpt lat="44.0576383" lon="12.0891233"><ele>123.0</ele><time>2026-03-25T13:41:12.05Z</time></trkpt><trkpt lat="44.0575767" lon="12.0890267"><ele>123.0</ele><time>2026-03-25T13:41:14.05Z</time></trkpt><trkpt lat="44.057515" lon="12.0889317"><ele>123.0</ele><time>2026-03-25T13:41:16.05Z</time></trkpt><trkpt lat="44.0574617" lon="12.0888383"><ele>123.0</ele><time>2026-03-25T13:41:18.049Z</time></trkpt><trkpt lat="44.0574067" lon="12.0887517"><ele>122.60000000000001</ele><time>2026-03-25T13:41:20.049Z</time></trkpt><trkpt lat="44.0573517" lon="12.0886533"><ele>122.20000000000002</ele><time>2026-03-25T13:41:22.049Z</time></trkpt><trkpt lat="44.0572867" lon="12.0885517"><ele>121.8</ele><time>2026-03-25T13:41:24.049Z</time></trkpt><trkpt lat="44.0572217" lon="12.0884467"><ele>121.4</ele><time>2026-03-25T13:41:26.049Z</time></trkpt><trkpt lat="44.057155" lon="12.0883683"><ele>121.0</ele><time>2026-03-25T13:41:28.05Z</time></trkpt><trkpt lat="44.0570833" lon="12.0883067"><ele>120.19999999999999</ele><time>2026-03-25T13:41:30.049Z</time></trkpt><trkpt lat="44.057005" lon="12.0882583"><ele>119.39999999999999</ele><time>2026-03-25T13:41:32.05Z</time></trkpt><trkpt lat="44.0569117" lon="12.0882233"><ele>118.6</ele><time>2026-03-25T13:41:34.05Z</time></trkpt><trkpt lat="44.0568117" lon="12.0881917"><ele>117.8</ele><time>2026-03-25T13:41:36.05Z</time></trkpt><trkpt lat="44.0567167" lon="12.0881617"><ele>117.0</ele><time>2026-03-25T13:41:38.05Z</time></trkpt><trkpt lat="44.0566217" lon="12.0881583"><ele>116.83333333333333</ele><time>2026-03-25T13:41:40.05Z</time></trkpt><trkpt lat="44.0565383" lon="12.0881783"><ele>116.66666666666666</ele><time>2026-03-25T13:41:42.049Z</time></trkpt><trkpt lat="44.0564567" lon="12.0881967"><ele>116.5</ele><time>2026-03-25T13:41:44.049Z</time></trkpt><trkpt lat="44.05638" lon="12.088225"><ele>116.33333333333333</ele><time>2026-03-25T13:41:46.049Z</time></trkpt><trkpt lat="44.056295" lon="12.08826"><ele>116.16666666666666</ele><time>2026-03-25T13:41:48.049Z</time></trkpt><trkpt lat="44.056225" lon="12.088295"><ele>116.0</ele><time>2026-03-25T13:41:50.049Z</time></trkpt><trkpt lat="44.0561633" lon="12.0883217"><ele>116.33333333333333</ele><time>2026-03-25T13:41:52.05Z</time></trkpt><trkpt lat="44.0561" lon="12.0883567"><ele>116.66666666666666</ele><time>2026-03-25T13:41:54.05Z</time></trkpt><trkpt lat="44.0560317" lon="12.088395"><ele>117.0</ele><time>2026-03-25T13:41:56.05Z</time></trkpt><trkpt lat="44.055955" lon="12.088425"><ele>117.33333333333334</ele><time>2026-03-25T13:41:58.049Z</time></trkpt><trkpt lat="44.05587" lon="12.0884517"><ele>117.66666666666667</ele><time>2026-03-25T13:42:00.049Z</time></trkpt><trkpt lat="44.05578" lon="12.088475"><ele>118.0</ele><time>2026-03-25T13:42:02.049Z</time></trkpt><trkpt lat="44.05571" lon="12.088465"><ele>118.33333333333334</ele><time>2026-03-25T13:42:04.05Z</time></trkpt><trkpt lat="44.0556417" lon="12.0884267"><ele>118.66666666666667</ele><time>2026-03-25T13:42:06.05Z</time></trkpt><trkpt lat="44.0555333" lon="12.088375"><ele>119.0</ele><time>2026-03-25T13:42:08.05Z</time></trkpt><trkpt lat="44.055465" lon="12.0883083"><ele>119.33333333333334</ele><time>2026-03-25T13:42:10.049Z</time></trkpt><trkpt lat="44.0554" lon="12.08824"><ele>119.66666666666667</ele><time>2026-03-25T13:42:12.05Z</time></trkpt><trkpt lat="44.055335" lon="12.0881867"><ele>120.0</ele><time>2026-03-25T13:42:14.05Z</time></trkpt><trkpt lat="44.0552633" lon="12.0881233"><ele>120.0</ele><time>2026-03-25T13:42:17.05Z</time></trkpt><trkpt lat="44.0552" lon="12.08808"><ele>120.0</ele><time>2026-03-25T13:42:20.049Z</time></trkpt><trkpt lat="44.05513" lon="12.08805"><ele>120.0</ele><time>2026-03-25T13:42:23.049Z</time></trkpt><trkpt lat="44.0550433" lon="12.088025"><ele>120.0</ele><time>2026-03-25T13:42:26.05Z</time></trkpt><trkpt lat="44.05498" lon="12.0880333"><ele>120.0</ele><time>2026-03-25T13:42:29.05Z</time></trkpt><trkpt lat="44.05492" lon="12.0880717"><ele>120.0</ele><time>2026-03-25T13:42:32.049Z</time></trkpt><trkpt lat="44.0548467" lon="12.08812"><ele>120.0</ele><time>2026-03-25T13:42:35.049Z</time></trkpt><trkpt lat="44.0547833" lon="12.0881617"><ele>120.83333333333333</ele><time>2026-03-25T13:42:38.049Z</time></trkpt><trkpt lat="44.0547167" lon="12.0882333"><ele>121.66666666666666</ele><time>2026-03-25T13:42:41.05Z</time></trkpt><trkpt lat="44.054655" lon="12.0882767"><ele>122.5</ele><time>2026-03-25T13:42:43.05Z</time></trkpt><trkpt lat="44.054595" lon="12.0883167"><ele>123.33333333333333</ele><time>2026-03-25T13:42:45.049Z</time></trkpt><trkpt lat="44.0545083" lon="12.0883667"><ele>124.16666666666666</ele><time>2026-03-25T13:42:48.05Z</time></trkpt><trkpt lat="44.0544217" lon="12.0884033"><ele>125.0</ele><time>2026-03-25T13:42:51.049Z</time></trkpt><trkpt lat="44.0543367" lon="12.0884217"><ele>125.49999999999999</ele><time>2026-03-25T13:42:54.049Z</time></trkpt><trkpt lat="44.0542733" lon="12.0884183"><ele>126.0</ele><time>2026-03-25T13:42:56.049Z</time></trkpt><trkpt lat="44.05418" lon="12.0883883"><ele>126.5</ele><time>2026-03-25T13:42:59.049Z</time></trkpt><trkpt lat="44.0540933" lon="12.088345"><ele>127.0</ele><time>2026-03-25T13:43:02.05Z</time></trkpt><trkpt lat="44.05403" lon="12.088255"><ele>127.49999999999999</ele><time>2026-03-25T13:43:05.049Z</time></trkpt><trkpt lat="44.0539783" lon="12.0881617"><ele>128.0</ele><time>2026-03-25T13:43:08.05Z</time></trkpt><trkpt lat="44.0539217" lon="12.0880683"><ele>130.16666666666666</ele><time>2026-03-25T13:43:11.05Z</time></trkpt><trkpt lat="44.053875" lon="12.0879617"><ele>132.33333333333331</ele><time>2026-03-25T13:43:14.049Z</time></trkpt><trkpt lat="44.05384" lon="12.0878433"><ele>134.5</ele><time>2026-03-25T13:43:17.049Z</time></trkpt><trkpt lat="44.0538317" lon="12.0877267"><ele>136.66666666666666</ele><time>2026-03-25T13:43:20.05Z</time></trkpt><trkpt lat="44.0538283" lon="12.0876"><ele>138.83333333333334</ele><time>2026-03-25T13:43:23.05Z</time></trkpt><trkpt lat="44.0538333" lon="12.08748"><ele>141.0</ele><time>2026-03-25T13:43:26.05Z</time></trkpt><trkpt lat="44.0538433" lon="12.0873617"><ele>141.0</ele><time>2026-03-25T13:43:29.049Z</time></trkpt><trkpt lat="44.053855" lon="12.0872433"><ele>141.0</ele><time>2026-03-25T13:43:32.05Z</time></trkpt><trkpt lat="44.0538617" lon="12.0871333"><ele>141.0</ele><time>2026-03-25T13:43:35.05Z</time></trkpt><trkpt lat="44.0538467" lon="12.08703"><ele>141.0</ele><time>2026-03-25T13:43:38.05Z</time></trkpt><trkpt lat="44.053835" lon="12.0869083"><ele>141.0</ele><time>2026-03-25T13:43:41.049Z</time></trkpt><trkpt lat="44.053815" lon="12.0868233"><ele>141.0</ele><time>2026-03-25T13:43:43.05Z</time></trkpt><trkpt lat="44.0537867" lon="12.086745"><ele>141.0</ele><time>2026-03-25T13:43:45.05Z</time></trkpt><trkpt lat="44.05376" lon="12.08665"><ele>141.0</ele><time>2026-03-25T13:43:47.049Z</time></trkpt><trkpt lat="44.0537133" lon="12.0865783"><ele>141.0</ele><time>2026-03-25T13:43:49.049Z</time></trkpt><trkpt lat="44.0536667" lon="12.0865183"><ele>141.0</ele><time>2026-03-25T13:43:51.05Z</time></trkpt><trkpt lat="44.05362" lon="12.086455"><ele>141.0</ele><time>2026-03-25T13:43:53.05Z</time></trkpt><trkpt lat="44.0535733" lon="12.0863833"><ele>141.0</ele><time>2026-03-25T13:43:55.049Z</time></trkpt><trkpt lat="44.0535333" lon="12.086305"><ele>141.0</ele><time>2026-03-25T13:43:57.05Z</time></trkpt><trkpt lat="44.0535033" lon="12.0861833"><ele>140.83333333333334</ele><time>2026-03-25T13:44:00.05Z</time></trkpt><trkpt lat="44.0534983" lon="12.086055"><ele>140.66666666666666</ele><time>2026-03-25T13:44:03.05Z</time></trkpt><trkpt lat="44.053495" lon="12.0859667"><ele>140.5</ele><time>2026-03-25T13:44:05.05Z</time></trkpt><trkpt lat="44.053485" lon="12.0858467"><ele>140.33333333333331</ele><time>2026-03-25T13:44:08.05Z</time></trkpt><trkpt lat="44.05348" lon="12.0857217"><ele>140.16666666666666</ele><time>2026-03-25T13:44:11.05Z</time></trkpt><trkpt lat="44.0534717" lon="12.08561"><ele>140.0</ele><time>2026-03-25T13:44:14.05Z</time></trkpt><trkpt lat="44.0534567" lon="12.085505"><ele>140.0</ele><time>2026-03-25T13:44:17.049Z</time></trkpt><trkpt lat="44.0534483" lon="12.085405"><ele>140.0</ele><time>2026-03-25T13:44:21.05Z</time></trkpt><trkpt lat="44.05348" lon="12.0854833"><ele>140.0</ele><time>2026-03-25T13:44:38.049Z</time></trkpt><trkpt lat="44.0534933" lon="12.0855833"><ele>140.0</ele><time>2026-03-25T13:44:42.05Z</time></trkpt><trkpt lat="44.0535017" lon="12.0856983"><ele>140.0</ele><time>2026-03-25T13:44:45.05Z</time></trkpt><trkpt lat="44.0535083" lon="12.0857867"><ele>140.0</ele><time>2026-03-25T13:44:47.049Z</time></trkpt><trkpt lat="44.05352" lon="12.0858833"><ele>140.0</ele><time>2026-03-25T13:44:49.049Z</time></trkpt><trkpt lat="44.053535" lon="12.085995"><ele>140.0</ele><time>2026-03-25T13:44:51.049Z</time></trkpt><trkpt lat="44.053555" lon="12.08611"><ele>140.0</ele><time>2026-03-25T13:44:53.05Z</time></trkpt><trkpt lat="44.0535933" lon="12.08623"><ele>140.0</ele><time>2026-03-25T13:44:55.049Z</time></trkpt><trkpt lat="44.0536483" lon="12.0863383"><ele>140.0</ele><time>2026-03-25T13:44:57.05Z</time></trkpt><trkpt lat="44.0537117" lon="12.0864633"><ele>140.0</ele><time>2026-03-25T13:44:59.05Z</time></trkpt><trkpt lat="44.0537833" lon="12.086595"><ele>140.14285714285714</ele><time>2026-03-25T13:45:01.049Z</time></trkpt><trkpt lat="44.0538067" lon="12.08668"><ele>140.28571428571428</ele><time>2026-03-25T13:45:02.049Z</time></trkpt><trkpt lat="44.053835" lon="12.08679"><ele>140.42857142857144</ele><time>2026-03-25T13:45:03.049Z</time></trkpt><trkpt lat="44.0538483" lon="12.0868917"><ele>140.57142857142856</ele><time>2026-03-25T13:45:04.049Z</time></trkpt><trkpt lat="44.0538517" lon="12.0869917"><ele>140.71428571428572</ele><time>2026-03-25T13:45:05.05Z</time></trkpt><trkpt lat="44.0538517" lon="12.08709"><ele>140.85714285714286</ele><time>2026-03-25T13:45:06.05Z</time></trkpt><trkpt lat="44.0538483" lon="12.087185"><ele>141.0</ele><time>2026-03-25T13:45:07.049Z</time></trkpt><trkpt lat="44.0538417" lon="12.0872867"><ele>141.0</ele><time>2026-03-25T13:45:08.05Z</time></trkpt><trkpt lat="44.0538333" lon="12.08739"><ele>141.0</ele><time>2026-03-25T13:45:09.05Z</time></trkpt><trkpt lat="44.0538317" lon="12.0874933"><ele>141.0</ele><time>2026-03-25T13:45:10.05Z</time></trkpt><trkpt lat="44.0538283" lon="12.0875867"><ele>141.0</ele><time>2026-03-25T13:45:11.049Z</time></trkpt><trkpt lat="44.0538233" lon="12.0876783"><ele>141.0</ele><time>2026-03-25T13:45:12.05Z</time></trkpt><trkpt lat="44.0538433" lon="12.0878617"><ele>141.0</ele><time>2026-03-25T13:45:14.05Z</time></trkpt><trkpt lat="44.053875" lon="12.0879533"><ele>141.33333333333334</ele><time>2026-03-25T13:45:15.049Z</time></trkpt><trkpt lat="44.053915" lon="12.0880517"><ele>141.66666666666666</ele><time>2026-03-25T13:45:16.05Z</time></trkpt><trkpt lat="44.053955" lon="12.08815"><ele>142.0</ele><time>2026-03-25T13:45:17.05Z</time></trkpt><trkpt lat="44.0540033" lon="12.0882433"><ele>142.33333333333331</ele><time>2026-03-25T13:45:18.049Z</time></trkpt><trkpt lat="44.054055" lon="12.0883267"><ele>142.66666666666666</ele><time>2026-03-25T13:45:19.049Z</time></trkpt><trkpt lat="44.0541217" lon="12.0883867"><ele>143.0</ele><time>2026-03-25T13:45:20.049Z</time></trkpt><trkpt lat="44.0541967" lon="12.0884283"><ele>140.5</ele><time>2026-03-25T13:45:21.05Z</time></trkpt><trkpt lat="44.0542767" lon="12.0884433"><ele>138.0</ele><time>2026-03-25T13:45:22.05Z</time></trkpt><trkpt lat="44.054355" lon="12.0884317"><ele>135.5</ele><time>2026-03-25T13:45:23.049Z</time></trkpt><trkpt lat="44.0544283" lon="12.0883933"><ele>133.0</ele><time>2026-03-25T13:45:24.05Z</time></trkpt><trkpt lat="44.0544983" lon="12.0883383"><ele>130.5</ele><time>2026-03-25T13:45:25.05Z</time></trkpt><trkpt lat="44.054565" lon="12.0882833"><ele>128.0</ele><time>2026-03-25T13:45:26.049Z</time></trkpt><trkpt lat="44.0546267" lon="12.0882267"><ele>127.4</ele><time>2026-03-25T13:45:27.05Z</time></trkpt><trkpt lat="44.0546917" lon="12.0881717"><ele>126.80000000000001</ele><time>2026-03-25T13:45:28.05Z</time></trkpt><trkpt lat="44.0547567" lon="12.0881183"><ele>126.2</ele><time>2026-03-25T13:45:29.05Z</time></trkpt><trkpt lat="44.054815" lon="12.0880717"><ele>125.6</ele><time>2026-03-25T13:45:30.049Z</time></trkpt><trkpt lat="44.05492" lon="12.088005"><ele>125.0</ele><time>2026-03-25T13:45:32.049Z</time></trkpt><trkpt lat="44.0550483" lon="12.0879983"><ele>124.71428571428571</ele><time>2026-03-25T13:45:34.049Z</time></trkpt><trkpt lat="44.0551183" lon="12.0880217"><ele>124.42857142857144</ele><time>2026-03-25T13:45:35.049Z</time></trkpt><trkpt lat="44.05518" lon="12.0880633"><ele>124.14285714285715</ele><time>2026-03-25T13:45:36.05Z</time></trkpt><trkpt lat="44.05524" lon="12.0881083"><ele>123.85714285714286</ele><time>2026-03-25T13:45:37.049Z</time></trkpt><trkpt lat="44.055295" lon="12.0881567"><ele>123.57142857142858</ele><time>2026-03-25T13:45:38.049Z</time></trkpt><trkpt lat="44.05535" lon="12.0882083"><ele>123.2857142857143</ele><time>2026-03-25T13:45:39.05Z</time></trkpt><trkpt lat="44.0554017" lon="12.0882633"><ele>123.00000000000001</ele><time>2026-03-25T13:45:40.05Z</time></trkpt><trkpt lat="44.05546" lon="12.08832"><ele>123.0</ele><time>2026-03-25T13:45:41.05Z</time></trkpt><trkpt lat="44.05552" lon="12.0883767"><ele>123.0</ele><time>2026-03-25T13:45:42.05Z</time></trkpt><trkpt lat="44.05558" lon="12.0884283"><ele>123.0</ele><time>2026-03-25T13:45:43.05Z</time></trkpt><trkpt lat="44.0556417" lon="12.08846"><ele>123.0</ele><time>2026-03-25T13:45:44.05Z</time></trkpt><trkpt lat="44.05576" lon="12.088475"><ele>123.0</ele><time>2026-03-25T13:45:46.05Z</time></trkpt><trkpt lat="44.055875" lon="12.0884383"><ele>123.0</ele><time>2026-03-25T13:45:48.05Z</time></trkpt><trkpt lat="44.0559383" lon="12.0884217"><ele>122.0</ele><time>2026-03-25T13:45:49.049Z</time></trkpt><trkpt lat="44.0560517" lon="12.0883783"><ele>121.00000000000001</ele><time>2026-03-25T13:45:51.049Z</time></trkpt><trkpt lat="44.0561517" lon="12.0883433"><ele>120.00000000000001</ele><time>2026-03-25T13:45:53.05Z</time></trkpt><trkpt lat="44.0562367" lon="12.0883083"><ele>119.0</ele><time>2026-03-25T13:45:55.049Z</time></trkpt><trkpt lat="44.0563233" lon="12.0882633"><ele>118.0</ele><time>2026-03-25T13:45:57.049Z</time></trkpt><trkpt lat="44.0564167" lon="12.0882283"><ele>117.80000000000001</ele><time>2026-03-25T13:45:59.05Z</time></trkpt><trkpt lat="44.056515" lon="12.0882"><ele>117.60000000000001</ele><time>2026-03-25T13:46:01.05Z</time></trkpt><trkpt lat="44.0566267" lon="12.0881683"><ele>117.39999999999999</ele><time>2026-03-25T13:46:03.049Z</time></trkpt><trkpt lat="44.056735" lon="12.0881533"><ele>117.19999999999999</ele><time>2026-03-25T13:46:05.049Z</time></trkpt><trkpt lat="44.0568533" lon="12.0881667"><ele>117.0</ele><time>2026-03-25T13:46:07.049Z</time></trkpt><trkpt lat="44.0569667" lon="12.088205"><ele>117.8</ele><time>2026-03-25T13:46:09.05Z</time></trkpt><trkpt lat="44.057075" lon="12.0882667"><ele>118.6</ele><time>2026-03-25T13:46:11.05Z</time></trkpt><trkpt lat="44.0571817" lon="12.08837"><ele>119.39999999999999</ele><time>2026-03-25T13:46:13.05Z</time></trkpt><trkpt lat="44.057225" lon="12.0884367"><ele>120.19999999999999</ele><time>2026-03-25T13:46:14.049Z</time></trkpt><trkpt lat="44.0573117" lon="12.088555"><ele>121.0</ele><time>2026-03-25T13:46:16.05Z</time></trkpt><trkpt lat="44.0573567" lon="12.0886267"><ele>121.0</ele><time>2026-03-25T13:46:17.05Z</time></trkpt><trkpt lat="44.0574017" lon="12.0887017"><ele>120.99999999999999</ele><time>2026-03-25T13:46:18.049Z</time></trkpt><trkpt lat="44.05745" lon="12.08878"><ele>121.0</ele><time>2026-03-25T13:46:19.049Z</time></trkpt><trkpt lat="44.057495" lon="12.0888617"><ele>121.0</ele><time>2026-03-25T13:46:20.05Z</time></trkpt><trkpt lat="44.0575417" lon="12.0889433"><ele>120.99999999999999</ele><time>2026-03-25T13:46:21.05Z</time></trkpt><trkpt lat="44.057585" lon="12.089015"><ele>121.0</ele><time>2026-03-25T13:46:22.05Z</time></trkpt><trkpt lat="44.05763" lon="12.0890883"><ele>121.0</ele><time>2026-03-25T13:46:23.049Z</time></trkpt><trkpt lat="44.0576733" lon="12.0891617"><ele>121.28571428571428</ele><time>2026-03-25T13:46:24.049Z</time></trkpt><trkpt lat="44.0577217" lon="12.0892367"><ele>121.57142857142856</ele><time>2026-03-25T13:46:25.049Z</time></trkpt><trkpt lat="44.05777" lon="12.089315"><ele>121.85714285714286</ele><time>2026-03-25T13:46:26.049Z</time></trkpt><trkpt lat="44.0578183" lon="12.0893867"><ele>122.14285714285714</ele><time>2026-03-25T13:46:27.049Z</time></trkpt><trkpt lat="44.0578667" lon="12.0894617"><ele>122.42857142857143</ele><time>2026-03-25T13:46:28.049Z</time></trkpt><trkpt lat="44.0579167" lon="12.0895383"><ele>122.71428571428572</ele><time>2026-03-25T13:46:29.049Z</time></trkpt><trkpt lat="44.0579683" lon="12.0896183"><ele>123.00000000000001</ele><time>2026-03-25T13:46:30.049Z</time></trkpt><trkpt lat="44.0580133" lon="12.0896883"><ele>123.00000000000001</ele><time>2026-03-25T13:46:31.049Z</time></trkpt><trkpt lat="44.0580617" lon="12.08977"><ele>123.0</ele><time>2026-03-25T13:46:32.05Z</time></trkpt><trkpt lat="44.0581083" lon="12.0898517"><ele>123.00000000000001</ele><time>2026-03-25T13:46:33.049Z</time></trkpt><trkpt lat="44.0581567" lon="12.0899317"><ele>123.00000000000001</ele><time>2026-03-25T13:46:34.05Z</time></trkpt><trkpt lat="44.0582" lon="12.090005"><ele>123.0</ele><time>2026-03-25T13:46:35.05Z</time></trkpt><trkpt lat="44.0582517" lon="12.0900783"><ele>123.00000000000001</ele><time>2026-03-25T13:46:36.049Z</time></trkpt><trkpt lat="44.0583" lon="12.090145"><ele>123.00000000000001</ele><time>2026-03-25T13:46:37.05Z</time></trkpt><trkpt lat="44.0583517" lon="12.0902017"><ele>122.0</ele><time>2026-03-25T13:46:38.049Z</time></trkpt><trkpt lat="44.0584367" lon="12.0903"><ele>121.00000000000001</ele><time>2026-03-25T13:46:40.05Z</time></trkpt><trkpt lat="44.0585333" lon="12.0903683"><ele>120.00000000000001</ele><time>2026-03-25T13:46:42.049Z</time></trkpt><trkpt lat="44.0586317" lon="12.0904167"><ele>119.0</ele><time>2026-03-25T13:46:44.05Z</time></trkpt><trkpt lat="44.05873" lon="12.0904267"><ele>118.0</ele><time>2026-03-25T13:46:46.049Z</time></trkpt><trkpt lat="44.05885" lon="12.0904117"><ele>118.0</ele><time>2026-03-25T13:46:48.049Z</time></trkpt><trkpt lat="44.0589133" lon="12.090395"><ele>118.00000000000001</ele><time>2026-03-25T13:46:49.05Z</time></trkpt><trkpt lat="44.05901" lon="12.0903617"><ele>118.00000000000001</ele><time>2026-03-25T13:46:51.05Z</time></trkpt><trkpt lat="44.0590983" lon="12.0903"><ele>118.0</ele><time>2026-03-25T13:46:53.049Z</time></trkpt><trkpt lat="44.0591733" lon="12.0901967"><ele>118.0</ele><time>2026-03-25T13:46:55.049Z</time></trkpt><trkpt lat="44.0592333" lon="12.0900883"><ele>117.80000000000001</ele><time>2026-03-25T13:46:57.049Z</time></trkpt><trkpt lat="44.0592867" lon="12.089965"><ele>117.60000000000001</ele><time>2026-03-25T13:46:59.049Z</time></trkpt><trkpt lat="44.05934" lon="12.0898383"><ele>117.39999999999999</ele><time>2026-03-25T13:47:01.049Z</time></trkpt><trkpt lat="44.059395" lon="12.0897117"><ele>117.19999999999999</ele><time>2026-03-25T13:47:03.05Z</time></trkpt><trkpt lat="44.0594467" lon="12.0895933"><ele>117.0</ele><time>2026-03-25T13:47:05.05Z</time></trkpt><trkpt lat="44.0594983" lon="12.0894683"><ele>116.19999999999999</ele><time>2026-03-25T13:47:07.05Z</time></trkpt><trkpt lat="44.0595633" lon="12.0893533"><ele>115.39999999999999</ele><time>2026-03-25T13:47:09.05Z</time></trkpt><trkpt lat="44.059625" lon="12.0892367"><ele>114.60000000000001</ele><time>2026-03-25T13:47:11.05Z</time></trkpt><trkpt lat="44.0597067" lon="12.0891433"><ele>113.80000000000001</ele><time>2026-03-25T13:47:13.05Z</time></trkpt><trkpt lat="44.0597967" lon="12.0890517"><ele>113.0</ele><time>2026-03-25T13:47:15.049Z</time></trkpt><trkpt lat="44.0598933" lon="12.0889717"><ele>113.25</ele><time>2026-03-25T13:47:17.05Z</time></trkpt><trkpt lat="44.059995" lon="12.0888917"><ele>113.5</ele><time>2026-03-25T13:47:19.049Z</time></trkpt><trkpt lat="44.060095" lon="12.088825"><ele>113.75</ele><time>2026-03-25T13:47:21.049Z</time></trkpt><trkpt lat="44.0601917" lon="12.0887467"><ele>114.0</ele><time>2026-03-25T13:47:23.05Z</time></trkpt><trkpt lat="44.060285" lon="12.0886583"><ele>114.0</ele><time>2026-03-25T13:47:25.05Z</time></trkpt><trkpt lat="44.060375" lon="12.0885917"><ele>114.0</ele><time>2026-03-25T13:47:27.049Z</time></trkpt><trkpt lat="44.0604717" lon="12.0885183"><ele>114.0</ele><time>2026-03-25T13:47:29.05Z</time></trkpt><trkpt lat="44.0605633" lon="12.08844"><ele>114.0</ele><time>2026-03-25T13:47:31.049Z</time></trkpt><trkpt lat="44.060655" lon="12.0883617"><ele>114.0</ele><time>2026-03-25T13:47:33.049Z</time></trkpt><trkpt lat="44.060755" lon="12.0882767"><ele>114.0</ele><time>2026-03-25T13:47:35.049Z</time></trkpt><trkpt lat="44.060855" lon="12.0881983"><ele>114.0</ele><time>2026-03-25T13:47:37.05Z</time></trkpt><trkpt lat="44.0609467" lon="12.0881283"><ele>114.0</ele><time>2026-03-25T13:47:39.049Z</time></trkpt><trkpt lat="44.061045" lon="12.0880733"><ele>114.0</ele><time>2026-03-25T13:47:41.049Z</time></trkpt><trkpt lat="44.0611583" lon="12.0880567"><ele>114.0</ele><time>2026-03-25T13:47:43.049Z</time></trkpt><trkpt lat="44.0612667" lon="12.088055"><ele>114.0</ele><time>2026-03-25T13:47:45.049Z</time></trkpt><trkpt lat="44.0613833" lon="12.0880817"><ele>114.0</ele><time>2026-03-25T13:47:47.049Z</time></trkpt><trkpt lat="44.0614917" lon="12.088145"><ele>114.0</ele><time>2026-03-25T13:47:49.05Z</time></trkpt><trkpt lat="44.0615883" lon="12.0882183"><ele>114.0</ele><time>2026-03-25T13:47:51.05Z</time></trkpt><trkpt lat="44.0616967" lon="12.0882883"><ele>114.5</ele><time>2026-03-25T13:47:53.049Z</time></trkpt><trkpt lat="44.06179" lon="12.0883833"><ele>115.0</ele><time>2026-03-25T13:47:55.05Z</time></trkpt><trkpt lat="44.06188" lon="12.0884917"><ele>115.5</ele><time>2026-03-25T13:47:57.049Z</time></trkpt><trkpt lat="44.061955" lon="12.0886"><ele>116.0</ele><time>2026-03-25T13:47:59.05Z</time></trkpt><trkpt lat="44.062015" lon="12.0887317"><ele>116.0</ele><time>2026-03-25T13:48:01.05Z</time></trkpt><trkpt lat="44.0620533" lon="12.088885"><ele>116.0</ele><time>2026-03-25T13:48:03.05Z</time></trkpt><trkpt lat="44.0620683" lon="12.0890617"><ele>116.0</ele><time>2026-03-25T13:48:05.05Z</time></trkpt><trkpt lat="44.0620633" lon="12.0892133"><ele>116.0</ele><time>2026-03-25T13:48:07.05Z</time></trkpt><trkpt lat="44.06204" lon="12.0893533"><ele>117.0</ele><time>2026-03-25T13:48:09.049Z</time></trkpt><trkpt lat="44.062005" lon="12.0894867"><ele>118.0</ele><time>2026-03-25T13:48:11.049Z</time></trkpt><trkpt lat="44.0619933" lon="12.08962"><ele>119.0</ele><time>2026-03-25T13:48:13.049Z</time></trkpt><trkpt lat="44.0620067" lon="12.0897633"><ele>120.0</ele><time>2026-03-25T13:48:15.05Z</time></trkpt><trkpt lat="44.0620417" lon="12.0899033"><ele>121.0</ele><time>2026-03-25T13:48:17.05Z</time></trkpt><trkpt lat="44.0621183" lon="12.090005"><ele>121.19999999999999</ele><time>2026-03-25T13:48:19.049Z</time></trkpt><trkpt lat="44.06222" lon="12.0900483"><ele>121.39999999999999</ele><time>2026-03-25T13:48:21.049Z</time></trkpt><trkpt lat="44.0623417" lon="12.0900683"><ele>121.6</ele><time>2026-03-25T13:48:23.05Z</time></trkpt><trkpt lat="44.062405" lon="12.0900733"><ele>121.8</ele><time>2026-03-25T13:48:24.05Z</time></trkpt><trkpt lat="44.0625217" lon="12.0900633"><ele>122.0</ele><time>2026-03-25T13:48:26.05Z</time></trkpt><trkpt lat="44.06259" lon="12.0900683"><ele>121.99999999999999</ele><time>2026-03-25T13:48:27.049Z</time></trkpt><trkpt lat="44.0626617" lon="12.0900733"><ele>122.0</ele><time>2026-03-25T13:48:28.049Z</time></trkpt><trkpt lat="44.0627283" lon="12.0900783"><ele>121.99999999999999</ele><time>2026-03-25T13:48:29.049Z</time></trkpt><trkpt lat="44.0628017" lon="12.0900883"><ele>121.99999999999999</ele><time>2026-03-25T13:48:30.05Z</time></trkpt><trkpt lat="44.0628717" lon="12.090085"><ele>122.0</ele><time>2026-03-25T13:48:31.049Z</time></trkpt><trkpt lat="44.0629433" lon="12.0900733"><ele>121.99999999999999</ele><time>2026-03-25T13:48:32.05Z</time></trkpt><trkpt lat="44.0630167" lon="12.0900567"><ele>121.99999999999999</ele><time>2026-03-25T13:48:33.05Z</time></trkpt><trkpt lat="44.0630917" lon="12.0900283"><ele>121.99999999999999</ele><time>2026-03-25T13:48:34.05Z</time></trkpt><trkpt lat="44.0631567" lon="12.0899933"><ele>122.0</ele><time>2026-03-25T13:48:35.05Z</time></trkpt><trkpt lat="44.0632233" lon="12.08995"><ele>121.99999999999999</ele><time>2026-03-25T13:48:36.05Z</time></trkpt><trkpt lat="44.0632883" lon="12.0898983"><ele>121.99999999999999</ele><time>2026-03-25T13:48:37.05Z</time></trkpt><trkpt lat="44.0633467" lon="12.08984"><ele>122.0</ele><time>2026-03-25T13:48:38.049Z</time></trkpt><trkpt lat="44.0634117" lon="12.0897867"><ele>121.99999999999999</ele><time>2026-03-25T13:48:39.05Z</time></trkpt><trkpt lat="44.0634767" lon="12.0897317"><ele>121.99999999999999</ele><time>2026-03-25T13:48:40.049Z</time></trkpt><trkpt lat="44.06354" lon="12.0896783"><ele>119.99999999999999</ele><time>2026-03-25T13:48:41.049Z</time></trkpt><trkpt lat="44.063605" lon="12.08962"><ele>118.0</ele><time>2026-03-25T13:48:42.05Z</time></trkpt><trkpt lat="44.0636683" lon="12.0895567"><ele>116.0</ele><time>2026-03-25T13:48:43.049Z</time></trkpt><trkpt lat="44.0637367" lon="12.08949"><ele>114.0</ele><time>2026-03-25T13:48:44.05Z</time></trkpt><trkpt lat="44.0637983" lon="12.089425"><ele>111.99999999999999</ele><time>2026-03-25T13:48:45.05Z</time></trkpt><trkpt lat="44.0638633" lon="12.0893583"><ele>110.0</ele><time>2026-03-25T13:48:46.05Z</time></trkpt><trkpt lat="44.06393" lon="12.0892983"><ele>109.99999999999999</ele><time>2026-03-25T13:48:47.049Z</time></trkpt><trkpt lat="44.063995" lon="12.08924"><ele>110.0</ele><time>2026-03-25T13:48:48.05Z</time></trkpt><trkpt lat="44.0640633" lon="12.0891817"><ele>110.0</ele><time>2026-03-25T13:48:49.05Z</time></trkpt><trkpt lat="44.06413" lon="12.0891267"><ele>110.0</ele><time>2026-03-25T13:48:50.049Z</time></trkpt><trkpt lat="44.0642" lon="12.0890717"><ele>109.99999999999999</ele><time>2026-03-25T13:48:51.05Z</time></trkpt><trkpt lat="44.0642767" lon="12.08902"><ele>110.0</ele><time>2026-03-25T13:48:52.049Z</time></trkpt><trkpt lat="44.0643517" lon="12.088975"><ele>108.99999999999999</ele><time>2026-03-25T13:48:53.049Z</time></trkpt><trkpt lat="44.0644283" lon="12.088945"><ele>108.0</ele><time>2026-03-25T13:48:54.049Z</time></trkpt><trkpt lat="44.0645" lon="12.0889233"><ele>107.0</ele><time>2026-03-25T13:48:55.049Z</time></trkpt><trkpt lat="44.06458" lon="12.0889133"><ele>106.0</ele><time>2026-03-25T13:48:56.05Z</time></trkpt><trkpt lat="44.0646617" lon="12.0889033"><ele>104.99999999999999</ele><time>2026-03-25T13:48:57.05Z</time></trkpt><trkpt lat="44.0647433" lon="12.0888983"><ele>104.0</ele><time>2026-03-25T13:48:58.05Z</time></trkpt><trkpt lat="44.064825" lon="12.0888983"><ele>103.99999999999999</ele><time>2026-03-25T13:48:59.049Z</time></trkpt><trkpt lat="44.064905" lon="12.0888967"><ele>104.0</ele><time>2026-03-25T13:49:00.049Z</time></trkpt><trkpt lat="44.0649817" lon="12.08889"><ele>104.0</ele><time>2026-03-25T13:49:01.05Z</time></trkpt><trkpt lat="44.0650583" lon="12.0888817"><ele>104.0</ele><time>2026-03-25T13:49:02.049Z</time></trkpt><trkpt lat="44.0651333" lon="12.0888717"><ele>103.99999999999999</ele><time>2026-03-25T13:49:03.05Z</time></trkpt><trkpt lat="44.0652067" lon="12.08886"><ele>104.0</ele><time>2026-03-25T13:49:04.049Z</time></trkpt><trkpt lat="44.0652817" lon="12.08886"><ele>104.33333333333333</ele><time>2026-03-25T13:49:05.05Z</time></trkpt><trkpt lat="44.0653567" lon="12.0888567"><ele>104.66666666666666</ele><time>2026-03-25T13:49:06.05Z</time></trkpt><trkpt lat="44.0654333" lon="12.0888483"><ele>105.0</ele><time>2026-03-25T13:49:07.05Z</time></trkpt><trkpt lat="44.06551" lon="12.088845"><ele>105.33333333333334</ele><time>2026-03-25T13:49:08.05Z</time></trkpt><trkpt lat="44.06559" lon="12.0888467"><ele>105.66666666666667</ele><time>2026-03-25T13:49:09.049Z</time></trkpt><trkpt lat="44.06567" lon="12.0888517"><ele>106.0</ele><time>2026-03-25T13:49:10.05Z</time></trkpt><trkpt lat="44.0657467" lon="12.0888617"><ele>106.00000000000001</ele><time>2026-03-25T13:49:11.049Z</time></trkpt><trkpt lat="44.0658233" lon="12.0888767"><ele>106.0</ele><time>2026-03-25T13:49:12.049Z</time></trkpt><trkpt lat="44.0659" lon="12.0889083"><ele>106.0</ele><time>2026-03-25T13:49:13.049Z</time></trkpt><trkpt lat="44.0659733" lon="12.08895"><ele>106.0</ele><time>2026-03-25T13:49:14.05Z</time></trkpt><trkpt lat="44.06604" lon="12.0890067"><ele>106.00000000000001</ele><time>2026-03-25T13:49:15.05Z</time></trkpt><trkpt lat="44.0661067" lon="12.089075"><ele>106.0</ele><time>2026-03-25T13:49:16.05Z</time></trkpt><trkpt lat="44.0661767" lon="12.08915"><ele>107.66666666666667</ele><time>2026-03-25T13:49:17.049Z</time></trkpt><trkpt lat="44.06624" lon="12.089225"><ele>109.33333333333334</ele><time>2026-03-25T13:49:18.05Z</time></trkpt><trkpt lat="44.0663017" lon="12.08929"><ele>111.0</ele><time>2026-03-25T13:49:19.05Z</time></trkpt><trkpt lat="44.06637" lon="12.0893517"><ele>112.66666666666666</ele><time>2026-03-25T13:49:20.05Z</time></trkpt><trkpt lat="44.0664317" lon="12.0894217"><ele>114.33333333333333</ele><time>2026-03-25T13:49:21.049Z</time></trkpt><trkpt lat="44.0664967" lon="12.0894983"><ele>116.0</ele><time>2026-03-25T13:49:22.049Z</time></trkpt><trkpt lat="44.0665617" lon="12.089565"><ele>116.33333333333333</ele><time>2026-03-25T13:49:23.049Z</time></trkpt><trkpt lat="44.0666233" lon="12.0896317"><ele>116.66666666666666</ele><time>2026-03-25T13:49:24.049Z</time></trkpt><trkpt lat="44.0666867" lon="12.0897017"><ele>117.0</ele><time>2026-03-25T13:49:25.05Z</time></trkpt><trkpt lat="44.0667467" lon="12.0897767"><ele>117.33333333333334</ele><time>2026-03-25T13:49:26.05Z</time></trkpt><trkpt lat="44.06681" lon="12.0898467"><ele>117.66666666666667</ele><time>2026-03-25T13:49:27.049Z</time></trkpt><trkpt lat="44.06688" lon="12.0899167"><ele>118.0</ele><time>2026-03-25T13:49:28.05Z</time></trkpt><trkpt lat="44.06694" lon="12.0899933"><ele>118.00000000000001</ele><time>2026-03-25T13:49:29.049Z</time></trkpt><trkpt lat="44.0670067" lon="12.0900717"><ele>118.0</ele><time>2026-03-25T13:49:30.05Z</time></trkpt><trkpt lat="44.0670733" lon="12.0901517"><ele>118.0</ele><time>2026-03-25T13:49:31.05Z</time></trkpt><trkpt lat="44.0671367" lon="12.0902317"><ele>118.0</ele><time>2026-03-25T13:49:32.049Z</time></trkpt><trkpt lat="44.067195" lon="12.0903133"><ele>118.00000000000001</ele><time>2026-03-25T13:49:33.049Z</time></trkpt><trkpt lat="44.0672567" lon="12.0904017"><ele>118.0</ele><time>2026-03-25T13:49:34.05Z</time></trkpt><trkpt lat="44.0673067" lon="12.0905"><ele>118.0</ele><time>2026-03-25T13:49:35.05Z</time></trkpt><trkpt lat="44.0673667" lon="12.0906033"><ele>118.00000000000001</ele><time>2026-03-25T13:49:36.049Z</time></trkpt><trkpt lat="44.0674233" lon="12.0907083"><ele>118.00000000000001</ele><time>2026-03-25T13:49:37.049Z</time></trkpt><trkpt lat="44.0674817" lon="12.09082"><ele>118.0</ele><time>2026-03-25T13:49:38.05Z</time></trkpt><trkpt lat="44.06754" lon="12.09093"><ele>118.0</ele><time>2026-03-25T13:49:39.049Z</time></trkpt><trkpt lat="44.0675983" lon="12.0910433"><ele>116.83333333333334</ele><time>2026-03-25T13:49:40.05Z</time></trkpt><trkpt lat="44.0676533" lon="12.0911517"><ele>115.66666666666667</ele><time>2026-03-25T13:49:41.049Z</time></trkpt><trkpt lat="44.0677067" lon="12.0912583"><ele>114.5</ele><time>2026-03-25T13:49:42.049Z</time></trkpt><trkpt lat="44.0677617" lon="12.0913467"><ele>113.33333333333334</ele><time>2026-03-25T13:49:43.05Z</time></trkpt><trkpt lat="44.0678183" lon="12.09143"><ele>112.16666666666667</ele><time>2026-03-25T13:49:44.049Z</time></trkpt><trkpt lat="44.0678767" lon="12.091495"><ele>111.0</ele><time>2026-03-25T13:49:45.05Z</time></trkpt><trkpt lat="44.067935" lon="12.091555"><ele>111.0</ele><time>2026-03-25T13:49:46.05Z</time></trkpt><trkpt lat="44.068045" lon="12.091625"><ele>111.0</ele><time>2026-03-25T13:49:48.05Z</time></trkpt><trkpt lat="44.0681467" lon="12.0916717"><ele>111.0</ele><time>2026-03-25T13:49:50.05Z</time></trkpt><trkpt lat="44.0682383" lon="12.0916883"><ele>111.0</ele><time>2026-03-25T13:49:52.049Z</time></trkpt><trkpt lat="44.0683283" lon="12.09172"><ele>111.0</ele><time>2026-03-25T13:49:54.049Z</time></trkpt><trkpt lat="44.0684367" lon="12.0917583"><ele>111.0</ele><time>2026-03-25T13:49:56.049Z</time></trkpt><trkpt lat="44.0685417" lon="12.0918"><ele>111.0</ele><time>2026-03-25T13:49:58.05Z</time></trkpt><trkpt lat="44.06865" lon="12.0918133"><ele>111.0</ele><time>2026-03-25T13:50:00.049Z</time></trkpt><trkpt lat="44.0687717" lon="12.0918083"><ele>111.0</ele><time>2026-03-25T13:50:02.049Z</time></trkpt><trkpt lat="44.0688383" lon="12.0917983"><ele>111.0</ele><time>2026-03-25T13:50:03.05Z</time></trkpt><trkpt lat="44.0689067" lon="12.091795"><ele>111.0</ele><time>2026-03-25T13:50:04.05Z</time></trkpt><trkpt lat="44.0689717" lon="12.0917933"><ele>111.0</ele><time>2026-03-25T13:50:05.049Z</time></trkpt><trkpt lat="44.0690383" lon="12.09179"><ele>111.0</ele><time>2026-03-25T13:50:06.05Z</time></trkpt><trkpt lat="44.0691617" lon="12.0917667"><ele>111.0</ele><time>2026-03-25T13:50:08.05Z</time></trkpt><trkpt lat="44.06928" lon="12.0917417"><ele>111.0</ele><time>2026-03-25T13:50:10.05Z</time></trkpt><trkpt lat="44.0694017" lon="12.0917317"><ele>109.19999999999999</ele><time>2026-03-25T13:50:12.05Z</time></trkpt><trkpt lat="44.0694667" lon="12.091725"><ele>107.39999999999999</ele><time>2026-03-25T13:50:13.049Z</time></trkpt><trkpt lat="44.06953" lon="12.0917167"><ele>105.6</ele><time>2026-03-25T13:50:14.049Z</time></trkpt><trkpt lat="44.0696467" lon="12.0917033"><ele>103.8</ele><time>2026-03-25T13:50:16.05Z</time></trkpt><trkpt lat="44.069765" lon="12.0916867"><ele>102.0</ele><time>2026-03-25T13:50:18.049Z</time></trkpt><trkpt lat="44.06988" lon="12.0916617"><ele>101.5</ele><time>2026-03-25T13:50:20.05Z</time></trkpt><trkpt lat="44.070005" lon="12.0916383"><ele>101.0</ele><time>2026-03-25T13:50:22.05Z</time></trkpt><trkpt lat="44.0701217" lon="12.0916167"><ele>100.5</ele><time>2026-03-25T13:50:24.05Z</time></trkpt><trkpt lat="44.0702383" lon="12.0915933"><ele>100.0</ele><time>2026-03-25T13:50:26.05Z</time></trkpt><trkpt lat="44.0703433" lon="12.0915767"><ele>100.0</ele><time>2026-03-25T13:50:28.049Z</time></trkpt><trkpt lat="44.07045" lon="12.09155"><ele>100.0</ele><time>2026-03-25T13:50:30.05Z</time></trkpt><trkpt lat="44.070555" lon="12.091515"><ele>100.0</ele><time>2026-03-25T13:50:32.049Z</time></trkpt><trkpt lat="44.0706483" lon="12.0914667"><ele>100.0</ele><time>2026-03-25T13:50:34.049Z</time></trkpt><trkpt lat="44.0707417" lon="12.0914033"><ele>100.0</ele><time>2026-03-25T13:50:36.049Z</time></trkpt><trkpt lat="44.070835" lon="12.0913517"><ele>100.0</ele><time>2026-03-25T13:50:38.05Z</time></trkpt><trkpt lat="44.0709217" lon="12.09129"><ele>100.0</ele><time>2026-03-25T13:50:40.049Z</time></trkpt><trkpt lat="44.071" lon="12.0912233"><ele>100.0</ele><time>2026-03-25T13:50:42.05Z</time></trkpt><trkpt lat="44.071065" lon="12.09114"><ele>100.0</ele><time>2026-03-25T13:50:44.049Z</time></trkpt><trkpt lat="44.0711367" lon="12.0910667"><ele>100.0</ele><time>2026-03-25T13:50:46.05Z</time></trkpt><trkpt lat="44.07121" lon="12.090985"><ele>100.0</ele><time>2026-03-25T13:50:48.049Z</time></trkpt><trkpt lat="44.071285" lon="12.0909067"><ele>100.0</ele><time>2026-03-25T13:50:50.049Z</time></trkpt><trkpt lat="44.0713583" lon="12.090835"><ele>100.0</ele><time>2026-03-25T13:50:52.05Z</time></trkpt><trkpt lat="44.0714317" lon="12.0907583"><ele>100.0</ele><time>2026-03-25T13:50:54.05Z</time></trkpt><trkpt lat="44.0715017" lon="12.0906817"><ele>100.0</ele><time>2026-03-25T13:50:56.049Z</time></trkpt><trkpt lat="44.07158" lon="12.0906083"><ele>100.8</ele><time>2026-03-25T13:50:58.049Z</time></trkpt><trkpt lat="44.07166" lon="12.0905283"><ele>101.6</ele><time>2026-03-25T13:51:00.05Z</time></trkpt><trkpt lat="44.0717517" lon="12.0904717"><ele>102.4</ele><time>2026-03-25T13:51:02.049Z</time></trkpt><trkpt lat="44.0718367" lon="12.090425"><ele>103.2</ele><time>2026-03-25T13:51:04.05Z</time></trkpt><trkpt lat="44.071925" lon="12.0903983"><ele>104.0</ele><time>2026-03-25T13:51:06.05Z</time></trkpt><trkpt lat="44.07202" lon="12.09038"><ele>104.0</ele><time>2026-03-25T13:51:08.049Z</time></trkpt><trkpt lat="44.0721167" lon="12.0903817"><ele>104.0</ele><time>2026-03-25T13:51:10.049Z</time></trkpt><trkpt lat="44.0722283" lon="12.0903967"><ele>104.0</ele><time>2026-03-25T13:51:12.05Z</time></trkpt><trkpt lat="44.0723233" lon="12.0904183"><ele>104.0</ele><time>2026-03-25T13:51:14.05Z</time></trkpt><trkpt lat="44.0724217" lon="12.0904367"><ele>104.0</ele><time>2026-03-25T13:51:16.05Z</time></trkpt><trkpt lat="44.0725317" lon="12.0904583"><ele>104.2</ele><time>2026-03-25T13:51:18.049Z</time></trkpt><trkpt lat="44.07264" lon="12.090485"><ele>104.4</ele><time>2026-03-25T13:51:20.049Z</time></trkpt><trkpt lat="44.0727517" lon="12.0905283"><ele>104.6</ele><time>2026-03-25T13:51:22.049Z</time></trkpt><trkpt lat="44.072855" lon="12.0905567"><ele>104.8</ele><time>2026-03-25T13:51:24.049Z</time></trkpt><trkpt lat="44.07297" lon="12.09058"><ele>105.0</ele><time>2026-03-25T13:51:26.049Z</time></trkpt><trkpt lat="44.073075" lon="12.0906133"><ele>105.0</ele><time>2026-03-25T13:51:28.05Z</time></trkpt><trkpt lat="44.0731883" lon="12.090645"><ele>105.0</ele><time>2026-03-25T13:51:30.05Z</time></trkpt><trkpt lat="44.073295" lon="12.0906683"><ele>105.0</ele><time>2026-03-25T13:51:32.049Z</time></trkpt><trkpt lat="44.0734017" lon="12.0907067"><ele>105.0</ele><time>2026-03-25T13:51:34.05Z</time></trkpt><trkpt lat="44.0735167" lon="12.090755"><ele>104.8</ele><time>2026-03-25T13:51:36.05Z</time></trkpt><trkpt lat="44.0736283" lon="12.090785"><ele>104.6</ele><time>2026-03-25T13:51:38.049Z</time></trkpt><trkpt lat="44.0737383" lon="12.0908033"><ele>104.4</ele><time>2026-03-25T13:51:40.05Z</time></trkpt><trkpt lat="44.07384" lon="12.0908083"><ele>104.2</ele><time>2026-03-25T13:51:42.049Z</time></trkpt><trkpt lat="44.07394" lon="12.09079"><ele>104.0</ele><time>2026-03-25T13:51:44.049Z</time></trkpt><trkpt lat="44.074025" lon="12.0907567"><ele>104.0</ele><time>2026-03-25T13:51:46.049Z</time></trkpt><trkpt lat="44.07412" lon="12.0907033"><ele>104.0</ele><time>2026-03-25T13:51:48.049Z</time></trkpt><trkpt lat="44.0742017" lon="12.0906467"><ele>104.0</ele><time>2026-03-25T13:51:50.05Z</time></trkpt><trkpt lat="44.07428" lon="12.09059"><ele>104.0</ele><time>2026-03-25T13:51:52.05Z</time></trkpt><trkpt lat="44.0743583" lon="12.0905367"><ele>104.0</ele><time>2026-03-25T13:51:54.05Z</time></trkpt><trkpt lat="44.0744333" lon="12.0904733"><ele>104.0</ele><time>2026-03-25T13:51:56.05Z</time></trkpt><trkpt lat="44.0745133" lon="12.0903983"><ele>104.0</ele><time>2026-03-25T13:51:58.05Z</time></trkpt><trkpt lat="44.0746033" lon="12.09033"><ele>104.0</ele><time>2026-03-25T13:52:00.05Z</time></trkpt><trkpt lat="44.07469" lon="12.09025"><ele>104.0</ele><time>2026-03-25T13:52:02.049Z</time></trkpt><trkpt lat="44.0747733" lon="12.0901583"><ele>104.0</ele><time>2026-03-25T13:52:04.05Z</time></trkpt><trkpt lat="44.0748617" lon="12.09008"><ele>104.4</ele><time>2026-03-25T13:52:06.05Z</time></trkpt><trkpt lat="44.0749583" lon="12.0899867"><ele>104.80000000000001</ele><time>2026-03-25T13:52:08.05Z</time></trkpt><trkpt lat="44.0750567" lon="12.0898783"><ele>105.19999999999999</ele><time>2026-03-25T13:52:10.049Z</time></trkpt><trkpt lat="44.0751133" lon="12.0898267"><ele>105.6</ele><time>2026-03-25T13:52:11.05Z</time></trkpt><trkpt lat="44.0751733" lon="12.08977"><ele>106.0</ele><time>2026-03-25T13:52:12.049Z</time></trkpt><trkpt lat="44.07523" lon="12.089705"><ele>104.57142857142857</ele><time>2026-03-25T13:52:13.049Z</time></trkpt><trkpt lat="44.07529" lon="12.0896433"><ele>103.14285714285714</ele><time>2026-03-25T13:52:14.049Z</time></trkpt><trkpt lat="44.0753433" lon="12.0895883"><ele>101.71428571428571</ele><time>2026-03-25T13:52:15.05Z</time></trkpt><trkpt lat="44.0754017" lon="12.08953"><ele>100.28571428571428</ele><time>2026-03-25T13:52:16.05Z</time></trkpt><trkpt lat="44.0754583" lon="12.0894683"><ele>98.85714285714286</ele><time>2026-03-25T13:52:17.049Z</time></trkpt><trkpt lat="44.0755133" lon="12.0894017"><ele>97.42857142857142</ele><time>2026-03-25T13:52:18.049Z</time></trkpt><trkpt lat="44.075565" lon="12.0893333"><ele>96.0</ele><time>2026-03-25T13:52:19.049Z</time></trkpt><trkpt lat="44.0756167" lon="12.0892633"><ele>96.0</ele><time>2026-03-25T13:52:20.049Z</time></trkpt><trkpt lat="44.0756683" lon="12.0891883"><ele>96.0</ele><time>2026-03-25T13:52:21.049Z</time></trkpt><trkpt lat="44.0757167" lon="12.0891117"><ele>96.0</ele><time>2026-03-25T13:52:22.05Z</time></trkpt><trkpt lat="44.0757667" lon="12.0890317"><ele>96.0</ele><time>2026-03-25T13:52:23.05Z</time></trkpt><trkpt lat="44.0758233" lon="12.0889433"><ele>96.0</ele><time>2026-03-25T13:52:24.05Z</time></trkpt><trkpt lat="44.0758817" lon="12.0888517"><ele>96.0</ele><time>2026-03-25T13:52:25.049Z</time></trkpt><trkpt lat="44.0759367" lon="12.08876"><ele>96.19999999999999</ele><time>2026-03-25T13:52:26.05Z</time></trkpt><trkpt lat="44.0759967" lon="12.0886717"><ele>96.39999999999999</ele><time>2026-03-25T13:52:27.05Z</time></trkpt><trkpt lat="44.0760567" lon="12.0885733"><ele>96.6</ele><time>2026-03-25T13:52:28.05Z</time></trkpt><trkpt lat="44.07612" lon="12.0884733"><ele>96.8</ele><time>2026-03-25T13:52:29.049Z</time></trkpt><trkpt lat="44.0761833" lon="12.0883817"><ele>97.0</ele><time>2026-03-25T13:52:30.05Z</time></trkpt><trkpt lat="44.0762433" lon="12.0882817"><ele>96.6</ele><time>2026-03-25T13:52:31.049Z</time></trkpt><trkpt lat="44.0763117" lon="12.0881883"><ele>96.19999999999999</ele><time>2026-03-25T13:52:32.049Z</time></trkpt><trkpt lat="44.076385" lon="12.0881"><ele>95.8</ele><time>2026-03-25T13:52:33.049Z</time></trkpt><trkpt lat="44.0764683" lon="12.0880233"><ele>95.4</ele><time>2026-03-25T13:52:34.049Z</time></trkpt><trkpt lat="44.0765533" lon="12.0879617"><ele>95.0</ele><time>2026-03-25T13:52:35.05Z</time></trkpt><trkpt lat="44.0766417" lon="12.087905"><ele>95.0</ele><time>2026-03-25T13:52:36.05Z</time></trkpt><trkpt lat="44.0767367" lon="12.0878533"><ele>95.0</ele><time>2026-03-25T13:52:37.05Z</time></trkpt><trkpt lat="44.0768333" lon="12.0878017"><ele>95.0</ele><time>2026-03-25T13:52:38.05Z</time></trkpt><trkpt lat="44.0769367" lon="12.0877333"><ele>95.0</ele><time>2026-03-25T13:52:39.05Z</time></trkpt><trkpt lat="44.0770267" lon="12.0876533"><ele>95.0</ele><time>2026-03-25T13:52:40.05Z</time></trkpt><trkpt lat="44.0771117" lon="12.087565"><ele>95.0</ele><time>2026-03-25T13:52:41.05Z</time></trkpt><trkpt lat="44.07719" lon="12.0874733"><ele>95.0</ele><time>2026-03-25T13:52:42.049Z</time></trkpt><trkpt lat="44.0772733" lon="12.0873783"><ele>95.0</ele><time>2026-03-25T13:52:43.05Z</time></trkpt><trkpt lat="44.07735" lon="12.0872833"><ele>95.0</ele><time>2026-03-25T13:52:44.049Z</time></trkpt><trkpt lat="44.0774283" lon="12.0871883"><ele>95.0</ele><time>2026-03-25T13:52:45.05Z</time></trkpt><trkpt lat="44.07751" lon="12.0871017"><ele>94.8</ele><time>2026-03-25T13:52:46.049Z</time></trkpt><trkpt lat="44.0776033" lon="12.0870233"><ele>94.6</ele><time>2026-03-25T13:52:47.05Z</time></trkpt><trkpt lat="44.0777" lon="12.0869667"><ele>94.4</ele><time>2026-03-25T13:52:48.05Z</time></trkpt><trkpt lat="44.0778033" lon="12.0869383"><ele>94.2</ele><time>2026-03-25T13:52:49.05Z</time></trkpt><trkpt lat="44.0779" lon="12.0869417"><ele>94.0</ele><time>2026-03-25T13:52:50.049Z</time></trkpt><trkpt lat="44.07799" lon="12.0869767"><ele>94.0</ele><time>2026-03-25T13:52:51.049Z</time></trkpt><trkpt lat="44.0780717" lon="12.0870333"><ele>94.0</ele><time>2026-03-25T13:52:52.05Z</time></trkpt><trkpt lat="44.0781617" lon="12.0870883"><ele>94.0</ele><time>2026-03-25T13:52:53.05Z</time></trkpt><trkpt lat="44.0782483" lon="12.0871467"><ele>94.0</ele><time>2026-03-25T13:52:54.049Z</time></trkpt><trkpt lat="44.07833" lon="12.0872"><ele>94.0</ele><time>2026-03-25T13:52:55.049Z</time></trkpt><trkpt lat="44.0784067" lon="12.0872467"><ele>93.66666666666666</ele><time>2026-03-25T13:52:56.05Z</time></trkpt><trkpt lat="44.0784833" lon="12.087295"><ele>93.33333333333333</ele><time>2026-03-25T13:52:57.05Z</time></trkpt><trkpt lat="44.0785567" lon="12.08734"><ele>93.0</ele><time>2026-03-25T13:52:58.05Z</time></trkpt><trkpt lat="44.0786317" lon="12.0873867"><ele>92.66666666666667</ele><time>2026-03-25T13:52:59.05Z</time></trkpt><trkpt lat="44.0787033" lon="12.0874183"><ele>92.33333333333334</ele><time>2026-03-25T13:53:00.05Z</time></trkpt><trkpt lat="44.0787817" lon="12.0874283"><ele>92.0</ele><time>2026-03-25T13:53:01.05Z</time></trkpt><trkpt lat="44.078855" lon="12.0874267"><ele>92.0</ele><time>2026-03-25T13:53:02.05Z</time></trkpt><trkpt lat="44.078925" lon="12.0874083"><ele>92.0</ele><time>2026-03-25T13:53:03.05Z</time></trkpt><trkpt lat="44.0789867" lon="12.08739"><ele>92.0</ele><time>2026-03-25T13:53:04.049Z</time></trkpt><trkpt lat="44.079055" lon="12.0873533"><ele>92.0</ele><time>2026-03-25T13:53:05.049Z</time></trkpt><trkpt lat="44.07912" lon="12.0873117"><ele>92.0</ele><time>2026-03-25T13:53:06.049Z</time></trkpt><trkpt lat="44.0792283" lon="12.08724"><ele>92.0</ele><time>2026-03-25T13:53:08.049Z</time></trkpt><trkpt lat="44.0793317" lon="12.0871717"><ele>91.33333333333334</ele><time>2026-03-25T13:53:10.049Z</time></trkpt><trkpt lat="44.0794617" lon="12.08716"><ele>90.66666666666667</ele><time>2026-03-25T13:53:12.05Z</time></trkpt><trkpt lat="44.0795333" lon="12.0871683"><ele>90.0</ele><time>2026-03-25T13:53:13.05Z</time></trkpt><trkpt lat="44.0796017" lon="12.08718"><ele>89.33333333333333</ele><time>2026-03-25T13:53:14.05Z</time></trkpt><trkpt lat="44.0796733" lon="12.0871983"><ele>88.66666666666666</ele><time>2026-03-25T13:53:15.05Z</time></trkpt><trkpt lat="44.0797383" lon="12.087215"><ele>88.0</ele><time>2026-03-25T13:53:16.05Z</time></trkpt><trkpt lat="44.0798683" lon="12.087245"><ele>88.14285714285714</ele><time>2026-03-25T13:53:18.05Z</time></trkpt><trkpt lat="44.07994" lon="12.0872583"><ele>88.28571428571428</ele><time>2026-03-25T13:53:19.05Z</time></trkpt><trkpt lat="44.080005" lon="12.0872733"><ele>88.42857142857142</ele><time>2026-03-25T13:53:20.049Z</time></trkpt><trkpt lat="44.0800717" lon="12.087285"><ele>88.57142857142857</ele><time>2026-03-25T13:53:21.049Z</time></trkpt><trkpt lat="44.080145" lon="12.087285"><ele>88.71428571428571</ele><time>2026-03-25T13:53:22.05Z</time></trkpt><trkpt lat="44.0802167" lon="12.087285"><ele>88.85714285714285</ele><time>2026-03-25T13:53:23.05Z</time></trkpt><trkpt lat="44.08029" lon="12.0872783"><ele>89.0</ele><time>2026-03-25T13:53:24.05Z</time></trkpt><trkpt lat="44.0803617" lon="12.0872683"><ele>88.99999999999999</ele><time>2026-03-25T13:53:25.05Z</time></trkpt><trkpt lat="44.080435" lon="12.0872483"><ele>89.0</ele><time>2026-03-25T13:53:26.05Z</time></trkpt><trkpt lat="44.0805067" lon="12.0872267"><ele>89.0</ele><time>2026-03-25T13:53:27.049Z</time></trkpt><trkpt lat="44.0805783" lon="12.087205"><ele>89.0</ele><time>2026-03-25T13:53:28.049Z</time></trkpt><trkpt lat="44.08065" lon="12.087185"><ele>89.0</ele><time>2026-03-25T13:53:29.05Z</time></trkpt><trkpt lat="44.0807217" lon="12.0871733"><ele>88.99999999999999</ele><time>2026-03-25T13:53:30.05Z</time></trkpt><trkpt lat="44.0807933" lon="12.0871567"><ele>89.0</ele><time>2026-03-25T13:53:31.05Z</time></trkpt><trkpt lat="44.0808617" lon="12.0871333"><ele>88.99999999999999</ele><time>2026-03-25T13:53:32.05Z</time></trkpt><trkpt lat="44.0809283" lon="12.0871067"><ele>89.0</ele><time>2026-03-25T13:53:33.05Z</time></trkpt><trkpt lat="44.080995" lon="12.087085"><ele>89.0</ele><time>2026-03-25T13:53:34.049Z</time></trkpt><trkpt lat="44.0810617" lon="12.0870683"><ele>89.0</ele><time>2026-03-25T13:53:35.05Z</time></trkpt><trkpt lat="44.081125" lon="12.0870467"><ele>89.0</ele><time>2026-03-25T13:53:36.05Z</time></trkpt><trkpt lat="44.0811917" lon="12.0870217"><ele>88.99999999999999</ele><time>2026-03-25T13:53:37.049Z</time></trkpt><trkpt lat="44.081265" lon="12.0870067"><ele>89.0</ele><time>2026-03-25T13:53:38.05Z</time></trkpt><trkpt lat="44.0813383" lon="12.0869933"><ele>88.99999999999999</ele><time>2026-03-25T13:53:39.049Z</time></trkpt><trkpt lat="44.0814067" lon="12.0869833"><ele>89.0</ele><time>2026-03-25T13:53:40.05Z</time></trkpt><trkpt lat="44.081475" lon="12.086975"><ele>89.0</ele><time>2026-03-25T13:53:41.049Z</time></trkpt><trkpt lat="44.0815433" lon="12.08697"><ele>89.0</ele><time>2026-03-25T13:53:42.049Z</time></trkpt><trkpt lat="44.0816083" lon="12.086965"><ele>89.0</ele><time>2026-03-25T13:53:43.05Z</time></trkpt><trkpt lat="44.081675" lon="12.0869667"><ele>88.99999999999999</ele><time>2026-03-25T13:53:44.049Z</time></trkpt><trkpt lat="44.0817433" lon="12.086965"><ele>89.0</ele><time>2026-03-25T13:53:45.049Z</time></trkpt><trkpt lat="44.0818067" lon="12.0869667"><ele>88.75</ele><time>2026-03-25T13:53:46.05Z</time></trkpt><trkpt lat="44.0819267" lon="12.0869583"><ele>88.5</ele><time>2026-03-25T13:53:48.05Z</time></trkpt><trkpt lat="44.0820433" lon="12.0869567"><ele>88.25</ele><time>2026-03-25T13:53:50.049Z</time></trkpt><trkpt lat="44.0821533" lon="12.086965"><ele>88.0</ele><time>2026-03-25T13:53:52.05Z</time></trkpt><trkpt lat="44.0822567" lon="12.0869817"><ele>88.0</ele><time>2026-03-25T13:53:54.049Z</time></trkpt><trkpt lat="44.0823483" lon="12.0869867"><ele>88.0</ele><time>2026-03-25T13:53:56.05Z</time></trkpt><trkpt lat="44.0824467" lon="12.0869833"><ele>88.0</ele><time>2026-03-25T13:53:58.05Z</time></trkpt><trkpt lat="44.08255" lon="12.08698"><ele>88.0</ele><time>2026-03-25T13:54:00.049Z</time></trkpt><trkpt lat="44.0826567" lon="12.0869883"><ele>88.0</ele><time>2026-03-25T13:54:02.049Z</time></trkpt><trkpt lat="44.08276" lon="12.0869883"><ele>87.80000000000001</ele><time>2026-03-25T13:54:04.05Z</time></trkpt><trkpt lat="44.082865" lon="12.0869867"><ele>87.6</ele><time>2026-03-25T13:54:06.05Z</time></trkpt><trkpt lat="44.0829767" lon="12.0869717"><ele>87.4</ele><time>2026-03-25T13:54:08.049Z</time></trkpt><trkpt lat="44.083085" lon="12.0869683"><ele>87.19999999999999</ele><time>2026-03-25T13:54:10.05Z</time></trkpt><trkpt lat="44.0831867" lon="12.0869517"><ele>87.0</ele><time>2026-03-25T13:54:12.049Z</time></trkpt><trkpt lat="44.08329" lon="12.0869267"><ele>87.5</ele><time>2026-03-25T13:54:14.049Z</time></trkpt><trkpt lat="44.0834017" lon="12.08691"><ele>88.0</ele><time>2026-03-25T13:54:16.05Z</time></trkpt><trkpt lat="44.0835133" lon="12.0868933"><ele>88.5</ele><time>2026-03-25T13:54:18.05Z</time></trkpt><trkpt lat="44.0836283" lon="12.08688"><ele>89.0</ele><time>2026-03-25T13:54:20.049Z</time></trkpt><trkpt lat="44.0837433" lon="12.08686"><ele>89.0</ele><time>2026-03-25T13:54:22.05Z</time></trkpt><trkpt lat="44.083855" lon="12.0868317"><ele>89.0</ele><time>2026-03-25T13:54:24.049Z</time></trkpt><trkpt lat="44.08397" lon="12.08679"><ele>89.0</ele><time>2026-03-25T13:54:26.049Z</time></trkpt><trkpt lat="44.0840817" lon="12.086745"><ele>89.0</ele><time>2026-03-25T13:54:28.05Z</time></trkpt><trkpt lat="44.08419" lon="12.0866883"><ele>88.0</ele><time>2026-03-25T13:54:30.05Z</time></trkpt><trkpt lat="44.0842917" lon="12.0866117"><ele>87.0</ele><time>2026-03-25T13:54:32.049Z</time></trkpt><trkpt lat="44.0843817" lon="12.0865117"><ele>86.0</ele><time>2026-03-25T13:54:34.049Z</time></trkpt><trkpt lat="44.08446" lon="12.0864"><ele>85.0</ele><time>2026-03-25T13:54:36.05Z</time></trkpt><trkpt lat="44.0845267" lon="12.0862717"><ele>85.0</ele><time>2026-03-25T13:54:38.05Z</time></trkpt><trkpt lat="44.0845967" lon="12.086135"><ele>85.0</ele><time>2026-03-25T13:54:40.05Z</time></trkpt><trkpt lat="44.084665" lon="12.08599"><ele>85.0</ele><time>2026-03-25T13:54:42.05Z</time></trkpt><trkpt lat="44.0846967" lon="12.0859133"><ele>85.0</ele><time>2026-03-25T13:54:43.049Z</time></trkpt><trkpt lat="44.0847633" lon="12.08577"><ele>85.0</ele><time>2026-03-25T13:54:45.05Z</time></trkpt><trkpt lat="44.084845" lon="12.0856433"><ele>84.8</ele><time>2026-03-25T13:54:47.049Z</time></trkpt><trkpt lat="44.0848933" lon="12.0855833"><ele>84.6</ele><time>2026-03-25T13:54:48.05Z</time></trkpt><trkpt lat="44.084995" lon="12.08548"><ele>84.4</ele><time>2026-03-25T13:54:50.05Z</time></trkpt><trkpt lat="44.085105" lon="12.0853917"><ele>84.2</ele><time>2026-03-25T13:54:52.049Z</time></trkpt><trkpt lat="44.0852117" lon="12.085305"><ele>84.0</ele><time>2026-03-25T13:54:54.049Z</time></trkpt><trkpt lat="44.0852683" lon="12.0852567"><ele>84.0</ele><time>2026-03-25T13:54:55.05Z</time></trkpt><trkpt lat="44.085325" lon="12.085215"><ele>84.0</ele><time>2026-03-25T13:54:56.05Z</time></trkpt><trkpt lat="44.0854283" lon="12.0851367"><ele>84.0</ele><time>2026-03-25T13:54:58.049Z</time></trkpt><trkpt lat="44.0855267" lon="12.08505"><ele>84.0</ele><time>2026-03-25T13:55:00.05Z</time></trkpt><trkpt lat="44.0855833" lon="12.0850017"><ele>84.0</ele><time>2026-03-25T13:55:01.049Z</time></trkpt><trkpt lat="44.0856867" lon="12.0849233"><ele>83.5</ele><time>2026-03-25T13:55:03.05Z</time></trkpt><trkpt lat="44.08579" lon="12.0848467"><ele>83.0</ele><time>2026-03-25T13:55:05.049Z</time></trkpt><trkpt lat="44.0858933" lon="12.0847633"><ele>82.5</ele><time>2026-03-25T13:55:07.049Z</time></trkpt><trkpt lat="44.0859917" lon="12.0846733"><ele>82.0</ele><time>2026-03-25T13:55:09.05Z</time></trkpt><trkpt lat="44.086105" lon="12.084585"><ele>82.0</ele><time>2026-03-25T13:55:11.05Z</time></trkpt><trkpt lat="44.0861633" lon="12.0845433"><ele>82.0</ele><time>2026-03-25T13:55:12.05Z</time></trkpt><trkpt lat="44.0862767" lon="12.08448"><ele>82.0</ele><time>2026-03-25T13:55:14.05Z</time></trkpt><trkpt lat="44.086335" lon="12.0844467"><ele>82.0</ele><time>2026-03-25T13:55:15.049Z</time></trkpt><trkpt lat="44.086395" lon="12.0844133"><ele>82.0</ele><time>2026-03-25T13:55:16.049Z</time></trkpt><trkpt lat="44.0865117" lon="12.08436"><ele>82.0</ele><time>2026-03-25T13:55:18.05Z</time></trkpt><trkpt lat="44.0865733" lon="12.0843367"><ele>82.5</ele><time>2026-03-25T13:55:19.05Z</time></trkpt><trkpt lat="44.0866417" lon="12.084315"><ele>83.0</ele><time>2026-03-25T13:55:20.05Z</time></trkpt><trkpt lat="44.0867133" lon="12.0843"><ele>83.5</ele><time>2026-03-25T13:55:21.049Z</time></trkpt><trkpt lat="44.0867883" lon="12.0842833"><ele>84.0</ele><time>2026-03-25T13:55:22.049Z</time></trkpt><trkpt lat="44.0868717" lon="12.08427"><ele>84.5</ele><time>2026-03-25T13:55:23.05Z</time></trkpt><trkpt lat="44.0869483" lon="12.0842667"><ele>85.0</ele><time>2026-03-25T13:55:24.05Z</time></trkpt><trkpt lat="44.0870217" lon="12.0842617"><ele>85.0</ele><time>2026-03-25T13:55:25.05Z</time></trkpt><trkpt lat="44.08709" lon="12.08426"><ele>85.0</ele><time>2026-03-25T13:55:26.05Z</time></trkpt><trkpt lat="44.087195" lon="12.084285"><ele>85.0</ele><time>2026-03-25T13:55:28.049Z</time></trkpt><trkpt lat="44.087255" lon="12.08437"><ele>85.0</ele><time>2026-03-25T13:55:30.049Z</time></trkpt><trkpt lat="44.0872633" lon="12.0844767"><ele>85.0</ele><time>2026-03-25T13:55:32.049Z</time></trkpt><trkpt lat="44.087245" lon="12.0845933"><ele>85.0</ele><time>2026-03-25T13:55:35.049Z</time></trkpt><trkpt lat="44.0872283" lon="12.0846867"><ele>85.0</ele><time>2026-03-25T13:55:38.049Z</time></trkpt><trkpt lat="44.08721" lon="12.0847783"><ele>85.0</ele><time>2026-03-25T13:55:41.049Z</time></trkpt><trkpt lat="44.0872033" lon="12.0848733"><ele>85.0</ele><time>2026-03-25T13:55:44.049Z</time></trkpt><trkpt lat="44.0871867" lon="12.08497"><ele>85.0</ele><time>2026-03-25T13:55:47.05Z</time></trkpt><trkpt lat="44.0871683" lon="12.0850667"><ele>85.0</ele><time>2026-03-25T13:55:50.049Z</time></trkpt><trkpt lat="44.0871567" lon="12.085165"><ele>85.0</ele><time>2026-03-25T13:55:53.05Z</time></trkpt><trkpt lat="44.0871367" lon="12.0852583"><ele>85.0</ele><time>2026-03-25T13:55:56.05Z</time></trkpt><trkpt lat="44.087115" lon="12.0853567"><ele>85.42857142857143</ele><time>2026-03-25T13:55:59.049Z</time></trkpt><trkpt lat="44.0870983" lon="12.08545"><ele>85.85714285714285</ele><time>2026-03-25T13:56:02.049Z</time></trkpt><trkpt lat="44.0870783" lon="12.0855533"><ele>86.28571428571428</ele><time>2026-03-25T13:56:05.049Z</time></trkpt><trkpt lat="44.0870683" lon="12.0856483"><ele>86.71428571428572</ele><time>2026-03-25T13:56:08.05Z</time></trkpt><trkpt lat="44.0870783" lon="12.085765"><ele>87.14285714285714</ele><time>2026-03-25T13:56:12.049Z</time></trkpt><trkpt lat="44.0871" lon="12.0858567"><ele>87.57142857142857</ele><time>2026-03-25T13:56:15.05Z</time></trkpt><trkpt lat="44.08712" lon="12.0859433"><ele>88.0</ele><time>2026-03-25T13:56:18.049Z</time></trkpt><trkpt lat="44.0871617" lon="12.0860417"><ele>88.28571428571429</ele><time>2026-03-25T13:56:22.049Z</time></trkpt><trkpt lat="44.0872" lon="12.0861133"><ele>88.57142857142857</ele><time>2026-03-25T13:56:25.049Z</time></trkpt><trkpt lat="44.08725" lon="12.08617"><ele>88.85714285714286</ele><time>2026-03-25T13:56:28.05Z</time></trkpt><trkpt lat="44.087305" lon="12.0862233"><ele>89.14285714285714</ele><time>2026-03-25T13:56:31.05Z</time></trkpt><trkpt lat="44.0873717" lon="12.08628"><ele>89.42857142857143</ele><time>2026-03-25T13:56:35.049Z</time></trkpt><trkpt lat="44.08744" lon="12.0863467"><ele>89.71428571428571</ele><time>2026-03-25T13:56:39.049Z</time></trkpt><trkpt lat="44.0875067" lon="12.0863883"><ele>90.0</ele><time>2026-03-25T13:56:42.05Z</time></trkpt><trkpt lat="44.0875717" lon="12.0864317"><ele>90.0</ele><time>2026-03-25T13:56:45.05Z</time></trkpt><trkpt lat="44.08764" lon="12.0864783"><ele>90.0</ele><time>2026-03-25T13:56:48.05Z</time></trkpt><trkpt lat="44.0877067" lon="12.08654"><ele>90.0</ele><time>2026-03-25T13:56:51.05Z</time></trkpt><trkpt lat="44.08777" lon="12.0865917"><ele>90.0</ele><time>2026-03-25T13:56:54.05Z</time></trkpt><trkpt lat="44.08783" lon="12.0866467"><ele>90.0</ele><time>2026-03-25T13:56:57.049Z</time></trkpt><trkpt lat="44.087885" lon="12.0867117"><ele>90.0</ele><time>2026-03-25T13:57:00.05Z</time></trkpt><trkpt lat="44.08795" lon="12.0867783"><ele>91.85714285714285</ele><time>2026-03-25T13:57:04.05Z</time></trkpt><trkpt lat="44.0879883" lon="12.0868717"><ele>93.71428571428572</ele><time>2026-03-25T13:57:08.05Z</time></trkpt><trkpt lat="44.0880117" lon="12.0869567"><ele>95.57142857142857</ele><time>2026-03-25T13:57:11.05Z</time></trkpt><trkpt lat="44.08804" lon="12.08706"><ele>97.42857142857142</ele><time>2026-03-25T13:57:15.049Z</time></trkpt><trkpt lat="44.0880617" lon="12.0871433"><ele>99.28571428571428</ele><time>2026-03-25T13:57:18.05Z</time></trkpt><trkpt lat="44.0880983" lon="12.0872367"><ele>101.14285714285714</ele><time>2026-03-25T13:57:22.049Z</time></trkpt><trkpt lat="44.08814" lon="12.0873317"><ele>103.0</ele><time>2026-03-25T13:57:26.049Z</time></trkpt><trkpt lat="44.0882" lon="12.0874"><ele>103.50000000000001</ele><time>2026-03-25T13:57:30.049Z</time></trkpt><trkpt lat="44.08826" lon="12.0874317"><ele>104.0</ele><time>2026-03-25T13:57:33.05Z</time></trkpt><trkpt lat="44.08833" lon="12.0875017"><ele>104.5</ele><time>2026-03-25T13:57:37.05Z</time></trkpt><trkpt lat="44.0883933" lon="12.0875617"><ele>105.0</ele><time>2026-03-25T13:57:40.05Z</time></trkpt><trkpt lat="44.0884583" lon="12.0876083"><ele>105.50000000000001</ele><time>2026-03-25T13:57:43.05Z</time></trkpt><trkpt lat="44.08853" lon="12.0876633"><ele>106.0</ele><time>2026-03-25T13:57:46.049Z</time></trkpt><trkpt lat="44.0886067" lon="12.0877117"><ele>106.00000000000001</ele><time>2026-03-25T13:57:49.049Z</time></trkpt><trkpt lat="44.08868" lon="12.0877633"><ele>106.0</ele><time>2026-03-25T13:57:52.05Z</time></trkpt><trkpt lat="44.08875" lon="12.0878117"><ele>106.0</ele><time>2026-03-25T13:57:55.05Z</time></trkpt><trkpt lat="44.0888183" lon="12.08786"><ele>106.0</ele><time>2026-03-25T13:57:58.049Z</time></trkpt><trkpt lat="44.088885" lon="12.0878967"><ele>106.00000000000001</ele><time>2026-03-25T13:58:01.05Z</time></trkpt><trkpt lat="44.0889533" lon="12.0879233"><ele>106.0</ele><time>2026-03-25T13:58:04.049Z</time></trkpt><trkpt lat="44.08903" lon="12.0879617"><ele>105.00000000000001</ele><time>2026-03-25T13:58:07.049Z</time></trkpt><trkpt lat="44.0891017" lon="12.08798"><ele>104.0</ele><time>2026-03-25T13:58:10.049Z</time></trkpt><trkpt lat="44.0891767" lon="12.088"><ele>103.0</ele><time>2026-03-25T13:58:13.049Z</time></trkpt><trkpt lat="44.0892517" lon="12.088015"><ele>102.0</ele><time>2026-03-25T13:58:16.049Z</time></trkpt><trkpt lat="44.089345" lon="12.0880317"><ele>101.00000000000001</ele><time>2026-03-25T13:58:19.049Z</time></trkpt><trkpt lat="44.0894083" lon="12.08804"><ele>100.0</ele><time>2026-03-25T13:58:21.049Z</time></trkpt><trkpt lat="44.0895017" lon="12.08807"><ele>100.00000000000001</ele><time>2026-03-25T13:58:24.05Z</time></trkpt><trkpt lat="44.0895683" lon="12.08809"><ele>100.0</ele><time>2026-03-25T13:58:26.049Z</time></trkpt><trkpt lat="44.0896333" lon="12.088095"><ele>100.0</ele><time>2026-03-25T13:58:28.049Z</time></trkpt><trkpt lat="44.0897" lon="12.08811"><ele>100.0</ele><time>2026-03-25T13:58:30.05Z</time></trkpt><trkpt lat="44.089765" lon="12.088115"><ele>100.0</ele><time>2026-03-25T13:58:32.049Z</time></trkpt><trkpt lat="44.0898283" lon="12.0881233"><ele>100.00000000000001</ele><time>2026-03-25T13:58:34.05Z</time></trkpt><trkpt lat="44.0899183" lon="12.0881217"><ele>100.0</ele><time>2026-03-25T13:58:37.049Z</time></trkpt><trkpt lat="44.090005" lon="12.0881133"><ele>99.83333333333334</ele><time>2026-03-25T13:58:40.049Z</time></trkpt><trkpt lat="44.0900917" lon="12.08811"><ele>99.66666666666667</ele><time>2026-03-25T13:58:43.049Z</time></trkpt><trkpt lat="44.0901767" lon="12.088105"><ele>99.5</ele><time>2026-03-25T13:58:46.049Z</time></trkpt><trkpt lat="44.0902617" lon="12.0881067"><ele>99.33333333333334</ele><time>2026-03-25T13:58:49.048Z</time></trkpt><trkpt lat="44.0903433" lon="12.088135"><ele>99.16666666666667</ele><time>2026-03-25T13:58:52.049Z</time></trkpt><trkpt lat="44.090395" lon="12.088195"><ele>99.0</ele><time>2026-03-25T13:58:55.049Z</time></trkpt><trkpt lat="44.0904083" lon="12.08829"><ele>102.16666666666667</ele><time>2026-03-25T13:58:58.049Z</time></trkpt><trkpt lat="44.0903783" lon="12.0883733"><ele>105.33333333333334</ele><time>2026-03-25T13:59:01.049Z</time></trkpt><trkpt lat="44.0903167" lon="12.088445"><ele>108.5</ele><time>2026-03-25T13:59:04.048Z</time></trkpt><trkpt lat="44.0902467" lon="12.0884917"><ele>111.66666666666667</ele><time>2026-03-25T13:59:07.048Z</time></trkpt><trkpt lat="44.0901717" lon="12.0885183"><ele>114.83333333333334</ele><time>2026-03-25T13:59:10.049Z</time></trkpt><trkpt lat="44.0900933" lon="12.0885533"><ele>118.0</ele><time>2026-03-25T13:59:13.048Z</time></trkpt><trkpt lat="44.09001" lon="12.08857"><ele>118.0</ele><time>2026-03-25T13:59:16.048Z</time></trkpt><trkpt lat="44.0899367" lon="12.0885917"><ele>118.0</ele><time>2026-03-25T13:59:19.049Z</time></trkpt><trkpt lat="44.0898617" lon="12.0885967"><ele>118.0</ele><time>2026-03-25T13:59:22.049Z</time></trkpt><trkpt lat="44.089795" lon="12.0886067"><ele>118.0</ele><time>2026-03-25T13:59:25.048Z</time></trkpt><trkpt lat="44.089725" lon="12.0886017"><ele>118.0</ele><time>2026-03-25T13:59:28.049Z</time></trkpt><trkpt lat="44.0896517" lon="12.0886083"><ele>118.0</ele><time>2026-03-25T13:59:30.048Z</time></trkpt><trkpt lat="44.0895817" lon="12.0886033"><ele>118.0</ele><time>2026-03-25T13:59:32.048Z</time></trkpt><trkpt lat="44.089485" lon="12.0885867"><ele>118.14285714285714</ele><time>2026-03-25T13:59:35.049Z</time></trkpt><trkpt lat="44.0894117" lon="12.0885733"><ele>118.28571428571429</ele><time>2026-03-25T13:59:38.048Z</time></trkpt><trkpt lat="44.0893383" lon="12.08856"><ele>118.42857142857143</ele><time>2026-03-25T13:59:41.048Z</time></trkpt><trkpt lat="44.089275" lon="12.0885633"><ele>118.57142857142857</ele><time>2026-03-25T13:59:43.049Z</time></trkpt><trkpt lat="44.0892083" lon="12.08856"><ele>118.71428571428572</ele><time>2026-03-25T13:59:45.049Z</time></trkpt><trkpt lat="44.0891433" lon="12.08856"><ele>118.85714285714286</ele><time>2026-03-25T13:59:47.048Z</time></trkpt><trkpt lat="44.0890533" lon="12.088565"><ele>119.0</ele><time>2026-03-25T13:59:50.049Z</time></trkpt><trkpt lat="44.088985" lon="12.08858"><ele>118.66666666666666</ele><time>2026-03-25T13:59:52.049Z</time></trkpt><trkpt lat="44.0888933" lon="12.0886067"><ele>118.33333333333333</ele><time>2026-03-25T13:59:55.048Z</time></trkpt><trkpt lat="44.08881" lon="12.0886517"><ele>118.0</ele><time>2026-03-25T13:59:58.048Z</time></trkpt><trkpt lat="44.0887267" lon="12.08869"><ele>117.66666666666666</ele><time>2026-03-25T14:00:01.049Z</time></trkpt><trkpt lat="44.0886533" lon="12.0887467"><ele>117.33333333333333</ele><time>2026-03-25T14:00:04.049Z</time></trkpt><trkpt lat="44.088595" lon="12.0888067"><ele>117.0</ele><time>2026-03-25T14:00:07.049Z</time></trkpt><trkpt lat="44.0885217" lon="12.0888683"><ele>117.0</ele><time>2026-03-25T14:00:10.049Z</time></trkpt><trkpt lat="44.0884483" lon="12.0889333"><ele>117.0</ele><time>2026-03-25T14:00:13.049Z</time></trkpt><trkpt lat="44.0883883" lon="12.0889833"><ele>117.0</ele><time>2026-03-25T14:00:16.049Z</time></trkpt><trkpt lat="44.0883317" lon="12.0890317"><ele>117.0</ele><time>2026-03-25T14:00:19.048Z</time></trkpt><trkpt lat="44.088265" lon="12.0890917"><ele>117.0</ele><time>2026-03-25T14:00:22.049Z</time></trkpt><trkpt lat="44.0881983" lon="12.089135"><ele>117.0</ele><time>2026-03-25T14:00:25.048Z</time></trkpt><trkpt lat="44.0881217" lon="12.0891883"><ele>118.16666666666667</ele><time>2026-03-25T14:00:28.049Z</time></trkpt><trkpt lat="44.0880433" lon="12.089235"><ele>119.33333333333334</ele><time>2026-03-25T14:00:31.049Z</time></trkpt><trkpt lat="44.08797" lon="12.08929"><ele>120.5</ele><time>2026-03-25T14:00:34.048Z</time></trkpt><trkpt lat="44.0878933" lon="12.0893467"><ele>121.66666666666667</ele><time>2026-03-25T14:00:37.049Z</time></trkpt><trkpt lat="44.0878183" lon="12.089405"><ele>122.83333333333334</ele><time>2026-03-25T14:00:40.049Z</time></trkpt><trkpt lat="44.0877433" lon="12.0894517"><ele>124.0</ele><time>2026-03-25T14:00:43.048Z</time></trkpt><trkpt lat="44.087685" lon="12.0895183"><ele>124.0</ele><time>2026-03-25T14:00:46.049Z</time></trkpt><trkpt lat="44.087655" lon="12.0896067"><ele>124.00000000000001</ele><time>2026-03-25T14:00:49.048Z</time></trkpt><trkpt lat="44.0876933" lon="12.0897033"><ele>124.0</ele><time>2026-03-25T14:00:53.048Z</time></trkpt><trkpt lat="44.0877633" lon="12.0897067"><ele>124.0</ele><time>2026-03-25T14:00:57.048Z</time></trkpt><trkpt lat="44.087825" lon="12.0896867"><ele>124.00000000000001</ele><time>2026-03-25T14:01:02.049Z</time></trkpt><trkpt lat="44.0878933" lon="12.0896717"><ele>124.0</ele><time>2026-03-25T14:01:06.048Z</time></trkpt><trkpt lat="44.0879667" lon="12.0896683"><ele>124.0</ele><time>2026-03-25T14:01:10.048Z</time></trkpt><trkpt lat="44.0880417" lon="12.0896717"><ele>124.0</ele><time>2026-03-25T14:01:14.048Z</time></trkpt><trkpt lat="44.0881133" lon="12.08968"><ele>124.00000000000001</ele><time>2026-03-25T14:01:18.049Z</time></trkpt><trkpt lat="44.08818" lon="12.0896867"><ele>124.0</ele><time>2026-03-25T14:01:22.048Z</time></trkpt><trkpt lat="44.0882483" lon="12.0896967"><ele>124.0</ele><time>2026-03-25T14:01:26.049Z</time></trkpt><trkpt lat="44.088325" lon="12.089715"><ele>124.00000000000001</ele><time>2026-03-25T14:01:31.049Z</time></trkpt><trkpt lat="44.08839" lon="12.0897133"><ele>124.0</ele><time>2026-03-25T14:01:35.049Z</time></trkpt><trkpt lat="44.0884633" lon="12.0897383"><ele>124.0</ele><time>2026-03-25T14:01:39.048Z</time></trkpt><trkpt lat="44.0885283" lon="12.089755"><ele>124.00000000000001</ele><time>2026-03-25T14:01:43.049Z</time></trkpt><trkpt lat="44.08859" lon="12.0897767"><ele>124.0</ele><time>2026-03-25T14:01:47.048Z</time></trkpt><trkpt lat="44.0885217" lon="12.0897583"><ele>124.0</ele><time>2026-03-25T14:02:04.049Z</time></trkpt><trkpt lat="44.0884483" lon="12.0897333"><ele>124.0</ele><time>2026-03-25T14:02:06.049Z</time></trkpt><trkpt lat="44.088365" lon="12.0897083"><ele>124.00000000000001</ele><time>2026-03-25T14:02:08.048Z</time></trkpt><trkpt lat="44.0882833" lon="12.089695"><ele>124.0</ele><time>2026-03-25T14:02:10.049Z</time></trkpt><trkpt lat="44.088205" lon="12.0896817"><ele>124.00000000000001</ele><time>2026-03-25T14:02:12.048Z</time></trkpt><trkpt lat="44.0881233" lon="12.0896617"><ele>124.0</ele><time>2026-03-25T14:02:14.049Z</time></trkpt><trkpt lat="44.0880283" lon="12.0896633"><ele>124.0</ele><time>2026-03-25T14:02:16.049Z</time></trkpt><trkpt lat="44.0879267" lon="12.0896717"><ele>124.0</ele><time>2026-03-25T14:02:18.048Z</time></trkpt><trkpt lat="44.08784" lon="12.0896983"><ele>124.00000000000001</ele><time>2026-03-25T14:02:20.049Z</time></trkpt><trkpt lat="44.08777" lon="12.0897267"><ele>124.0</ele><time>2026-03-25T14:02:22.048Z</time></trkpt><trkpt lat="44.0877033" lon="12.0897233"><ele>124.00000000000001</ele><time>2026-03-25T14:02:24.049Z</time></trkpt><trkpt lat="44.0876567" lon="12.0896533"><ele>124.0</ele><time>2026-03-25T14:02:26.048Z</time></trkpt><trkpt lat="44.08767" lon="12.0895533"><ele>124.0</ele><time>2026-03-25T14:02:28.048Z</time></trkpt><trkpt lat="44.0877283" lon="12.0894683"><ele>124.0</ele><time>2026-03-25T14:02:30.049Z</time></trkpt><trkpt lat="44.0878067" lon="12.0894167"><ele>124.00000000000001</ele><time>2026-03-25T14:02:32.048Z</time></trkpt><trkpt lat="44.0878917" lon="12.0893583"><ele>124.0</ele><time>2026-03-25T14:02:34.049Z</time></trkpt><trkpt lat="44.0879817" lon="12.0892983"><ele>124.0</ele><time>2026-03-25T14:02:36.048Z</time></trkpt><trkpt lat="44.08807" lon="12.0892283"><ele>124.0</ele><time>2026-03-25T14:02:38.049Z</time></trkpt><trkpt lat="44.08815" lon="12.0891683"><ele>124.0</ele><time>2026-03-25T14:02:40.048Z</time></trkpt><trkpt lat="44.08823" lon="12.0891117"><ele>124.0</ele><time>2026-03-25T14:02:42.049Z</time></trkpt><trkpt lat="44.0883117" lon="12.0890383"><ele>124.0</ele><time>2026-03-25T14:02:44.049Z</time></trkpt><trkpt lat="44.08839" lon="12.08896"><ele>122.6</ele><time>2026-03-25T14:02:46.049Z</time></trkpt><trkpt lat="44.08847" lon="12.0888767"><ele>121.2</ele><time>2026-03-25T14:02:48.049Z</time></trkpt><trkpt lat="44.0885483" lon="12.0888017"><ele>119.79999999999998</ele><time>2026-03-25T14:02:50.048Z</time></trkpt><trkpt lat="44.08863" lon="12.0887267"><ele>118.39999999999999</ele><time>2026-03-25T14:02:52.049Z</time></trkpt><trkpt lat="44.0887267" lon="12.0886633"><ele>117.0</ele><time>2026-03-25T14:02:54.049Z</time></trkpt><trkpt lat="44.0888417" lon="12.0886167"><ele>117.0</ele><time>2026-03-25T14:02:56.049Z</time></trkpt><trkpt lat="44.0889583" lon="12.0885717"><ele>116.99999999999999</ele><time>2026-03-25T14:02:58.048Z</time></trkpt><trkpt lat="44.089085" lon="12.08854"><ele>116.99999999999999</ele><time>2026-03-25T14:03:00.048Z</time></trkpt><trkpt lat="44.0891483" lon="12.0885317"><ele>117.0</ele><time>2026-03-25T14:03:01.049Z</time></trkpt><trkpt lat="44.0892683" lon="12.0885417"><ele>117.0</ele><time>2026-03-25T14:03:03.049Z</time></trkpt><trkpt lat="44.08937" lon="12.088565"><ele>117.39999999999999</ele><time>2026-03-25T14:03:05.048Z</time></trkpt><trkpt lat="44.089465" lon="12.0885917"><ele>117.79999999999998</ele><time>2026-03-25T14:03:07.049Z</time></trkpt><trkpt lat="44.0895567" lon="12.0886017"><ele>118.2</ele><time>2026-03-25T14:03:09.049Z</time></trkpt><trkpt lat="44.0896633" lon="12.0886033"><ele>118.6</ele><time>2026-03-25T14:03:11.049Z</time></trkpt><trkpt lat="44.089775" lon="12.0885967"><ele>119.0</ele><time>2026-03-25T14:03:13.048Z</time></trkpt><trkpt lat="44.0898867" lon="12.0885867"><ele>118.80000000000001</ele><time>2026-03-25T14:03:15.048Z</time></trkpt><trkpt lat="44.0899883" lon="12.0885733"><ele>118.60000000000001</ele><time>2026-03-25T14:03:17.048Z</time></trkpt><trkpt lat="44.0900867" lon="12.0885333"><ele>118.4</ele><time>2026-03-25T14:03:19.049Z</time></trkpt><trkpt lat="44.0901867" lon="12.0885017"><ele>118.2</ele><time>2026-03-25T14:03:21.048Z</time></trkpt><trkpt lat="44.090285" lon="12.0884617"><ele>118.0</ele><time>2026-03-25T14:03:23.049Z</time></trkpt><trkpt lat="44.0903633" lon="12.0884067"><ele>118.0</ele><time>2026-03-25T14:03:25.049Z</time></trkpt><trkpt lat="44.0903983" lon="12.0883033"><ele>118.00000000000001</ele><time>2026-03-25T14:03:27.048Z</time></trkpt><trkpt lat="44.09036" lon="12.0881883"><ele>118.00000000000001</ele><time>2026-03-25T14:03:29.049Z</time></trkpt><trkpt lat="44.090265" lon="12.08812"><ele>118.0</ele><time>2026-03-25T14:03:31.049Z</time></trkpt><trkpt lat="44.0901433" lon="12.08811"><ele>118.0</ele><time>2026-03-25T14:03:33.049Z</time></trkpt><trkpt lat="44.0900767" lon="12.0881183"><ele>115.42857142857143</ele><time>2026-03-25T14:03:34.048Z</time></trkpt><trkpt lat="44.0900083" lon="12.088125"><ele>112.85714285714286</ele><time>2026-03-25T14:03:35.048Z</time></trkpt><trkpt lat="44.0899383" lon="12.08813"><ele>110.28571428571429</ele><time>2026-03-25T14:03:36.048Z</time></trkpt><trkpt lat="44.0898717" lon="12.0881367"><ele>107.71428571428572</ele><time>2026-03-25T14:03:37.048Z</time></trkpt><trkpt lat="44.0898017" lon="12.0881417"><ele>105.14285714285714</ele><time>2026-03-25T14:03:38.049Z</time></trkpt><trkpt lat="44.0897333" lon="12.0881433"><ele>102.57142857142858</ele><time>2026-03-25T14:03:39.048Z</time></trkpt><trkpt lat="44.0896667" lon="12.0881433"><ele>100.0</ele><time>2026-03-25T14:03:40.048Z</time></trkpt><trkpt lat="44.0895467" lon="12.0881417"><ele>100.0</ele><time>2026-03-25T14:03:42.048Z</time></trkpt><trkpt lat="44.089435" lon="12.0881133"><ele>100.0</ele><time>2026-03-25T14:03:44.049Z</time></trkpt><trkpt lat="44.0893367" lon="12.088085"><ele>100.0</ele><time>2026-03-25T14:03:46.049Z</time></trkpt><trkpt lat="44.0892467" lon="12.088045"><ele>100.0</ele><time>2026-03-25T14:03:48.049Z</time></trkpt><trkpt lat="44.089155" lon="12.08802"><ele>100.0</ele><time>2026-03-25T14:03:50.048Z</time></trkpt><trkpt lat="44.0890633" lon="12.087985"><ele>101.2</ele><time>2026-03-25T14:03:52.049Z</time></trkpt><trkpt lat="44.0889633" lon="12.0879367"><ele>102.4</ele><time>2026-03-25T14:03:54.048Z</time></trkpt><trkpt lat="44.0888517" lon="12.0878767"><ele>103.6</ele><time>2026-03-25T14:03:56.049Z</time></trkpt><trkpt lat="44.088745" lon="12.0878267"><ele>104.8</ele><time>2026-03-25T14:03:58.049Z</time></trkpt><trkpt lat="44.0886533" lon="12.0877633"><ele>106.0</ele><time>2026-03-25T14:04:00.048Z</time></trkpt><trkpt lat="44.0885717" lon="12.0876967"><ele>106.0</ele><time>2026-03-25T14:04:02.049Z</time></trkpt><trkpt lat="44.0884817" lon="12.087645"><ele>106.0</ele><time>2026-03-25T14:04:04.049Z</time></trkpt><trkpt lat="44.0883883" lon="12.0875817"><ele>106.0</ele><time>2026-03-25T14:04:06.048Z</time></trkpt><trkpt lat="44.088305" lon="12.0875167"><ele>106.0</ele><time>2026-03-25T14:04:08.049Z</time></trkpt><trkpt lat="44.088225" lon="12.0874567"><ele>106.0</ele><time>2026-03-25T14:04:10.048Z</time></trkpt><trkpt lat="44.0881583" lon="12.0873567"><ele>105.50000000000001</ele><time>2026-03-25T14:04:12.049Z</time></trkpt><trkpt lat="44.0881083" lon="12.0872117"><ele>105.0</ele><time>2026-03-25T14:04:14.049Z</time></trkpt><trkpt lat="44.0880783" lon="12.0871283"><ele>104.5</ele><time>2026-03-25T14:04:15.048Z</time></trkpt><trkpt lat="44.088055" lon="12.0870433"><ele>104.0</ele><time>2026-03-25T14:04:16.049Z</time></trkpt><trkpt lat="44.08803" lon="12.086955"><ele>103.50000000000001</ele><time>2026-03-25T14:04:17.049Z</time></trkpt><trkpt lat="44.087995" lon="12.0868733"><ele>103.0</ele><time>2026-03-25T14:04:18.049Z</time></trkpt><trkpt lat="44.0879567" lon="12.0867933"><ele>102.99999999999999</ele><time>2026-03-25T14:04:19.049Z</time></trkpt><trkpt lat="44.08791" lon="12.0867167"><ele>103.0</ele><time>2026-03-25T14:04:20.049Z</time></trkpt><trkpt lat="44.08785" lon="12.08666"><ele>103.0</ele><time>2026-03-25T14:04:21.049Z</time></trkpt><trkpt lat="44.0877867" lon="12.08661"><ele>103.0</ele><time>2026-03-25T14:04:22.049Z</time></trkpt><trkpt lat="44.08772" lon="12.08656"><ele>103.0</ele><time>2026-03-25T14:04:23.048Z</time></trkpt><trkpt lat="44.0876533" lon="12.086515"><ele>102.99999999999999</ele><time>2026-03-25T14:04:24.048Z</time></trkpt><trkpt lat="44.0875833" lon="12.086465"><ele>103.0</ele><time>2026-03-25T14:04:25.048Z</time></trkpt><trkpt lat="44.087515" lon="12.086425"><ele>101.42857142857142</ele><time>2026-03-25T14:04:26.049Z</time></trkpt><trkpt lat="44.0874517" lon="12.0863783"><ele>99.85714285714286</ele><time>2026-03-25T14:04:27.048Z</time></trkpt><trkpt lat="44.08739" lon="12.0863283"><ele>98.28571428571428</ele><time>2026-03-25T14:04:28.049Z</time></trkpt><trkpt lat="44.0873317" lon="12.0862683"><ele>96.71428571428571</ele><time>2026-03-25T14:04:29.049Z</time></trkpt><trkpt lat="44.08727" lon="12.0862083"><ele>95.14285714285714</ele><time>2026-03-25T14:04:30.048Z</time></trkpt><trkpt lat="44.0872133" lon="12.0861433"><ele>93.57142857142857</ele><time>2026-03-25T14:04:31.048Z</time></trkpt><trkpt lat="44.087165" lon="12.0860717"><ele>92.0</ele><time>2026-03-25T14:04:32.048Z</time></trkpt><trkpt lat="44.08713" lon="12.0859933"><ele>92.0</ele><time>2026-03-25T14:04:33.048Z</time></trkpt><trkpt lat="44.0871083" lon="12.085905"><ele>92.0</ele><time>2026-03-25T14:04:34.049Z</time></trkpt><trkpt lat="44.087095" lon="12.0858183"><ele>92.0</ele><time>2026-03-25T14:04:35.049Z</time></trkpt><trkpt lat="44.0870817" lon="12.08564"><ele>92.0</ele><time>2026-03-25T14:04:37.049Z</time></trkpt><trkpt lat="44.08709" lon="12.0855483"><ele>92.0</ele><time>2026-03-25T14:04:38.048Z</time></trkpt><trkpt lat="44.0871033" lon="12.0854533"><ele>92.0</ele><time>2026-03-25T14:04:39.048Z</time></trkpt><trkpt lat="44.087115" lon="12.0853583"><ele>91.33333333333334</ele><time>2026-03-25T14:04:40.048Z</time></trkpt><trkpt lat="44.0871283" lon="12.0852667"><ele>90.66666666666667</ele><time>2026-03-25T14:04:41.049Z</time></trkpt><trkpt lat="44.0871417" lon="12.08518"><ele>90.0</ele><time>2026-03-25T14:04:42.049Z</time></trkpt><trkpt lat="44.0871583" lon="12.0850933"><ele>89.33333333333333</ele><time>2026-03-25T14:04:43.049Z</time></trkpt><trkpt lat="44.08717" lon="12.0850067"><ele>88.66666666666666</ele><time>2026-03-25T14:04:44.048Z</time></trkpt><trkpt lat="44.0871983" lon="12.0848333"><ele>88.0</ele><time>2026-03-25T14:04:46.048Z</time></trkpt><trkpt lat="44.087215" lon="12.0847417"><ele>87.4</ele><time>2026-03-25T14:04:47.049Z</time></trkpt><trkpt lat="44.0872433" lon="12.0845833"><ele>86.80000000000001</ele><time>2026-03-25T14:04:49.048Z</time></trkpt><trkpt lat="44.0872717" lon="12.0844433"><ele>86.2</ele><time>2026-03-25T14:04:51.049Z</time></trkpt><trkpt lat="44.0873367" lon="12.08433"><ele>85.6</ele><time>2026-03-25T14:04:53.049Z</time></trkpt><trkpt lat="44.0874467" lon="12.0842833"><ele>85.0</ele><time>2026-03-25T14:04:55.049Z</time></trkpt><trkpt lat="44.0875117" lon="12.0842917"><ele>84.57142857142857</ele><time>2026-03-25T14:04:56.048Z</time></trkpt><trkpt lat="44.0875767" lon="12.0843083"><ele>84.14285714285714</ele><time>2026-03-25T14:04:57.048Z</time></trkpt><trkpt lat="44.0876467" lon="12.084315"><ele>83.71428571428571</ele><time>2026-03-25T14:04:58.049Z</time></trkpt><trkpt lat="44.0877117" lon="12.0843333"><ele>83.28571428571428</ele><time>2026-03-25T14:04:59.049Z</time></trkpt><trkpt lat="44.0877767" lon="12.0843483"><ele>82.85714285714286</ele><time>2026-03-25T14:05:00.048Z</time></trkpt><trkpt lat="44.0878467" lon="12.084365"><ele>82.42857142857142</ele><time>2026-03-25T14:05:01.049Z</time></trkpt><trkpt lat="44.0879167" lon="12.08438"><ele>82.0</ele><time>2026-03-25T14:05:02.049Z</time></trkpt><trkpt lat="44.0879883" lon="12.0843917"><ele>81.99999999999999</ele><time>2026-03-25T14:05:03.048Z</time></trkpt><trkpt lat="44.0880583" lon="12.0843967"><ele>82.0</ele><time>2026-03-25T14:05:04.049Z</time></trkpt><trkpt lat="44.08813" lon="12.0844"><ele>82.0</ele><time>2026-03-25T14:05:05.048Z</time></trkpt><trkpt lat="44.0881983" lon="12.0844167"><ele>82.0</ele><time>2026-03-25T14:05:06.049Z</time></trkpt><trkpt lat="44.0882783" lon="12.0844533"><ele>82.0</ele><time>2026-03-25T14:05:07.049Z</time></trkpt><trkpt lat="44.0883367" lon="12.0844983"><ele>81.99999999999999</ele><time>2026-03-25T14:05:08.048Z</time></trkpt><trkpt lat="44.0884083" lon="12.084535"><ele>82.0</ele><time>2026-03-25T14:05:09.049Z</time></trkpt><trkpt lat="44.0884817" lon="12.084565"><ele>81.66666666666666</ele><time>2026-03-25T14:05:10.049Z</time></trkpt><trkpt lat="44.0885583" lon="12.0845817"><ele>81.33333333333333</ele><time>2026-03-25T14:05:11.048Z</time></trkpt><trkpt lat="44.088635" lon="12.0845733"><ele>81.0</ele><time>2026-03-25T14:05:12.049Z</time></trkpt><trkpt lat="44.0887067" lon="12.0845467"><ele>80.66666666666667</ele><time>2026-03-25T14:05:13.048Z</time></trkpt><trkpt lat="44.08878" lon="12.0845133"><ele>80.33333333333334</ele><time>2026-03-25T14:05:14.049Z</time></trkpt><trkpt lat="44.0888483" lon="12.0844733"><ele>80.0</ele><time>2026-03-25T14:05:15.048Z</time></trkpt><trkpt lat="44.0889167" lon="12.084435"><ele>80.0</ele><time>2026-03-25T14:05:16.048Z</time></trkpt><trkpt lat="44.0889783" lon="12.08439"><ele>80.0</ele><time>2026-03-25T14:05:17.049Z</time></trkpt><trkpt lat="44.0890383" lon="12.08434"><ele>80.0</ele><time>2026-03-25T14:05:18.048Z</time></trkpt><trkpt lat="44.0890933" lon="12.0842933"><ele>80.0</ele><time>2026-03-25T14:05:19.049Z</time></trkpt><trkpt lat="44.08915" lon="12.08425"><ele>80.0</ele><time>2026-03-25T14:05:20.048Z</time></trkpt><trkpt lat="44.0892117" lon="12.084215"><ele>80.0</ele><time>2026-03-25T14:05:21.048Z</time></trkpt><trkpt lat="44.0892833" lon="12.0842017"><ele>80.0</ele><time>2026-03-25T14:05:22.048Z</time></trkpt><trkpt lat="44.0893517" lon="12.0842017"><ele>79.71428571428571</ele><time>2026-03-25T14:05:23.049Z</time></trkpt><trkpt lat="44.0894233" lon="12.0842033"><ele>79.42857142857143</ele><time>2026-03-25T14:05:24.048Z</time></trkpt><trkpt lat="44.0894933" lon="12.0842067"><ele>79.14285714285714</ele><time>2026-03-25T14:05:25.048Z</time></trkpt><trkpt lat="44.089565" lon="12.0842133"><ele>78.85714285714286</ele><time>2026-03-25T14:05:26.049Z</time></trkpt><trkpt lat="44.0896333" lon="12.084225"><ele>78.57142857142857</ele><time>2026-03-25T14:05:27.048Z</time></trkpt><trkpt lat="44.089705" lon="12.0842467"><ele>78.28571428571429</ele><time>2026-03-25T14:05:28.049Z</time></trkpt><trkpt lat="44.089775" lon="12.0842667"><ele>78.0</ele><time>2026-03-25T14:05:29.048Z</time></trkpt><trkpt lat="44.089845" lon="12.08429"><ele>78.0</ele><time>2026-03-25T14:05:30.048Z</time></trkpt><trkpt lat="44.08991" lon="12.0843117"><ele>78.0</ele><time>2026-03-25T14:05:31.049Z</time></trkpt><trkpt lat="44.0899817" lon="12.0843367"><ele>78.0</ele><time>2026-03-25T14:05:32.049Z</time></trkpt><trkpt lat="44.0900483" lon="12.0843617"><ele>78.0</ele><time>2026-03-25T14:05:33.048Z</time></trkpt><trkpt lat="44.0901183" lon="12.0843867"><ele>78.0</ele><time>2026-03-25T14:05:34.049Z</time></trkpt><trkpt lat="44.090195" lon="12.0844133"><ele>78.0</ele><time>2026-03-25T14:05:35.048Z</time></trkpt><trkpt lat="44.090265" lon="12.0844383"><ele>78.0</ele><time>2026-03-25T14:05:36.049Z</time></trkpt><trkpt lat="44.0903417" lon="12.0844667"><ele>77.85714285714286</ele><time>2026-03-25T14:05:37.049Z</time></trkpt><trkpt lat="44.09041" lon="12.0844917"><ele>77.71428571428571</ele><time>2026-03-25T14:05:38.048Z</time></trkpt><trkpt lat="44.0904767" lon="12.0845167"><ele>77.57142857142857</ele><time>2026-03-25T14:05:39.048Z</time></trkpt><trkpt lat="44.0905433" lon="12.084545"><ele>77.42857142857143</ele><time>2026-03-25T14:05:40.049Z</time></trkpt><trkpt lat="44.0906117" lon="12.0845733"><ele>77.28571428571428</ele><time>2026-03-25T14:05:41.048Z</time></trkpt><trkpt lat="44.0906783" lon="12.0845983"><ele>77.14285714285714</ele><time>2026-03-25T14:05:42.049Z</time></trkpt><trkpt lat="44.0907433" lon="12.0846217"><ele>77.0</ele><time>2026-03-25T14:05:43.049Z</time></trkpt><trkpt lat="44.0908083" lon="12.0846417"><ele>76.6</ele><time>2026-03-25T14:05:44.048Z</time></trkpt><trkpt lat="44.0909167" lon="12.0846983"><ele>76.2</ele><time>2026-03-25T14:05:46.049Z</time></trkpt><trkpt lat="44.0910183" lon="12.0847433"><ele>75.8</ele><time>2026-03-25T14:05:48.048Z</time></trkpt><trkpt lat="44.09111" lon="12.084795"><ele>75.4</ele><time>2026-03-25T14:05:50.049Z</time></trkpt><trkpt lat="44.0911883" lon="12.084845"><ele>75.0</ele><time>2026-03-25T14:05:52.048Z</time></trkpt><trkpt lat="44.0912567" lon="12.08489"><ele>75.42857142857142</ele><time>2026-03-25T14:05:54.049Z</time></trkpt><trkpt lat="44.0913167" lon="12.0849317"><ele>75.85714285714286</ele><time>2026-03-25T14:05:56.049Z</time></trkpt><trkpt lat="44.0913733" lon="12.0849733"><ele>76.28571428571428</ele><time>2026-03-25T14:05:58.049Z</time></trkpt><trkpt lat="44.0914633" lon="12.0850267"><ele>76.71428571428571</ele><time>2026-03-25T14:06:01.048Z</time></trkpt><trkpt lat="44.09153" lon="12.0850583"><ele>77.14285714285714</ele><time>2026-03-25T14:06:03.048Z</time></trkpt><trkpt lat="44.0915967" lon="12.0850967"><ele>77.57142857142857</ele><time>2026-03-25T14:06:05.048Z</time></trkpt><trkpt lat="44.09166" lon="12.0851433"><ele>78.0</ele><time>2026-03-25T14:06:07.049Z</time></trkpt><trkpt lat="44.09172" lon="12.085185"><ele>78.0</ele><time>2026-03-25T14:06:09.049Z</time></trkpt><trkpt lat="44.0917983" lon="12.08523"><ele>78.0</ele><time>2026-03-25T14:06:12.048Z</time></trkpt><trkpt lat="44.091865" lon="12.0852667"><ele>78.0</ele><time>2026-03-25T14:06:15.048Z</time></trkpt><trkpt lat="44.091945" lon="12.0853"><ele>78.0</ele><time>2026-03-25T14:06:19.049Z</time></trkpt><trkpt lat="44.0920217" lon="12.08532"><ele>78.0</ele><time>2026-03-25T14:06:23.049Z</time></trkpt><trkpt lat="44.0920867" lon="12.0853267"><ele>78.0</ele><time>2026-03-25T14:06:26.049Z</time></trkpt><trkpt lat="44.0921633" lon="12.0853183"><ele>78.0</ele><time>2026-03-25T14:06:30.049Z</time></trkpt><trkpt lat="44.09224" lon="12.0853067"><ele>78.0</ele><time>2026-03-25T14:06:33.048Z</time></trkpt><trkpt lat="44.0923267" lon="12.0852867"><ele>78.0</ele><time>2026-03-25T14:06:36.048Z</time></trkpt><trkpt lat="44.092395" lon="12.0852667"><ele>78.0</ele><time>2026-03-25T14:06:39.049Z</time></trkpt><trkpt lat="44.0924567" lon="12.085235"><ele>78.0</ele><time>2026-03-25T14:06:42.048Z</time></trkpt><trkpt lat="44.0925283" lon="12.085205"><ele>78.0</ele><time>2026-03-25T14:06:45.048Z</time></trkpt><trkpt lat="44.0926017" lon="12.085185"><ele>77.28571428571429</ele><time>2026-03-25T14:06:48.048Z</time></trkpt><trkpt lat="44.09267" lon="12.08516"><ele>76.57142857142857</ele><time>2026-03-25T14:06:51.049Z</time></trkpt><trkpt lat="44.0927333" lon="12.0851383"><ele>75.85714285714286</ele><time>2026-03-25T14:06:54.048Z</time></trkpt><trkpt lat="44.0927967" lon="12.0851"><ele>75.14285714285714</ele><time>2026-03-25T14:06:57.049Z</time></trkpt><trkpt lat="44.092865" lon="12.0850633"><ele>74.42857142857143</ele><time>2026-03-25T14:07:00.049Z</time></trkpt><trkpt lat="44.09293" lon="12.08501"><ele>73.71428571428571</ele><time>2026-03-25T14:07:03.048Z</time></trkpt><trkpt lat="44.092985" lon="12.08494"><ele>73.0</ele><time>2026-03-25T14:07:06.049Z</time></trkpt><trkpt lat="44.0930317" lon="12.08488"><ele>73.0</ele><time>2026-03-25T14:07:08.049Z</time></trkpt><trkpt lat="44.09308" lon="12.0848167"><ele>73.0</ele><time>2026-03-25T14:07:10.049Z</time></trkpt><trkpt lat="44.0931417" lon="12.0847367"><ele>73.0</ele><time>2026-03-25T14:07:12.049Z</time></trkpt><trkpt lat="44.09321" lon="12.084655"><ele>73.0</ele><time>2026-03-25T14:07:14.048Z</time></trkpt><trkpt lat="44.0932717" lon="12.08457"><ele>73.0</ele><time>2026-03-25T14:07:16.048Z</time></trkpt><trkpt lat="44.093335" lon="12.084485"><ele>73.0</ele><time>2026-03-25T14:07:18.048Z</time></trkpt><trkpt lat="44.093395" lon="12.0843983"><ele>73.6</ele><time>2026-03-25T14:07:20.049Z</time></trkpt><trkpt lat="44.0934533" lon="12.0842983"><ele>74.19999999999999</ele><time>2026-03-25T14:07:22.048Z</time></trkpt><trkpt lat="44.0935183" lon="12.0842117"><ele>74.8</ele><time>2026-03-25T14:07:24.048Z</time></trkpt><trkpt lat="44.0935767" lon="12.084115"><ele>75.39999999999999</ele><time>2026-03-25T14:07:26.049Z</time></trkpt><trkpt lat="44.0936467" lon="12.0840117"><ele>76.0</ele><time>2026-03-25T14:07:28.048Z</time></trkpt><trkpt lat="44.0937233" lon="12.0839033"><ele>76.0</ele><time>2026-03-25T14:07:30.049Z</time></trkpt><trkpt lat="44.0937867" lon="12.0837867"><ele>76.0</ele><time>2026-03-25T14:07:32.048Z</time></trkpt><trkpt lat="44.0938467" lon="12.0836717"><ele>76.0</ele><time>2026-03-25T14:07:34.048Z</time></trkpt><trkpt lat="44.093895" lon="12.0835567"><ele>76.0</ele><time>2026-03-25T14:07:36.048Z</time></trkpt><trkpt lat="44.0939483" lon="12.0834567"><ele>76.0</ele><time>2026-03-25T14:07:38.049Z</time></trkpt><trkpt lat="44.0940217" lon="12.0833633"><ele>76.0</ele><time>2026-03-25T14:07:40.048Z</time></trkpt><trkpt lat="44.0941083" lon="12.0832833"><ele>76.0</ele><time>2026-03-25T14:07:42.049Z</time></trkpt><trkpt lat="44.0942017" lon="12.0832117"><ele>76.0</ele><time>2026-03-25T14:07:44.048Z</time></trkpt><trkpt lat="44.0942933" lon="12.0831383"><ele>76.0</ele><time>2026-03-25T14:07:46.049Z</time></trkpt><trkpt lat="44.09437" lon="12.0830367"><ele>76.0</ele><time>2026-03-25T14:07:48.049Z</time></trkpt><trkpt lat="44.0944267" lon="12.0829267"><ele>76.0</ele><time>2026-03-25T14:07:50.048Z</time></trkpt><trkpt lat="44.0944833" lon="12.0828117"><ele>76.0</ele><time>2026-03-25T14:07:52.049Z</time></trkpt><trkpt lat="44.0945433" lon="12.0826967"><ele>76.0</ele><time>2026-03-25T14:07:54.048Z</time></trkpt><trkpt lat="44.094615" lon="12.0825767"><ele>76.0</ele><time>2026-03-25T14:07:56.049Z</time></trkpt><trkpt lat="44.0946933" lon="12.0824567"><ele>76.0</ele><time>2026-03-25T14:07:58.049Z</time></trkpt><trkpt lat="44.0947733" lon="12.0823433"><ele>75.8</ele><time>2026-03-25T14:08:00.048Z</time></trkpt><trkpt lat="44.0948517" lon="12.0822417"><ele>75.6</ele><time>2026-03-25T14:08:02.048Z</time></trkpt><trkpt lat="44.0949317" lon="12.0821617"><ele>75.4</ele><time>2026-03-25T14:08:04.048Z</time></trkpt><trkpt lat="44.09503" lon="12.0821233"><ele>75.2</ele><time>2026-03-25T14:08:06.049Z</time></trkpt><trkpt lat="44.0951233" lon="12.0821283"><ele>75.0</ele><time>2026-03-25T14:08:08.048Z</time></trkpt><trkpt lat="44.0952217" lon="12.0821567"><ele>75.0</ele><time>2026-03-25T14:08:10.048Z</time></trkpt><trkpt lat="44.0953167" lon="12.0821783"><ele>75.0</ele><time>2026-03-25T14:08:12.049Z</time></trkpt><trkpt lat="44.09541" lon="12.0822167"><ele>75.0</ele><time>2026-03-25T14:08:14.048Z</time></trkpt><trkpt lat="44.095505" lon="12.0822467"><ele>75.0</ele><time>2026-03-25T14:08:16.049Z</time></trkpt><trkpt lat="44.09559" lon="12.0822783"><ele>75.0</ele><time>2026-03-25T14:08:18.048Z</time></trkpt><trkpt lat="44.095695" lon="12.0823267"><ele>75.4</ele><time>2026-03-25T14:08:20.049Z</time></trkpt><trkpt lat="44.095795" lon="12.0823417"><ele>75.8</ele><time>2026-03-25T14:08:22.049Z</time></trkpt><trkpt lat="44.0959017" lon="12.08236"><ele>76.2</ele><time>2026-03-25T14:08:24.048Z</time></trkpt><trkpt lat="44.096" lon="12.082355"><ele>76.6</ele><time>2026-03-25T14:08:26.049Z</time></trkpt><trkpt lat="44.0961117" lon="12.082365"><ele>77.0</ele><time>2026-03-25T14:08:28.048Z</time></trkpt><trkpt lat="44.0962283" lon="12.0823667"><ele>77.0</ele><time>2026-03-25T14:08:30.049Z</time></trkpt><trkpt lat="44.0963333" lon="12.0823617"><ele>77.0</ele><time>2026-03-25T14:08:32.049Z</time></trkpt><trkpt lat="44.096445" lon="12.0823583"><ele>77.0</ele><time>2026-03-25T14:08:34.049Z</time></trkpt><trkpt lat="44.0965617" lon="12.082345"><ele>77.0</ele><time>2026-03-25T14:08:36.048Z</time></trkpt><trkpt lat="44.096675" lon="12.0822983"><ele>77.5</ele><time>2026-03-25T14:08:38.048Z</time></trkpt><trkpt lat="44.09677" lon="12.0822217"><ele>78.0</ele><time>2026-03-25T14:08:40.048Z</time></trkpt><trkpt lat="44.0968483" lon="12.082105"><ele>78.5</ele><time>2026-03-25T14:08:42.049Z</time></trkpt><trkpt lat="44.096925" lon="12.081985"><ele>79.0</ele><time>2026-03-25T14:08:44.049Z</time></trkpt><trkpt lat="44.097" lon="12.0818617"><ele>79.0</ele><time>2026-03-25T14:08:46.049Z</time></trkpt><trkpt lat="44.09709" lon="12.081765"><ele>79.0</ele><time>2026-03-25T14:08:48.048Z</time></trkpt><trkpt lat="44.09718" lon="12.0816683"><ele>79.0</ele><time>2026-03-25T14:08:50.049Z</time></trkpt><trkpt lat="44.0972767" lon="12.0815767"><ele>79.0</ele><time>2026-03-25T14:08:52.049Z</time></trkpt><trkpt lat="44.0973533" lon="12.0814583"><ele>79.0</ele><time>2026-03-25T14:08:54.048Z</time></trkpt><trkpt lat="44.0974267" lon="12.081335"><ele>79.0</ele><time>2026-03-25T14:08:56.048Z</time></trkpt><trkpt lat="44.0974983" lon="12.0812167"><ele>79.0</ele><time>2026-03-25T14:08:58.048Z</time></trkpt><trkpt lat="44.09758" lon="12.0810867"><ele>79.0</ele><time>2026-03-25T14:09:00.049Z</time></trkpt><trkpt lat="44.097665" lon="12.0809817"><ele>79.0</ele><time>2026-03-25T14:09:02.048Z</time></trkpt><trkpt lat="44.0977683" lon="12.080925"><ele>79.0</ele><time>2026-03-25T14:09:04.049Z</time></trkpt><trkpt lat="44.0978767" lon="12.080935"><ele>79.0</ele><time>2026-03-25T14:09:06.048Z</time></trkpt><trkpt lat="44.0979917" lon="12.08098"><ele>79.0</ele><time>2026-03-25T14:09:08.049Z</time></trkpt><trkpt lat="44.0981083" lon="12.0810383"><ele>79.0</ele><time>2026-03-25T14:09:10.048Z</time></trkpt><trkpt lat="44.0981717" lon="12.08106"><ele>79.0</ele><time>2026-03-25T14:09:11.049Z</time></trkpt><trkpt lat="44.0983017" lon="12.0810783"><ele>79.0</ele><time>2026-03-25T14:09:13.049Z</time></trkpt><trkpt lat="44.0983667" lon="12.0810783"><ele>79.0</ele><time>2026-03-25T14:09:14.049Z</time></trkpt><trkpt lat="44.0984817" lon="12.08108"><ele>79.0</ele><time>2026-03-25T14:09:16.049Z</time></trkpt><trkpt lat="44.0985917" lon="12.0810833"><ele>79.80000000000001</ele><time>2026-03-25T14:09:18.048Z</time></trkpt><trkpt lat="44.0987067" lon="12.0810983"><ele>80.60000000000001</ele><time>2026-03-25T14:09:20.049Z</time></trkpt><trkpt lat="44.0988117" lon="12.08116"><ele>81.4</ele><time>2026-03-25T14:09:22.049Z</time></trkpt><trkpt lat="44.0989067" lon="12.0812417"><ele>82.2</ele><time>2026-03-25T14:09:24.049Z</time></trkpt><trkpt lat="44.0989867" lon="12.0813033"><ele>83.0</ele><time>2026-03-25T14:09:26.048Z</time></trkpt><trkpt lat="44.0990667" lon="12.08133"><ele>83.0</ele><time>2026-03-25T14:09:28.048Z</time></trkpt><trkpt lat="44.0991517" lon="12.0813383"><ele>83.0</ele><time>2026-03-25T14:09:30.048Z</time></trkpt><trkpt lat="44.0992467" lon="12.08132"><ele>83.0</ele><time>2026-03-25T14:09:32.049Z</time></trkpt><trkpt lat="44.0993283" lon="12.0812667"><ele>83.0</ele><time>2026-03-25T14:09:34.048Z</time></trkpt><trkpt lat="44.0994033" lon="12.0811933"><ele>83.0</ele><time>2026-03-25T14:09:36.049Z</time></trkpt><trkpt lat="44.099455" lon="12.0811017"><ele>83.0</ele><time>2026-03-25T14:09:38.048Z</time></trkpt><trkpt lat="44.0994833" lon="12.0809983"><ele>83.0</ele><time>2026-03-25T14:09:40.049Z</time></trkpt><trkpt lat="44.099505" lon="12.0809"><ele>83.0</ele><time>2026-03-25T14:09:42.048Z</time></trkpt><trkpt lat="44.0995317" lon="12.080815"><ele>83.0</ele><time>2026-03-25T14:09:44.048Z</time></trkpt><trkpt lat="44.099575" lon="12.0807017"><ele>83.0</ele><time>2026-03-25T14:09:47.049Z</time></trkpt><trkpt lat="44.0996217" lon="12.080595"><ele>83.0</ele><time>2026-03-25T14:09:50.049Z</time></trkpt><trkpt lat="44.0996667" lon="12.0805317"><ele>83.0</ele><time>2026-03-25T14:09:52.048Z</time></trkpt><trkpt lat="44.099735" lon="12.0804417"><ele>81.66666666666667</ele><time>2026-03-25T14:09:55.049Z</time></trkpt><trkpt lat="44.099805" lon="12.08035"><ele>80.33333333333334</ele><time>2026-03-25T14:09:58.049Z</time></trkpt><trkpt lat="44.0998717" lon="12.0802617"><ele>79.0</ele><time>2026-03-25T14:10:01.048Z</time></trkpt><trkpt lat="44.0999317" lon="12.080165"><ele>77.66666666666667</ele><time>2026-03-25T14:10:04.048Z</time></trkpt><trkpt lat="44.0999917" lon="12.08008"><ele>76.33333333333333</ele><time>2026-03-25T14:10:07.049Z</time></trkpt><trkpt lat="44.1000517" lon="12.0800133"><ele>75.0</ele><time>2026-03-25T14:10:10.049Z</time></trkpt><trkpt lat="44.1001067" lon="12.0799433"><ele>75.33333333333333</ele><time>2026-03-25T14:10:13.049Z</time></trkpt><trkpt lat="44.10016" lon="12.0798683"><ele>75.66666666666667</ele><time>2026-03-25T14:10:16.049Z</time></trkpt><trkpt lat="44.100225" lon="12.07981"><ele>76.0</ele><time>2026-03-25T14:10:19.049Z</time></trkpt><trkpt lat="44.1003" lon="12.0797567"><ele>76.33333333333334</ele><time>2026-03-25T14:10:22.049Z</time></trkpt><trkpt lat="44.100365" lon="12.0797317"><ele>76.66666666666667</ele><time>2026-03-25T14:10:25.049Z</time></trkpt><trkpt lat="44.1004433" lon="12.0797083"><ele>77.0</ele><time>2026-03-25T14:10:28.048Z</time></trkpt><trkpt lat="44.1005133" lon="12.079675"><ele>77.0</ele><time>2026-03-25T14:10:31.049Z</time></trkpt><trkpt lat="44.1005733" lon="12.079645"><ele>77.0</ele><time>2026-03-25T14:10:34.049Z</time></trkpt><trkpt lat="44.1006317" lon="12.0796117"><ele>77.0</ele><time>2026-03-25T14:10:37.049Z</time></trkpt><trkpt lat="44.1007033" lon="12.0795967"><ele>77.0</ele><time>2026-03-25T14:10:40.048Z</time></trkpt><trkpt lat="44.1007667" lon="12.079575"><ele>77.0</ele><time>2026-03-25T14:10:43.049Z</time></trkpt><trkpt lat="44.1008267" lon="12.0795417"><ele>77.0</ele><time>2026-03-25T14:10:46.049Z</time></trkpt><trkpt lat="44.1008983" lon="12.0795233"><ele>77.0</ele><time>2026-03-25T14:10:49.048Z</time></trkpt><trkpt lat="44.1009717" lon="12.07948"><ele>77.71428571428571</ele><time>2026-03-25T14:10:53.048Z</time></trkpt><trkpt lat="44.1010367" lon="12.0794233"><ele>78.42857142857143</ele><time>2026-03-25T14:10:57.049Z</time></trkpt><trkpt lat="44.1010967" lon="12.0793817"><ele>79.14285714285714</ele><time>2026-03-25T14:11:02.048Z</time></trkpt><trkpt lat="44.1011567" lon="12.079325"><ele>79.85714285714286</ele><time>2026-03-25T14:11:07.048Z</time></trkpt><trkpt lat="44.101205" lon="12.0792683"><ele>80.57142857142857</ele><time>2026-03-25T14:11:11.048Z</time></trkpt><trkpt lat="44.1012467" lon="12.0791783"><ele>81.28571428571428</ele><time>2026-03-25T14:11:16.049Z</time></trkpt><trkpt lat="44.101285" lon="12.079105"><ele>82.0</ele><time>2026-03-25T14:11:20.048Z</time></trkpt><trkpt lat="44.1013283" lon="12.0790367"><ele>82.0</ele><time>2026-03-25T14:11:24.049Z</time></trkpt><trkpt lat="44.1013733" lon="12.0789533"><ele>82.0</ele><time>2026-03-25T14:11:28.048Z</time></trkpt><trkpt lat="44.10142" lon="12.07887"><ele>82.0</ele><time>2026-03-25T14:11:32.049Z</time></trkpt><trkpt lat="44.1014667" lon="12.0787767"><ele>82.0</ele><time>2026-03-25T14:11:36.048Z</time></trkpt><trkpt lat="44.1015017" lon="12.0787017"><ele>82.0</ele><time>2026-03-25T14:11:39.048Z</time></trkpt><trkpt lat="44.1015333" lon="12.078605"><ele>82.0</ele><time>2026-03-25T14:11:43.048Z</time></trkpt><trkpt lat="44.1015917" lon="12.0785333"><ele>85.66666666666666</ele><time>2026-03-25T14:11:47.049Z</time></trkpt><trkpt lat="44.1016617" lon="12.0784833"><ele>89.33333333333333</ele><time>2026-03-25T14:11:51.049Z</time></trkpt><trkpt lat="44.1017417" lon="12.0785083"><ele>93.0</ele><time>2026-03-25T14:11:55.048Z</time></trkpt><trkpt lat="44.1018033" lon="12.0785267"><ele>96.66666666666666</ele><time>2026-03-25T14:11:58.048Z</time></trkpt><trkpt lat="44.1018667" lon="12.078585"><ele>100.33333333333333</ele><time>2026-03-25T14:12:02.048Z</time></trkpt><trkpt lat="44.10192" lon="12.0786517"><ele>104.0</ele><time>2026-03-25T14:12:06.049Z</time></trkpt><trkpt lat="44.10198" lon="12.0787333"><ele>104.0</ele><time>2026-03-25T14:12:10.048Z</time></trkpt><trkpt lat="44.1020417" lon="12.078795"><ele>104.0</ele><time>2026-03-25T14:12:13.048Z</time></trkpt><trkpt lat="44.1021033" lon="12.0788667"><ele>104.0</ele><time>2026-03-25T14:12:17.048Z</time></trkpt><trkpt lat="44.1021567" lon="12.07893"><ele>104.0</ele><time>2026-03-25T14:12:20.049Z</time></trkpt><trkpt lat="44.10221" lon="12.07898"><ele>104.0</ele><time>2026-03-25T14:12:23.048Z</time></trkpt><trkpt lat="44.1022683" lon="12.0790317"><ele>104.0</ele><time>2026-03-25T14:12:26.049Z</time></trkpt><trkpt lat="44.1023033" lon="12.0791067"><ele>104.0</ele><time>2026-03-25T14:12:31.048Z</time></trkpt><trkpt lat="44.10238" lon="12.079165"><ele>104.28571428571428</ele><time>2026-03-25T14:12:34.049Z</time></trkpt><trkpt lat="44.1024583" lon="12.0791967"><ele>104.57142857142858</ele><time>2026-03-25T14:12:37.049Z</time></trkpt><trkpt lat="44.102525" lon="12.0792233"><ele>104.85714285714286</ele><time>2026-03-25T14:12:40.049Z</time></trkpt><trkpt lat="44.1026017" lon="12.0792383"><ele>105.14285714285714</ele><time>2026-03-25T14:12:43.049Z</time></trkpt><trkpt lat="44.1026733" lon="12.0792267"><ele>105.42857142857142</ele><time>2026-03-25T14:12:46.048Z</time></trkpt><trkpt lat="44.1027433" lon="12.0791967"><ele>105.71428571428572</ele><time>2026-03-25T14:12:49.049Z</time></trkpt><trkpt lat="44.1028083" lon="12.079145"><ele>106.0</ele><time>2026-03-25T14:12:52.048Z</time></trkpt><trkpt lat="44.1028633" lon="12.0790767"><ele>106.00000000000001</ele><time>2026-03-25T14:12:55.049Z</time></trkpt><trkpt lat="44.1029183" lon="12.079005"><ele>106.0</ele><time>2026-03-25T14:12:58.049Z</time></trkpt><trkpt lat="44.1029917" lon="12.0789567"><ele>106.0</ele><time>2026-03-25T14:13:01.048Z</time></trkpt><trkpt lat="44.103065" lon="12.07896"><ele>106.0</ele><time>2026-03-25T14:13:04.048Z</time></trkpt><trkpt lat="44.10314" lon="12.0789967"><ele>106.00000000000001</ele><time>2026-03-25T14:13:07.048Z</time></trkpt><trkpt lat="44.103205" lon="12.0790583"><ele>106.0</ele><time>2026-03-25T14:13:10.049Z</time></trkpt><trkpt lat="44.10327" lon="12.07913"><ele>108.66666666666667</ele><time>2026-03-25T14:13:13.049Z</time></trkpt><trkpt lat="44.10332" lon="12.0791867"><ele>111.33333333333334</ele><time>2026-03-25T14:13:15.049Z</time></trkpt><trkpt lat="44.1033833" lon="12.0792633"><ele>114.0</ele><time>2026-03-25T14:13:18.049Z</time></trkpt><trkpt lat="44.1034283" lon="12.079325"><ele>116.66666666666666</ele><time>2026-03-25T14:13:20.049Z</time></trkpt><trkpt lat="44.1034917" lon="12.0793983"><ele>119.33333333333333</ele><time>2026-03-25T14:13:23.049Z</time></trkpt><trkpt lat="44.103565" lon="12.07946"><ele>122.0</ele><time>2026-03-25T14:13:26.049Z</time></trkpt><trkpt lat="44.1036283" lon="12.079515"><ele>121.99999999999999</ele><time>2026-03-25T14:13:28.049Z</time></trkpt><trkpt lat="44.1036817" lon="12.0795683"><ele>122.0</ele><time>2026-03-25T14:13:30.049Z</time></trkpt><trkpt lat="44.1037467" lon="12.079615"><ele>121.99999999999999</ele><time>2026-03-25T14:13:32.049Z</time></trkpt><trkpt lat="44.103815" lon="12.0796367"><ele>121.99999999999999</ele><time>2026-03-25T14:13:34.049Z</time></trkpt><trkpt lat="44.1038867" lon="12.0796283"><ele>122.0</ele><time>2026-03-25T14:13:36.049Z</time></trkpt><trkpt lat="44.10395" lon="12.0795817"><ele>121.99999999999999</ele><time>2026-03-25T14:13:38.048Z</time></trkpt><trkpt lat="44.104005" lon="12.0795183"><ele>121.99999999999999</ele><time>2026-03-25T14:13:40.048Z</time></trkpt><trkpt lat="44.104035" lon="12.0794383"><ele>121.99999999999999</ele><time>2026-03-25T14:13:42.049Z</time></trkpt><trkpt lat="44.1040333" lon="12.0793417"><ele>122.0</ele><time>2026-03-25T14:13:44.048Z</time></trkpt><trkpt lat="44.1040117" lon="12.079245"><ele>122.0</ele><time>2026-03-25T14:13:46.049Z</time></trkpt><trkpt lat="44.1039883" lon="12.079145"><ele>122.0</ele><time>2026-03-25T14:13:48.048Z</time></trkpt><trkpt lat="44.1039717" lon="12.0790317"><ele>121.99999999999999</ele><time>2026-03-25T14:13:50.048Z</time></trkpt><trkpt lat="44.1039583" lon="12.0789267"><ele>122.0</ele><time>2026-03-25T14:13:52.048Z</time></trkpt><trkpt lat="44.103955" lon="12.07882"><ele>122.33333333333333</ele><time>2026-03-25T14:13:54.049Z</time></trkpt><trkpt lat="44.103975" lon="12.07872"><ele>122.66666666666666</ele><time>2026-03-25T14:13:56.048Z</time></trkpt><trkpt lat="44.1040133" lon="12.078635"><ele>123.0</ele><time>2026-03-25T14:13:58.049Z</time></trkpt><trkpt lat="44.104065" lon="12.07856"><ele>123.33333333333334</ele><time>2026-03-25T14:14:00.049Z</time></trkpt><trkpt lat="44.104125" lon="12.0785017"><ele>123.66666666666667</ele><time>2026-03-25T14:14:02.048Z</time></trkpt><trkpt lat="44.1041967" lon="12.07845"><ele>124.0</ele><time>2026-03-25T14:14:04.048Z</time></trkpt><trkpt lat="44.1042667" lon="12.078405"><ele>124.0</ele><time>2026-03-25T14:14:06.049Z</time></trkpt><trkpt lat="44.104335" lon="12.0783633"><ele>124.00000000000001</ele><time>2026-03-25T14:14:08.048Z</time></trkpt><trkpt lat="44.1044017" lon="12.0783233"><ele>124.0</ele><time>2026-03-25T14:14:10.049Z</time></trkpt><trkpt lat="44.104465" lon="12.078285"><ele>124.0</ele><time>2026-03-25T14:14:12.049Z</time></trkpt><trkpt lat="44.1045283" lon="12.0782433"><ele>124.00000000000001</ele><time>2026-03-25T14:14:14.048Z</time></trkpt><trkpt lat="44.1045917" lon="12.0781933"><ele>124.0</ele><time>2026-03-25T14:14:16.048Z</time></trkpt><trkpt lat="44.1046517" lon="12.0781517"><ele>124.0</ele><time>2026-03-25T14:14:18.049Z</time></trkpt><trkpt lat="44.1047133" lon="12.0781133"><ele>124.4</ele><time>2026-03-25T14:14:20.049Z</time></trkpt><trkpt lat="44.1047833" lon="12.0780833"><ele>124.80000000000001</ele><time>2026-03-25T14:14:22.049Z</time></trkpt><trkpt lat="44.1048467" lon="12.0780217"><ele>125.19999999999999</ele><time>2026-03-25T14:14:25.049Z</time></trkpt><trkpt lat="44.1049433" lon="12.077965"><ele>125.6</ele><time>2026-03-25T14:14:27.55Z</time></trkpt><trkpt lat="44.105055" lon="12.0779433"><ele>126.0</ele><time>2026-03-25T14:14:30.049Z</time></trkpt><trkpt lat="44.1051467" lon="12.0779267"><ele>126.0</ele><time>2026-03-25T14:14:32.049Z</time></trkpt><trkpt lat="44.1052167" lon="12.077895"><ele>126.0</ele><time>2026-03-25T14:14:34.05Z</time></trkpt><trkpt lat="44.1052783" lon="12.0778567"><ele>126.0</ele><time>2026-03-25T14:14:36.05Z</time></trkpt><trkpt lat="44.10534" lon="12.077815"><ele>126.0</ele><time>2026-03-25T14:14:38.049Z</time></trkpt><trkpt lat="44.1053967" lon="12.0777583"><ele>126.0</ele><time>2026-03-25T14:14:40.049Z</time></trkpt><trkpt lat="44.1054483" lon="12.07768"><ele>126.0</ele><time>2026-03-25T14:14:42.049Z</time></trkpt><trkpt lat="44.1054883" lon="12.0775767"><ele>126.0</ele><time>2026-03-25T14:14:44.05Z</time></trkpt><trkpt lat="44.1055017" lon="12.0774667"><ele>125.33333333333333</ele><time>2026-03-25T14:14:46.05Z</time></trkpt><trkpt lat="44.105505" lon="12.0773567"><ele>124.66666666666666</ele><time>2026-03-25T14:14:48.049Z</time></trkpt><trkpt lat="44.1055017" lon="12.07724"><ele>124.0</ele><time>2026-03-25T14:14:50.05Z</time></trkpt><trkpt lat="44.105495" lon="12.0771133"><ele>123.33333333333333</ele><time>2026-03-25T14:14:52.05Z</time></trkpt><trkpt lat="44.1054817" lon="12.076985"><ele>122.66666666666666</ele><time>2026-03-25T14:14:54.049Z</time></trkpt><trkpt lat="44.1054717" lon="12.0768517"><ele>122.0</ele><time>2026-03-25T14:14:56.05Z</time></trkpt><trkpt lat="44.10546" lon="12.0767283"><ele>121.6</ele><time>2026-03-25T14:14:58.049Z</time></trkpt><trkpt lat="44.1054567" lon="12.0766"><ele>121.19999999999999</ele><time>2026-03-25T14:15:00.05Z</time></trkpt><trkpt lat="44.1054517" lon="12.07646"><ele>120.8</ele><time>2026-03-25T14:15:02.05Z</time></trkpt><trkpt lat="44.1054483" lon="12.0763183"><ele>120.4</ele><time>2026-03-25T14:15:04.049Z</time></trkpt><trkpt lat="44.1054633" lon="12.0761683"><ele>120.0</ele><time>2026-03-25T14:15:06.05Z</time></trkpt><trkpt lat="44.1055017" lon="12.0760083"><ele>120.0</ele><time>2026-03-25T14:15:08.049Z</time></trkpt><trkpt lat="44.10557" lon="12.0758817"><ele>120.0</ele><time>2026-03-25T14:15:10.05Z</time></trkpt><trkpt lat="44.1056367" lon="12.0757517"><ele>120.0</ele><time>2026-03-25T14:15:12.05Z</time></trkpt><trkpt lat="44.10571" lon="12.0756167"><ele>120.0</ele><time>2026-03-25T14:15:14.05Z</time></trkpt><trkpt lat="44.10579" lon="12.07548"><ele>120.57142857142858</ele><time>2026-03-25T14:15:16.049Z</time></trkpt><trkpt lat="44.105835" lon="12.0754083"><ele>121.14285714285714</ele><time>2026-03-25T14:15:17.049Z</time></trkpt><trkpt lat="44.1058733" lon="12.0753367"><ele>121.71428571428572</ele><time>2026-03-25T14:15:18.049Z</time></trkpt><trkpt lat="44.105915" lon="12.0752567"><ele>122.28571428571429</ele><time>2026-03-25T14:15:19.05Z</time></trkpt><trkpt lat="44.105955" lon="12.075175"><ele>122.85714285714286</ele><time>2026-03-25T14:15:20.05Z</time></trkpt><trkpt lat="44.1059983" lon="12.0751017"><ele>123.42857142857143</ele><time>2026-03-25T14:15:21.049Z</time></trkpt><trkpt lat="44.106045" lon="12.07502"><ele>124.0</ele><time>2026-03-25T14:15:22.05Z</time></trkpt><trkpt lat="44.10609" lon="12.0749417"><ele>122.50000000000001</ele><time>2026-03-25T14:15:23.05Z</time></trkpt><trkpt lat="44.1061367" lon="12.0748633"><ele>121.0</ele><time>2026-03-25T14:15:24.05Z</time></trkpt><trkpt lat="44.10619" lon="12.0747817"><ele>119.5</ele><time>2026-03-25T14:15:25.049Z</time></trkpt><trkpt lat="44.1062383" lon="12.0746983"><ele>118.0</ele><time>2026-03-25T14:15:26.05Z</time></trkpt><trkpt lat="44.1062983" lon="12.0746183"><ele>116.50000000000001</ele><time>2026-03-25T14:15:27.049Z</time></trkpt><trkpt lat="44.1063583" lon="12.0745417"><ele>115.0</ele><time>2026-03-25T14:15:28.05Z</time></trkpt><trkpt lat="44.1064233" lon="12.07447"><ele>115.00000000000001</ele><time>2026-03-25T14:15:29.05Z</time></trkpt><trkpt lat="44.1064933" lon="12.0744017"><ele>115.0</ele><time>2026-03-25T14:15:30.05Z</time></trkpt><trkpt lat="44.1065683" lon="12.0743417"><ele>115.0</ele><time>2026-03-25T14:15:31.05Z</time></trkpt><trkpt lat="44.106645" lon="12.0742867"><ele>115.0</ele><time>2026-03-25T14:15:32.05Z</time></trkpt><trkpt lat="44.1067283" lon="12.0742433"><ele>115.00000000000001</ele><time>2026-03-25T14:15:33.049Z</time></trkpt><trkpt lat="44.1068133" lon="12.07421"><ele>115.0</ele><time>2026-03-25T14:15:34.05Z</time></trkpt><trkpt lat="44.1069017" lon="12.0741833"><ele>116.0</ele><time>2026-03-25T14:15:35.049Z</time></trkpt><trkpt lat="44.1069917" lon="12.0741567"><ele>117.0</ele><time>2026-03-25T14:15:36.05Z</time></trkpt><trkpt lat="44.1070817" lon="12.07414"><ele>118.0</ele><time>2026-03-25T14:15:37.05Z</time></trkpt><trkpt lat="44.10717" lon="12.07412"><ele>119.0</ele><time>2026-03-25T14:15:38.049Z</time></trkpt><trkpt lat="44.1072617" lon="12.0741"><ele>120.0</ele><time>2026-03-25T14:15:39.05Z</time></trkpt><trkpt lat="44.1073517" lon="12.0740733"><ele>117.6</ele><time>2026-03-25T14:15:40.049Z</time></trkpt><trkpt lat="44.1074383" lon="12.0740317"><ele>115.2</ele><time>2026-03-25T14:15:41.049Z</time></trkpt><trkpt lat="44.1075233" lon="12.073985"><ele>112.80000000000001</ele><time>2026-03-25T14:15:42.05Z</time></trkpt><trkpt lat="44.1076083" lon="12.0739333"><ele>110.4</ele><time>2026-03-25T14:15:43.05Z</time></trkpt><trkpt lat="44.1076967" lon="12.0738817"><ele>108.0</ele><time>2026-03-25T14:15:44.049Z</time></trkpt><trkpt lat="44.1077883" lon="12.0738433"><ele>108.0</ele><time>2026-03-25T14:15:45.05Z</time></trkpt><trkpt lat="44.1078817" lon="12.0738183"><ele>108.00000000000001</ele><time>2026-03-25T14:15:46.05Z</time></trkpt><trkpt lat="44.1079767" lon="12.0738033"><ele>108.00000000000001</ele><time>2026-03-25T14:15:47.049Z</time></trkpt><trkpt lat="44.1080683" lon="12.0737817"><ele>108.0</ele><time>2026-03-25T14:15:48.05Z</time></trkpt><trkpt lat="44.108165" lon="12.0737617"><ele>108.0</ele><time>2026-03-25T14:15:49.05Z</time></trkpt><trkpt lat="44.1082567" lon="12.073765"><ele>108.60000000000001</ele><time>2026-03-25T14:15:50.049Z</time></trkpt><trkpt lat="44.108355" lon="12.0737617"><ele>109.20000000000002</ele><time>2026-03-25T14:15:51.05Z</time></trkpt><trkpt lat="44.1084567" lon="12.0737567"><ele>109.8</ele><time>2026-03-25T14:15:52.05Z</time></trkpt><trkpt lat="44.108555" lon="12.0737467"><ele>110.4</ele><time>2026-03-25T14:15:53.049Z</time></trkpt><trkpt lat="44.10865" lon="12.0737283"><ele>111.0</ele><time>2026-03-25T14:15:54.05Z</time></trkpt><trkpt lat="44.108745" lon="12.0736983"><ele>111.0</ele><time>2026-03-25T14:15:55.049Z</time></trkpt><trkpt lat="44.108835" lon="12.07366"><ele>111.0</ele><time>2026-03-25T14:15:56.05Z</time></trkpt><trkpt lat="44.10892" lon="12.0736117"><ele>111.0</ele><time>2026-03-25T14:15:57.049Z</time></trkpt><trkpt lat="44.109" lon="12.0735533"><ele>111.0</ele><time>2026-03-25T14:15:58.049Z</time></trkpt><trkpt lat="44.109075" lon="12.0734917"><ele>111.0</ele><time>2026-03-25T14:15:59.049Z</time></trkpt><trkpt lat="44.109145" lon="12.0734217"><ele>111.0</ele><time>2026-03-25T14:16:00.05Z</time></trkpt><trkpt lat="44.1092167" lon="12.073355"><ele>111.5</ele><time>2026-03-25T14:16:01.049Z</time></trkpt><trkpt lat="44.1092867" lon="12.073285"><ele>112.0</ele><time>2026-03-25T14:16:02.049Z</time></trkpt><trkpt lat="44.1093483" lon="12.0732083"><ele>112.5</ele><time>2026-03-25T14:16:03.05Z</time></trkpt><trkpt lat="44.1094067" lon="12.073125"><ele>113.0</ele><time>2026-03-25T14:16:04.05Z</time></trkpt><trkpt lat="44.1094683" lon="12.0730367"><ele>113.5</ele><time>2026-03-25T14:16:05.049Z</time></trkpt><trkpt lat="44.1095283" lon="12.072955"><ele>114.0</ele><time>2026-03-25T14:16:06.05Z</time></trkpt><trkpt lat="44.109585" lon="12.0728783"><ele>112.33333333333333</ele><time>2026-03-25T14:16:07.049Z</time></trkpt><trkpt lat="44.109645" lon="12.0728067"><ele>110.66666666666666</ele><time>2026-03-25T14:16:08.05Z</time></trkpt><trkpt lat="44.1097" lon="12.0727333"><ele>109.0</ele><time>2026-03-25T14:16:09.05Z</time></trkpt><trkpt lat="44.10975" lon="12.07265"><ele>107.33333333333333</ele><time>2026-03-25T14:16:10.05Z</time></trkpt><trkpt lat="44.1098067" lon="12.0725733"><ele>105.66666666666666</ele><time>2026-03-25T14:16:11.05Z</time></trkpt><trkpt lat="44.10986" lon="12.0725067"><ele>104.0</ele><time>2026-03-25T14:16:12.05Z</time></trkpt><trkpt lat="44.1099133" lon="12.0724383"><ele>104.0</ele><time>2026-03-25T14:16:13.049Z</time></trkpt><trkpt lat="44.1099717" lon="12.07237"><ele>104.0</ele><time>2026-03-25T14:16:14.049Z</time></trkpt><trkpt lat="44.1100317" lon="12.072305"><ele>104.0</ele><time>2026-03-25T14:16:15.05Z</time></trkpt><trkpt lat="44.11009" lon="12.072245"><ele>104.0</ele><time>2026-03-25T14:16:16.049Z</time></trkpt><trkpt lat="44.1101483" lon="12.0721933"><ele>104.0</ele><time>2026-03-25T14:16:17.05Z</time></trkpt><trkpt lat="44.1102067" lon="12.0721367"><ele>104.0</ele><time>2026-03-25T14:16:18.05Z</time></trkpt><trkpt lat="44.110265" lon="12.07208"><ele>104.0</ele><time>2026-03-25T14:16:19.049Z</time></trkpt><trkpt lat="44.1103167" lon="12.0720217"><ele>103.99999999999999</ele><time>2026-03-25T14:16:20.049Z</time></trkpt><trkpt lat="44.1103683" lon="12.0719633"><ele>104.0</ele><time>2026-03-25T14:16:21.05Z</time></trkpt><trkpt lat="44.1104217" lon="12.071915"><ele>104.0</ele><time>2026-03-25T14:16:22.05Z</time></trkpt><trkpt lat="44.110475" lon="12.0718617"><ele>104.0</ele><time>2026-03-25T14:16:23.05Z</time></trkpt><trkpt lat="44.1105317" lon="12.071815"><ele>103.99999999999999</ele><time>2026-03-25T14:16:24.05Z</time></trkpt><trkpt lat="44.1105983" lon="12.071715"><ele>104.0</ele><time>2026-03-25T14:16:26.049Z</time></trkpt><trkpt lat="44.1106883" lon="12.0715933"><ele>103.0</ele><time>2026-03-25T14:16:28.05Z</time></trkpt><trkpt lat="44.1107683" lon="12.0714583"><ele>102.0</ele><time>2026-03-25T14:16:30.049Z</time></trkpt><trkpt lat="44.11081" lon="12.0713867"><ele>101.0</ele><time>2026-03-25T14:16:31.05Z</time></trkpt><trkpt lat="44.11089" lon="12.071245"><ele>100.0</ele><time>2026-03-25T14:16:33.049Z</time></trkpt><trkpt lat="44.1109367" lon="12.07117"><ele>99.0</ele><time>2026-03-25T14:16:34.05Z</time></trkpt><trkpt lat="44.110985" lon="12.07109"><ele>99.0</ele><time>2026-03-25T14:16:35.05Z</time></trkpt><trkpt lat="44.1110367" lon="12.07101"><ele>99.0</ele><time>2026-03-25T14:16:36.049Z</time></trkpt><trkpt lat="44.111095" lon="12.07094"><ele>99.0</ele><time>2026-03-25T14:16:37.049Z</time></trkpt><trkpt lat="44.1111567" lon="12.070875"><ele>99.0</ele><time>2026-03-25T14:16:38.049Z</time></trkpt><trkpt lat="44.1111383" lon="12.0707417"><ele>99.0</ele><time>2026-03-25T14:16:39.542Z</time></trkpt><trkpt lat="44.1114017" lon="12.0707267"><ele>97.5</ele><time>2026-03-25T14:16:40.55Z</time></trkpt><trkpt lat="44.1114767" lon="12.07073"><ele>96.0</ele><time>2026-03-25T14:16:41.549Z</time></trkpt><trkpt lat="44.111605" lon="12.07073"><ele>94.5</ele><time>2026-03-25T14:16:43.05Z</time></trkpt><trkpt lat="44.1116883" lon="12.0707233"><ele>93.0</ele><time>2026-03-25T14:16:44.049Z</time></trkpt><trkpt lat="44.11177" lon="12.0707267"><ele>91.5</ele><time>2026-03-25T14:16:45.05Z</time></trkpt><trkpt lat="44.1118483" lon="12.070725"><ele>90.0</ele><time>2026-03-25T14:16:46.049Z</time></trkpt><trkpt lat="44.111925" lon="12.070715"><ele>90.0</ele><time>2026-03-25T14:16:47.049Z</time></trkpt><trkpt lat="44.1119967" lon="12.0706933"><ele>90.0</ele><time>2026-03-25T14:16:48.049Z</time></trkpt><trkpt lat="44.1120633" lon="12.07067"><ele>90.0</ele><time>2026-03-25T14:16:49.05Z</time></trkpt><trkpt lat="44.1121367" lon="12.0706517"><ele>90.0</ele><time>2026-03-25T14:16:50.05Z</time></trkpt><trkpt lat="44.1122117" lon="12.0706267"><ele>90.0</ele><time>2026-03-25T14:16:51.049Z</time></trkpt><trkpt lat="44.1122933" lon="12.0706083"><ele>90.0</ele><time>2026-03-25T14:16:52.049Z</time></trkpt><trkpt lat="44.1123683" lon="12.070595"><ele>89.5</ele><time>2026-03-25T14:16:53.05Z</time></trkpt><trkpt lat="44.1124483" lon="12.0705917"><ele>89.0</ele><time>2026-03-25T14:16:54.049Z</time></trkpt><trkpt lat="44.1125317" lon="12.0705933"><ele>88.5</ele><time>2026-03-25T14:16:55.049Z</time></trkpt><trkpt lat="44.1126133" lon="12.0705883"><ele>88.0</ele><time>2026-03-25T14:16:56.049Z</time></trkpt><trkpt lat="44.112705" lon="12.0705933"><ele>87.5</ele><time>2026-03-25T14:16:57.049Z</time></trkpt><trkpt lat="44.1128" lon="12.0706167"><ele>87.0</ele><time>2026-03-25T14:16:58.05Z</time></trkpt><trkpt lat="44.1128967" lon="12.0706417"><ele>87.0</ele><time>2026-03-25T14:16:59.05Z</time></trkpt><trkpt lat="44.1129983" lon="12.07066"><ele>87.0</ele><time>2026-03-25T14:17:00.049Z</time></trkpt><trkpt lat="44.113095" lon="12.070665"><ele>87.0</ele><time>2026-03-25T14:17:01.048Z</time></trkpt><trkpt lat="44.1131833" lon="12.0706583"><ele>87.0</ele><time>2026-03-25T14:17:02.048Z</time></trkpt><trkpt lat="44.1132683" lon="12.07065"><ele>87.0</ele><time>2026-03-25T14:17:03.048Z</time></trkpt><trkpt lat="44.1133517" lon="12.07064"><ele>87.0</ele><time>2026-03-25T14:17:04.049Z</time></trkpt><trkpt lat="44.1134467" lon="12.0706283"><ele>87.0</ele><time>2026-03-25T14:17:05.049Z</time></trkpt><trkpt lat="44.1135217" lon="12.0705967"><ele>87.0</ele><time>2026-03-25T14:17:06.049Z</time></trkpt><trkpt lat="44.1135983" lon="12.0705617"><ele>87.0</ele><time>2026-03-25T14:17:07.049Z</time></trkpt><trkpt lat="44.11368" lon="12.070515"><ele>87.0</ele><time>2026-03-25T14:17:08.049Z</time></trkpt><trkpt lat="44.1137517" lon="12.0704617"><ele>87.0</ele><time>2026-03-25T14:17:09.049Z</time></trkpt><trkpt lat="44.1138233" lon="12.0704017"><ele>87.0</ele><time>2026-03-25T14:17:10.048Z</time></trkpt><trkpt lat="44.1139" lon="12.0703583"><ele>87.0</ele><time>2026-03-25T14:17:11.049Z</time></trkpt><trkpt lat="44.1139733" lon="12.0703233"><ele>87.0</ele><time>2026-03-25T14:17:12.049Z</time></trkpt><trkpt lat="44.114045" lon="12.07029"><ele>87.0</ele><time>2026-03-25T14:17:13.049Z</time></trkpt><trkpt lat="44.1141183" lon="12.07025"><ele>87.0</ele><time>2026-03-25T14:17:14.049Z</time></trkpt><trkpt lat="44.1141883" lon="12.0702083"><ele>87.0</ele><time>2026-03-25T14:17:15.048Z</time></trkpt><trkpt lat="44.1142467" lon="12.0701667"><ele>87.0</ele><time>2026-03-25T14:17:16.049Z</time></trkpt><trkpt lat="44.1143567" lon="12.0700867"><ele>87.0</ele><time>2026-03-25T14:17:18.049Z</time></trkpt><trkpt lat="44.1144167" lon="12.070055"><ele>87.0</ele><time>2026-03-25T14:17:19.048Z</time></trkpt><trkpt lat="44.1144733" lon="12.07001"><ele>87.0</ele><time>2026-03-25T14:17:20.048Z</time></trkpt><trkpt lat="44.11458" lon="12.0699467"><ele>87.0</ele><time>2026-03-25T14:17:22.049Z</time></trkpt><trkpt lat="44.1146833" lon="12.0698733"><ele>84.8</ele><time>2026-03-25T14:17:24.048Z</time></trkpt><trkpt lat="44.11478" lon="12.0698067"><ele>82.6</ele><time>2026-03-25T14:17:26.048Z</time></trkpt><trkpt lat="44.114885" lon="12.0697433"><ele>80.39999999999999</ele><time>2026-03-25T14:17:28.049Z</time></trkpt><trkpt lat="44.1149817" lon="12.0696733"><ele>78.19999999999999</ele><time>2026-03-25T14:17:30.049Z</time></trkpt><trkpt lat="44.1150767" lon="12.0696017"><ele>76.0</ele><time>2026-03-25T14:17:32.049Z</time></trkpt><trkpt lat="44.1151833" lon="12.0695183"><ele>75.39999999999999</ele><time>2026-03-25T14:17:34.048Z</time></trkpt><trkpt lat="44.1152417" lon="12.069475"><ele>74.8</ele><time>2026-03-25T14:17:35.048Z</time></trkpt><trkpt lat="44.1153" lon="12.0694367"><ele>74.19999999999999</ele><time>2026-03-25T14:17:36.049Z</time></trkpt><trkpt lat="44.1152167" lon="12.0693683"><ele>73.6</ele><time>2026-03-25T14:17:37.008Z</time></trkpt><trkpt lat="44.1154217" lon="12.0693917"><ele>73.0</ele><time>2026-03-25T14:17:38.051Z</time></trkpt><trkpt lat="44.1154767" lon="12.0693467"><ele>73.0</ele><time>2026-03-25T14:17:39.051Z</time></trkpt><trkpt lat="44.1155817" lon="12.0693083"><ele>73.0</ele><time>2026-03-25T14:17:40.55Z</time></trkpt><trkpt lat="44.1156967" lon="12.0692617"><ele>73.0</ele><time>2026-03-25T14:17:42.051Z</time></trkpt><trkpt lat="44.1157767" lon="12.0691617"><ele>73.0</ele><time>2026-03-25T14:17:43.051Z</time></trkpt><trkpt lat="44.1158683" lon="12.0691283"><ele>73.0</ele><time>2026-03-25T14:17:44.051Z</time></trkpt><trkpt lat="44.1159583" lon="12.0691017"><ele>71.2</ele><time>2026-03-25T14:17:45.05Z</time></trkpt><trkpt lat="44.116045" lon="12.0690633"><ele>69.4</ele><time>2026-03-25T14:17:46.051Z</time></trkpt><trkpt lat="44.11613" lon="12.069025"><ele>67.60000000000001</ele><time>2026-03-25T14:17:47.05Z</time></trkpt><trkpt lat="44.1162217" lon="12.0689883"><ele>65.8</ele><time>2026-03-25T14:17:48.051Z</time></trkpt><trkpt lat="44.11632" lon="12.0689617"><ele>64.0</ele><time>2026-03-25T14:17:49.05Z</time></trkpt><trkpt lat="44.11642" lon="12.0689133"><ele>64.0</ele><time>2026-03-25T14:17:50.051Z</time></trkpt><trkpt lat="44.11651" lon="12.06886"><ele>64.0</ele><time>2026-03-25T14:17:51.051Z</time></trkpt><trkpt lat="44.1166067" lon="12.068795"><ele>64.0</ele><time>2026-03-25T14:17:52.051Z</time></trkpt><trkpt lat="44.1167033" lon="12.0687283"><ele>64.0</ele><time>2026-03-25T14:17:53.051Z</time></trkpt><trkpt lat="44.116795" lon="12.068665"><ele>64.0</ele><time>2026-03-25T14:17:54.05Z</time></trkpt><trkpt lat="44.1168933" lon="12.0685883"><ele>64.2</ele><time>2026-03-25T14:17:55.051Z</time></trkpt><trkpt lat="44.11699" lon="12.0685133"><ele>64.4</ele><time>2026-03-25T14:17:56.05Z</time></trkpt><trkpt lat="44.1170933" lon="12.0684433"><ele>64.6</ele><time>2026-03-25T14:17:57.05Z</time></trkpt><trkpt lat="44.117195" lon="12.06838"><ele>64.8</ele><time>2026-03-25T14:17:58.05Z</time></trkpt><trkpt lat="44.11729" lon="12.0683033"><ele>65.0</ele><time>2026-03-25T14:17:59.05Z</time></trkpt><trkpt lat="44.1173867" lon="12.0682367"><ele>64.2</ele><time>2026-03-25T14:18:00.051Z</time></trkpt><trkpt lat="44.11749" lon="12.0681733"><ele>63.4</ele><time>2026-03-25T14:18:01.051Z</time></trkpt><trkpt lat="44.1175867" lon="12.0681067"><ele>62.599999999999994</ele><time>2026-03-25T14:18:02.051Z</time></trkpt><trkpt lat="44.11768" lon="12.0680233"><ele>61.8</ele><time>2026-03-25T14:18:03.051Z</time></trkpt><trkpt lat="44.117775" lon="12.0679433"><ele>61.0</ele><time>2026-03-25T14:18:04.051Z</time></trkpt><trkpt lat="44.11787" lon="12.0678783"><ele>61.0</ele><time>2026-03-25T14:18:05.05Z</time></trkpt><trkpt lat="44.1179633" lon="12.0678083"><ele>60.99999999999999</ele><time>2026-03-25T14:18:06.051Z</time></trkpt><trkpt lat="44.1180517" lon="12.06774"><ele>60.99999999999999</ele><time>2026-03-25T14:18:07.051Z</time></trkpt><trkpt lat="44.1181467" lon="12.06766"><ele>61.0</ele><time>2026-03-25T14:18:08.051Z</time></trkpt><trkpt lat="44.11824" lon="12.0675817"><ele>61.0</ele><time>2026-03-25T14:18:09.051Z</time></trkpt><trkpt lat="44.1183333" lon="12.0675"><ele>60.8</ele><time>2026-03-25T14:18:10.05Z</time></trkpt><trkpt lat="44.1184233" lon="12.06741"><ele>60.599999999999994</ele><time>2026-03-25T14:18:11.05Z</time></trkpt><trkpt lat="44.1185067" lon="12.0673133"><ele>60.4</ele><time>2026-03-25T14:18:12.05Z</time></trkpt><trkpt lat="44.11858" lon="12.0672"><ele>60.2</ele><time>2026-03-25T14:18:13.05Z</time></trkpt><trkpt lat="44.11865" lon="12.0670767"><ele>60.0</ele><time>2026-03-25T14:18:14.05Z</time></trkpt><trkpt lat="44.118715" lon="12.066955"><ele>60.0</ele><time>2026-03-25T14:18:15.051Z</time></trkpt><trkpt lat="44.118775" lon="12.066825"><ele>60.0</ele><time>2026-03-25T14:18:16.051Z</time></trkpt><trkpt lat="44.1188267" lon="12.066705"><ele>60.0</ele><time>2026-03-25T14:18:17.05Z</time></trkpt><trkpt lat="44.118875" lon="12.0665817"><ele>60.0</ele><time>2026-03-25T14:18:18.051Z</time></trkpt><trkpt lat="44.1189167" lon="12.066455"><ele>60.0</ele><time>2026-03-25T14:18:19.051Z</time></trkpt><trkpt lat="44.1189583" lon="12.0663317"><ele>60.0</ele><time>2026-03-25T14:18:20.051Z</time></trkpt><trkpt lat="44.1189983" lon="12.0662117"><ele>60.0</ele><time>2026-03-25T14:18:21.051Z</time></trkpt><trkpt lat="44.1190333" lon="12.0660967"><ele>60.0</ele><time>2026-03-25T14:18:22.05Z</time></trkpt><trkpt lat="44.11907" lon="12.0659817"><ele>60.0</ele><time>2026-03-25T14:18:23.051Z</time></trkpt><trkpt lat="44.11911" lon="12.0658683"><ele>60.0</ele><time>2026-03-25T14:18:24.051Z</time></trkpt><trkpt lat="44.11914" lon="12.06576"><ele>60.0</ele><time>2026-03-25T14:18:25.051Z</time></trkpt><trkpt lat="44.11918" lon="12.0656483"><ele>60.0</ele><time>2026-03-25T14:18:26.051Z</time></trkpt><trkpt lat="44.119215" lon="12.0655383"><ele>60.0</ele><time>2026-03-25T14:18:27.051Z</time></trkpt><trkpt lat="44.119245" lon="12.0654317"><ele>60.0</ele><time>2026-03-25T14:18:28.051Z</time></trkpt><trkpt lat="44.1192817" lon="12.0653283"><ele>60.0</ele><time>2026-03-25T14:18:29.05Z</time></trkpt><trkpt lat="44.119315" lon="12.065225"><ele>60.0</ele><time>2026-03-25T14:18:30.05Z</time></trkpt><trkpt lat="44.1193433" lon="12.0651283"><ele>60.0</ele><time>2026-03-25T14:18:31.05Z</time></trkpt><trkpt lat="44.1193717" lon="12.0650283"><ele>59.714285714285715</ele><time>2026-03-25T14:18:32.051Z</time></trkpt><trkpt lat="44.1194" lon="12.06493"><ele>59.42857142857143</ele><time>2026-03-25T14:18:33.051Z</time></trkpt><trkpt lat="44.1194283" lon="12.0648317"><ele>59.142857142857146</ele><time>2026-03-25T14:18:34.05Z</time></trkpt><trkpt lat="44.1194533" lon="12.06474"><ele>58.85714285714286</ele><time>2026-03-25T14:18:35.05Z</time></trkpt><trkpt lat="44.11948" lon="12.0646533"><ele>58.57142857142857</ele><time>2026-03-25T14:18:36.051Z</time></trkpt><trkpt lat="44.1195067" lon="12.0645567"><ele>58.28571428571429</ele><time>2026-03-25T14:18:37.05Z</time></trkpt><trkpt lat="44.119535" lon="12.0644617"><ele>58.00000000000001</ele><time>2026-03-25T14:18:38.05Z</time></trkpt><trkpt lat="44.119565" lon="12.06437"><ele>58.00000000000001</ele><time>2026-03-25T14:18:39.05Z</time></trkpt><trkpt lat="44.1196033" lon="12.0642783"><ele>58.0</ele><time>2026-03-25T14:18:40.051Z</time></trkpt><trkpt lat="44.1196367" lon="12.06419"><ele>58.00000000000001</ele><time>2026-03-25T14:18:41.05Z</time></trkpt><trkpt lat="44.1196733" lon="12.0641017"><ele>58.00000000000001</ele><time>2026-03-25T14:18:42.05Z</time></trkpt><trkpt lat="44.1197" lon="12.0640133"><ele>58.0</ele><time>2026-03-25T14:18:43.051Z</time></trkpt><trkpt lat="44.1197217" lon="12.0639217"><ele>58.00000000000001</ele><time>2026-03-25T14:18:44.051Z</time></trkpt><trkpt lat="44.1197467" lon="12.0638383"><ele>58.00000000000001</ele><time>2026-03-25T14:18:45.051Z</time></trkpt><trkpt lat="44.1197767" lon="12.06376"><ele>58.0</ele><time>2026-03-25T14:18:46.051Z</time></trkpt><trkpt lat="44.1198067" lon="12.0636817"><ele>58.0</ele><time>2026-03-25T14:18:47.051Z</time></trkpt><trkpt lat="44.11985" lon="12.063525"><ele>58.0</ele><time>2026-03-25T14:18:49.051Z</time></trkpt><trkpt lat="44.1199017" lon="12.0633667"><ele>58.0</ele><time>2026-03-25T14:18:51.05Z</time></trkpt><trkpt lat="44.1199667" lon="12.0632167"><ele>58.0</ele><time>2026-03-25T14:18:53.05Z</time></trkpt><trkpt lat="44.120005" lon="12.0631467"><ele>57.8</ele><time>2026-03-25T14:18:54.051Z</time></trkpt><trkpt lat="44.1200833" lon="12.06302"><ele>57.599999999999994</ele><time>2026-03-25T14:18:56.05Z</time></trkpt><trkpt lat="44.1201733" lon="12.0629133"><ele>57.400000000000006</ele><time>2026-03-25T14:18:58.051Z</time></trkpt><trkpt lat="44.1202717" lon="12.0627933"><ele>57.2</ele><time>2026-03-25T14:19:00.05Z</time></trkpt><trkpt lat="44.1203233" lon="12.0627333"><ele>57.0</ele><time>2026-03-25T14:19:01.051Z</time></trkpt><trkpt lat="44.1203733" lon="12.0626717"><ele>57.0</ele><time>2026-03-25T14:19:02.051Z</time></trkpt><trkpt lat="44.1204733" lon="12.0625667"><ele>57.0</ele><time>2026-03-25T14:19:04.051Z</time></trkpt><trkpt lat="44.12057" lon="12.0624533"><ele>57.0</ele><time>2026-03-25T14:19:06.05Z</time></trkpt><trkpt lat="44.1206217" lon="12.0623917"><ele>57.0</ele><time>2026-03-25T14:19:07.051Z</time></trkpt><trkpt lat="44.1206733" lon="12.0623367"><ele>57.0</ele><time>2026-03-25T14:19:08.05Z</time></trkpt><trkpt lat="44.1207867" lon="12.0622633"><ele>56.6</ele><time>2026-03-25T14:19:10.051Z</time></trkpt><trkpt lat="44.1208517" lon="12.0622617"><ele>56.2</ele><time>2026-03-25T14:19:11.05Z</time></trkpt><trkpt lat="44.1209467" lon="12.06236"><ele>55.8</ele><time>2026-03-25T14:19:13.05Z</time></trkpt><trkpt lat="44.1209917" lon="12.0625083"><ele>55.4</ele><time>2026-03-25T14:19:15.051Z</time></trkpt><trkpt lat="44.12102" lon="12.0626483"><ele>55.0</ele><time>2026-03-25T14:19:17.05Z</time></trkpt><trkpt lat="44.1210517" lon="12.062785"><ele>56.0</ele><time>2026-03-25T14:19:19.051Z</time></trkpt><trkpt lat="44.1210967" lon="12.06292"><ele>57.0</ele><time>2026-03-25T14:19:21.051Z</time></trkpt><trkpt lat="44.1211433" lon="12.06307"><ele>58.0</ele><time>2026-03-25T14:19:23.05Z</time></trkpt><trkpt lat="44.1211933" lon="12.0632233"><ele>59.0</ele><time>2026-03-25T14:19:25.051Z</time></trkpt><trkpt lat="44.1212367" lon="12.0633783"><ele>59.800000000000004</ele><time>2026-03-25T14:19:27.05Z</time></trkpt><trkpt lat="44.121275" lon="12.0635333"><ele>60.60000000000001</ele><time>2026-03-25T14:19:29.051Z</time></trkpt><trkpt lat="44.121295" lon="12.0636167"><ele>61.4</ele><time>2026-03-25T14:19:30.05Z</time></trkpt><trkpt lat="44.1213233" lon="12.063775"><ele>62.2</ele><time>2026-03-25T14:19:32.05Z</time></trkpt><trkpt lat="44.121375" lon="12.06393"><ele>63.0</ele><time>2026-03-25T14:19:34.051Z</time></trkpt><trkpt lat="44.121415" lon="12.0640917"><ele>63.285714285714285</ele><time>2026-03-25T14:19:36.05Z</time></trkpt><trkpt lat="44.1214317" lon="12.06418"><ele>63.57142857142857</ele><time>2026-03-25T14:19:37.05Z</time></trkpt><trkpt lat="44.1214517" lon="12.0642683"><ele>63.85714285714286</ele><time>2026-03-25T14:19:38.05Z</time></trkpt><trkpt lat="44.1214767" lon="12.064355"><ele>64.14285714285714</ele><time>2026-03-25T14:19:39.051Z</time></trkpt><trkpt lat="44.1214983" lon="12.064445"><ele>64.42857142857143</ele><time>2026-03-25T14:19:40.05Z</time></trkpt><trkpt lat="44.121525" lon="12.0645333"><ele>64.71428571428572</ele><time>2026-03-25T14:19:41.051Z</time></trkpt><trkpt lat="44.1215483" lon="12.06463"><ele>65.0</ele><time>2026-03-25T14:19:42.051Z</time></trkpt><trkpt lat="44.12157" lon="12.06472"><ele>63.66666666666667</ele><time>2026-03-25T14:19:43.051Z</time></trkpt><trkpt lat="44.12159" lon="12.0648083"><ele>62.333333333333336</ele><time>2026-03-25T14:19:44.05Z</time></trkpt><trkpt lat="44.1216067" lon="12.0648933"><ele>61.0</ele><time>2026-03-25T14:19:45.051Z</time></trkpt><trkpt lat="44.1216267" lon="12.06498"><ele>59.66666666666667</ele><time>2026-03-25T14:19:46.05Z</time></trkpt><trkpt lat="44.12167" lon="12.0651483"><ele>58.333333333333336</ele><time>2026-03-25T14:19:48.051Z</time></trkpt><trkpt lat="44.1216917" lon="12.065235"><ele>57.0</ele><time>2026-03-25T14:19:49.05Z</time></trkpt><trkpt lat="44.121715" lon="12.0653217"><ele>57.0</ele><time>2026-03-25T14:19:50.05Z</time></trkpt><trkpt lat="44.1217383" lon="12.0654117"><ele>56.99999999999999</ele><time>2026-03-25T14:19:51.051Z</time></trkpt><trkpt lat="44.121765" lon="12.0655017"><ele>57.0</ele><time>2026-03-25T14:19:52.05Z</time></trkpt><trkpt lat="44.12179" lon="12.0655833"><ele>57.0</ele><time>2026-03-25T14:19:53.051Z</time></trkpt><trkpt lat="44.1218167" lon="12.0656667"><ele>56.99999999999999</ele><time>2026-03-25T14:19:54.05Z</time></trkpt><trkpt lat="44.12184" lon="12.0657483"><ele>57.0</ele><time>2026-03-25T14:19:55.051Z</time></trkpt><trkpt lat="44.1218583" lon="12.0658333"><ele>57.0</ele><time>2026-03-25T14:19:56.051Z</time></trkpt><trkpt lat="44.12188" lon="12.0659233"><ele>57.57142857142857</ele><time>2026-03-25T14:19:57.051Z</time></trkpt><trkpt lat="44.121905" lon="12.06601"><ele>58.14285714285714</ele><time>2026-03-25T14:19:58.051Z</time></trkpt><trkpt lat="44.12193" lon="12.0660983"><ele>58.71428571428571</ele><time>2026-03-25T14:19:59.05Z</time></trkpt><trkpt lat="44.1219567" lon="12.0661867"><ele>59.28571428571428</ele><time>2026-03-25T14:20:00.051Z</time></trkpt><trkpt lat="44.1219817" lon="12.06627"><ele>59.857142857142854</ele><time>2026-03-25T14:20:01.05Z</time></trkpt><trkpt lat="44.1220067" lon="12.0663533"><ele>60.428571428571416</ele><time>2026-03-25T14:20:02.05Z</time></trkpt><trkpt lat="44.122035" lon="12.066435"><ele>60.99999999999999</ele><time>2026-03-25T14:20:03.051Z</time></trkpt><trkpt lat="44.122055" lon="12.0665217"><ele>61.0</ele><time>2026-03-25T14:20:04.051Z</time></trkpt><trkpt lat="44.1220733" lon="12.0666083"><ele>60.99999999999999</ele><time>2026-03-25T14:20:05.05Z</time></trkpt><trkpt lat="44.122105" lon="12.0667667"><ele>60.99999999999999</ele><time>2026-03-25T14:20:07.05Z</time></trkpt><trkpt lat="44.12215" lon="12.0669133"><ele>61.0</ele><time>2026-03-25T14:20:09.05Z</time></trkpt><trkpt lat="44.1221883" lon="12.06705"><ele>61.0</ele><time>2026-03-25T14:20:11.051Z</time></trkpt><trkpt lat="44.1222167" lon="12.0671833"><ele>61.199999999999996</ele><time>2026-03-25T14:20:13.051Z</time></trkpt><trkpt lat="44.1222383" lon="12.0673233"><ele>61.39999999999999</ele><time>2026-03-25T14:20:15.051Z</time></trkpt><trkpt lat="44.122265" lon="12.0674433"><ele>61.6</ele><time>2026-03-25T14:20:17.051Z</time></trkpt><trkpt lat="44.1222983" lon="12.0675633"><ele>61.8</ele><time>2026-03-25T14:20:19.05Z</time></trkpt><trkpt lat="44.1223283" lon="12.0676817"><ele>62.0</ele><time>2026-03-25T14:20:21.05Z</time></trkpt><trkpt lat="44.12236" lon="12.0678"><ele>62.2</ele><time>2026-03-25T14:20:23.051Z</time></trkpt><trkpt lat="44.1223933" lon="12.0679167"><ele>62.400000000000006</ele><time>2026-03-25T14:20:25.05Z</time></trkpt><trkpt lat="44.1224233" lon="12.068035"><ele>62.599999999999994</ele><time>2026-03-25T14:20:27.051Z</time></trkpt><trkpt lat="44.1224533" lon="12.0681583"><ele>62.8</ele><time>2026-03-25T14:20:29.05Z</time></trkpt><trkpt lat="44.122485" lon="12.0682717"><ele>63.0</ele><time>2026-03-25T14:20:31.051Z</time></trkpt><trkpt lat="44.1225167" lon="12.0683933"><ele>63.0</ele><time>2026-03-25T14:20:33.051Z</time></trkpt><trkpt lat="44.1225467" lon="12.0685133"><ele>63.0</ele><time>2026-03-25T14:20:35.051Z</time></trkpt><trkpt lat="44.1225817" lon="12.06862"><ele>63.0</ele><time>2026-03-25T14:20:37.05Z</time></trkpt><trkpt lat="44.12261" lon="12.0687367"><ele>63.0</ele><time>2026-03-25T14:20:39.051Z</time></trkpt><trkpt lat="44.122645" lon="12.0688567"><ele>63.0</ele><time>2026-03-25T14:20:41.051Z</time></trkpt><trkpt lat="44.122675" lon="12.06899"><ele>63.2</ele><time>2026-03-25T14:20:43.05Z</time></trkpt><trkpt lat="44.122705" lon="12.0691167"><ele>63.4</ele><time>2026-03-25T14:20:45.051Z</time></trkpt><trkpt lat="44.12274" lon="12.06924"><ele>63.60000000000001</ele><time>2026-03-25T14:20:47.05Z</time></trkpt><trkpt lat="44.1227783" lon="12.0693717"><ele>63.800000000000004</ele><time>2026-03-25T14:20:49.05Z</time></trkpt><trkpt lat="44.1228117" lon="12.0694933"><ele>64.0</ele><time>2026-03-25T14:20:51.05Z</time></trkpt><trkpt lat="44.12284" lon="12.0696133"><ele>64.0</ele><time>2026-03-25T14:20:53.051Z</time></trkpt><trkpt lat="44.1228717" lon="12.06974"><ele>64.0</ele><time>2026-03-25T14:20:55.051Z</time></trkpt><trkpt lat="44.122905" lon="12.0698667"><ele>64.0</ele><time>2026-03-25T14:20:57.051Z</time></trkpt><trkpt lat="44.1229333" lon="12.069995"><ele>64.0</ele><time>2026-03-25T14:20:59.05Z</time></trkpt><trkpt lat="44.1229617" lon="12.070125"><ele>64.0</ele><time>2026-03-25T14:21:01.051Z</time></trkpt><trkpt lat="44.1229917" lon="12.070255"><ele>64.2</ele><time>2026-03-25T14:21:03.051Z</time></trkpt><trkpt lat="44.123025" lon="12.0703733"><ele>64.4</ele><time>2026-03-25T14:21:05.05Z</time></trkpt><trkpt lat="44.1230583" lon="12.0705083"><ele>64.6</ele><time>2026-03-25T14:21:07.051Z</time></trkpt><trkpt lat="44.1230967" lon="12.070645"><ele>64.8</ele><time>2026-03-25T14:21:09.051Z</time></trkpt><trkpt lat="44.1231267" lon="12.0707733"><ele>65.0</ele><time>2026-03-25T14:21:11.05Z</time></trkpt><trkpt lat="44.1231583" lon="12.0708917"><ele>65.2</ele><time>2026-03-25T14:21:13.051Z</time></trkpt><trkpt lat="44.12319" lon="12.07101"><ele>65.4</ele><time>2026-03-25T14:21:15.05Z</time></trkpt><trkpt lat="44.12322" lon="12.0711283"><ele>65.6</ele><time>2026-03-25T14:21:17.05Z</time></trkpt><trkpt lat="44.123255" lon="12.07126"><ele>65.8</ele><time>2026-03-25T14:21:19.05Z</time></trkpt><trkpt lat="44.1232933" lon="12.0713817"><ele>66.0</ele><time>2026-03-25T14:21:21.051Z</time></trkpt><trkpt lat="44.1233217" lon="12.0714983"><ele>66.8</ele><time>2026-03-25T14:21:23.051Z</time></trkpt><trkpt lat="44.12337" lon="12.0716667"><ele>67.6</ele><time>2026-03-25T14:21:26.051Z</time></trkpt><trkpt lat="44.1233933" lon="12.0717733"><ele>68.4</ele><time>2026-03-25T14:21:28.051Z</time></trkpt><trkpt lat="44.12342" lon="12.0718883"><ele>69.2</ele><time>2026-03-25T14:21:30.051Z</time></trkpt><trkpt lat="44.1234483" lon="12.071995"><ele>70.0</ele><time>2026-03-25T14:21:32.051Z</time></trkpt><trkpt lat="44.123475" lon="12.0721033"><ele>70.0</ele><time>2026-03-25T14:21:34.05Z</time></trkpt><trkpt lat="44.123505" lon="12.0722133"><ele>70.0</ele><time>2026-03-25T14:21:36.051Z</time></trkpt><trkpt lat="44.123535" lon="12.072325"><ele>70.0</ele><time>2026-03-25T14:21:38.05Z</time></trkpt><trkpt lat="44.1235617" lon="12.0724283"><ele>70.0</ele><time>2026-03-25T14:21:40.05Z</time></trkpt><trkpt lat="44.1235867" lon="12.07253"><ele>70.0</ele><time>2026-03-25T14:21:42.051Z</time></trkpt><trkpt lat="44.1236133" lon="12.072615"><ele>70.0</ele><time>2026-03-25T14:21:44.05Z</time></trkpt><trkpt lat="44.1236417" lon="12.0726933"><ele>70.42857142857143</ele><time>2026-03-25T14:21:46.05Z</time></trkpt><trkpt lat="44.123665" lon="12.07278"><ele>70.85714285714286</ele><time>2026-03-25T14:21:48.051Z</time></trkpt><trkpt lat="44.12369" lon="12.0728667"><ele>71.28571428571428</ele><time>2026-03-25T14:21:50.051Z</time></trkpt><trkpt lat="44.12372" lon="12.0729567"><ele>71.71428571428572</ele><time>2026-03-25T14:21:52.051Z</time></trkpt><trkpt lat="44.1237483" lon="12.0730633"><ele>72.14285714285714</ele><time>2026-03-25T14:21:54.05Z</time></trkpt><trkpt lat="44.1237733" lon="12.0731633"><ele>72.57142857142857</ele><time>2026-03-25T14:21:56.051Z</time></trkpt><trkpt lat="44.123805" lon="12.073275"><ele>73.0</ele><time>2026-03-25T14:21:58.051Z</time></trkpt><trkpt lat="44.1238333" lon="12.0733933"><ele>74.16666666666666</ele><time>2026-03-25T14:22:00.05Z</time></trkpt><trkpt lat="44.1238617" lon="12.0735017"><ele>75.33333333333333</ele><time>2026-03-25T14:22:02.05Z</time></trkpt><trkpt lat="44.1238867" lon="12.0736183"><ele>76.5</ele><time>2026-03-25T14:22:04.05Z</time></trkpt><trkpt lat="44.1239117" lon="12.07375"><ele>77.66666666666667</ele><time>2026-03-25T14:22:06.05Z</time></trkpt><trkpt lat="44.1239433" lon="12.073865"><ele>78.83333333333334</ele><time>2026-03-25T14:22:08.05Z</time></trkpt><trkpt lat="44.1239667" lon="12.07399"><ele>80.0</ele><time>2026-03-25T14:22:10.05Z</time></trkpt><trkpt lat="44.1240017" lon="12.0741033"><ele>79.16666666666667</ele><time>2026-03-25T14:22:12.05Z</time></trkpt><trkpt lat="44.12403" lon="12.074215"><ele>78.33333333333334</ele><time>2026-03-25T14:22:14.051Z</time></trkpt><trkpt lat="44.1240617" lon="12.0743367"><ele>77.5</ele><time>2026-03-25T14:22:16.05Z</time></trkpt><trkpt lat="44.1240867" lon="12.0744467"><ele>76.66666666666667</ele><time>2026-03-25T14:22:18.05Z</time></trkpt><trkpt lat="44.1241167" lon="12.0745567"><ele>75.83333333333333</ele><time>2026-03-25T14:22:20.05Z</time></trkpt><trkpt lat="44.124145" lon="12.0746617"><ele>75.0</ele><time>2026-03-25T14:22:22.051Z</time></trkpt><trkpt lat="44.124175" lon="12.0747683"><ele>75.0</ele><time>2026-03-25T14:22:24.051Z</time></trkpt><trkpt lat="44.1242083" lon="12.07488"><ele>75.0</ele><time>2026-03-25T14:22:26.051Z</time></trkpt><trkpt lat="44.1242383" lon="12.0749883"><ele>75.0</ele><time>2026-03-25T14:22:28.051Z</time></trkpt><trkpt lat="44.1242633" lon="12.0750917"><ele>75.0</ele><time>2026-03-25T14:22:30.05Z</time></trkpt><trkpt lat="44.1242933" lon="12.075205"><ele>75.0</ele><time>2026-03-25T14:22:32.051Z</time></trkpt><trkpt lat="44.1243267" lon="12.0753133"><ele>75.0</ele><time>2026-03-25T14:22:34.051Z</time></trkpt><trkpt lat="44.1243517" lon="12.0754283"><ele>76.0</ele><time>2026-03-25T14:22:36.051Z</time></trkpt><trkpt lat="44.12438" lon="12.0755417"><ele>77.0</ele><time>2026-03-25T14:22:38.05Z</time></trkpt><trkpt lat="44.1244133" lon="12.0756583"><ele>78.0</ele><time>2026-03-25T14:22:40.051Z</time></trkpt><trkpt lat="44.124445" lon="12.0757767"><ele>79.0</ele><time>2026-03-25T14:22:42.05Z</time></trkpt><trkpt lat="44.124475" lon="12.0759033"><ele>80.0</ele><time>2026-03-25T14:22:44.051Z</time></trkpt><trkpt lat="44.124505" lon="12.07603"><ele>81.0</ele><time>2026-03-25T14:22:46.051Z</time></trkpt><trkpt lat="44.1245367" lon="12.0761433"><ele>82.0</ele><time>2026-03-25T14:22:48.05Z</time></trkpt><trkpt lat="44.1245683" lon="12.0762567"><ele>83.0</ele><time>2026-03-25T14:22:50.05Z</time></trkpt><trkpt lat="44.1245967" lon="12.0763717"><ele>84.0</ele><time>2026-03-25T14:22:52.051Z</time></trkpt><trkpt lat="44.124625" lon="12.07649"><ele>85.0</ele><time>2026-03-25T14:22:54.051Z</time></trkpt><trkpt lat="44.124655" lon="12.0766083"><ele>86.0</ele><time>2026-03-25T14:22:56.051Z</time></trkpt><trkpt lat="44.124685" lon="12.07671"><ele>86.66666666666667</ele><time>2026-03-25T14:22:58.05Z</time></trkpt><trkpt lat="44.124725" lon="12.0768283"><ele>87.33333333333334</ele><time>2026-03-25T14:23:00.05Z</time></trkpt><trkpt lat="44.12477" lon="12.076925"><ele>88.0</ele><time>2026-03-25T14:23:02.051Z</time></trkpt><trkpt lat="44.1248217" lon="12.077015"><ele>88.66666666666667</ele><time>2026-03-25T14:23:04.05Z</time></trkpt><trkpt lat="44.12488" lon="12.0770967"><ele>89.33333333333333</ele><time>2026-03-25T14:23:06.051Z</time></trkpt><trkpt lat="44.1249517" lon="12.07716"><ele>90.0</ele><time>2026-03-25T14:23:08.051Z</time></trkpt><trkpt lat="44.12504" lon="12.077225"><ele>88.2</ele><time>2026-03-25T14:23:10.05Z</time></trkpt><trkpt lat="44.12513" lon="12.0772733"><ele>86.4</ele><time>2026-03-25T14:23:12.05Z</time></trkpt><trkpt lat="44.1252217" lon="12.0773167"><ele>84.6</ele><time>2026-03-25T14:23:14.051Z</time></trkpt><trkpt lat="44.1253117" lon="12.0773583"><ele>82.8</ele><time>2026-03-25T14:23:16.05Z</time></trkpt><trkpt lat="44.1253983" lon="12.0774"><ele>81.0</ele><time>2026-03-25T14:23:18.05Z</time></trkpt><trkpt lat="44.125485" lon="12.0774217"><ele>82.0</ele><time>2026-03-25T14:23:20.051Z</time></trkpt><trkpt lat="44.1255717" lon="12.0774533"><ele>83.0</ele><time>2026-03-25T14:23:22.051Z</time></trkpt><trkpt lat="44.1256717" lon="12.0775"><ele>84.0</ele><time>2026-03-25T14:23:24.05Z</time></trkpt><trkpt lat="44.1257817" lon="12.0775517"><ele>85.0</ele><time>2026-03-25T14:23:26.051Z</time></trkpt><trkpt lat="44.1259" lon="12.077605"><ele>86.0</ele><time>2026-03-25T14:23:28.05Z</time></trkpt><trkpt lat="44.1259633" lon="12.0776267"><ele>86.0</ele><time>2026-03-25T14:23:29.051Z</time></trkpt><trkpt lat="44.12603" lon="12.0776583"><ele>86.0</ele><time>2026-03-25T14:23:30.051Z</time></trkpt><trkpt lat="44.1260983" lon="12.077685"><ele>86.0</ele><time>2026-03-25T14:23:31.05Z</time></trkpt><trkpt lat="44.1261667" lon="12.0777133"><ele>86.0</ele><time>2026-03-25T14:23:32.05Z</time></trkpt><trkpt lat="44.12624" lon="12.0777433"><ele>86.0</ele><time>2026-03-25T14:23:33.051Z</time></trkpt><trkpt lat="44.1263167" lon="12.0777767"><ele>86.0</ele><time>2026-03-25T14:23:34.051Z</time></trkpt><trkpt lat="44.1264" lon="12.0778083"><ele>86.0</ele><time>2026-03-25T14:23:35.05Z</time></trkpt><trkpt lat="44.12648" lon="12.0778367"><ele>86.0</ele><time>2026-03-25T14:23:36.051Z</time></trkpt><trkpt lat="44.12656" lon="12.07787"><ele>86.0</ele><time>2026-03-25T14:23:37.051Z</time></trkpt><trkpt lat="44.126645" lon="12.0779017"><ele>86.0</ele><time>2026-03-25T14:23:38.05Z</time></trkpt><trkpt lat="44.12673" lon="12.0779383"><ele>86.0</ele><time>2026-03-25T14:23:39.051Z</time></trkpt><trkpt lat="44.1268183" lon="12.0779767"><ele>86.0</ele><time>2026-03-25T14:23:40.051Z</time></trkpt><trkpt lat="44.1269083" lon="12.0780117"><ele>85.0</ele><time>2026-03-25T14:23:41.051Z</time></trkpt><trkpt lat="44.1270033" lon="12.07805"><ele>84.0</ele><time>2026-03-25T14:23:42.051Z</time></trkpt><trkpt lat="44.127095" lon="12.078085"><ele>83.0</ele><time>2026-03-25T14:23:43.051Z</time></trkpt><trkpt lat="44.12719" lon="12.078135"><ele>82.0</ele><time>2026-03-25T14:23:44.051Z</time></trkpt><trkpt lat="44.1272817" lon="12.0781933"><ele>81.0</ele><time>2026-03-25T14:23:45.05Z</time></trkpt><trkpt lat="44.1273667" lon="12.0782667"><ele>80.2</ele><time>2026-03-25T14:23:46.05Z</time></trkpt><trkpt lat="44.127445" lon="12.0783483"><ele>79.39999999999999</ele><time>2026-03-25T14:23:47.05Z</time></trkpt><trkpt lat="44.1275233" lon="12.078445"><ele>78.6</ele><time>2026-03-25T14:23:48.05Z</time></trkpt><trkpt lat="44.127595" lon="12.0785467"><ele>77.8</ele><time>2026-03-25T14:23:49.05Z</time></trkpt><trkpt lat="44.1276633" lon="12.0786483"><ele>77.0</ele><time>2026-03-25T14:23:50.05Z</time></trkpt><trkpt lat="44.1277317" lon="12.0787533"><ele>77.0</ele><time>2026-03-25T14:23:51.051Z</time></trkpt><trkpt lat="44.127805" lon="12.07886"><ele>77.0</ele><time>2026-03-25T14:23:52.051Z</time></trkpt><trkpt lat="44.1278783" lon="12.0789683"><ele>77.0</ele><time>2026-03-25T14:23:53.05Z</time></trkpt><trkpt lat="44.1279517" lon="12.07908"><ele>77.0</ele><time>2026-03-25T14:23:54.05Z</time></trkpt><trkpt lat="44.12802" lon="12.079185"><ele>77.0</ele><time>2026-03-25T14:23:55.051Z</time></trkpt><trkpt lat="44.128095" lon="12.079295"><ele>75.75</ele><time>2026-03-25T14:23:56.05Z</time></trkpt><trkpt lat="44.1281733" lon="12.0794067"><ele>74.5</ele><time>2026-03-25T14:23:57.05Z</time></trkpt><trkpt lat="44.128255" lon="12.0795183"><ele>73.25</ele><time>2026-03-25T14:23:58.051Z</time></trkpt><trkpt lat="44.128335" lon="12.0796383"><ele>72.0</ele><time>2026-03-25T14:23:59.051Z</time></trkpt><trkpt lat="44.1284167" lon="12.0797567"><ele>72.0</ele><time>2026-03-25T14:24:00.051Z</time></trkpt><trkpt lat="44.128505" lon="12.0798817"><ele>72.0</ele><time>2026-03-25T14:24:01.05Z</time></trkpt><trkpt lat="44.1285917" lon="12.0800117"><ele>72.0</ele><time>2026-03-25T14:24:02.051Z</time></trkpt><trkpt lat="44.1286733" lon="12.0801383"><ele>72.0</ele><time>2026-03-25T14:24:03.051Z</time></trkpt><trkpt lat="44.1287533" lon="12.0802483"><ele>72.6</ele><time>2026-03-25T14:24:04.05Z</time></trkpt><trkpt lat="44.1288433" lon="12.08033"><ele>73.2</ele><time>2026-03-25T14:24:05.05Z</time></trkpt><trkpt lat="44.1289433" lon="12.0803783"><ele>73.8</ele><time>2026-03-25T14:24:06.05Z</time></trkpt><trkpt lat="44.1290417" lon="12.0804"><ele>74.4</ele><time>2026-03-25T14:24:07.051Z</time></trkpt><trkpt lat="44.1291433" lon="12.0803933"><ele>75.0</ele><time>2026-03-25T14:24:08.05Z</time></trkpt><trkpt lat="44.129245" lon="12.0803583"><ele>73.2</ele><time>2026-03-25T14:24:09.05Z</time></trkpt><trkpt lat="44.129345" lon="12.080305"><ele>71.4</ele><time>2026-03-25T14:24:10.051Z</time></trkpt><trkpt lat="44.1294333" lon="12.0802417"><ele>69.6</ele><time>2026-03-25T14:24:11.051Z</time></trkpt><trkpt lat="44.129525" lon="12.0801833"><ele>67.8</ele><time>2026-03-25T14:24:12.05Z</time></trkpt><trkpt lat="44.1296133" lon="12.0801333"><ele>66.0</ele><time>2026-03-25T14:24:13.051Z</time></trkpt><trkpt lat="44.1297067" lon="12.0800883"><ele>66.0</ele><time>2026-03-25T14:24:14.05Z</time></trkpt><trkpt lat="44.1298017" lon="12.08006"><ele>66.0</ele><time>2026-03-25T14:24:15.05Z</time></trkpt><trkpt lat="44.1299017" lon="12.0800567"><ele>66.0</ele><time>2026-03-25T14:24:16.051Z</time></trkpt><trkpt lat="44.1299983" lon="12.0800733"><ele>66.0</ele><time>2026-03-25T14:24:17.05Z</time></trkpt><trkpt lat="44.13009" lon="12.0801067"><ele>66.0</ele><time>2026-03-25T14:24:18.05Z</time></trkpt><trkpt lat="44.1301817" lon="12.0801383"><ele>66.39999999999999</ele><time>2026-03-25T14:24:19.051Z</time></trkpt><trkpt lat="44.1302767" lon="12.080175"><ele>66.8</ele><time>2026-03-25T14:24:20.05Z</time></trkpt><trkpt lat="44.1303733" lon="12.0802117"><ele>67.19999999999999</ele><time>2026-03-25T14:24:21.051Z</time></trkpt><trkpt lat="44.130465" lon="12.0802433"><ele>67.6</ele><time>2026-03-25T14:24:22.051Z</time></trkpt><trkpt lat="44.1305583" lon="12.08028"><ele>68.0</ele><time>2026-03-25T14:24:23.05Z</time></trkpt><trkpt lat="44.1306483" lon="12.0803167"><ele>66.8</ele><time>2026-03-25T14:24:24.05Z</time></trkpt><trkpt lat="44.13074" lon="12.0803517"><ele>65.6</ele><time>2026-03-25T14:24:25.051Z</time></trkpt><trkpt lat="44.1308333" lon="12.08039"><ele>64.4</ele><time>2026-03-25T14:24:26.051Z</time></trkpt><trkpt lat="44.130925" lon="12.080425"><ele>63.2</ele><time>2026-03-25T14:24:27.051Z</time></trkpt><trkpt lat="44.13102" lon="12.080465"><ele>62.0</ele><time>2026-03-25T14:24:28.051Z</time></trkpt><trkpt lat="44.13112" lon="12.080505"><ele>62.0</ele><time>2026-03-25T14:24:29.051Z</time></trkpt><trkpt lat="44.1312117" lon="12.080545"><ele>62.0</ele><time>2026-03-25T14:24:30.05Z</time></trkpt><trkpt lat="44.1313083" lon="12.0805833"><ele>62.0</ele><time>2026-03-25T14:24:31.051Z</time></trkpt><trkpt lat="44.1314017" lon="12.080625"><ele>62.0</ele><time>2026-03-25T14:24:32.05Z</time></trkpt><trkpt lat="44.131495" lon="12.0806633"><ele>62.0</ele><time>2026-03-25T14:24:33.05Z</time></trkpt><trkpt lat="44.1315917" lon="12.0806967"><ele>62.0</ele><time>2026-03-25T14:24:34.05Z</time></trkpt><trkpt lat="44.1316867" lon="12.0807383"><ele>62.0</ele><time>2026-03-25T14:24:35.051Z</time></trkpt><trkpt lat="44.1317783" lon="12.0807767"><ele>62.0</ele><time>2026-03-25T14:24:36.05Z</time></trkpt><trkpt lat="44.131875" lon="12.08081"><ele>62.0</ele><time>2026-03-25T14:24:37.05Z</time></trkpt><trkpt lat="44.131975" lon="12.080845"><ele>62.0</ele><time>2026-03-25T14:24:38.05Z</time></trkpt><trkpt lat="44.1320767" lon="12.0808883"><ele>62.0</ele><time>2026-03-25T14:24:39.05Z</time></trkpt><trkpt lat="44.1321767" lon="12.0809267"><ele>62.0</ele><time>2026-03-25T14:24:40.05Z</time></trkpt><trkpt lat="44.1322733" lon="12.0809767"><ele>62.0</ele><time>2026-03-25T14:24:41.05Z</time></trkpt><trkpt lat="44.13237" lon="12.08101"><ele>62.0</ele><time>2026-03-25T14:24:42.05Z</time></trkpt><trkpt lat="44.1324633" lon="12.081045"><ele>62.0</ele><time>2026-03-25T14:24:43.05Z</time></trkpt><trkpt lat="44.13256" lon="12.0810817"><ele>61.2</ele><time>2026-03-25T14:24:44.05Z</time></trkpt><trkpt lat="44.132655" lon="12.081125"><ele>60.400000000000006</ele><time>2026-03-25T14:24:45.051Z</time></trkpt><trkpt lat="44.132745" lon="12.0811567"><ele>59.599999999999994</ele><time>2026-03-25T14:24:46.051Z</time></trkpt><trkpt lat="44.1328333" lon="12.0811867"><ele>58.8</ele><time>2026-03-25T14:24:47.051Z</time></trkpt><trkpt lat="44.132925" lon="12.08122"><ele>58.0</ele><time>2026-03-25T14:24:48.051Z</time></trkpt><trkpt lat="44.13301" lon="12.0812517"><ele>57.99999999999999</ele><time>2026-03-25T14:24:49.051Z</time></trkpt><trkpt lat="44.1330967" lon="12.08129"><ele>58.0</ele><time>2026-03-25T14:24:50.051Z</time></trkpt><trkpt lat="44.1331817" lon="12.0813283"><ele>58.0</ele><time>2026-03-25T14:24:51.051Z</time></trkpt><trkpt lat="44.133265" lon="12.08136"><ele>58.0</ele><time>2026-03-25T14:24:52.05Z</time></trkpt><trkpt lat="44.133345" lon="12.081395"><ele>57.99999999999999</ele><time>2026-03-25T14:24:53.05Z</time></trkpt><trkpt lat="44.1334233" lon="12.0814333"><ele>58.0</ele><time>2026-03-25T14:24:54.05Z</time></trkpt><trkpt lat="44.1334983" lon="12.0814883"><ele>58.166666666666664</ele><time>2026-03-25T14:24:55.05Z</time></trkpt><trkpt lat="44.1335683" lon="12.081555"><ele>58.33333333333333</ele><time>2026-03-25T14:24:56.051Z</time></trkpt><trkpt lat="44.1336267" lon="12.08163"><ele>58.5</ele><time>2026-03-25T14:24:57.05Z</time></trkpt><trkpt lat="44.1336717" lon="12.0817167"><ele>58.66666666666667</ele><time>2026-03-25T14:24:58.051Z</time></trkpt><trkpt lat="44.1337117" lon="12.0818133"><ele>58.833333333333336</ele><time>2026-03-25T14:24:59.05Z</time></trkpt><trkpt lat="44.133745" lon="12.0819033"><ele>59.0</ele><time>2026-03-25T14:25:00.051Z</time></trkpt><trkpt lat="44.1337767" lon="12.0819983"><ele>59.333333333333336</ele><time>2026-03-25T14:25:01.05Z</time></trkpt><trkpt lat="44.1338067" lon="12.0820917"><ele>59.66666666666667</ele><time>2026-03-25T14:25:02.051Z</time></trkpt><trkpt lat="44.1338333" lon="12.0821833"><ele>60.0</ele><time>2026-03-25T14:25:03.051Z</time></trkpt><trkpt lat="44.1338667" lon="12.08227"><ele>60.33333333333333</ele><time>2026-03-25T14:25:04.051Z</time></trkpt><trkpt lat="44.1338917" lon="12.08236"><ele>60.666666666666664</ele><time>2026-03-25T14:25:05.05Z</time></trkpt><trkpt lat="44.13394" lon="12.0825133"><ele>61.0</ele><time>2026-03-25T14:25:07.051Z</time></trkpt><trkpt lat="44.13398" lon="12.0826617"><ele>60.8</ele><time>2026-03-25T14:25:09.05Z</time></trkpt><trkpt lat="44.1340267" lon="12.0828067"><ele>60.599999999999994</ele><time>2026-03-25T14:25:11.051Z</time></trkpt><trkpt lat="44.13407" lon="12.082945"><ele>60.4</ele><time>2026-03-25T14:25:13.05Z</time></trkpt><trkpt lat="44.13411" lon="12.08309"><ele>60.2</ele><time>2026-03-25T14:25:15.05Z</time></trkpt><trkpt lat="44.1341467" lon="12.0832333"><ele>60.0</ele><time>2026-03-25T14:25:17.051Z</time></trkpt><trkpt lat="44.13419" lon="12.0833767"><ele>60.4</ele><time>2026-03-25T14:25:19.051Z</time></trkpt><trkpt lat="44.13423" lon="12.08352"><ele>60.8</ele><time>2026-03-25T14:25:21.05Z</time></trkpt><trkpt lat="44.1342783" lon="12.083665"><ele>61.2</ele><time>2026-03-25T14:25:23.051Z</time></trkpt><trkpt lat="44.134325" lon="12.0838033"><ele>61.6</ele><time>2026-03-25T14:25:25.051Z</time></trkpt><trkpt lat="44.1343733" lon="12.0839417"><ele>62.0</ele><time>2026-03-25T14:25:27.051Z</time></trkpt><trkpt lat="44.1344283" lon="12.08408"><ele>62.8</ele><time>2026-03-25T14:25:29.051Z</time></trkpt><trkpt lat="44.1344983" lon="12.0842117"><ele>63.6</ele><time>2026-03-25T14:25:31.051Z</time></trkpt><trkpt lat="44.13458" lon="12.0843383"><ele>64.39999999999999</ele><time>2026-03-25T14:25:33.05Z</time></trkpt><trkpt lat="44.134625" lon="12.0844167"><ele>65.2</ele><time>2026-03-25T14:25:34.05Z</time></trkpt><trkpt lat="44.1346667" lon="12.084495"><ele>66.0</ele><time>2026-03-25T14:25:35.05Z</time></trkpt><trkpt lat="44.1347117" lon="12.08457"><ele>66.0</ele><time>2026-03-25T14:25:36.05Z</time></trkpt><trkpt lat="44.1347583" lon="12.084645"><ele>66.0</ele><time>2026-03-25T14:25:37.051Z</time></trkpt><trkpt lat="44.1348083" lon="12.0847167"><ele>66.0</ele><time>2026-03-25T14:25:38.05Z</time></trkpt><trkpt lat="44.13486" lon="12.0847867"><ele>66.0</ele><time>2026-03-25T14:25:39.05Z</time></trkpt><trkpt lat="44.134915" lon="12.0848517"><ele>66.0</ele><time>2026-03-25T14:25:40.05Z</time></trkpt><trkpt lat="44.1349717" lon="12.0849217"><ele>66.0</ele><time>2026-03-25T14:25:41.05Z</time></trkpt><trkpt lat="44.1350317" lon="12.0849833"><ele>66.0</ele><time>2026-03-25T14:25:42.051Z</time></trkpt><trkpt lat="44.1350917" lon="12.0850417"><ele>65.57142857142857</ele><time>2026-03-25T14:25:43.051Z</time></trkpt><trkpt lat="44.1351467" lon="12.085105"><ele>65.14285714285714</ele><time>2026-03-25T14:25:44.05Z</time></trkpt><trkpt lat="44.135205" lon="12.0851617"><ele>64.71428571428572</ele><time>2026-03-25T14:25:45.05Z</time></trkpt><trkpt lat="44.1352583" lon="12.0852183"><ele>64.28571428571428</ele><time>2026-03-25T14:25:46.051Z</time></trkpt><trkpt lat="44.1353167" lon="12.0852767"><ele>63.85714285714286</ele><time>2026-03-25T14:25:47.05Z</time></trkpt><trkpt lat="44.135375" lon="12.0853333"><ele>63.42857142857143</ele><time>2026-03-25T14:25:48.051Z</time></trkpt><trkpt lat="44.135425" lon="12.0853917"><ele>63.0</ele><time>2026-03-25T14:25:49.05Z</time></trkpt><trkpt lat="44.1354767" lon="12.0854517"><ele>63.0</ele><time>2026-03-25T14:25:50.051Z</time></trkpt><trkpt lat="44.1355267" lon="12.0855067"><ele>63.0</ele><time>2026-03-25T14:25:51.05Z</time></trkpt><trkpt lat="44.135585" lon="12.0855633"><ele>63.0</ele><time>2026-03-25T14:25:52.05Z</time></trkpt><trkpt lat="44.135645" lon="12.0856217"><ele>63.0</ele><time>2026-03-25T14:25:53.051Z</time></trkpt><trkpt lat="44.1357017" lon="12.085685"><ele>63.0</ele><time>2026-03-25T14:25:54.051Z</time></trkpt><trkpt lat="44.1357567" lon="12.08574"><ele>63.0</ele><time>2026-03-25T14:25:55.05Z</time></trkpt><trkpt lat="44.1358183" lon="12.0858"><ele>63.0</ele><time>2026-03-25T14:25:56.051Z</time></trkpt><trkpt lat="44.1358783" lon="12.0858533"><ele>62.85714285714286</ele><time>2026-03-25T14:25:57.051Z</time></trkpt><trkpt lat="44.1359383" lon="12.0859133"><ele>62.714285714285715</ele><time>2026-03-25T14:25:58.051Z</time></trkpt><trkpt lat="44.1359967" lon="12.08598"><ele>62.57142857142857</ele><time>2026-03-25T14:25:59.051Z</time></trkpt><trkpt lat="44.136055" lon="12.0860467"><ele>62.42857142857143</ele><time>2026-03-25T14:26:00.051Z</time></trkpt><trkpt lat="44.13611" lon="12.08611"><ele>62.28571428571429</ele><time>2026-03-25T14:26:01.05Z</time></trkpt><trkpt lat="44.136165" lon="12.08617"><ele>62.142857142857146</ele><time>2026-03-25T14:26:02.051Z</time></trkpt><trkpt lat="44.1362183" lon="12.0862317"><ele>62.0</ele><time>2026-03-25T14:26:03.05Z</time></trkpt><trkpt lat="44.136275" lon="12.0862917"><ele>62.0</ele><time>2026-03-25T14:26:04.05Z</time></trkpt><trkpt lat="44.1363367" lon="12.0863583"><ele>62.00000000000001</ele><time>2026-03-25T14:26:05.051Z</time></trkpt><trkpt lat="44.1363967" lon="12.0864117"><ele>62.0</ele><time>2026-03-25T14:26:06.05Z</time></trkpt><trkpt lat="44.1364533" lon="12.0864717"><ele>62.0</ele><time>2026-03-25T14:26:07.051Z</time></trkpt><trkpt lat="44.13651" lon="12.0865333"><ele>62.00000000000001</ele><time>2026-03-25T14:26:08.051Z</time></trkpt><trkpt lat="44.13657" lon="12.0865967"><ele>62.0</ele><time>2026-03-25T14:26:09.051Z</time></trkpt><trkpt lat="44.1366233" lon="12.086665"><ele>62.0</ele><time>2026-03-25T14:26:10.05Z</time></trkpt><trkpt lat="44.13668" lon="12.086725"><ele>62.0</ele><time>2026-03-25T14:26:11.05Z</time></trkpt><trkpt lat="44.13674" lon="12.0867833"><ele>62.00000000000001</ele><time>2026-03-25T14:26:12.05Z</time></trkpt><trkpt lat="44.1367983" lon="12.0868417"><ele>62.0</ele><time>2026-03-25T14:26:13.051Z</time></trkpt><trkpt lat="44.1368567" lon="12.0869033"><ele>62.0</ele><time>2026-03-25T14:26:14.05Z</time></trkpt><trkpt lat="44.136915" lon="12.0869633"><ele>62.00000000000001</ele><time>2026-03-25T14:26:15.05Z</time></trkpt><trkpt lat="44.1369733" lon="12.0870183"><ele>62.0</ele><time>2026-03-25T14:26:16.05Z</time></trkpt><trkpt lat="44.1370283" lon="12.087075"><ele>62.0</ele><time>2026-03-25T14:26:17.051Z</time></trkpt><trkpt lat="44.137085" lon="12.087135"><ele>62.0</ele><time>2026-03-25T14:26:18.051Z</time></trkpt><trkpt lat="44.1371417" lon="12.0871967"><ele>62.00000000000001</ele><time>2026-03-25T14:26:19.051Z</time></trkpt><trkpt lat="44.137195" lon="12.087255"><ele>62.0</ele><time>2026-03-25T14:26:20.051Z</time></trkpt><trkpt lat="44.137255" lon="12.0873117"><ele>62.0</ele><time>2026-03-25T14:26:21.051Z</time></trkpt><trkpt lat="44.1373067" lon="12.0873733"><ele>62.00000000000001</ele><time>2026-03-25T14:26:22.051Z</time></trkpt><trkpt lat="44.137365" lon="12.08743"><ele>62.0</ele><time>2026-03-25T14:26:23.05Z</time></trkpt><trkpt lat="44.1374217" lon="12.0874917"><ele>62.0</ele><time>2026-03-25T14:26:24.051Z</time></trkpt><trkpt lat="44.13748" lon="12.087555"><ele>62.0</ele><time>2026-03-25T14:26:25.051Z</time></trkpt><trkpt lat="44.1375367" lon="12.08762"><ele>62.00000000000001</ele><time>2026-03-25T14:26:26.05Z</time></trkpt><trkpt lat="44.1376" lon="12.0876817"><ele>62.0</ele><time>2026-03-25T14:26:27.05Z</time></trkpt><trkpt lat="44.1376633" lon="12.0877517"><ele>62.0</ele><time>2026-03-25T14:26:28.051Z</time></trkpt><trkpt lat="44.13772" lon="12.0878133"><ele>62.00000000000001</ele><time>2026-03-25T14:26:29.051Z</time></trkpt><trkpt lat="44.1377783" lon="12.0878767"><ele>62.0</ele><time>2026-03-25T14:26:30.051Z</time></trkpt><trkpt lat="44.1378333" lon="12.08794"><ele>62.0</ele><time>2026-03-25T14:26:31.051Z</time></trkpt><trkpt lat="44.13789" lon="12.0880017"><ele>62.0</ele><time>2026-03-25T14:26:32.051Z</time></trkpt><trkpt lat="44.13795" lon="12.0880633"><ele>62.00000000000001</ele><time>2026-03-25T14:26:33.05Z</time></trkpt><trkpt lat="44.1380117" lon="12.0881183"><ele>62.0</ele><time>2026-03-25T14:26:34.051Z</time></trkpt><trkpt lat="44.1380683" lon="12.088175"><ele>62.0</ele><time>2026-03-25T14:26:35.051Z</time></trkpt><trkpt lat="44.1381233" lon="12.0882367"><ele>62.00000000000001</ele><time>2026-03-25T14:26:36.05Z</time></trkpt><trkpt lat="44.13818" lon="12.08831"><ele>62.0</ele><time>2026-03-25T14:26:37.051Z</time></trkpt><trkpt lat="44.1382317" lon="12.0883633"><ele>62.0</ele><time>2026-03-25T14:26:38.05Z</time></trkpt><trkpt lat="44.13828" lon="12.0884283"><ele>61.66666666666667</ele><time>2026-03-25T14:26:39.05Z</time></trkpt><trkpt lat="44.13833" lon="12.0884867"><ele>61.333333333333336</ele><time>2026-03-25T14:26:40.05Z</time></trkpt><trkpt lat="44.13839" lon="12.0885467"><ele>61.0</ele><time>2026-03-25T14:26:41.051Z</time></trkpt><trkpt lat="44.138445" lon="12.0886083"><ele>60.66666666666667</ele><time>2026-03-25T14:26:42.051Z</time></trkpt><trkpt lat="44.1385033" lon="12.0886633"><ele>60.333333333333336</ele><time>2026-03-25T14:26:43.05Z</time></trkpt><trkpt lat="44.1385567" lon="12.08872"><ele>60.0</ele><time>2026-03-25T14:26:44.05Z</time></trkpt><trkpt lat="44.138655" lon="12.0888233"><ele>60.0</ele><time>2026-03-25T14:26:46.051Z</time></trkpt><trkpt lat="44.1387083" lon="12.08888"><ele>60.0</ele><time>2026-03-25T14:26:47.051Z</time></trkpt><trkpt lat="44.1387683" lon="12.0889417"><ele>60.0</ele><time>2026-03-25T14:26:48.051Z</time></trkpt><trkpt lat="44.1388233" lon="12.0890033"><ele>60.0</ele><time>2026-03-25T14:26:49.051Z</time></trkpt><trkpt lat="44.1388767" lon="12.0890583"><ele>60.0</ele><time>2026-03-25T14:26:50.051Z</time></trkpt><trkpt lat="44.1389317" lon="12.089115"><ele>60.0</ele><time>2026-03-25T14:26:51.05Z</time></trkpt><trkpt lat="44.1389867" lon="12.0891767"><ele>60.0</ele><time>2026-03-25T14:26:52.051Z</time></trkpt><trkpt lat="44.1390433" lon="12.0892317"><ele>60.0</ele><time>2026-03-25T14:26:53.051Z</time></trkpt><trkpt lat="44.1390967" lon="12.0892883"><ele>60.0</ele><time>2026-03-25T14:26:54.05Z</time></trkpt><trkpt lat="44.13915" lon="12.0893467"><ele>60.0</ele><time>2026-03-25T14:26:55.051Z</time></trkpt><trkpt lat="44.1392067" lon="12.0894083"><ele>60.0</ele><time>2026-03-25T14:26:56.051Z</time></trkpt><trkpt lat="44.1392617" lon="12.08946"><ele>60.0</ele><time>2026-03-25T14:26:57.05Z</time></trkpt><trkpt lat="44.139315" lon="12.089515"><ele>60.0</ele><time>2026-03-25T14:26:58.051Z</time></trkpt><trkpt lat="44.139365" lon="12.0895733"><ele>60.0</ele><time>2026-03-25T14:26:59.051Z</time></trkpt><trkpt lat="44.13942" lon="12.0896283"><ele>60.0</ele><time>2026-03-25T14:27:00.05Z</time></trkpt><trkpt lat="44.1394667" lon="12.0896883"><ele>60.0</ele><time>2026-03-25T14:27:01.05Z</time></trkpt><trkpt lat="44.1395533" lon="12.0898067"><ele>60.0</ele><time>2026-03-25T14:27:03.05Z</time></trkpt><trkpt lat="44.1396" lon="12.0898683"><ele>60.0</ele><time>2026-03-25T14:27:04.05Z</time></trkpt><trkpt lat="44.1396417" lon="12.0899367"><ele>60.0</ele><time>2026-03-25T14:27:05.051Z</time></trkpt><trkpt lat="44.13969" lon="12.0900067"><ele>60.0</ele><time>2026-03-25T14:27:06.051Z</time></trkpt><trkpt lat="44.13974" lon="12.0900833"><ele>60.833333333333336</ele><time>2026-03-25T14:27:07.05Z</time></trkpt><trkpt lat="44.1397867" lon="12.0901683"><ele>61.66666666666667</ele><time>2026-03-25T14:27:08.05Z</time></trkpt><trkpt lat="44.1398317" lon="12.0902517"><ele>62.5</ele><time>2026-03-25T14:27:09.051Z</time></trkpt><trkpt lat="44.13987" lon="12.09033"><ele>63.333333333333336</ele><time>2026-03-25T14:27:10.05Z</time></trkpt><trkpt lat="44.1399067" lon="12.090405"><ele>64.16666666666667</ele><time>2026-03-25T14:27:11.05Z</time></trkpt><trkpt lat="44.13994" lon="12.0904833"><ele>65.0</ele><time>2026-03-25T14:27:12.051Z</time></trkpt><trkpt lat="44.1400067" lon="12.090635"><ele>65.33333333333334</ele><time>2026-03-25T14:27:14.05Z</time></trkpt><trkpt lat="44.14007" lon="12.0907767"><ele>65.66666666666667</ele><time>2026-03-25T14:27:16.051Z</time></trkpt><trkpt lat="44.1401" lon="12.090855"><ele>66.0</ele><time>2026-03-25T14:27:17.05Z</time></trkpt><trkpt lat="44.140155" lon="12.091"><ele>66.33333333333333</ele><time>2026-03-25T14:27:19.051Z</time></trkpt><trkpt lat="44.1401833" lon="12.0910817"><ele>66.66666666666666</ele><time>2026-03-25T14:27:20.05Z</time></trkpt><trkpt lat="44.1402133" lon="12.0911633"><ele>67.0</ele><time>2026-03-25T14:27:21.051Z</time></trkpt><trkpt lat="44.1402467" lon="12.09124"><ele>67.0</ele><time>2026-03-25T14:27:22.05Z</time></trkpt><trkpt lat="44.1402783" lon="12.0913217"><ele>67.0</ele><time>2026-03-25T14:27:23.051Z</time></trkpt><trkpt lat="44.1403117" lon="12.091405"><ele>67.0</ele><time>2026-03-25T14:27:24.05Z</time></trkpt><trkpt lat="44.1403433" lon="12.0914933"><ele>67.0</ele><time>2026-03-25T14:27:25.05Z</time></trkpt><trkpt lat="44.1403833" lon="12.0915817"><ele>67.0</ele><time>2026-03-25T14:27:26.05Z</time></trkpt><trkpt lat="44.1404217" lon="12.09167"><ele>67.0</ele><time>2026-03-25T14:27:27.051Z</time></trkpt><trkpt lat="44.1404583" lon="12.0917567"><ele>67.0</ele><time>2026-03-25T14:27:28.051Z</time></trkpt><trkpt lat="44.140495" lon="12.0918467"><ele>67.0</ele><time>2026-03-25T14:27:29.051Z</time></trkpt><trkpt lat="44.14053" lon="12.0919383"><ele>67.0</ele><time>2026-03-25T14:27:30.05Z</time></trkpt><trkpt lat="44.140565" lon="12.0920333"><ele>67.0</ele><time>2026-03-25T14:27:31.05Z</time></trkpt><trkpt lat="44.140605" lon="12.0921283"><ele>67.0</ele><time>2026-03-25T14:27:32.05Z</time></trkpt><trkpt lat="44.1406433" lon="12.0922233"><ele>67.0</ele><time>2026-03-25T14:27:33.051Z</time></trkpt><trkpt lat="44.1406817" lon="12.092315"><ele>67.0</ele><time>2026-03-25T14:27:34.051Z</time></trkpt><trkpt lat="44.1407217" lon="12.0924067"><ele>66.5</ele><time>2026-03-25T14:27:35.05Z</time></trkpt><trkpt lat="44.1407617" lon="12.092505"><ele>66.0</ele><time>2026-03-25T14:27:36.051Z</time></trkpt><trkpt lat="44.1408017" lon="12.0926017"><ele>65.5</ele><time>2026-03-25T14:27:37.051Z</time></trkpt><trkpt lat="44.14084" lon="12.0926933"><ele>65.0</ele><time>2026-03-25T14:27:38.05Z</time></trkpt><trkpt lat="44.1408783" lon="12.0927967"><ele>64.5</ele><time>2026-03-25T14:27:39.051Z</time></trkpt><trkpt lat="44.140915" lon="12.0929017"><ele>64.0</ele><time>2026-03-25T14:27:40.051Z</time></trkpt><trkpt lat="44.1409617" lon="12.093005"><ele>63.99999999999999</ele><time>2026-03-25T14:27:41.051Z</time></trkpt><trkpt lat="44.1410033" lon="12.0931067"><ele>64.0</ele><time>2026-03-25T14:27:42.05Z</time></trkpt><trkpt lat="44.1410433" lon="12.0932117"><ele>64.0</ele><time>2026-03-25T14:27:43.05Z</time></trkpt><trkpt lat="44.1410867" lon="12.0933167"><ele>64.0</ele><time>2026-03-25T14:27:44.05Z</time></trkpt><trkpt lat="44.1411317" lon="12.0934217"><ele>63.99999999999999</ele><time>2026-03-25T14:27:45.051Z</time></trkpt><trkpt lat="44.1411783" lon="12.0935267"><ele>64.0</ele><time>2026-03-25T14:27:46.051Z</time></trkpt><trkpt lat="44.1412183" lon="12.09363"><ele>64.4</ele><time>2026-03-25T14:27:47.05Z</time></trkpt><trkpt lat="44.14126" lon="12.093735"><ele>64.80000000000001</ele><time>2026-03-25T14:27:48.05Z</time></trkpt><trkpt lat="44.1413033" lon="12.093845"><ele>65.19999999999999</ele><time>2026-03-25T14:27:49.051Z</time></trkpt><trkpt lat="44.1413433" lon="12.093955"><ele>65.6</ele><time>2026-03-25T14:27:50.051Z</time></trkpt><trkpt lat="44.141385" lon="12.0940717"><ele>66.0</ele><time>2026-03-25T14:27:51.05Z</time></trkpt><trkpt lat="44.1414317" lon="12.0941867"><ele>66.0</ele><time>2026-03-25T14:27:52.051Z</time></trkpt><trkpt lat="44.1414783" lon="12.09431"><ele>66.0</ele><time>2026-03-25T14:27:53.051Z</time></trkpt><trkpt lat="44.1415233" lon="12.094435"><ele>66.0</ele><time>2026-03-25T14:27:54.051Z</time></trkpt><trkpt lat="44.141575" lon="12.094565"><ele>66.0</ele><time>2026-03-25T14:27:55.051Z</time></trkpt><trkpt lat="44.141625" lon="12.09469"><ele>66.0</ele><time>2026-03-25T14:27:56.051Z</time></trkpt><trkpt lat="44.1416733" lon="12.09482"><ele>64.8</ele><time>2026-03-25T14:27:57.051Z</time></trkpt><trkpt lat="44.14172" lon="12.0949483"><ele>63.599999999999994</ele><time>2026-03-25T14:27:58.051Z</time></trkpt><trkpt lat="44.1417717" lon="12.095075"><ele>62.4</ele><time>2026-03-25T14:27:59.05Z</time></trkpt><trkpt lat="44.1418283" lon="12.0952033"><ele>61.2</ele><time>2026-03-25T14:28:00.05Z</time></trkpt><trkpt lat="44.14188" lon="12.09533"><ele>60.0</ele><time>2026-03-25T14:28:01.05Z</time></trkpt><trkpt lat="44.14193" lon="12.0954583"><ele>60.0</ele><time>2026-03-25T14:28:02.05Z</time></trkpt><trkpt lat="44.1419817" lon="12.095585"><ele>60.0</ele><time>2026-03-25T14:28:03.051Z</time></trkpt><trkpt lat="44.1420317" lon="12.095715"><ele>60.0</ele><time>2026-03-25T14:28:04.05Z</time></trkpt><trkpt lat="44.1420833" lon="12.0958383"><ele>60.0</ele><time>2026-03-25T14:28:05.051Z</time></trkpt><trkpt lat="44.14214" lon="12.0959617"><ele>60.0</ele><time>2026-03-25T14:28:06.051Z</time></trkpt><trkpt lat="44.1421967" lon="12.09608"><ele>60.0</ele><time>2026-03-25T14:28:07.05Z</time></trkpt><trkpt lat="44.1422567" lon="12.096195"><ele>60.0</ele><time>2026-03-25T14:28:08.051Z</time></trkpt><trkpt lat="44.142315" lon="12.0963217"><ele>60.0</ele><time>2026-03-25T14:28:09.05Z</time></trkpt><trkpt lat="44.142375" lon="12.0964433"><ele>60.0</ele><time>2026-03-25T14:28:10.051Z</time></trkpt><trkpt lat="44.1424417" lon="12.0965733"><ele>60.0</ele><time>2026-03-25T14:28:11.051Z</time></trkpt><trkpt lat="44.1425117" lon="12.0967017"><ele>59.0</ele><time>2026-03-25T14:28:12.05Z</time></trkpt><trkpt lat="44.1425567" lon="12.0968367"><ele>58.0</ele><time>2026-03-25T14:28:13.05Z</time></trkpt><trkpt lat="44.1426" lon="12.0969667"><ele>57.0</ele><time>2026-03-25T14:28:14.05Z</time></trkpt><trkpt lat="44.1426383" lon="12.097095"><ele>56.0</ele><time>2026-03-25T14:28:15.05Z</time></trkpt><trkpt lat="44.142685" lon="12.0972217"><ele>55.0</ele><time>2026-03-25T14:28:16.051Z</time></trkpt><trkpt lat="44.1427267" lon="12.0973467"><ele>55.6</ele><time>2026-03-25T14:28:17.051Z</time></trkpt><trkpt lat="44.1427767" lon="12.0974717"><ele>56.2</ele><time>2026-03-25T14:28:18.05Z</time></trkpt><trkpt lat="44.1428367" lon="12.0975883"><ele>56.8</ele><time>2026-03-25T14:28:19.051Z</time></trkpt><trkpt lat="44.142895" lon="12.097705"><ele>57.4</ele><time>2026-03-25T14:28:20.051Z</time></trkpt><trkpt lat="44.1429483" lon="12.09781"><ele>58.0</ele><time>2026-03-25T14:28:21.051Z</time></trkpt><trkpt lat="44.1429967" lon="12.0979167"><ele>58.0</ele><time>2026-03-25T14:28:22.05Z</time></trkpt><trkpt lat="44.1430533" lon="12.0980233"><ele>58.0</ele><time>2026-03-25T14:28:23.051Z</time></trkpt><trkpt lat="44.14311" lon="12.0981317"><ele>58.0</ele><time>2026-03-25T14:28:24.05Z</time></trkpt><trkpt lat="44.1431617" lon="12.098245"><ele>58.0</ele><time>2026-03-25T14:28:25.051Z</time></trkpt><trkpt lat="44.143215" lon="12.0983583"><ele>58.0</ele><time>2026-03-25T14:28:26.051Z</time></trkpt><trkpt lat="44.14327" lon="12.0984667"><ele>56.8</ele><time>2026-03-25T14:28:27.05Z</time></trkpt><trkpt lat="44.143325" lon="12.0985783"><ele>55.599999999999994</ele><time>2026-03-25T14:28:28.051Z</time></trkpt><trkpt lat="44.1433783" lon="12.0986883"><ele>54.400000000000006</ele><time>2026-03-25T14:28:29.05Z</time></trkpt><trkpt lat="44.14344" lon="12.0987933"><ele>53.2</ele><time>2026-03-25T14:28:30.05Z</time></trkpt><trkpt lat="44.143505" lon="12.098905"><ele>52.0</ele><time>2026-03-25T14:28:31.051Z</time></trkpt><trkpt lat="44.143575" lon="12.0990183"><ele>51.5</ele><time>2026-03-25T14:28:32.05Z</time></trkpt><trkpt lat="44.143645" lon="12.099135"><ele>51.0</ele><time>2026-03-25T14:28:33.05Z</time></trkpt><trkpt lat="44.1437283" lon="12.0992483"><ele>50.5</ele><time>2026-03-25T14:28:34.051Z</time></trkpt><trkpt lat="44.1438017" lon="12.09938"><ele>50.0</ele><time>2026-03-25T14:28:35.051Z</time></trkpt><trkpt lat="44.1438633" lon="12.0995167"><ele>50.0</ele><time>2026-03-25T14:28:36.051Z</time></trkpt><trkpt lat="44.143925" lon="12.09966"><ele>50.0</ele><time>2026-03-25T14:28:37.05Z</time></trkpt><trkpt lat="44.143965" lon="12.0998017"><ele>50.0</ele><time>2026-03-25T14:28:38.05Z</time></trkpt><trkpt lat="44.144" lon="12.0999433"><ele>50.0</ele><time>2026-03-25T14:28:39.05Z</time></trkpt><trkpt lat="44.1440117" lon="12.1000883"><ele>50.0</ele><time>2026-03-25T14:28:40.05Z</time></trkpt><trkpt lat="44.1439967" lon="12.1002233"><ele>49.66666666666667</ele><time>2026-03-25T14:28:41.05Z</time></trkpt><trkpt lat="44.143985" lon="12.10036"><ele>49.333333333333336</ele><time>2026-03-25T14:28:42.051Z</time></trkpt><trkpt lat="44.1439767" lon="12.10049"><ele>49.0</ele><time>2026-03-25T14:28:43.05Z</time></trkpt><trkpt lat="44.143965" lon="12.1006117"><ele>48.66666666666667</ele><time>2026-03-25T14:28:44.051Z</time></trkpt><trkpt lat="44.14395" lon="12.1007283"><ele>48.333333333333336</ele><time>2026-03-25T14:28:45.051Z</time></trkpt><trkpt lat="44.1439367" lon="12.100835"><ele>48.0</ele><time>2026-03-25T14:28:46.051Z</time></trkpt><trkpt lat="44.1439267" lon="12.1009367"><ele>48.0</ele><time>2026-03-25T14:28:47.05Z</time></trkpt><trkpt lat="44.1439183" lon="12.1010333"><ele>48.0</ele><time>2026-03-25T14:28:48.051Z</time></trkpt><trkpt lat="44.1439067" lon="12.1011333"><ele>48.0</ele><time>2026-03-25T14:28:49.05Z</time></trkpt><trkpt lat="44.143895" lon="12.1012233"><ele>48.0</ele><time>2026-03-25T14:28:50.051Z</time></trkpt><trkpt lat="44.1438767" lon="12.101385"><ele>48.0</ele><time>2026-03-25T14:28:52.05Z</time></trkpt><trkpt lat="44.143865" lon="12.1015217"><ele>48.0</ele><time>2026-03-25T14:28:54.05Z</time></trkpt><trkpt lat="44.14385" lon="12.1016267"><ele>48.5</ele><time>2026-03-25T14:28:56.05Z</time></trkpt><trkpt lat="44.1438583" lon="12.1017383"><ele>49.0</ele><time>2026-03-25T14:28:59.051Z</time></trkpt><trkpt lat="44.1439217" lon="12.1017583"><ele>49.5</ele><time>2026-03-25T14:29:01.051Z</time></trkpt><trkpt lat="44.14399" lon="12.10174"><ele>50.0</ele><time>2026-03-25T14:29:03.051Z</time></trkpt><trkpt lat="44.1440633" lon="12.10172"><ele>50.5</ele><time>2026-03-25T14:29:05.051Z</time></trkpt><trkpt lat="44.14415" lon="12.1016883"><ele>51.0</ele><time>2026-03-25T14:29:07.05Z</time></trkpt><trkpt lat="44.1442467" lon="12.1016517"><ele>51.0</ele><time>2026-03-25T14:29:09.051Z</time></trkpt><trkpt lat="44.1443433" lon="12.1015983"><ele>51.0</ele><time>2026-03-25T14:29:11.05Z</time></trkpt><trkpt lat="44.1444467" lon="12.101555"><ele>51.0</ele><time>2026-03-25T14:29:13.051Z</time></trkpt><trkpt lat="44.1445633" lon="12.101515"><ele>51.0</ele><time>2026-03-25T14:29:15.05Z</time></trkpt><trkpt lat="44.1446817" lon="12.1014567"><ele>50.4</ele><time>2026-03-25T14:29:17.05Z</time></trkpt><trkpt lat="44.1447983" lon="12.1014017"><ele>49.8</ele><time>2026-03-25T14:29:19.05Z</time></trkpt><trkpt lat="44.1449183" lon="12.101365"><ele>49.199999999999996</ele><time>2026-03-25T14:29:21.05Z</time></trkpt><trkpt lat="44.144985" lon="12.101345"><ele>48.599999999999994</ele><time>2026-03-25T14:29:22.05Z</time></trkpt><trkpt lat="44.1450483" lon="12.10132"><ele>48.0</ele><time>2026-03-25T14:29:23.051Z</time></trkpt><trkpt lat="44.1451633" lon="12.10127"><ele>47.599999999999994</ele><time>2026-03-25T14:29:25.05Z</time></trkpt><trkpt lat="44.1452683" lon="12.1012233"><ele>47.199999999999996</ele><time>2026-03-25T14:29:27.05Z</time></trkpt><trkpt lat="44.14538" lon="12.1011633"><ele>46.8</ele><time>2026-03-25T14:29:29.05Z</time></trkpt><trkpt lat="44.1454833" lon="12.1011017"><ele>46.4</ele><time>2026-03-25T14:29:31.05Z</time></trkpt><trkpt lat="44.14555" lon="12.10108"><ele>46.0</ele><time>2026-03-25T14:29:32.05Z</time></trkpt><trkpt lat="44.145615" lon="12.1010617"><ele>46.5</ele><time>2026-03-25T14:29:33.051Z</time></trkpt><trkpt lat="44.1457367" lon="12.1010217"><ele>47.0</ele><time>2026-03-25T14:29:35.051Z</time></trkpt><trkpt lat="44.1458567" lon="12.1009733"><ele>47.5</ele><time>2026-03-25T14:29:37.05Z</time></trkpt><trkpt lat="44.1459667" lon="12.1009167"><ele>48.0</ele><time>2026-03-25T14:29:39.05Z</time></trkpt><trkpt lat="44.14608" lon="12.1008783"><ele>48.0</ele><time>2026-03-25T14:29:41.051Z</time></trkpt><trkpt lat="44.146185" lon="12.1008267"><ele>48.0</ele><time>2026-03-25T14:29:43.051Z</time></trkpt><trkpt lat="44.1463" lon="12.1007717"><ele>48.0</ele><time>2026-03-25T14:29:45.05Z</time></trkpt><trkpt lat="44.1464083" lon="12.100715"><ele>48.0</ele><time>2026-03-25T14:29:47.05Z</time></trkpt><trkpt lat="44.1465117" lon="12.1006733"><ele>47.4</ele><time>2026-03-25T14:29:49.05Z</time></trkpt><trkpt lat="44.14661" lon="12.1006367"><ele>46.8</ele><time>2026-03-25T14:29:51.05Z</time></trkpt><trkpt lat="44.14672" lon="12.1006033"><ele>46.2</ele><time>2026-03-25T14:29:53.05Z</time></trkpt><trkpt lat="44.1468167" lon="12.10054"><ele>45.6</ele><time>2026-03-25T14:29:55.051Z</time></trkpt><trkpt lat="44.1468817" lon="12.10052"><ele>45.0</ele><time>2026-03-25T14:29:56.051Z</time></trkpt><trkpt lat="44.1469933" lon="12.10048"><ele>45.0</ele><time>2026-03-25T14:29:58.05Z</time></trkpt><trkpt lat="44.147095" lon="12.1004367"><ele>45.0</ele><time>2026-03-25T14:30:00.051Z</time></trkpt><trkpt lat="44.1471567" lon="12.1004183"><ele>45.0</ele><time>2026-03-25T14:30:01.05Z</time></trkpt><trkpt lat="44.1472667" lon="12.1003833"><ele>45.0</ele><time>2026-03-25T14:30:03.051Z</time></trkpt><trkpt lat="44.1473317" lon="12.1003733"><ele>45.0</ele><time>2026-03-25T14:30:04.051Z</time></trkpt><trkpt lat="44.1474533" lon="12.1003367"><ele>44.857142857142854</ele><time>2026-03-25T14:30:06.051Z</time></trkpt><trkpt lat="44.1475217" lon="12.1003183"><ele>44.714285714285715</ele><time>2026-03-25T14:30:07.051Z</time></trkpt><trkpt lat="44.1475917" lon="12.1003"><ele>44.57142857142857</ele><time>2026-03-25T14:30:08.051Z</time></trkpt><trkpt lat="44.1476567" lon="12.1002767"><ele>44.42857142857143</ele><time>2026-03-25T14:30:09.05Z</time></trkpt><trkpt lat="44.147725" lon="12.1002567"><ele>44.285714285714285</ele><time>2026-03-25T14:30:10.051Z</time></trkpt><trkpt lat="44.1478" lon="12.1002467"><ele>44.142857142857146</ele><time>2026-03-25T14:30:11.05Z</time></trkpt><trkpt lat="44.14787" lon="12.1002283"><ele>44.0</ele><time>2026-03-25T14:30:12.05Z</time></trkpt><trkpt lat="44.1479417" lon="12.1002133"><ele>44.0</ele><time>2026-03-25T14:30:13.051Z</time></trkpt><trkpt lat="44.1480133" lon="12.1001917"><ele>44.0</ele><time>2026-03-25T14:30:14.05Z</time></trkpt><trkpt lat="44.1480833" lon="12.1001667"><ele>44.0</ele><time>2026-03-25T14:30:15.05Z</time></trkpt><trkpt lat="44.1481533" lon="12.10014"><ele>44.0</ele><time>2026-03-25T14:30:16.051Z</time></trkpt><trkpt lat="44.1482233" lon="12.1001117"><ele>44.0</ele><time>2026-03-25T14:30:17.05Z</time></trkpt><trkpt lat="44.1482917" lon="12.1001"><ele>44.0</ele><time>2026-03-25T14:30:18.051Z</time></trkpt><trkpt lat="44.1483567" lon="12.100095"><ele>44.0</ele><time>2026-03-25T14:30:19.051Z</time></trkpt><trkpt lat="44.1484217" lon="12.1000867"><ele>44.0</ele><time>2026-03-25T14:30:20.05Z</time></trkpt><trkpt lat="44.1484867" lon="12.10008"><ele>44.0</ele><time>2026-03-25T14:30:21.051Z</time></trkpt><trkpt lat="44.148615" lon="12.1000633"><ele>44.0</ele><time>2026-03-25T14:30:23.051Z</time></trkpt><trkpt lat="44.1486817" lon="12.1000633"><ele>44.0</ele><time>2026-03-25T14:30:24.05Z</time></trkpt><trkpt lat="44.1487483" lon="12.10007"><ele>44.0</ele><time>2026-03-25T14:30:25.05Z</time></trkpt><trkpt lat="44.1488167" lon="12.10009"><ele>44.0</ele><time>2026-03-25T14:30:26.051Z</time></trkpt><trkpt lat="44.1488867" lon="12.100115"><ele>44.0</ele><time>2026-03-25T14:30:27.051Z</time></trkpt><trkpt lat="44.1489567" lon="12.100145"><ele>44.0</ele><time>2026-03-25T14:30:28.051Z</time></trkpt><trkpt lat="44.1490217" lon="12.1001783"><ele>44.0</ele><time>2026-03-25T14:30:29.051Z</time></trkpt><trkpt lat="44.1490867" lon="12.1002217"><ele>44.0</ele><time>2026-03-25T14:30:30.05Z</time></trkpt><trkpt lat="44.149155" lon="12.100275"><ele>44.0</ele><time>2026-03-25T14:30:31.051Z</time></trkpt><trkpt lat="44.1492183" lon="12.1003217"><ele>44.0</ele><time>2026-03-25T14:30:32.051Z</time></trkpt><trkpt lat="44.1492817" lon="12.1003683"><ele>44.0</ele><time>2026-03-25T14:30:33.051Z</time></trkpt><trkpt lat="44.1493433" lon="12.1004217"><ele>44.142857142857146</ele><time>2026-03-25T14:30:34.05Z</time></trkpt><trkpt lat="44.14941" lon="12.100465"><ele>44.285714285714285</ele><time>2026-03-25T14:30:35.05Z</time></trkpt><trkpt lat="44.149475" lon="12.1005067"><ele>44.42857142857143</ele><time>2026-03-25T14:30:36.05Z</time></trkpt><trkpt lat="44.1495383" lon="12.10055"><ele>44.57142857142857</ele><time>2026-03-25T14:30:37.051Z</time></trkpt><trkpt lat="44.1496017" lon="12.1005933"><ele>44.714285714285715</ele><time>2026-03-25T14:30:38.05Z</time></trkpt><trkpt lat="44.1496683" lon="12.100635"><ele>44.857142857142854</ele><time>2026-03-25T14:30:39.051Z</time></trkpt><trkpt lat="44.1497333" lon="12.1006733"><ele>45.0</ele><time>2026-03-25T14:30:40.05Z</time></trkpt><trkpt lat="44.1497983" lon="12.1007133"><ele>45.14285714285714</ele><time>2026-03-25T14:30:41.05Z</time></trkpt><trkpt lat="44.1498583" lon="12.1007633"><ele>45.28571428571429</ele><time>2026-03-25T14:30:42.051Z</time></trkpt><trkpt lat="44.1499183" lon="12.1008067"><ele>45.42857142857143</ele><time>2026-03-25T14:30:43.051Z</time></trkpt><trkpt lat="44.1499767" lon="12.1008467"><ele>45.57142857142857</ele><time>2026-03-25T14:30:44.051Z</time></trkpt><trkpt lat="44.1500417" lon="12.100895"><ele>45.71428571428571</ele><time>2026-03-25T14:30:45.05Z</time></trkpt><trkpt lat="44.1501117" lon="12.1009417"><ele>45.85714285714286</ele><time>2026-03-25T14:30:46.051Z</time></trkpt><trkpt lat="44.15017" lon="12.1009817"><ele>46.0</ele><time>2026-03-25T14:30:47.051Z</time></trkpt><trkpt lat="44.1502317" lon="12.1010283"><ele>45.714285714285715</ele><time>2026-03-25T14:30:48.051Z</time></trkpt><trkpt lat="44.1502967" lon="12.1010667"><ele>45.42857142857142</ele><time>2026-03-25T14:30:49.05Z</time></trkpt><trkpt lat="44.15036" lon="12.101105"><ele>45.14285714285714</ele><time>2026-03-25T14:30:50.05Z</time></trkpt><trkpt lat="44.1504233" lon="12.1011483"><ele>44.85714285714286</ele><time>2026-03-25T14:30:51.05Z</time></trkpt><trkpt lat="44.150485" lon="12.1011817"><ele>44.57142857142857</ele><time>2026-03-25T14:30:52.05Z</time></trkpt><trkpt lat="44.15054" lon="12.1012283"><ele>44.285714285714285</ele><time>2026-03-25T14:30:53.05Z</time></trkpt><trkpt lat="44.1506" lon="12.1012767"><ele>44.0</ele><time>2026-03-25T14:30:54.049Z</time></trkpt><trkpt lat="44.15066" lon="12.1013217"><ele>44.0</ele><time>2026-03-25T14:30:55.05Z</time></trkpt><trkpt lat="44.1507283" lon="12.101365"><ele>44.0</ele><time>2026-03-25T14:30:56.05Z</time></trkpt><trkpt lat="44.1507933" lon="12.101415"><ele>44.0</ele><time>2026-03-25T14:30:57.049Z</time></trkpt><trkpt lat="44.1508567" lon="12.1014633"><ele>44.0</ele><time>2026-03-25T14:30:58.05Z</time></trkpt><trkpt lat="44.1509233" lon="12.101515"><ele>44.0</ele><time>2026-03-25T14:30:59.05Z</time></trkpt><trkpt lat="44.1509883" lon="12.1015683"><ele>44.0</ele><time>2026-03-25T14:31:00.05Z</time></trkpt><trkpt lat="44.1510533" lon="12.1016167"><ele>44.0</ele><time>2026-03-25T14:31:01.049Z</time></trkpt><trkpt lat="44.1511167" lon="12.1016633"><ele>44.0</ele><time>2026-03-25T14:31:02.049Z</time></trkpt><trkpt lat="44.1511783" lon="12.1017133"><ele>44.0</ele><time>2026-03-25T14:31:03.049Z</time></trkpt><trkpt lat="44.15124" lon="12.1017633"><ele>44.0</ele><time>2026-03-25T14:31:04.049Z</time></trkpt><trkpt lat="44.151295" lon="12.1018083"><ele>44.0</ele><time>2026-03-25T14:31:05.05Z</time></trkpt><trkpt lat="44.15135" lon="12.1018567"><ele>44.0</ele><time>2026-03-25T14:31:06.049Z</time></trkpt><trkpt lat="44.1514083" lon="12.1019033"><ele>44.0</ele><time>2026-03-25T14:31:07.049Z</time></trkpt><trkpt lat="44.1514617" lon="12.10195"><ele>44.0</ele><time>2026-03-25T14:31:08.049Z</time></trkpt><trkpt lat="44.1515167" lon="12.101995"><ele>43.85714285714286</ele><time>2026-03-25T14:31:09.05Z</time></trkpt><trkpt lat="44.15158" lon="12.1020433"><ele>43.714285714285715</ele><time>2026-03-25T14:31:10.05Z</time></trkpt><trkpt lat="44.1516417" lon="12.1020917"><ele>43.57142857142857</ele><time>2026-03-25T14:31:11.049Z</time></trkpt><trkpt lat="44.1517067" lon="12.1021433"><ele>43.42857142857143</ele><time>2026-03-25T14:31:12.05Z</time></trkpt><trkpt lat="44.1517683" lon="12.1021917"><ele>43.285714285714285</ele><time>2026-03-25T14:31:13.049Z</time></trkpt><trkpt lat="44.1518267" lon="12.1022417"><ele>43.142857142857146</ele><time>2026-03-25T14:31:14.05Z</time></trkpt><trkpt lat="44.1518817" lon="12.102295"><ele>43.0</ele><time>2026-03-25T14:31:15.049Z</time></trkpt><trkpt lat="44.1519467" lon="12.1023367"><ele>43.0</ele><time>2026-03-25T14:31:16.049Z</time></trkpt><trkpt lat="44.152005" lon="12.1023833"><ele>43.0</ele><time>2026-03-25T14:31:17.049Z</time></trkpt><trkpt lat="44.15207" lon="12.102425"><ele>43.0</ele><time>2026-03-25T14:31:18.049Z</time></trkpt><trkpt lat="44.1521867" lon="12.1025083"><ele>43.0</ele><time>2026-03-25T14:31:20.049Z</time></trkpt><trkpt lat="44.1522467" lon="12.102575"><ele>43.0</ele><time>2026-03-25T14:31:21.049Z</time></trkpt><trkpt lat="44.1523083" lon="12.1026383"><ele>43.0</ele><time>2026-03-25T14:31:22.049Z</time></trkpt><trkpt lat="44.1523617" lon="12.1027117"><ele>42.833333333333336</ele><time>2026-03-25T14:31:23.049Z</time></trkpt><trkpt lat="44.1524167" lon="12.1027833"><ele>42.66666666666667</ele><time>2026-03-25T14:31:24.05Z</time></trkpt><trkpt lat="44.15247" lon="12.102855"><ele>42.5</ele><time>2026-03-25T14:31:25.049Z</time></trkpt><trkpt lat="44.152515" lon="12.1029267"><ele>42.333333333333336</ele><time>2026-03-25T14:31:26.05Z</time></trkpt><trkpt lat="44.152565" lon="12.1030083"><ele>42.166666666666664</ele><time>2026-03-25T14:31:27.05Z</time></trkpt><trkpt lat="44.1526183" lon="12.103095"><ele>42.0</ele><time>2026-03-25T14:31:28.049Z</time></trkpt><trkpt lat="44.1526617" lon="12.1031783"><ele>42.142857142857146</ele><time>2026-03-25T14:31:29.05Z</time></trkpt><trkpt lat="44.1527067" lon="12.103265"><ele>42.285714285714285</ele><time>2026-03-25T14:31:30.05Z</time></trkpt><trkpt lat="44.1527517" lon="12.1033517"><ele>42.42857142857143</ele><time>2026-03-25T14:31:31.049Z</time></trkpt><trkpt lat="44.1527967" lon="12.1034367"><ele>42.57142857142857</ele><time>2026-03-25T14:31:32.05Z</time></trkpt><trkpt lat="44.1528383" lon="12.1035183"><ele>42.714285714285715</ele><time>2026-03-25T14:31:33.05Z</time></trkpt><trkpt lat="44.15288" lon="12.1036033"><ele>42.85714285714286</ele><time>2026-03-25T14:31:34.049Z</time></trkpt><trkpt lat="44.1529233" lon="12.1036833"><ele>43.0</ele><time>2026-03-25T14:31:35.05Z</time></trkpt><trkpt lat="44.1529617" lon="12.103765"><ele>43.00000000000001</ele><time>2026-03-25T14:31:36.05Z</time></trkpt><trkpt lat="44.153005" lon="12.10385"><ele>43.0</ele><time>2026-03-25T14:31:37.05Z</time></trkpt><trkpt lat="44.1530467" lon="12.1039333"><ele>43.0</ele><time>2026-03-25T14:31:38.05Z</time></trkpt><trkpt lat="44.1530867" lon="12.104015"><ele>43.0</ele><time>2026-03-25T14:31:39.049Z</time></trkpt><trkpt lat="44.15313" lon="12.1041017"><ele>43.0</ele><time>2026-03-25T14:31:40.049Z</time></trkpt><trkpt lat="44.153175" lon="12.1041833"><ele>43.00000000000001</ele><time>2026-03-25T14:31:41.049Z</time></trkpt><trkpt lat="44.153215" lon="12.1042667"><ele>43.0</ele><time>2026-03-25T14:31:42.049Z</time></trkpt><trkpt lat="44.153255" lon="12.104345"><ele>42.85714285714286</ele><time>2026-03-25T14:31:43.049Z</time></trkpt><trkpt lat="44.1532983" lon="12.1044233"><ele>42.714285714285715</ele><time>2026-03-25T14:31:44.05Z</time></trkpt><trkpt lat="44.1533417" lon="12.1045117"><ele>42.57142857142857</ele><time>2026-03-25T14:31:45.049Z</time></trkpt><trkpt lat="44.1533833" lon="12.1045917"><ele>42.42857142857143</ele><time>2026-03-25T14:31:46.049Z</time></trkpt><trkpt lat="44.1534317" lon="12.1046717"><ele>42.285714285714285</ele><time>2026-03-25T14:31:47.049Z</time></trkpt><trkpt lat="44.1534817" lon="12.1047483"><ele>42.142857142857146</ele><time>2026-03-25T14:31:48.05Z</time></trkpt><trkpt lat="44.15353" lon="12.1048183"><ele>42.0</ele><time>2026-03-25T14:31:49.05Z</time></trkpt><trkpt lat="44.1535833" lon="12.1048817"><ele>42.0</ele><time>2026-03-25T14:31:50.049Z</time></trkpt><trkpt lat="44.1536417" lon="12.1049333"><ele>42.0</ele><time>2026-03-25T14:31:51.05Z</time></trkpt><trkpt lat="44.1537033" lon="12.1049783"><ele>42.0</ele><time>2026-03-25T14:31:52.05Z</time></trkpt><trkpt lat="44.1537717" lon="12.105015"><ele>42.0</ele><time>2026-03-25T14:31:53.05Z</time></trkpt><trkpt lat="44.1538433" lon="12.1050517"><ele>42.0</ele><time>2026-03-25T14:31:54.049Z</time></trkpt><trkpt lat="44.1539133" lon="12.1050767"><ele>42.0</ele><time>2026-03-25T14:31:55.05Z</time></trkpt><trkpt lat="44.1539817" lon="12.1050883"><ele>42.0</ele><time>2026-03-25T14:31:56.049Z</time></trkpt><trkpt lat="44.1540517" lon="12.1050867"><ele>42.0</ele><time>2026-03-25T14:31:57.05Z</time></trkpt><trkpt lat="44.154135" lon="12.1050883"><ele>42.0</ele><time>2026-03-25T14:31:58.05Z</time></trkpt><trkpt lat="44.1542133" lon="12.1050867"><ele>42.0</ele><time>2026-03-25T14:31:59.05Z</time></trkpt><trkpt lat="44.1542933" lon="12.1050917"><ele>42.0</ele><time>2026-03-25T14:32:00.049Z</time></trkpt><trkpt lat="44.1543683" lon="12.1050983"><ele>42.0</ele><time>2026-03-25T14:32:01.049Z</time></trkpt><trkpt lat="44.15444" lon="12.1051"><ele>42.0</ele><time>2026-03-25T14:32:02.05Z</time></trkpt><trkpt lat="44.15451" lon="12.1051017"><ele>42.0</ele><time>2026-03-25T14:32:03.049Z</time></trkpt><trkpt lat="44.1545783" lon="12.105095"><ele>42.0</ele><time>2026-03-25T14:32:04.049Z</time></trkpt><trkpt lat="44.1546483" lon="12.1050933"><ele>42.0</ele><time>2026-03-25T14:32:05.05Z</time></trkpt><trkpt lat="44.154725" lon="12.1051"><ele>42.0</ele><time>2026-03-25T14:32:06.05Z</time></trkpt><trkpt lat="44.1548033" lon="12.1051083"><ele>42.0</ele><time>2026-03-25T14:32:07.05Z</time></trkpt><trkpt lat="44.1548783" lon="12.10512"><ele>42.0</ele><time>2026-03-25T14:32:08.049Z</time></trkpt><trkpt lat="44.15495" lon="12.105125"><ele>42.0</ele><time>2026-03-25T14:32:09.049Z</time></trkpt><trkpt lat="44.1550233" lon="12.1051333"><ele>41.857142857142854</ele><time>2026-03-25T14:32:10.049Z</time></trkpt><trkpt lat="44.155095" lon="12.1051417"><ele>41.714285714285715</ele><time>2026-03-25T14:32:11.049Z</time></trkpt><trkpt lat="44.1551617" lon="12.10515"><ele>41.57142857142857</ele><time>2026-03-25T14:32:12.049Z</time></trkpt><trkpt lat="44.1552333" lon="12.1051617"><ele>41.42857142857143</ele><time>2026-03-25T14:32:13.05Z</time></trkpt><trkpt lat="44.1553033" lon="12.10518"><ele>41.285714285714285</ele><time>2026-03-25T14:32:14.05Z</time></trkpt><trkpt lat="44.1553733" lon="12.1051967"><ele>41.14285714285714</ele><time>2026-03-25T14:32:15.05Z</time></trkpt><trkpt lat="44.1554433" lon="12.1052133"><ele>41.0</ele><time>2026-03-25T14:32:16.05Z</time></trkpt><trkpt lat="44.1555117" lon="12.10523"><ele>40.99999999999999</ele><time>2026-03-25T14:32:17.049Z</time></trkpt><trkpt lat="44.1555767" lon="12.1052483"><ele>41.0</ele><time>2026-03-25T14:32:18.049Z</time></trkpt><trkpt lat="44.155645" lon="12.1052683"><ele>41.0</ele><time>2026-03-25T14:32:19.05Z</time></trkpt><trkpt lat="44.1557133" lon="12.1052867"><ele>41.0</ele><time>2026-03-25T14:32:20.049Z</time></trkpt><trkpt lat="44.15578" lon="12.1053067"><ele>41.0</ele><time>2026-03-25T14:32:21.049Z</time></trkpt><trkpt lat="44.1558467" lon="12.1053233"><ele>40.99999999999999</ele><time>2026-03-25T14:32:22.05Z</time></trkpt><trkpt lat="44.1559133" lon="12.1053417"><ele>41.0</ele><time>2026-03-25T14:32:23.05Z</time></trkpt><trkpt lat="44.1559767" lon="12.1053633"><ele>40.71428571428571</ele><time>2026-03-25T14:32:24.049Z</time></trkpt><trkpt lat="44.1560467" lon="12.10538"><ele>40.42857142857143</ele><time>2026-03-25T14:32:25.05Z</time></trkpt><trkpt lat="44.1561167" lon="12.1054017"><ele>40.14285714285714</ele><time>2026-03-25T14:32:26.049Z</time></trkpt><trkpt lat="44.1561867" lon="12.10542"><ele>39.857142857142854</ele><time>2026-03-25T14:32:27.05Z</time></trkpt><trkpt lat="44.1562533" lon="12.10544"><ele>39.57142857142857</ele><time>2026-03-25T14:32:28.049Z</time></trkpt><trkpt lat="44.1563233" lon="12.1054567"><ele>39.285714285714285</ele><time>2026-03-25T14:32:29.05Z</time></trkpt><trkpt lat="44.1563917" lon="12.1054783"><ele>39.0</ele><time>2026-03-25T14:32:30.049Z</time></trkpt><trkpt lat="44.1564583" lon="12.1055033"><ele>39.0</ele><time>2026-03-25T14:32:31.049Z</time></trkpt><trkpt lat="44.1565233" lon="12.10552"><ele>39.0</ele><time>2026-03-25T14:32:32.05Z</time></trkpt><trkpt lat="44.1565867" lon="12.1055367"><ele>39.0</ele><time>2026-03-25T14:32:33.049Z</time></trkpt><trkpt lat="44.156655" lon="12.1055617"><ele>39.0</ele><time>2026-03-25T14:32:34.049Z</time></trkpt><trkpt lat="44.1567267" lon="12.1055933"><ele>39.0</ele><time>2026-03-25T14:32:35.049Z</time></trkpt><trkpt lat="44.1568" lon="12.10562"><ele>39.0</ele><time>2026-03-25T14:32:36.05Z</time></trkpt><trkpt lat="44.15687" lon="12.1056483"><ele>39.0</ele><time>2026-03-25T14:32:37.05Z</time></trkpt><trkpt lat="44.1569417" lon="12.1056783"><ele>39.0</ele><time>2026-03-25T14:32:38.05Z</time></trkpt><trkpt lat="44.1570133" lon="12.1057067"><ele>39.0</ele><time>2026-03-25T14:32:39.049Z</time></trkpt><trkpt lat="44.1570783" lon="12.1057383"><ele>39.0</ele><time>2026-03-25T14:32:40.05Z</time></trkpt><trkpt lat="44.1571467" lon="12.10577"><ele>39.0</ele><time>2026-03-25T14:32:41.05Z</time></trkpt><trkpt lat="44.1572117" lon="12.1057967"><ele>39.0</ele><time>2026-03-25T14:32:42.049Z</time></trkpt><trkpt lat="44.1572767" lon="12.1058217"><ele>39.0</ele><time>2026-03-25T14:32:43.05Z</time></trkpt><trkpt lat="44.157345" lon="12.1058567"><ele>39.0</ele><time>2026-03-25T14:32:44.049Z</time></trkpt><trkpt lat="44.157415" lon="12.10589"><ele>39.0</ele><time>2026-03-25T14:32:45.049Z</time></trkpt><trkpt lat="44.157485" lon="12.10592"><ele>39.0</ele><time>2026-03-25T14:32:46.05Z</time></trkpt><trkpt lat="44.1575567" lon="12.1059467"><ele>39.0</ele><time>2026-03-25T14:32:47.05Z</time></trkpt><trkpt lat="44.1576283" lon="12.1059833"><ele>39.0</ele><time>2026-03-25T14:32:48.05Z</time></trkpt><trkpt lat="44.1576983" lon="12.1060117"><ele>39.0</ele><time>2026-03-25T14:32:49.05Z</time></trkpt><trkpt lat="44.1577667" lon="12.1060417"><ele>39.0</ele><time>2026-03-25T14:32:50.05Z</time></trkpt><trkpt lat="44.15784" lon="12.106075"><ele>39.0</ele><time>2026-03-25T14:32:51.049Z</time></trkpt><trkpt lat="44.1579133" lon="12.106105"><ele>39.0</ele><time>2026-03-25T14:32:52.05Z</time></trkpt><trkpt lat="44.157985" lon="12.1061333"><ele>39.0</ele><time>2026-03-25T14:32:53.05Z</time></trkpt><trkpt lat="44.1580533" lon="12.10616"><ele>39.0</ele><time>2026-03-25T14:32:54.049Z</time></trkpt><trkpt lat="44.1581217" lon="12.1061883"><ele>39.0</ele><time>2026-03-25T14:32:55.049Z</time></trkpt><trkpt lat="44.1581867" lon="12.1062133"><ele>39.0</ele><time>2026-03-25T14:32:56.049Z</time></trkpt><trkpt lat="44.1582533" lon="12.1062367"><ele>39.0</ele><time>2026-03-25T14:32:57.05Z</time></trkpt><trkpt lat="44.1583217" lon="12.1062633"><ele>39.0</ele><time>2026-03-25T14:32:58.05Z</time></trkpt><trkpt lat="44.15839" lon="12.10629"><ele>39.0</ele><time>2026-03-25T14:32:59.05Z</time></trkpt><trkpt lat="44.15846" lon="12.1063167"><ele>39.0</ele><time>2026-03-25T14:33:00.049Z</time></trkpt><trkpt lat="44.1585317" lon="12.106335"><ele>39.0</ele><time>2026-03-25T14:33:01.049Z</time></trkpt><trkpt lat="44.1586033" lon="12.1063583"><ele>39.0</ele><time>2026-03-25T14:33:02.05Z</time></trkpt><trkpt lat="44.1586767" lon="12.1063817"><ele>39.0</ele><time>2026-03-25T14:33:03.05Z</time></trkpt><trkpt lat="44.1587483" lon="12.1064083"><ele>39.0</ele><time>2026-03-25T14:33:04.049Z</time></trkpt><trkpt lat="44.15882" lon="12.1064317"><ele>39.0</ele><time>2026-03-25T14:33:05.049Z</time></trkpt><trkpt lat="44.15889" lon="12.1064567"><ele>39.0</ele><time>2026-03-25T14:33:06.049Z</time></trkpt><trkpt lat="44.1589617" lon="12.1064833"><ele>39.0</ele><time>2026-03-25T14:33:07.05Z</time></trkpt><trkpt lat="44.1590333" lon="12.1065117"><ele>39.0</ele><time>2026-03-25T14:33:08.05Z</time></trkpt><trkpt lat="44.1591083" lon="12.1065467"><ele>39.0</ele><time>2026-03-25T14:33:09.05Z</time></trkpt><trkpt lat="44.15918" lon="12.1065767"><ele>39.0</ele><time>2026-03-25T14:33:10.049Z</time></trkpt><trkpt lat="44.1592467" lon="12.1066067"><ele>39.0</ele><time>2026-03-25T14:33:11.049Z</time></trkpt><trkpt lat="44.1593167" lon="12.1066317"><ele>39.0</ele><time>2026-03-25T14:33:12.049Z</time></trkpt><trkpt lat="44.1593917" lon="12.1066583"><ele>39.166666666666664</ele><time>2026-03-25T14:33:13.049Z</time></trkpt><trkpt lat="44.1594683" lon="12.1066817"><ele>39.333333333333336</ele><time>2026-03-25T14:33:14.049Z</time></trkpt><trkpt lat="44.159545" lon="12.1067167"><ele>39.5</ele><time>2026-03-25T14:33:15.05Z</time></trkpt><trkpt lat="44.15962" lon="12.1067483"><ele>39.66666666666667</ele><time>2026-03-25T14:33:16.049Z</time></trkpt><trkpt lat="44.15969" lon="12.10678"><ele>39.833333333333336</ele><time>2026-03-25T14:33:17.049Z</time></trkpt><trkpt lat="44.15976" lon="12.10681"><ele>40.0</ele><time>2026-03-25T14:33:18.05Z</time></trkpt><trkpt lat="44.1598383" lon="12.106835"><ele>39.833333333333336</ele><time>2026-03-25T14:33:19.049Z</time></trkpt><trkpt lat="44.1599133" lon="12.1068667"><ele>39.66666666666667</ele><time>2026-03-25T14:33:20.05Z</time></trkpt><trkpt lat="44.1599817" lon="12.10691"><ele>39.5</ele><time>2026-03-25T14:33:21.049Z</time></trkpt><trkpt lat="44.1600433" lon="12.10695"><ele>39.333333333333336</ele><time>2026-03-25T14:33:22.049Z</time></trkpt><trkpt lat="44.16011" lon="12.106985"><ele>39.166666666666664</ele><time>2026-03-25T14:33:23.05Z</time></trkpt><trkpt lat="44.1601817" lon="12.10703"><ele>39.0</ele><time>2026-03-25T14:33:24.05Z</time></trkpt><trkpt lat="44.160255" lon="12.107075"><ele>39.0</ele><time>2026-03-25T14:33:25.049Z</time></trkpt><trkpt lat="44.1603233" lon="12.1071217"><ele>39.0</ele><time>2026-03-25T14:33:26.05Z</time></trkpt><trkpt lat="44.1603933" lon="12.107165"><ele>39.0</ele><time>2026-03-25T14:33:27.049Z</time></trkpt><trkpt lat="44.1604633" lon="12.1072133"><ele>39.0</ele><time>2026-03-25T14:33:28.05Z</time></trkpt><trkpt lat="44.1605267" lon="12.1072617"><ele>39.0</ele><time>2026-03-25T14:33:29.05Z</time></trkpt><trkpt lat="44.16059" lon="12.10731"><ele>39.0</ele><time>2026-03-25T14:33:30.05Z</time></trkpt><trkpt lat="44.1606533" lon="12.1073617"><ele>39.0</ele><time>2026-03-25T14:33:31.05Z</time></trkpt><trkpt lat="44.1607183" lon="12.1074117"><ele>38.85714285714286</ele><time>2026-03-25T14:33:32.049Z</time></trkpt><trkpt lat="44.16078" lon="12.1074633"><ele>38.71428571428571</ele><time>2026-03-25T14:33:33.049Z</time></trkpt><trkpt lat="44.1608367" lon="12.1075167"><ele>38.57142857142857</ele><time>2026-03-25T14:33:34.049Z</time></trkpt><trkpt lat="44.160895" lon="12.107565"><ele>38.42857142857143</ele><time>2026-03-25T14:33:35.05Z</time></trkpt><trkpt lat="44.1609517" lon="12.1076133"><ele>38.28571428571429</ele><time>2026-03-25T14:33:36.049Z</time></trkpt><trkpt lat="44.16101" lon="12.1076683"><ele>38.14285714285714</ele><time>2026-03-25T14:33:37.05Z</time></trkpt><trkpt lat="44.1610683" lon="12.1077283"><ele>38.0</ele><time>2026-03-25T14:33:38.049Z</time></trkpt><trkpt lat="44.1611283" lon="12.10779"><ele>38.0</ele><time>2026-03-25T14:33:39.049Z</time></trkpt><trkpt lat="44.1611867" lon="12.1078517"><ele>38.0</ele><time>2026-03-25T14:33:40.049Z</time></trkpt><trkpt lat="44.1612433" lon="12.1079167"><ele>38.0</ele><time>2026-03-25T14:33:41.049Z</time></trkpt><trkpt lat="44.1612967" lon="12.10798"><ele>38.0</ele><time>2026-03-25T14:33:42.049Z</time></trkpt><trkpt lat="44.1613517" lon="12.108045"><ele>38.0</ele><time>2026-03-25T14:33:43.049Z</time></trkpt><trkpt lat="44.1614067" lon="12.1081133"><ele>38.0</ele><time>2026-03-25T14:33:44.049Z</time></trkpt><trkpt lat="44.1614617" lon="12.108175"><ele>38.0</ele><time>2026-03-25T14:33:45.05Z</time></trkpt><trkpt lat="44.161515" lon="12.10823"><ele>38.0</ele><time>2026-03-25T14:33:46.05Z</time></trkpt><trkpt lat="44.161565" lon="12.1082867"><ele>38.0</ele><time>2026-03-25T14:33:47.05Z</time></trkpt><trkpt lat="44.161615" lon="12.1083467"><ele>38.0</ele><time>2026-03-25T14:33:48.049Z</time></trkpt><trkpt lat="44.1616667" lon="12.1084033"><ele>38.0</ele><time>2026-03-25T14:33:49.05Z</time></trkpt><trkpt lat="44.1617167" lon="12.1084617"><ele>38.0</ele><time>2026-03-25T14:33:50.049Z</time></trkpt><trkpt lat="44.1617667" lon="12.10853"><ele>38.0</ele><time>2026-03-25T14:33:51.05Z</time></trkpt><trkpt lat="44.1618183" lon="12.10859"><ele>38.0</ele><time>2026-03-25T14:33:52.05Z</time></trkpt><trkpt lat="44.1618683" lon="12.108645"><ele>38.0</ele><time>2026-03-25T14:33:53.049Z</time></trkpt><trkpt lat="44.1619683" lon="12.10875"><ele>38.0</ele><time>2026-03-25T14:33:55.049Z</time></trkpt><trkpt lat="44.1620167" lon="12.1088067"><ele>38.0</ele><time>2026-03-25T14:33:56.049Z</time></trkpt><trkpt lat="44.16211" lon="12.10891"><ele>38.0</ele><time>2026-03-25T14:33:58.05Z</time></trkpt><trkpt lat="44.1621567" lon="12.10897"><ele>38.0</ele><time>2026-03-25T14:33:59.05Z</time></trkpt><trkpt lat="44.1622433" lon="12.1090933"><ele>37.8</ele><time>2026-03-25T14:34:01.049Z</time></trkpt><trkpt lat="44.1623067" lon="12.1092317"><ele>37.599999999999994</ele><time>2026-03-25T14:34:03.049Z</time></trkpt><trkpt lat="44.162345" lon="12.1093867"><ele>37.400000000000006</ele><time>2026-03-25T14:34:05.049Z</time></trkpt><trkpt lat="44.1623667" lon="12.10955"><ele>37.2</ele><time>2026-03-25T14:34:07.05Z</time></trkpt><trkpt lat="44.1623817" lon="12.1096367"><ele>37.0</ele><time>2026-03-25T14:34:08.05Z</time></trkpt><trkpt lat="44.1623933" lon="12.109725"><ele>37.16666666666667</ele><time>2026-03-25T14:34:09.049Z</time></trkpt><trkpt lat="44.1624083" lon="12.1098167"><ele>37.333333333333336</ele><time>2026-03-25T14:34:10.05Z</time></trkpt><trkpt lat="44.1624167" lon="12.1099067"><ele>37.5</ele><time>2026-03-25T14:34:11.05Z</time></trkpt><trkpt lat="44.1624267" lon="12.1100783"><ele>37.666666666666664</ele><time>2026-03-25T14:34:13.05Z</time></trkpt><trkpt lat="44.162425" lon="12.1101717"><ele>37.83333333333333</ele><time>2026-03-25T14:34:14.049Z</time></trkpt><trkpt lat="44.1623983" lon="12.1103433"><ele>38.0</ele><time>2026-03-25T14:34:16.05Z</time></trkpt><trkpt lat="44.1623783" lon="12.1104283"><ele>38.199999999999996</ele><time>2026-03-25T14:34:17.049Z</time></trkpt><trkpt lat="44.1623583" lon="12.110515"><ele>38.4</ele><time>2026-03-25T14:34:18.05Z</time></trkpt><trkpt lat="44.16233" lon="12.1105967"><ele>38.599999999999994</ele><time>2026-03-25T14:34:19.049Z</time></trkpt><trkpt lat="44.1622683" lon="12.1107417"><ele>38.8</ele><time>2026-03-25T14:34:21.05Z</time></trkpt><trkpt lat="44.1622117" lon="12.1108833"><ele>39.0</ele><time>2026-03-25T14:34:23.049Z</time></trkpt><trkpt lat="44.1621467" lon="12.111015"><ele>39.6</ele><time>2026-03-25T14:34:25.049Z</time></trkpt><trkpt lat="44.162085" lon="12.1111433"><ele>40.2</ele><time>2026-03-25T14:34:27.049Z</time></trkpt><trkpt lat="44.1620333" lon="12.1112667"><ele>40.800000000000004</ele><time>2026-03-25T14:34:29.05Z</time></trkpt><trkpt lat="44.16201" lon="12.111385"><ele>41.4</ele><time>2026-03-25T14:34:31.049Z</time></trkpt><trkpt lat="44.162" lon="12.11149"><ele>42.0</ele><time>2026-03-25T14:34:33.049Z</time></trkpt><trkpt lat="44.1620117" lon="12.11159"><ele>43.0</ele><time>2026-03-25T14:34:35.049Z</time></trkpt><trkpt lat="44.1620267" lon="12.1117033"><ele>44.0</ele><time>2026-03-25T14:34:37.05Z</time></trkpt><trkpt lat="44.16205" lon="12.1118033"><ele>45.0</ele><time>2026-03-25T14:34:39.05Z</time></trkpt><trkpt lat="44.162075" lon="12.1118967"><ele>46.0</ele><time>2026-03-25T14:34:41.049Z</time></trkpt><trkpt lat="44.162095" lon="12.1119867"><ele>47.0</ele><time>2026-03-25T14:34:43.05Z</time></trkpt><trkpt lat="44.1621183" lon="12.1120717"><ele>48.0</ele><time>2026-03-25T14:34:45.049Z</time></trkpt><trkpt lat="44.1621417" lon="12.1121717"><ele>49.0</ele><time>2026-03-25T14:34:48.049Z</time></trkpt><trkpt lat="44.16216" lon="12.1122683"><ele>49.0</ele><time>2026-03-25T14:34:51.05Z</time></trkpt><trkpt lat="44.1621817" lon="12.1123617"><ele>49.0</ele><time>2026-03-25T14:34:54.05Z</time></trkpt><trkpt lat="44.1622017" lon="12.11245"><ele>49.0</ele><time>2026-03-25T14:34:57.049Z</time></trkpt><trkpt lat="44.16222" lon="12.112535"><ele>49.0</ele><time>2026-03-25T14:35:00.049Z</time></trkpt><trkpt lat="44.1622467" lon="12.112625"><ele>49.0</ele><time>2026-03-25T14:35:03.05Z</time></trkpt><trkpt lat="44.16227" lon="12.112735"><ele>49.0</ele><time>2026-03-25T14:35:07.049Z</time></trkpt><trkpt lat="44.1622833" lon="12.1128217"><ele>49.0</ele><time>2026-03-25T14:35:10.049Z</time></trkpt><trkpt lat="44.162305" lon="12.1129183"><ele>48.42857142857143</ele><time>2026-03-25T14:35:13.05Z</time></trkpt><trkpt lat="44.162325" lon="12.1130067"><ele>47.85714285714286</ele><time>2026-03-25T14:35:16.049Z</time></trkpt><trkpt lat="44.1623467" lon="12.113095"><ele>47.285714285714285</ele><time>2026-03-25T14:35:19.05Z</time></trkpt><trkpt lat="44.16237" lon="12.1131883"><ele>46.714285714285715</ele><time>2026-03-25T14:35:22.049Z</time></trkpt><trkpt lat="44.16239" lon="12.1132733"><ele>46.142857142857146</ele><time>2026-03-25T14:35:25.049Z</time></trkpt><trkpt lat="44.1624033" lon="12.1133717"><ele>45.57142857142857</ele><time>2026-03-25T14:35:28.05Z</time></trkpt><trkpt lat="44.1624117" lon="12.1134817"><ele>45.0</ele><time>2026-03-25T14:35:32.049Z</time></trkpt><trkpt lat="44.162425" lon="12.11359"><ele>46.5</ele><time>2026-03-25T14:35:36.05Z</time></trkpt><trkpt lat="44.1624383" lon="12.1136967"><ele>48.0</ele><time>2026-03-25T14:35:40.049Z</time></trkpt><trkpt lat="44.16244" lon="12.1137883"><ele>49.5</ele><time>2026-03-25T14:35:44.05Z</time></trkpt><trkpt lat="44.1624583" lon="12.1139033"><ele>51.0</ele><time>2026-03-25T14:35:48.05Z</time></trkpt><trkpt lat="44.1624683" lon="12.1140083"><ele>52.5</ele><time>2026-03-25T14:35:50.05Z</time></trkpt><trkpt lat="44.1624783" lon="12.1141367"><ele>54.0</ele><time>2026-03-25T14:35:52.05Z</time></trkpt><trkpt lat="44.162475" lon="12.1142917"><ele>54.0</ele><time>2026-03-25T14:35:54.05Z</time></trkpt><trkpt lat="44.1624633" lon="12.114385"><ele>54.0</ele><time>2026-03-25T14:35:55.049Z</time></trkpt><trkpt lat="44.16245" lon="12.1144817"><ele>54.0</ele><time>2026-03-25T14:35:56.049Z</time></trkpt><trkpt lat="44.1624417" lon="12.114585"><ele>54.0</ele><time>2026-03-25T14:35:57.05Z</time></trkpt><trkpt lat="44.1624367" lon="12.1146917"><ele>54.0</ele><time>2026-03-25T14:35:58.05Z</time></trkpt><trkpt lat="44.16243" lon="12.1148067"><ele>54.0</ele><time>2026-03-25T14:35:59.05Z</time></trkpt><trkpt lat="44.1624183" lon="12.1149233"><ele>54.0</ele><time>2026-03-25T14:36:00.05Z</time></trkpt><trkpt lat="44.1624017" lon="12.1150417"><ele>54.0</ele><time>2026-03-25T14:36:01.049Z</time></trkpt><trkpt lat="44.1623883" lon="12.1151617"><ele>54.0</ele><time>2026-03-25T14:36:02.049Z</time></trkpt><trkpt lat="44.1623783" lon="12.115285"><ele>54.0</ele><time>2026-03-25T14:36:03.049Z</time></trkpt><trkpt lat="44.16237" lon="12.11541"><ele>54.0</ele><time>2026-03-25T14:36:04.049Z</time></trkpt><trkpt lat="44.162355" lon="12.1155383"><ele>54.0</ele><time>2026-03-25T14:36:05.05Z</time></trkpt><trkpt lat="44.1623433" lon="12.1156617"><ele>54.400000000000006</ele><time>2026-03-25T14:36:06.05Z</time></trkpt><trkpt lat="44.1623267" lon="12.1157917"><ele>54.800000000000004</ele><time>2026-03-25T14:36:07.05Z</time></trkpt><trkpt lat="44.1623083" lon="12.1159183"><ele>55.199999999999996</ele><time>2026-03-25T14:36:08.049Z</time></trkpt><trkpt lat="44.1622833" lon="12.1160383"><ele>55.599999999999994</ele><time>2026-03-25T14:36:09.05Z</time></trkpt><trkpt lat="44.1622483" lon="12.1161583"><ele>56.0</ele><time>2026-03-25T14:36:10.049Z</time></trkpt><trkpt lat="44.1622117" lon="12.1162733"><ele>56.0</ele><time>2026-03-25T14:36:11.049Z</time></trkpt><trkpt lat="44.16217" lon="12.1163867"><ele>55.99999999999999</ele><time>2026-03-25T14:36:12.049Z</time></trkpt><trkpt lat="44.1621183" lon="12.11649"><ele>55.99999999999999</ele><time>2026-03-25T14:36:13.05Z</time></trkpt><trkpt lat="44.1620667" lon="12.1165967"><ele>56.0</ele><time>2026-03-25T14:36:14.049Z</time></trkpt><trkpt lat="44.162015" lon="12.1167067"><ele>56.0</ele><time>2026-03-25T14:36:15.05Z</time></trkpt><trkpt lat="44.1619567" lon="12.11681"><ele>55.0</ele><time>2026-03-25T14:36:16.05Z</time></trkpt><trkpt lat="44.1618983" lon="12.1169133"><ele>53.99999999999999</ele><time>2026-03-25T14:36:17.05Z</time></trkpt><trkpt lat="44.1618333" lon="12.1170117"><ele>53.0</ele><time>2026-03-25T14:36:18.05Z</time></trkpt><trkpt lat="44.1617617" lon="12.1171083"><ele>52.0</ele><time>2026-03-25T14:36:19.05Z</time></trkpt><trkpt lat="44.1616867" lon="12.1171933"><ele>51.0</ele><time>2026-03-25T14:36:20.05Z</time></trkpt><trkpt lat="44.1616133" lon="12.1172783"><ele>51.0</ele><time>2026-03-25T14:36:21.05Z</time></trkpt><trkpt lat="44.1615417" lon="12.1173533"><ele>51.0</ele><time>2026-03-25T14:36:22.05Z</time></trkpt><trkpt lat="44.161475" lon="12.1174233"><ele>51.0</ele><time>2026-03-25T14:36:23.049Z</time></trkpt><trkpt lat="44.1614083" lon="12.1174933"><ele>51.0</ele><time>2026-03-25T14:36:24.05Z</time></trkpt><trkpt lat="44.1613467" lon="12.1175567"><ele>51.0</ele><time>2026-03-25T14:36:25.05Z</time></trkpt><trkpt lat="44.1612917" lon="12.1176317"><ele>51.0</ele><time>2026-03-25T14:36:26.049Z</time></trkpt><trkpt lat="44.161245" lon="12.11772"><ele>51.0</ele><time>2026-03-25T14:36:27.05Z</time></trkpt><trkpt lat="44.1612133" lon="12.1178183"><ele>51.0</ele><time>2026-03-25T14:36:28.05Z</time></trkpt><trkpt lat="44.1612017" lon="12.117925"><ele>51.0</ele><time>2026-03-25T14:36:29.05Z</time></trkpt><trkpt lat="44.1612083" lon="12.1180383"><ele>51.0</ele><time>2026-03-25T14:36:30.049Z</time></trkpt><trkpt lat="44.1612217" lon="12.1181417"><ele>51.0</ele><time>2026-03-25T14:36:31.049Z</time></trkpt><trkpt lat="44.1612433" lon="12.1182517"><ele>51.0</ele><time>2026-03-25T14:36:32.05Z</time></trkpt><trkpt lat="44.1612633" lon="12.1183617"><ele>50.0</ele><time>2026-03-25T14:36:33.05Z</time></trkpt><trkpt lat="44.1612833" lon="12.1184767"><ele>49.0</ele><time>2026-03-25T14:36:34.05Z</time></trkpt><trkpt lat="44.1612967" lon="12.1185917"><ele>48.0</ele><time>2026-03-25T14:36:35.049Z</time></trkpt><trkpt lat="44.16131" lon="12.1187117"><ele>47.0</ele><time>2026-03-25T14:36:36.05Z</time></trkpt><trkpt lat="44.1613317" lon="12.1188283"><ele>46.0</ele><time>2026-03-25T14:36:37.049Z</time></trkpt><trkpt lat="44.16135" lon="12.1189417"><ele>45.0</ele><time>2026-03-25T14:36:38.05Z</time></trkpt><trkpt lat="44.1613633" lon="12.119055"><ele>44.833333333333336</ele><time>2026-03-25T14:36:39.049Z</time></trkpt><trkpt lat="44.1613767" lon="12.11917"><ele>44.666666666666664</ele><time>2026-03-25T14:36:40.05Z</time></trkpt><trkpt lat="44.161395" lon="12.1192783"><ele>44.5</ele><time>2026-03-25T14:36:41.05Z</time></trkpt><trkpt lat="44.1614083" lon="12.1193883"><ele>44.33333333333333</ele><time>2026-03-25T14:36:42.05Z</time></trkpt><trkpt lat="44.16142" lon="12.1195033"><ele>44.166666666666664</ele><time>2026-03-25T14:36:43.049Z</time></trkpt><trkpt lat="44.1614333" lon="12.1196233"><ele>44.0</ele><time>2026-03-25T14:36:44.049Z</time></trkpt><trkpt lat="44.1614467" lon="12.11974"><ele>44.0</ele><time>2026-03-25T14:36:45.049Z</time></trkpt><trkpt lat="44.1614567" lon="12.1198567"><ele>44.0</ele><time>2026-03-25T14:36:46.05Z</time></trkpt><trkpt lat="44.161465" lon="12.1199683"><ele>44.0</ele><time>2026-03-25T14:36:47.05Z</time></trkpt><trkpt lat="44.1614617" lon="12.120075"><ele>44.0</ele><time>2026-03-25T14:36:48.049Z</time></trkpt><trkpt lat="44.1614433" lon="12.120175"><ele>44.0</ele><time>2026-03-25T14:36:49.05Z</time></trkpt><trkpt lat="44.1614283" lon="12.1202633"><ele>44.0</ele><time>2026-03-25T14:36:50.05Z</time></trkpt><trkpt lat="44.1614083" lon="12.1203483"><ele>44.0</ele><time>2026-03-25T14:36:51.049Z</time></trkpt><trkpt lat="44.1613833" lon="12.12043"><ele>43.800000000000004</ele><time>2026-03-25T14:36:52.049Z</time></trkpt><trkpt lat="44.1613583" lon="12.1205167"><ele>43.6</ele><time>2026-03-25T14:36:53.05Z</time></trkpt><trkpt lat="44.1613183" lon="12.120685"><ele>43.4</ele><time>2026-03-25T14:36:55.05Z</time></trkpt><trkpt lat="44.1612833" lon="12.1208383"><ele>43.2</ele><time>2026-03-25T14:36:57.049Z</time></trkpt><trkpt lat="44.1612617" lon="12.1209733"><ele>43.0</ele><time>2026-03-25T14:36:59.049Z</time></trkpt><trkpt lat="44.1612383" lon="12.121105"><ele>42.833333333333336</ele><time>2026-03-25T14:37:01.049Z</time></trkpt><trkpt lat="44.1612167" lon="12.12123"><ele>42.66666666666667</ele><time>2026-03-25T14:37:03.05Z</time></trkpt><trkpt lat="44.1611967" lon="12.12135"><ele>42.5</ele><time>2026-03-25T14:37:05.049Z</time></trkpt><trkpt lat="44.16118" lon="12.1214617"><ele>42.333333333333336</ele><time>2026-03-25T14:37:07.049Z</time></trkpt><trkpt lat="44.16116" lon="12.1215783"><ele>42.166666666666664</ele><time>2026-03-25T14:37:09.05Z</time></trkpt><trkpt lat="44.1611567" lon="12.1216917"><ele>42.0</ele><time>2026-03-25T14:37:11.049Z</time></trkpt><trkpt lat="44.1611483" lon="12.1217933"><ele>42.333333333333336</ele><time>2026-03-25T14:37:13.05Z</time></trkpt><trkpt lat="44.1611383" lon="12.1218933"><ele>42.666666666666664</ele><time>2026-03-25T14:37:15.05Z</time></trkpt><trkpt lat="44.1611167" lon="12.1220117"><ele>43.0</ele><time>2026-03-25T14:37:18.05Z</time></trkpt><trkpt lat="44.1611033" lon="12.1221233"><ele>43.33333333333333</ele><time>2026-03-25T14:37:21.05Z</time></trkpt><trkpt lat="44.1610917" lon="12.1222417"><ele>43.666666666666664</ele><time>2026-03-25T14:37:24.049Z</time></trkpt><trkpt lat="44.1610883" lon="12.12235"><ele>44.0</ele><time>2026-03-25T14:37:27.05Z</time></trkpt><trkpt lat="44.1610883" lon="12.122445"><ele>45.166666666666664</ele><time>2026-03-25T14:37:30.05Z</time></trkpt><trkpt lat="44.1610833" lon="12.122545"><ele>46.33333333333333</ele><time>2026-03-25T14:37:33.049Z</time></trkpt><trkpt lat="44.1610833" lon="12.1226383"><ele>47.5</ele><time>2026-03-25T14:37:36.05Z</time></trkpt><trkpt lat="44.16108" lon="12.1227433"><ele>48.666666666666664</ele><time>2026-03-25T14:37:39.049Z</time></trkpt><trkpt lat="44.1610667" lon="12.1228467"><ele>49.833333333333336</ele><time>2026-03-25T14:37:42.05Z</time></trkpt><trkpt lat="44.161055" lon="12.122955"><ele>51.0</ele><time>2026-03-25T14:37:45.049Z</time></trkpt><trkpt lat="44.1610483" lon="12.1230683"><ele>51.0</ele><time>2026-03-25T14:37:48.049Z</time></trkpt><trkpt lat="44.1610367" lon="12.12316"><ele>51.0</ele><time>2026-03-25T14:37:51.05Z</time></trkpt><trkpt lat="44.1610133" lon="12.1232467"><ele>51.0</ele><time>2026-03-25T14:37:54.05Z</time></trkpt><trkpt lat="44.1609833" lon="12.1233283"><ele>51.0</ele><time>2026-03-25T14:37:57.049Z</time></trkpt><trkpt lat="44.16093" lon="12.1233883"><ele>51.0</ele><time>2026-03-25T14:38:00.049Z</time></trkpt><trkpt lat="44.1608683" lon="12.1234417"><ele>51.0</ele><time>2026-03-25T14:38:03.05Z</time></trkpt><trkpt lat="44.1608067" lon="12.12348"><ele>51.0</ele><time>2026-03-25T14:38:06.05Z</time></trkpt><trkpt lat="44.160735" lon="12.1235333"><ele>52.142857142857146</ele><time>2026-03-25T14:38:10.05Z</time></trkpt><trkpt lat="44.1606767" lon="12.12358"><ele>53.28571428571429</ele><time>2026-03-25T14:38:13.049Z</time></trkpt><trkpt lat="44.160615" lon="12.12364"><ele>54.42857142857143</ele><time>2026-03-25T14:38:17.05Z</time></trkpt><trkpt lat="44.160565" lon="12.1237133"><ele>55.57142857142857</ele><time>2026-03-25T14:38:21.049Z</time></trkpt><trkpt lat="44.1605517" lon="12.1238083"><ele>56.714285714285715</ele><time>2026-03-25T14:38:25.05Z</time></trkpt><trkpt lat="44.16057" lon="12.1239083"><ele>57.857142857142854</ele><time>2026-03-25T14:38:29.05Z</time></trkpt><trkpt lat="44.160605" lon="12.124"><ele>59.0</ele><time>2026-03-25T14:38:34.049Z</time></trkpt><trkpt lat="44.1606533" lon="12.12407"><ele>60.14285714285714</ele><time>2026-03-25T14:38:38.05Z</time></trkpt><trkpt lat="44.160705" lon="12.1241267"><ele>61.28571428571429</ele><time>2026-03-25T14:38:42.049Z</time></trkpt><trkpt lat="44.1607683" lon="12.1241783"><ele>62.42857142857143</ele><time>2026-03-25T14:38:46.05Z</time></trkpt><trkpt lat="44.1608317" lon="12.1242517"><ele>63.57142857142857</ele><time>2026-03-25T14:38:50.05Z</time></trkpt><trkpt lat="44.1608833" lon="12.1243067"><ele>64.71428571428571</ele><time>2026-03-25T14:38:53.05Z</time></trkpt><trkpt lat="44.16094" lon="12.1243617"><ele>65.85714285714286</ele><time>2026-03-25T14:38:56.05Z</time></trkpt><trkpt lat="44.1609967" lon="12.1244033"><ele>67.0</ele><time>2026-03-25T14:38:59.049Z</time></trkpt><trkpt lat="44.1610633" lon="12.124455"><ele>67.0</ele><time>2026-03-25T14:39:02.05Z</time></trkpt><trkpt lat="44.1611267" lon="12.1244867"><ele>67.0</ele><time>2026-03-25T14:39:05.05Z</time></trkpt><trkpt lat="44.1611883" lon="12.1245317"><ele>67.0</ele><time>2026-03-25T14:39:08.049Z</time></trkpt><trkpt lat="44.1612433" lon="12.1245867"><ele>67.0</ele><time>2026-03-25T14:39:11.049Z</time></trkpt><trkpt lat="44.1613067" lon="12.12462"><ele>67.0</ele><time>2026-03-25T14:39:14.05Z</time></trkpt><trkpt lat="44.1613667" lon="12.12466"><ele>67.0</ele><time>2026-03-25T14:39:17.05Z</time></trkpt><trkpt lat="44.161425" lon="12.1246967"><ele>67.0</ele><time>2026-03-25T14:39:20.05Z</time></trkpt><trkpt lat="44.1614867" lon="12.124745"><ele>66.66666666666666</ele><time>2026-03-25T14:39:23.05Z</time></trkpt><trkpt lat="44.161555" lon="12.1247933"><ele>66.33333333333333</ele><time>2026-03-25T14:39:26.05Z</time></trkpt><trkpt lat="44.161615" lon="12.1248517"><ele>66.0</ele><time>2026-03-25T14:39:29.05Z</time></trkpt><trkpt lat="44.1616733" lon="12.12489"><ele>65.66666666666667</ele><time>2026-03-25T14:39:32.05Z</time></trkpt><trkpt lat="44.1617433" lon="12.124935"><ele>65.33333333333334</ele><time>2026-03-25T14:39:37.049Z</time></trkpt><trkpt lat="44.1618133" lon="12.1250183"><ele>65.0</ele><time>2026-03-25T14:39:48.05Z</time></trkpt><trkpt lat="44.161895" lon="12.1250383"><ele>66.0</ele><time>2026-03-25T14:39:52.05Z</time></trkpt><trkpt lat="44.161985" lon="12.1250517"><ele>67.0</ele><time>2026-03-25T14:39:55.05Z</time></trkpt><trkpt lat="44.1620483" lon="12.1250517"><ele>68.0</ele><time>2026-03-25T14:39:57.049Z</time></trkpt><trkpt lat="44.1621183" lon="12.1250467"><ele>69.0</ele><time>2026-03-25T14:39:59.05Z</time></trkpt><trkpt lat="44.1621967" lon="12.1250583"><ele>70.0</ele><time>2026-03-25T14:40:01.049Z</time></trkpt><trkpt lat="44.1622717" lon="12.12507"><ele>71.0</ele><time>2026-03-25T14:40:03.049Z</time></trkpt><trkpt lat="44.162345" lon="12.1250733"><ele>71.16666666666667</ele><time>2026-03-25T14:40:05.05Z</time></trkpt><trkpt lat="44.1624117" lon="12.125085"><ele>71.33333333333334</ele><time>2026-03-25T14:40:07.05Z</time></trkpt><trkpt lat="44.1625267" lon="12.125105"><ele>71.5</ele><time>2026-03-25T14:41:01.049Z</time></trkpt><trkpt lat="44.1625967" lon="12.1250817"><ele>71.66666666666667</ele><time>2026-03-25T14:41:05.05Z</time></trkpt><trkpt lat="44.1626783" lon="12.1250917"><ele>71.83333333333333</ele><time>2026-03-25T14:41:32.049Z</time></trkpt><trkpt lat="44.1627617" lon="12.1250667"><ele>72.0</ele><time>2026-03-25T14:41:35.05Z</time></trkpt><trkpt lat="44.1628467" lon="12.1250633"><ele>72.0</ele><time>2026-03-25T14:41:37.05Z</time></trkpt><trkpt lat="44.162945" lon="12.1250583"><ele>72.0</ele><time>2026-03-25T14:41:39.049Z</time></trkpt><trkpt lat="44.16305" lon="12.12507"><ele>72.0</ele><time>2026-03-25T14:41:41.049Z</time></trkpt><trkpt lat="44.1631817" lon="12.1251"><ele>72.0</ele><time>2026-03-25T14:41:43.05Z</time></trkpt><trkpt lat="44.1632483" lon="12.125125"><ele>72.0</ele><time>2026-03-25T14:41:44.049Z</time></trkpt><trkpt lat="44.163315" lon="12.1251467"><ele>71.57142857142858</ele><time>2026-03-25T14:41:45.049Z</time></trkpt><trkpt lat="44.1633867" lon="12.125165"><ele>71.14285714285714</ele><time>2026-03-25T14:41:46.049Z</time></trkpt><trkpt lat="44.1634583" lon="12.125195"><ele>70.71428571428572</ele><time>2026-03-25T14:41:47.05Z</time></trkpt><trkpt lat="44.163525" lon="12.1252333"><ele>70.28571428571429</ele><time>2026-03-25T14:41:48.05Z</time></trkpt><trkpt lat="44.16359" lon="12.12527"><ele>69.85714285714286</ele><time>2026-03-25T14:41:49.049Z</time></trkpt><trkpt lat="44.16366" lon="12.1253083"><ele>69.42857142857143</ele><time>2026-03-25T14:41:50.049Z</time></trkpt><trkpt lat="44.1637217" lon="12.1253533"><ele>69.0</ele><time>2026-03-25T14:41:51.049Z</time></trkpt><trkpt lat="44.16379" lon="12.1253967"><ele>69.0</ele><time>2026-03-25T14:41:52.05Z</time></trkpt><trkpt lat="44.16386" lon="12.1254367"><ele>69.0</ele><time>2026-03-25T14:41:53.05Z</time></trkpt><trkpt lat="44.1639267" lon="12.12547"><ele>69.0</ele><time>2026-03-25T14:41:54.05Z</time></trkpt><trkpt lat="44.1639983" lon="12.1255"><ele>69.0</ele><time>2026-03-25T14:41:55.05Z</time></trkpt><trkpt lat="44.164065" lon="12.1255333"><ele>69.0</ele><time>2026-03-25T14:41:56.05Z</time></trkpt><trkpt lat="44.1641367" lon="12.125565"><ele>69.0</ele><time>2026-03-25T14:41:57.05Z</time></trkpt><trkpt lat="44.1642133" lon="12.1255983"><ele>69.0</ele><time>2026-03-25T14:41:58.05Z</time></trkpt><trkpt lat="44.1642883" lon="12.1256383"><ele>69.83333333333333</ele><time>2026-03-25T14:41:59.05Z</time></trkpt><trkpt lat="44.164365" lon="12.1256783"><ele>70.66666666666667</ele><time>2026-03-25T14:42:00.05Z</time></trkpt><trkpt lat="44.1644367" lon="12.1257167"><ele>71.5</ele><time>2026-03-25T14:42:01.05Z</time></trkpt><trkpt lat="44.1645133" lon="12.1257533"><ele>72.33333333333334</ele><time>2026-03-25T14:42:02.05Z</time></trkpt><trkpt lat="44.1645933" lon="12.125795"><ele>73.16666666666667</ele><time>2026-03-25T14:42:03.049Z</time></trkpt><trkpt lat="44.16467" lon="12.12583"><ele>74.0</ele><time>2026-03-25T14:42:04.05Z</time></trkpt><trkpt lat="44.16474" lon="12.12587"><ele>74.0</ele><time>2026-03-25T14:42:05.049Z</time></trkpt><trkpt lat="44.1648083" lon="12.125905"><ele>74.0</ele><time>2026-03-25T14:42:06.049Z</time></trkpt><trkpt lat="44.1648767" lon="12.1259383"><ele>74.0</ele><time>2026-03-25T14:42:07.05Z</time></trkpt><trkpt lat="44.1649483" lon="12.125975"><ele>74.0</ele><time>2026-03-25T14:42:08.05Z</time></trkpt><trkpt lat="44.16502" lon="12.1260117"><ele>74.0</ele><time>2026-03-25T14:42:09.049Z</time></trkpt><trkpt lat="44.1650933" lon="12.1260433"><ele>74.0</ele><time>2026-03-25T14:42:10.049Z</time></trkpt><trkpt lat="44.1651633" lon="12.1260717"><ele>74.0</ele><time>2026-03-25T14:42:11.049Z</time></trkpt><trkpt lat="44.165235" lon="12.1261033"><ele>72.83333333333334</ele><time>2026-03-25T14:42:12.049Z</time></trkpt><trkpt lat="44.1653067" lon="12.1261367"><ele>71.66666666666667</ele><time>2026-03-25T14:42:13.05Z</time></trkpt><trkpt lat="44.1653783" lon="12.126175"><ele>70.5</ele><time>2026-03-25T14:42:14.05Z</time></trkpt><trkpt lat="44.1654517" lon="12.1262117"><ele>69.33333333333333</ele><time>2026-03-25T14:42:15.05Z</time></trkpt><trkpt lat="44.1655283" lon="12.1262517"><ele>68.16666666666666</ele><time>2026-03-25T14:42:16.05Z</time></trkpt><trkpt lat="44.1656" lon="12.1262817"><ele>67.0</ele><time>2026-03-25T14:42:17.05Z</time></trkpt><trkpt lat="44.1656767" lon="12.1263217"><ele>66.5</ele><time>2026-03-25T14:42:18.049Z</time></trkpt><trkpt lat="44.1657517" lon="12.1263617"><ele>66.0</ele><time>2026-03-25T14:42:19.049Z</time></trkpt><trkpt lat="44.1658217" lon="12.1263933"><ele>65.5</ele><time>2026-03-25T14:42:20.049Z</time></trkpt><trkpt lat="44.1658933" lon="12.1264333"><ele>65.0</ele><time>2026-03-25T14:42:21.049Z</time></trkpt><trkpt lat="44.165965" lon="12.1264683"><ele>64.5</ele><time>2026-03-25T14:42:22.05Z</time></trkpt><trkpt lat="44.1660433" lon="12.1265017"><ele>64.0</ele><time>2026-03-25T14:42:23.05Z</time></trkpt><trkpt lat="44.1661167" lon="12.1265317"><ele>63.83333333333333</ele><time>2026-03-25T14:42:24.05Z</time></trkpt><trkpt lat="44.16619" lon="12.1265633"><ele>63.666666666666664</ele><time>2026-03-25T14:42:25.05Z</time></trkpt><trkpt lat="44.16627" lon="12.1265983"><ele>63.5</ele><time>2026-03-25T14:42:26.05Z</time></trkpt><trkpt lat="44.1663517" lon="12.1266317"><ele>63.33333333333333</ele><time>2026-03-25T14:42:27.049Z</time></trkpt><trkpt lat="44.1664317" lon="12.1266733"><ele>63.166666666666664</ele><time>2026-03-25T14:42:28.049Z</time></trkpt><trkpt lat="44.16651" lon="12.126705"><ele>63.0</ele><time>2026-03-25T14:42:29.049Z</time></trkpt><trkpt lat="44.1665783" lon="12.126735"><ele>63.0</ele><time>2026-03-25T14:42:30.049Z</time></trkpt><trkpt lat="44.1666433" lon="12.1267617"><ele>63.0</ele><time>2026-03-25T14:42:31.05Z</time></trkpt><trkpt lat="44.16671" lon="12.1267783"><ele>63.0</ele><time>2026-03-25T14:42:32.05Z</time></trkpt><trkpt lat="44.166775" lon="12.1268033"><ele>63.0</ele><time>2026-03-25T14:42:33.049Z</time></trkpt><trkpt lat="44.1668983" lon="12.12685"><ele>63.0</ele><time>2026-03-25T14:42:35.05Z</time></trkpt><trkpt lat="44.16697" lon="12.1268783"><ele>63.0</ele><time>2026-03-25T14:42:36.049Z</time></trkpt><trkpt lat="44.1670367" lon="12.1269033"><ele>63.0</ele><time>2026-03-25T14:42:37.049Z</time></trkpt><trkpt lat="44.1671117" lon="12.1269283"><ele>63.0</ele><time>2026-03-25T14:42:38.049Z</time></trkpt><trkpt lat="44.1671883" lon="12.1269467"><ele>63.0</ele><time>2026-03-25T14:42:39.05Z</time></trkpt><trkpt lat="44.1672667" lon="12.1269783"><ele>63.0</ele><time>2026-03-25T14:42:40.05Z</time></trkpt><trkpt lat="44.1673383" lon="12.1270017"><ele>63.0</ele><time>2026-03-25T14:42:41.05Z</time></trkpt><trkpt lat="44.1674233" lon="12.1270367"><ele>63.0</ele><time>2026-03-25T14:42:42.05Z</time></trkpt><trkpt lat="44.16751" lon="12.12708"><ele>62.166666666666664</ele><time>2026-03-25T14:42:43.05Z</time></trkpt><trkpt lat="44.1675933" lon="12.12711"><ele>61.33333333333333</ele><time>2026-03-25T14:42:44.049Z</time></trkpt><trkpt lat="44.1676733" lon="12.1271433"><ele>60.5</ele><time>2026-03-25T14:42:45.049Z</time></trkpt><trkpt lat="44.16775" lon="12.1271733"><ele>59.666666666666664</ele><time>2026-03-25T14:42:46.049Z</time></trkpt><trkpt lat="44.1678217" lon="12.1271983"><ele>58.83333333333333</ele><time>2026-03-25T14:42:47.049Z</time></trkpt><trkpt lat="44.1679" lon="12.1272233"><ele>58.0</ele><time>2026-03-25T14:42:48.05Z</time></trkpt><trkpt lat="44.16798" lon="12.1272467"><ele>57.99999999999999</ele><time>2026-03-25T14:42:49.05Z</time></trkpt><trkpt lat="44.16806" lon="12.1272767"><ele>58.0</ele><time>2026-03-25T14:42:50.049Z</time></trkpt><trkpt lat="44.16814" lon="12.1272983"><ele>58.0</ele><time>2026-03-25T14:42:51.049Z</time></trkpt><trkpt lat="44.1682183" lon="12.1273233"><ele>58.0</ele><time>2026-03-25T14:42:52.049Z</time></trkpt><trkpt lat="44.1682933" lon="12.1273483"><ele>57.99999999999999</ele><time>2026-03-25T14:42:53.049Z</time></trkpt><trkpt lat="44.1683733" lon="12.12738"><ele>58.0</ele><time>2026-03-25T14:42:54.049Z</time></trkpt><trkpt lat="44.1684467" lon="12.1274017"><ele>57.42857142857144</ele><time>2026-03-25T14:42:55.05Z</time></trkpt><trkpt lat="44.1685217" lon="12.12743"><ele>56.85714285714286</ele><time>2026-03-25T14:42:56.05Z</time></trkpt><trkpt lat="44.1685967" lon="12.1274633"><ele>56.28571428571429</ele><time>2026-03-25T14:42:57.05Z</time></trkpt><trkpt lat="44.1686717" lon="12.1274833"><ele>55.71428571428572</ele><time>2026-03-25T14:42:58.049Z</time></trkpt><trkpt lat="44.1687467" lon="12.1274983"><ele>55.14285714285714</ele><time>2026-03-25T14:42:59.05Z</time></trkpt><trkpt lat="44.1688183" lon="12.1275133"><ele>54.57142857142857</ele><time>2026-03-25T14:43:00.049Z</time></trkpt><trkpt lat="44.168885" lon="12.1275317"><ele>54.0</ele><time>2026-03-25T14:43:01.049Z</time></trkpt><trkpt lat="44.1689583" lon="12.12756"><ele>54.0</ele><time>2026-03-25T14:43:02.05Z</time></trkpt><trkpt lat="44.1690367" lon="12.127575"><ele>54.0</ele><time>2026-03-25T14:43:03.049Z</time></trkpt><trkpt lat="44.1691117" lon="12.1275917"><ele>54.0</ele><time>2026-03-25T14:43:04.049Z</time></trkpt><trkpt lat="44.1691917" lon="12.1276217"><ele>54.0</ele><time>2026-03-25T14:43:05.05Z</time></trkpt><trkpt lat="44.1692667" lon="12.1276483"><ele>54.0</ele><time>2026-03-25T14:43:06.05Z</time></trkpt><trkpt lat="44.1693483" lon="12.1276717"><ele>54.0</ele><time>2026-03-25T14:43:07.05Z</time></trkpt><trkpt lat="44.1694233" lon="12.127705"><ele>54.0</ele><time>2026-03-25T14:43:08.049Z</time></trkpt><trkpt lat="44.1695" lon="12.1277333"><ele>54.0</ele><time>2026-03-25T14:43:09.049Z</time></trkpt><trkpt lat="44.169565" lon="12.12775"><ele>54.0</ele><time>2026-03-25T14:43:10.05Z</time></trkpt><trkpt lat="44.1696383" lon="12.1277733"><ele>54.0</ele><time>2026-03-25T14:43:11.05Z</time></trkpt><trkpt lat="44.1697133" lon="12.12781"><ele>54.0</ele><time>2026-03-25T14:43:12.049Z</time></trkpt><trkpt lat="44.16978" lon="12.1278333"><ele>54.0</ele><time>2026-03-25T14:43:13.049Z</time></trkpt><trkpt lat="44.169845" lon="12.1278867"><ele>54.0</ele><time>2026-03-25T14:43:14.049Z</time></trkpt><trkpt lat="44.1699183" lon="12.1279217"><ele>53.5</ele><time>2026-03-25T14:43:15.05Z</time></trkpt><trkpt lat="44.1700067" lon="12.1279683"><ele>53.0</ele><time>2026-03-25T14:43:16.049Z</time></trkpt><trkpt lat="44.1700883" lon="12.128"><ele>52.5</ele><time>2026-03-25T14:43:17.05Z</time></trkpt><trkpt lat="44.17017" lon="12.1280367"><ele>52.0</ele><time>2026-03-25T14:43:18.049Z</time></trkpt><trkpt lat="44.170255" lon="12.128075"><ele>51.5</ele><time>2026-03-25T14:43:19.049Z</time></trkpt><trkpt lat="44.1703367" lon="12.1281217"><ele>51.0</ele><time>2026-03-25T14:43:20.049Z</time></trkpt><trkpt lat="44.1704117" lon="12.1281617"><ele>51.0</ele><time>2026-03-25T14:43:21.049Z</time></trkpt><trkpt lat="44.1704933" lon="12.1282"><ele>51.0</ele><time>2026-03-25T14:43:22.05Z</time></trkpt><trkpt lat="44.17058" lon="12.12823"><ele>51.0</ele><time>2026-03-25T14:43:23.049Z</time></trkpt><trkpt lat="44.170665" lon="12.12826"><ele>51.0</ele><time>2026-03-25T14:43:24.05Z</time></trkpt><trkpt lat="44.1707583" lon="12.1282917"><ele>51.0</ele><time>2026-03-25T14:43:25.05Z</time></trkpt><trkpt lat="44.1708533" lon="12.12834"><ele>50.4</ele><time>2026-03-25T14:43:26.05Z</time></trkpt><trkpt lat="44.1709483" lon="12.1283883"><ele>49.8</ele><time>2026-03-25T14:43:27.049Z</time></trkpt><trkpt lat="44.1710417" lon="12.1284317"><ele>49.199999999999996</ele><time>2026-03-25T14:43:28.049Z</time></trkpt><trkpt lat="44.1711383" lon="12.1284783"><ele>48.599999999999994</ele><time>2026-03-25T14:43:29.049Z</time></trkpt><trkpt lat="44.171245" lon="12.1285217"><ele>48.0</ele><time>2026-03-25T14:43:30.05Z</time></trkpt><trkpt lat="44.1713483" lon="12.1285683"><ele>48.0</ele><time>2026-03-25T14:43:31.05Z</time></trkpt><trkpt lat="44.1714517" lon="12.1286133"><ele>48.0</ele><time>2026-03-25T14:43:32.049Z</time></trkpt><trkpt lat="44.1715467" lon="12.12867"><ele>48.0</ele><time>2026-03-25T14:43:33.05Z</time></trkpt><trkpt lat="44.1716367" lon="12.1287217"><ele>48.0</ele><time>2026-03-25T14:43:34.05Z</time></trkpt><trkpt lat="44.17173" lon="12.128775"><ele>48.0</ele><time>2026-03-25T14:43:35.05Z</time></trkpt><trkpt lat="44.1718167" lon="12.128825"><ele>46.4</ele><time>2026-03-25T14:43:36.05Z</time></trkpt><trkpt lat="44.1719033" lon="12.1288717"><ele>44.8</ele><time>2026-03-25T14:43:37.05Z</time></trkpt><trkpt lat="44.1719883" lon="12.1289083"><ele>43.2</ele><time>2026-03-25T14:43:38.05Z</time></trkpt><trkpt lat="44.1720733" lon="12.1289483"><ele>41.6</ele><time>2026-03-25T14:43:39.049Z</time></trkpt><trkpt lat="44.1721583" lon="12.1289917"><ele>40.0</ele><time>2026-03-25T14:43:40.049Z</time></trkpt><trkpt lat="44.1722467" lon="12.129035"><ele>39.6</ele><time>2026-03-25T14:43:41.049Z</time></trkpt><trkpt lat="44.17234" lon="12.1290817"><ele>39.2</ele><time>2026-03-25T14:43:42.05Z</time></trkpt><trkpt lat="44.172435" lon="12.1291217"><ele>38.8</ele><time>2026-03-25T14:43:43.05Z</time></trkpt><trkpt lat="44.1725283" lon="12.1291633"><ele>38.4</ele><time>2026-03-25T14:43:44.049Z</time></trkpt><trkpt lat="44.1726233" lon="12.129205"><ele>38.0</ele><time>2026-03-25T14:43:45.05Z</time></trkpt><trkpt lat="44.1727217" lon="12.129245"><ele>36.0</ele><time>2026-03-25T14:43:46.049Z</time></trkpt><trkpt lat="44.1728183" lon="12.1292883"><ele>34.0</ele><time>2026-03-25T14:43:47.05Z</time></trkpt><trkpt lat="44.1730983" lon="12.1295433"><ele>32.0</ele><time>2026-03-25T14:43:48.633Z</time></trkpt><trkpt lat="44.1730533" lon="12.1294517"><ele>32.0</ele><time>2026-03-25T14:43:49.556Z</time></trkpt><trkpt lat="44.1731183" lon="12.1294517"><ele>32.0</ele><time>2026-03-25T14:43:50.55Z</time></trkpt><trkpt lat="44.1731983" lon="12.12949"><ele>32.0</ele><time>2026-03-25T14:43:51.55Z</time></trkpt><trkpt lat="44.173345" lon="12.129545"><ele>32.0</ele><time>2026-03-25T14:43:53.049Z</time></trkpt><trkpt lat="44.173445" lon="12.1295883"><ele>32.0</ele><time>2026-03-25T14:43:54.049Z</time></trkpt><trkpt lat="44.1735483" lon="12.12963"><ele>31.6</ele><time>2026-03-25T14:43:55.05Z</time></trkpt><trkpt lat="44.1736533" lon="12.1296733"><ele>31.200000000000003</ele><time>2026-03-25T14:43:56.05Z</time></trkpt><trkpt lat="44.1737583" lon="12.12972"><ele>30.8</ele><time>2026-03-25T14:43:57.05Z</time></trkpt><trkpt lat="44.17386" lon="12.129775"><ele>30.4</ele><time>2026-03-25T14:43:58.05Z</time></trkpt><trkpt lat="44.1739617" lon="12.1298383"><ele>30.0</ele><time>2026-03-25T14:43:59.05Z</time></trkpt><trkpt lat="44.17406" lon="12.1299033"><ele>29.8</ele><time>2026-03-25T14:44:00.05Z</time></trkpt><trkpt lat="44.1741533" lon="12.129965"><ele>29.6</ele><time>2026-03-25T14:44:01.05Z</time></trkpt><trkpt lat="44.17425" lon="12.1300317"><ele>29.4</ele><time>2026-03-25T14:44:02.05Z</time></trkpt><trkpt lat="44.1743417" lon="12.1300967"><ele>29.2</ele><time>2026-03-25T14:44:03.05Z</time></trkpt><trkpt lat="44.174435" lon="12.13016"><ele>29.0</ele><time>2026-03-25T14:44:04.05Z</time></trkpt><trkpt lat="44.174525" lon="12.13022"><ele>29.0</ele><time>2026-03-25T14:44:05.049Z</time></trkpt><trkpt lat="44.1746117" lon="12.1302817"><ele>29.0</ele><time>2026-03-25T14:44:06.049Z</time></trkpt><trkpt lat="44.174695" lon="12.1303333"><ele>29.0</ele><time>2026-03-25T14:44:07.049Z</time></trkpt><trkpt lat="44.17478" lon="12.1303833"><ele>29.0</ele><time>2026-03-25T14:44:08.049Z</time></trkpt><trkpt lat="44.1748667" lon="12.130435"><ele>29.0</ele><time>2026-03-25T14:44:09.05Z</time></trkpt><trkpt lat="44.1749517" lon="12.1304883"><ele>29.0</ele><time>2026-03-25T14:44:10.049Z</time></trkpt><trkpt lat="44.1750333" lon="12.13054"><ele>29.0</ele><time>2026-03-25T14:44:11.049Z</time></trkpt><trkpt lat="44.1751133" lon="12.1305917"><ele>29.0</ele><time>2026-03-25T14:44:12.05Z</time></trkpt><trkpt lat="44.1751933" lon="12.1306483"><ele>29.0</ele><time>2026-03-25T14:44:13.049Z</time></trkpt><trkpt lat="44.1752767" lon="12.1307167"><ele>29.0</ele><time>2026-03-25T14:44:14.05Z</time></trkpt><trkpt lat="44.175355" lon="12.1307817"><ele>29.333333333333332</ele><time>2026-03-25T14:44:15.049Z</time></trkpt><trkpt lat="44.1754333" lon="12.1308383"><ele>29.666666666666664</ele><time>2026-03-25T14:44:16.05Z</time></trkpt><trkpt lat="44.1755183" lon="12.1308933"><ele>30.0</ele><time>2026-03-25T14:44:17.049Z</time></trkpt><trkpt lat="44.1756" lon="12.1309417"><ele>30.333333333333336</ele><time>2026-03-25T14:44:18.05Z</time></trkpt><trkpt lat="44.17568" lon="12.1309867"><ele>30.666666666666668</ele><time>2026-03-25T14:44:19.049Z</time></trkpt><trkpt lat="44.1757583" lon="12.1310417"><ele>31.0</ele><time>2026-03-25T14:44:20.05Z</time></trkpt><trkpt lat="44.1758333" lon="12.13111"><ele>31.000000000000004</ele><time>2026-03-25T14:44:21.05Z</time></trkpt><trkpt lat="44.1759067" lon="12.131175"><ele>31.0</ele><time>2026-03-25T14:44:22.05Z</time></trkpt><trkpt lat="44.175985" lon="12.1312367"><ele>31.0</ele><time>2026-03-25T14:44:23.049Z</time></trkpt><trkpt lat="44.1760667" lon="12.131295"><ele>31.0</ele><time>2026-03-25T14:44:24.05Z</time></trkpt><trkpt lat="44.1761433" lon="12.13135"><ele>31.000000000000004</ele><time>2026-03-25T14:44:25.05Z</time></trkpt><trkpt lat="44.176215" lon="12.1314033"><ele>31.0</ele><time>2026-03-25T14:44:26.05Z</time></trkpt><trkpt lat="44.176285" lon="12.1314583"><ele>31.000000000000004</ele><time>2026-03-25T14:44:27.049Z</time></trkpt><trkpt lat="44.1763617" lon="12.13151"><ele>31.0</ele><time>2026-03-25T14:44:28.049Z</time></trkpt><trkpt lat="44.1764267" lon="12.13156"><ele>31.0</ele><time>2026-03-25T14:44:29.05Z</time></trkpt><trkpt lat="44.1764917" lon="12.1316067"><ele>31.0</ele><time>2026-03-25T14:44:30.05Z</time></trkpt><trkpt lat="44.1765583" lon="12.1316517"><ele>31.000000000000004</ele><time>2026-03-25T14:44:31.049Z</time></trkpt><trkpt lat="44.1766233" lon="12.1316983"><ele>31.0</ele><time>2026-03-25T14:44:32.05Z</time></trkpt><trkpt lat="44.17669" lon="12.1317533"><ele>30.714285714285715</ele><time>2026-03-25T14:44:33.05Z</time></trkpt><trkpt lat="44.1767517" lon="12.1318017"><ele>30.42857142857143</ele><time>2026-03-25T14:44:34.05Z</time></trkpt><trkpt lat="44.1768133" lon="12.1318433"><ele>30.142857142857146</ele><time>2026-03-25T14:44:35.049Z</time></trkpt><trkpt lat="44.1768733" lon="12.131885"><ele>29.85714285714286</ele><time>2026-03-25T14:44:36.05Z</time></trkpt><trkpt lat="44.1769367" lon="12.131925"><ele>29.571428571428573</ele><time>2026-03-25T14:44:37.05Z</time></trkpt><trkpt lat="44.1770017" lon="12.1319567"><ele>29.285714285714292</ele><time>2026-03-25T14:44:38.05Z</time></trkpt><trkpt lat="44.1770617" lon="12.1319967"><ele>29.000000000000004</ele><time>2026-03-25T14:44:39.05Z</time></trkpt><trkpt lat="44.1771733" lon="12.1320667"><ele>29.0</ele><time>2026-03-25T14:44:41.049Z</time></trkpt><trkpt lat="44.1772317" lon="12.1321017"><ele>29.0</ele><time>2026-03-25T14:44:42.05Z</time></trkpt><trkpt lat="44.1772883" lon="12.1321433"><ele>29.0</ele><time>2026-03-25T14:44:43.049Z</time></trkpt><trkpt lat="44.1774" lon="12.1322217"><ele>29.0</ele><time>2026-03-25T14:44:45.05Z</time></trkpt><trkpt lat="44.17751" lon="12.1322983"><ele>29.0</ele><time>2026-03-25T14:44:47.049Z</time></trkpt><trkpt lat="44.1776217" lon="12.1323933"><ele>29.25</ele><time>2026-03-25T14:44:49.049Z</time></trkpt><trkpt lat="44.1777217" lon="12.1324683"><ele>29.5</ele><time>2026-03-25T14:44:51.049Z</time></trkpt><trkpt lat="44.17782" lon="12.1325367"><ele>29.75</ele><time>2026-03-25T14:44:53.049Z</time></trkpt><trkpt lat="44.1779233" lon="12.1326183"><ele>30.0</ele><time>2026-03-25T14:44:55.049Z</time></trkpt><trkpt lat="44.1780283" lon="12.1326933"><ele>30.0</ele><time>2026-03-25T14:44:57.05Z</time></trkpt><trkpt lat="44.1781333" lon="12.132765"><ele>30.0</ele><time>2026-03-25T14:44:59.049Z</time></trkpt><trkpt lat="44.1782417" lon="12.1328383"><ele>30.0</ele><time>2026-03-25T14:45:01.049Z</time></trkpt><trkpt lat="44.178345" lon="12.1329133"><ele>30.0</ele><time>2026-03-25T14:45:03.049Z</time></trkpt><trkpt lat="44.1784483" lon="12.1329817"><ele>29.75</ele><time>2026-03-25T14:45:05.05Z</time></trkpt><trkpt lat="44.1785517" lon="12.1330517"><ele>29.5</ele><time>2026-03-25T14:45:07.049Z</time></trkpt><trkpt lat="44.1786567" lon="12.1331233"><ele>29.25</ele><time>2026-03-25T14:45:09.05Z</time></trkpt><trkpt lat="44.17876" lon="12.1331917"><ele>29.0</ele><time>2026-03-25T14:45:11.049Z</time></trkpt><trkpt lat="44.178865" lon="12.1332667"><ele>28.75</ele><time>2026-03-25T14:45:13.05Z</time></trkpt><trkpt lat="44.1789667" lon="12.1333483"><ele>28.5</ele><time>2026-03-25T14:45:15.05Z</time></trkpt><trkpt lat="44.1790667" lon="12.1334217"><ele>28.25</ele><time>2026-03-25T14:45:17.049Z</time></trkpt><trkpt lat="44.17917" lon="12.13349"><ele>28.0</ele><time>2026-03-25T14:45:19.049Z</time></trkpt><trkpt lat="44.1792683" lon="12.13356"><ele>28.0</ele><time>2026-03-25T14:45:21.049Z</time></trkpt><trkpt lat="44.1793683" lon="12.1336383"><ele>28.0</ele><time>2026-03-25T14:45:23.05Z</time></trkpt><trkpt lat="44.1794733" lon="12.1337183"><ele>28.0</ele><time>2026-03-25T14:45:25.05Z</time></trkpt><trkpt lat="44.17957" lon="12.1338017"><ele>28.0</ele><time>2026-03-25T14:45:27.05Z</time></trkpt><trkpt lat="44.1796667" lon="12.1338867"><ele>28.0</ele><time>2026-03-25T14:45:29.049Z</time></trkpt><trkpt lat="44.17976" lon="12.1339717"><ele>28.0</ele><time>2026-03-25T14:45:31.049Z</time></trkpt><trkpt lat="44.1798583" lon="12.134065"><ele>28.0</ele><time>2026-03-25T14:45:33.049Z</time></trkpt><trkpt lat="44.1799517" lon="12.1341533"><ele>28.0</ele><time>2026-03-25T14:45:35.05Z</time></trkpt><trkpt lat="44.1800417" lon="12.134235"><ele>28.2</ele><time>2026-03-25T14:45:37.049Z</time></trkpt><trkpt lat="44.180135" lon="12.134315"><ele>28.4</ele><time>2026-03-25T14:45:39.049Z</time></trkpt><trkpt lat="44.1802267" lon="12.134405"><ele>28.599999999999998</ele><time>2026-03-25T14:45:41.049Z</time></trkpt><trkpt lat="44.1803083" lon="12.1344717"><ele>28.799999999999997</ele><time>2026-03-25T14:45:43.049Z</time></trkpt><trkpt lat="44.1803883" lon="12.1345417"><ele>29.0</ele><time>2026-03-25T14:45:45.049Z</time></trkpt><trkpt lat="44.180475" lon="12.1346133"><ele>29.0</ele><time>2026-03-25T14:45:47.05Z</time></trkpt><trkpt lat="44.180565" lon="12.13469"><ele>29.0</ele><time>2026-03-25T14:45:49.049Z</time></trkpt><trkpt lat="44.1806667" lon="12.1347683"><ele>29.0</ele><time>2026-03-25T14:45:51.05Z</time></trkpt><trkpt lat="44.1807783" lon="12.1348383"><ele>29.0</ele><time>2026-03-25T14:45:53.049Z</time></trkpt><trkpt lat="44.18088" lon="12.1349083"><ele>28.799999999999997</ele><time>2026-03-25T14:45:55.05Z</time></trkpt><trkpt lat="44.1809783" lon="12.1349683"><ele>28.599999999999998</ele><time>2026-03-25T14:45:57.05Z</time></trkpt><trkpt lat="44.1810767" lon="12.1350267"><ele>28.4</ele><time>2026-03-25T14:45:59.05Z</time></trkpt><trkpt lat="44.1811733" lon="12.1350933"><ele>28.2</ele><time>2026-03-25T14:46:01.05Z</time></trkpt><trkpt lat="44.1812733" lon="12.135155"><ele>28.0</ele><time>2026-03-25T14:46:03.05Z</time></trkpt><trkpt lat="44.1813783" lon="12.1352133"><ele>28.0</ele><time>2026-03-25T14:46:05.05Z</time></trkpt><trkpt lat="44.1814833" lon="12.1352867"><ele>28.0</ele><time>2026-03-25T14:46:07.049Z</time></trkpt><trkpt lat="44.1815867" lon="12.1353483"><ele>28.0</ele><time>2026-03-25T14:46:09.05Z</time></trkpt><trkpt lat="44.181685" lon="12.13541"><ele>28.0</ele><time>2026-03-25T14:46:11.049Z</time></trkpt><trkpt lat="44.18179" lon="12.1354767"><ele>28.2</ele><time>2026-03-25T14:46:13.05Z</time></trkpt><trkpt lat="44.1818967" lon="12.1355417"><ele>28.4</ele><time>2026-03-25T14:46:15.05Z</time></trkpt><trkpt lat="44.1820017" lon="12.13561"><ele>28.599999999999998</ele><time>2026-03-25T14:46:17.05Z</time></trkpt><trkpt lat="44.18206" lon="12.135645"><ele>28.799999999999997</ele><time>2026-03-25T14:46:18.05Z</time></trkpt><trkpt lat="44.18217" lon="12.135705"><ele>29.0</ele><time>2026-03-25T14:46:20.05Z</time></trkpt><trkpt lat="44.1822783" lon="12.1357717"><ele>28.999999999999996</ele><time>2026-03-25T14:46:22.049Z</time></trkpt><trkpt lat="44.1823683" lon="12.1358417"><ele>29.0</ele><time>2026-03-25T14:46:24.049Z</time></trkpt><trkpt lat="44.1824233" lon="12.1358983"><ele>29.0</ele><time>2026-03-25T14:46:26.049Z</time></trkpt><trkpt lat="44.182505" lon="12.1359433"><ele>29.0</ele><time>2026-03-25T14:46:29.049Z</time></trkpt><trkpt lat="44.18259" lon="12.1359383"><ele>28.999999999999996</ele><time>2026-03-25T14:46:32.049Z</time></trkpt><trkpt lat="44.1826667" lon="12.1358533"><ele>29.0</ele><time>2026-03-25T14:46:35.05Z</time></trkpt><trkpt lat="44.182715" lon="12.13577"><ele>29.2</ele><time>2026-03-25T14:46:37.05Z</time></trkpt><trkpt lat="44.1827633" lon="12.1356817"><ele>29.4</ele><time>2026-03-25T14:46:39.05Z</time></trkpt><trkpt lat="44.1828167" lon="12.13558"><ele>29.6</ele><time>2026-03-25T14:46:41.05Z</time></trkpt><trkpt lat="44.18288" lon="12.1354733"><ele>29.8</ele><time>2026-03-25T14:46:43.05Z</time></trkpt><trkpt lat="44.182955" lon="12.13539"><ele>30.0</ele><time>2026-03-25T14:46:45.05Z</time></trkpt><trkpt lat="44.1830333" lon="12.1353283"><ele>30.0</ele><time>2026-03-25T14:46:47.049Z</time></trkpt><trkpt lat="44.1831117" lon="12.1352833"><ele>30.0</ele><time>2026-03-25T14:46:49.049Z</time></trkpt><trkpt lat="44.1831983" lon="12.1352667"><ele>30.0</ele><time>2026-03-25T14:46:51.049Z</time></trkpt><trkpt lat="44.1832833" lon="12.135255"><ele>30.0</ele><time>2026-03-25T14:46:53.05Z</time></trkpt><trkpt lat="44.1833617" lon="12.1352133"><ele>30.0</ele><time>2026-03-25T14:46:55.05Z</time></trkpt><trkpt lat="44.1834517" lon="12.1351767"><ele>30.0</ele><time>2026-03-25T14:46:57.05Z</time></trkpt><trkpt lat="44.1835467" lon="12.135195"><ele>29.6</ele><time>2026-03-25T14:46:59.05Z</time></trkpt><trkpt lat="44.1836467" lon="12.1352217"><ele>29.2</ele><time>2026-03-25T14:47:01.049Z</time></trkpt><trkpt lat="44.1837583" lon="12.1352417"><ele>28.799999999999997</ele><time>2026-03-25T14:47:03.049Z</time></trkpt><trkpt lat="44.1838617" lon="12.1352583"><ele>28.4</ele><time>2026-03-25T14:47:05.049Z</time></trkpt><trkpt lat="44.1839667" lon="12.1352783"><ele>28.0</ele><time>2026-03-25T14:47:07.049Z</time></trkpt><trkpt lat="44.184075" lon="12.1352983"><ele>27.799999999999997</ele><time>2026-03-25T14:47:09.049Z</time></trkpt><trkpt lat="44.18418" lon="12.1353117"><ele>27.599999999999998</ele><time>2026-03-25T14:47:11.049Z</time></trkpt><trkpt lat="44.1842783" lon="12.1353233"><ele>27.400000000000002</ele><time>2026-03-25T14:47:13.05Z</time></trkpt><trkpt lat="44.1843933" lon="12.1353383"><ele>27.200000000000003</ele><time>2026-03-25T14:47:15.05Z</time></trkpt><trkpt lat="44.1845083" lon="12.1353667"><ele>27.0</ele><time>2026-03-25T14:47:17.049Z</time></trkpt><trkpt lat="44.1846283" lon="12.135385"><ele>27.0</ele><time>2026-03-25T14:47:19.05Z</time></trkpt><trkpt lat="44.184745" lon="12.13541"><ele>27.0</ele><time>2026-03-25T14:47:21.05Z</time></trkpt><trkpt lat="44.1848583" lon="12.1354367"><ele>27.0</ele><time>2026-03-25T14:47:23.049Z</time></trkpt><trkpt lat="44.1849767" lon="12.1354583"><ele>27.0</ele><time>2026-03-25T14:47:25.05Z</time></trkpt><trkpt lat="44.185095" lon="12.1354867"><ele>26.8</ele><time>2026-03-25T14:47:27.049Z</time></trkpt><trkpt lat="44.185215" lon="12.1355033"><ele>26.6</ele><time>2026-03-25T14:47:29.049Z</time></trkpt><trkpt lat="44.1853367" lon="12.1355117"><ele>26.400000000000002</ele><time>2026-03-25T14:47:31.049Z</time></trkpt><trkpt lat="44.1854" lon="12.1355167"><ele>26.200000000000003</ele><time>2026-03-25T14:47:32.049Z</time></trkpt><trkpt lat="44.1855233" lon="12.13554"><ele>26.0</ele><time>2026-03-25T14:47:34.049Z</time></trkpt><trkpt lat="44.1855867" lon="12.1355483"><ele>26.0</ele><time>2026-03-25T14:47:35.049Z</time></trkpt><trkpt lat="44.1856517" lon="12.135555"><ele>26.0</ele><time>2026-03-25T14:47:36.05Z</time></trkpt><trkpt lat="44.1857167" lon="12.135565"><ele>26.0</ele><time>2026-03-25T14:47:37.05Z</time></trkpt><trkpt lat="44.1858383" lon="12.1355733"><ele>26.0</ele><time>2026-03-25T14:47:39.05Z</time></trkpt><trkpt lat="44.185955" lon="12.13559"><ele>26.0</ele><time>2026-03-25T14:47:41.049Z</time></trkpt><trkpt lat="44.186075" lon="12.1355983"><ele>25.999999999999996</ele><time>2026-03-25T14:47:43.05Z</time></trkpt><trkpt lat="44.1861417" lon="12.1356017"><ele>26.0</ele><time>2026-03-25T14:47:44.05Z</time></trkpt><trkpt lat="44.1862617" lon="12.135605"><ele>26.0</ele><time>2026-03-25T14:47:46.049Z</time></trkpt><trkpt lat="44.1863283" lon="12.1356067"><ele>26.0</ele><time>2026-03-25T14:47:47.05Z</time></trkpt><trkpt lat="44.1863917" lon="12.1356117"><ele>25.999999999999996</ele><time>2026-03-25T14:47:48.05Z</time></trkpt><trkpt lat="44.1865133" lon="12.1356117"><ele>26.0</ele><time>2026-03-25T14:47:50.049Z</time></trkpt><trkpt lat="44.18663" lon="12.135615"><ele>26.0</ele><time>2026-03-25T14:47:52.05Z</time></trkpt><trkpt lat="44.18675" lon="12.1356083"><ele>26.0</ele><time>2026-03-25T14:47:54.05Z</time></trkpt><trkpt lat="44.186865" lon="12.1356083"><ele>26.0</ele><time>2026-03-25T14:47:56.05Z</time></trkpt><trkpt lat="44.1869783" lon="12.1356217"><ele>26.0</ele><time>2026-03-25T14:47:58.05Z</time></trkpt><trkpt lat="44.1871033" lon="12.1356367"><ele>26.0</ele><time>2026-03-25T14:48:00.049Z</time></trkpt><trkpt lat="44.1872283" lon="12.1356417"><ele>26.0</ele><time>2026-03-25T14:48:02.049Z</time></trkpt><trkpt lat="44.1873467" lon="12.1356417"><ele>26.0</ele><time>2026-03-25T14:48:04.049Z</time></trkpt><trkpt lat="44.1874617" lon="12.1356333"><ele>26.0</ele><time>2026-03-25T14:48:06.048Z</time></trkpt><trkpt lat="44.1875633" lon="12.135625"><ele>26.0</ele><time>2026-03-25T14:48:08.048Z</time></trkpt><trkpt lat="44.18764" lon="12.1356667"><ele>26.0</ele><time>2026-03-25T14:48:10.049Z</time></trkpt><trkpt lat="44.18767" lon="12.1357617"><ele>26.0</ele><time>2026-03-25T14:48:12.049Z</time></trkpt><trkpt lat="44.1876767" lon="12.1358767"><ele>26.0</ele><time>2026-03-25T14:48:14.049Z</time></trkpt><trkpt lat="44.1877133" lon="12.1360117"><ele>26.0</ele><time>2026-03-25T14:48:16.049Z</time></trkpt><trkpt lat="44.187815" lon="12.1360667"><ele>26.0</ele><time>2026-03-25T14:48:18.049Z</time></trkpt><trkpt lat="44.187905" lon="12.13599"><ele>26.0</ele><time>2026-03-25T14:48:20.049Z</time></trkpt><trkpt lat="44.1879417" lon="12.1358567"><ele>26.0</ele><time>2026-03-25T14:48:22.049Z</time></trkpt><trkpt lat="44.1879483" lon="12.135715"><ele>26.0</ele><time>2026-03-25T14:48:24.048Z</time></trkpt><trkpt lat="44.1879683" lon="12.1355767"><ele>26.0</ele><time>2026-03-25T14:48:26.049Z</time></trkpt><trkpt lat="44.1879867" lon="12.1354333"><ele>26.200000000000003</ele><time>2026-03-25T14:48:28.049Z</time></trkpt><trkpt lat="44.187985" lon="12.1352917"><ele>26.400000000000002</ele><time>2026-03-25T14:48:30.049Z</time></trkpt><trkpt lat="44.1879767" lon="12.1351683"><ele>26.6</ele><time>2026-03-25T14:48:32.049Z</time></trkpt><trkpt lat="44.1879717" lon="12.1350367"><ele>26.8</ele><time>2026-03-25T14:48:34.049Z</time></trkpt><trkpt lat="44.1879633" lon="12.1349017"><ele>27.0</ele><time>2026-03-25T14:48:36.049Z</time></trkpt><trkpt lat="44.1879517" lon="12.1347567"><ele>27.0</ele><time>2026-03-25T14:48:38.048Z</time></trkpt><trkpt lat="44.1879483" lon="12.13462"><ele>27.000000000000004</ele><time>2026-03-25T14:48:40.049Z</time></trkpt><trkpt lat="44.18795" lon="12.134475"><ele>27.000000000000004</ele><time>2026-03-25T14:48:42.048Z</time></trkpt><trkpt lat="44.1879517" lon="12.1343283"><ele>27.0</ele><time>2026-03-25T14:48:44.049Z</time></trkpt><trkpt lat="44.1879417" lon="12.1341883"><ele>27.0</ele><time>2026-03-25T14:48:46.048Z</time></trkpt><trkpt lat="44.187935" lon="12.13406"><ele>27.0</ele><time>2026-03-25T14:48:48.049Z</time></trkpt><trkpt lat="44.1879317" lon="12.1339233"><ele>27.000000000000004</ele><time>2026-03-25T14:48:50.048Z</time></trkpt><trkpt lat="44.1879183" lon="12.1337833"><ele>27.000000000000004</ele><time>2026-03-25T14:48:52.048Z</time></trkpt><trkpt lat="44.1879017" lon="12.133645"><ele>27.0</ele><time>2026-03-25T14:48:54.049Z</time></trkpt><trkpt lat="44.1878883" lon="12.1335017"><ele>27.0</ele><time>2026-03-25T14:48:56.048Z</time></trkpt><trkpt lat="44.18789" lon="12.1333767"><ele>27.0</ele><time>2026-03-25T14:48:58.048Z</time></trkpt><trkpt lat="44.1878833" lon="12.1332467"><ele>27.000000000000004</ele><time>2026-03-25T14:49:00.048Z</time></trkpt><trkpt lat="44.187875" lon="12.1331067"><ele>27.000000000000004</ele><time>2026-03-25T14:49:02.049Z</time></trkpt><trkpt lat="44.1878683" lon="12.1329217"><ele>27.0</ele><time>2026-03-25T14:49:05.049Z</time></trkpt><trkpt lat="44.187855" lon="12.132805"><ele>27.0</ele><time>2026-03-25T14:49:07.049Z</time></trkpt><trkpt lat="44.1878433" lon="12.1326817"><ele>27.200000000000003</ele><time>2026-03-25T14:49:09.048Z</time></trkpt><trkpt lat="44.1878433" lon="12.13255"><ele>27.400000000000002</ele><time>2026-03-25T14:49:11.048Z</time></trkpt><trkpt lat="44.1878333" lon="12.13241"><ele>27.599999999999998</ele><time>2026-03-25T14:49:13.049Z</time></trkpt><trkpt lat="44.1878217" lon="12.1322783"><ele>27.799999999999997</ele><time>2026-03-25T14:49:15.049Z</time></trkpt><trkpt lat="44.1878167" lon="12.1321533"><ele>28.0</ele><time>2026-03-25T14:49:17.049Z</time></trkpt><trkpt lat="44.1878183" lon="12.1320267"><ele>28.2</ele><time>2026-03-25T14:49:19.048Z</time></trkpt><trkpt lat="44.18782" lon="12.1318933"><ele>28.4</ele><time>2026-03-25T14:49:21.049Z</time></trkpt><trkpt lat="44.18782" lon="12.1317517"><ele>28.599999999999998</ele><time>2026-03-25T14:49:23.048Z</time></trkpt><trkpt lat="44.187825" lon="12.131605"><ele>28.799999999999997</ele><time>2026-03-25T14:49:25.048Z</time></trkpt><trkpt lat="44.1878283" lon="12.1314617"><ele>29.0</ele><time>2026-03-25T14:49:27.049Z</time></trkpt><trkpt lat="44.1878233" lon="12.131325"><ele>29.0</ele><time>2026-03-25T14:49:29.049Z</time></trkpt><trkpt lat="44.1878317" lon="12.1311917"><ele>29.0</ele><time>2026-03-25T14:49:31.049Z</time></trkpt><trkpt lat="44.1878267" lon="12.1310483"><ele>29.0</ele><time>2026-03-25T14:49:33.049Z</time></trkpt><trkpt lat="44.1878167" lon="12.1309033"><ele>29.0</ele><time>2026-03-25T14:49:35.049Z</time></trkpt><trkpt lat="44.1878217" lon="12.1307583"><ele>29.0</ele><time>2026-03-25T14:49:37.048Z</time></trkpt><trkpt lat="44.1878233" lon="12.1306217"><ele>29.0</ele><time>2026-03-25T14:49:39.048Z</time></trkpt><trkpt lat="44.1878183" lon="12.13048"><ele>29.0</ele><time>2026-03-25T14:49:41.049Z</time></trkpt><trkpt lat="44.1878233" lon="12.1303433"><ele>29.0</ele><time>2026-03-25T14:49:43.048Z</time></trkpt><trkpt lat="44.1878283" lon="12.1302017"><ele>29.0</ele><time>2026-03-25T14:49:45.048Z</time></trkpt><trkpt lat="44.1878367" lon="12.1300483"><ele>29.0</ele><time>2026-03-25T14:49:47.048Z</time></trkpt><trkpt lat="44.1878317" lon="12.1299083"><ele>29.166666666666664</ele><time>2026-03-25T14:49:49.048Z</time></trkpt><trkpt lat="44.1878333" lon="12.1297817"><ele>29.333333333333332</ele><time>2026-03-25T14:49:51.048Z</time></trkpt><trkpt lat="44.1878333" lon="12.129665"><ele>29.5</ele><time>2026-03-25T14:49:53.049Z</time></trkpt><trkpt lat="44.1878367" lon="12.1295467"><ele>29.666666666666664</ele><time>2026-03-25T14:49:55.049Z</time></trkpt><trkpt lat="44.1878367" lon="12.1294267"><ele>29.833333333333332</ele><time>2026-03-25T14:49:57.049Z</time></trkpt><trkpt lat="44.187835" lon="12.1293017"><ele>30.0</ele><time>2026-03-25T14:49:59.049Z</time></trkpt><trkpt lat="44.187835" lon="12.1291833"><ele>30.333333333333332</ele><time>2026-03-25T14:50:01.048Z</time></trkpt><trkpt lat="44.1878317" lon="12.1290533"><ele>30.666666666666664</ele><time>2026-03-25T14:50:03.048Z</time></trkpt><trkpt lat="44.1878333" lon="12.12892"><ele>31.0</ele><time>2026-03-25T14:50:05.049Z</time></trkpt><trkpt lat="44.1878467" lon="12.128795"><ele>31.333333333333332</ele><time>2026-03-25T14:50:07.048Z</time></trkpt><trkpt lat="44.1878967" lon="12.1287083"><ele>31.666666666666664</ele><time>2026-03-25T14:50:09.048Z</time></trkpt><trkpt lat="44.1879767" lon="12.12867"><ele>32.0</ele><time>2026-03-25T14:50:11.048Z</time></trkpt><trkpt lat="44.188065" lon="12.1286617"><ele>32.0</ele><time>2026-03-25T14:50:13.048Z</time></trkpt><trkpt lat="44.1881583" lon="12.1286517"><ele>32.0</ele><time>2026-03-25T14:50:15.049Z</time></trkpt><trkpt lat="44.1882533" lon="12.1286383"><ele>32.0</ele><time>2026-03-25T14:50:17.049Z</time></trkpt><trkpt lat="44.1883533" lon="12.12863"><ele>32.0</ele><time>2026-03-25T14:50:19.048Z</time></trkpt><trkpt lat="44.18846" lon="12.128625"><ele>32.0</ele><time>2026-03-25T14:50:21.048Z</time></trkpt><trkpt lat="44.188565" lon="12.1286133"><ele>31.8</ele><time>2026-03-25T14:50:23.049Z</time></trkpt><trkpt lat="44.1886733" lon="12.12861"><ele>31.6</ele><time>2026-03-25T14:50:25.049Z</time></trkpt><trkpt lat="44.188785" lon="12.1285883"><ele>31.400000000000002</ele><time>2026-03-25T14:50:27.049Z</time></trkpt><trkpt lat="44.1888983" lon="12.128565"><ele>31.200000000000003</ele><time>2026-03-25T14:50:29.048Z</time></trkpt><trkpt lat="44.1890017" lon="12.12853"><ele>31.0</ele><time>2026-03-25T14:50:31.049Z</time></trkpt><trkpt lat="44.18912" lon="12.12851"><ele>30.8</ele><time>2026-03-25T14:50:33.048Z</time></trkpt><trkpt lat="44.1892183" lon="12.128465"><ele>30.6</ele><time>2026-03-25T14:50:35.048Z</time></trkpt><trkpt lat="44.18932" lon="12.1284117"><ele>30.4</ele><time>2026-03-25T14:50:37.048Z</time></trkpt><trkpt lat="44.1894233" lon="12.128365"><ele>30.2</ele><time>2026-03-25T14:50:39.048Z</time></trkpt><trkpt lat="44.1895217" lon="12.128315"><ele>30.0</ele><time>2026-03-25T14:50:41.048Z</time></trkpt><trkpt lat="44.1896167" lon="12.1282417"><ele>30.4</ele><time>2026-03-25T14:50:43.048Z</time></trkpt><trkpt lat="44.1896867" lon="12.128135"><ele>30.8</ele><time>2026-03-25T14:50:45.048Z</time></trkpt><trkpt lat="44.18973" lon="12.12801"><ele>31.200000000000003</ele><time>2026-03-25T14:50:47.048Z</time></trkpt><trkpt lat="44.189765" lon="12.1278683"><ele>31.6</ele><time>2026-03-25T14:50:49.048Z</time></trkpt><trkpt lat="44.18977" lon="12.1277133"><ele>32.0</ele><time>2026-03-25T14:50:51.048Z</time></trkpt><trkpt lat="44.1897683" lon="12.127575"><ele>32.0</ele><time>2026-03-25T14:50:53.048Z</time></trkpt><trkpt lat="44.18977" lon="12.1274433"><ele>32.0</ele><time>2026-03-25T14:50:55.049Z</time></trkpt><trkpt lat="44.1897667" lon="12.1272833"><ele>32.0</ele><time>2026-03-25T14:50:58.048Z</time></trkpt><trkpt lat="44.1897667" lon="12.1271683"><ele>32.0</ele><time>2026-03-25T14:51:00.049Z</time></trkpt><trkpt lat="44.1897767" lon="12.1270567"><ele>32.0</ele><time>2026-03-25T14:51:02.049Z</time></trkpt><trkpt lat="44.1897467" lon="12.1269467"><ele>32.0</ele><time>2026-03-25T14:51:04.049Z</time></trkpt><trkpt lat="44.18968" lon="12.1269017"><ele>31.999999999999996</ele><time>2026-03-25T14:51:06.048Z</time></trkpt><trkpt lat="44.189615" lon="12.1269233"><ele>32.0</ele><time>2026-03-25T14:51:08.048Z</time></trkpt><trkpt lat="44.1895533" lon="12.126905"><ele>32.0</ele><time>2026-03-25T14:51:10.049Z</time></trkpt><trkpt lat="44.1894817" lon="12.1268817"><ele>31.999999999999996</ele><time>2026-03-25T14:51:12.048Z</time></trkpt><trkpt lat="44.189405" lon="12.126885"><ele>32.0</ele><time>2026-03-25T14:51:14.049Z</time></trkpt><trkpt lat="44.189335" lon="12.1268783"><ele>32.0</ele><time>2026-03-25T14:51:16.049Z</time></trkpt><trkpt lat="44.18925" lon="12.1268783"><ele>32.0</ele><time>2026-03-25T14:51:19.049Z</time></trkpt><trkpt lat="44.1891733" lon="12.1269"><ele>31.999999999999996</ele><time>2026-03-25T14:51:22.048Z</time></trkpt><trkpt lat="44.1890983" lon="12.126895"><ele>32.0</ele><time>2026-03-25T14:51:25.048Z</time></trkpt><trkpt lat="44.1890283" lon="12.1268767"><ele>32.0</ele><time>2026-03-25T14:51:28.049Z</time></trkpt><trkpt lat="44.1889683" lon="12.1269033"><ele>31.999999999999996</ele><time>2026-03-25T14:51:52.049Z</time></trkpt><trkpt lat="44.1888983" lon="12.1268783"><ele>32.0</ele><time>2026-03-25T14:51:56.048Z</time></trkpt><trkpt lat="44.1888367" lon="12.1268333"><ele>32.0</ele><time>2026-03-25T14:51:59.048Z</time></trkpt><trkpt lat="44.1887617" lon="12.1267767"><ele>32.166666666666664</ele><time>2026-03-25T14:52:02.048Z</time></trkpt><trkpt lat="44.1886983" lon="12.1267467"><ele>32.33333333333333</ele><time>2026-03-25T14:52:04.049Z</time></trkpt><trkpt lat="44.1886283" lon="12.1267067"><ele>32.5</ele><time>2026-03-25T14:52:06.049Z</time></trkpt><trkpt lat="44.1885567" lon="12.1266767"><ele>32.666666666666664</ele><time>2026-03-25T14:52:08.049Z</time></trkpt><trkpt lat="44.1884833" lon="12.1266583"><ele>32.833333333333336</ele><time>2026-03-25T14:52:10.049Z</time></trkpt><trkpt lat="44.1884083" lon="12.12663"><ele>33.0</ele><time>2026-03-25T14:52:12.049Z</time></trkpt><trkpt lat="44.1883133" lon="12.1266117"><ele>33.0</ele><time>2026-03-25T14:52:14.048Z</time></trkpt><trkpt lat="44.1882183" lon="12.1266"><ele>33.0</ele><time>2026-03-25T14:52:16.049Z</time></trkpt><trkpt lat="44.188125" lon="12.1265867"><ele>33.0</ele><time>2026-03-25T14:52:18.048Z</time></trkpt><trkpt lat="44.188045" lon="12.126565"><ele>33.0</ele><time>2026-03-25T14:52:20.048Z</time></trkpt><trkpt lat="44.18796" lon="12.1265433"><ele>33.0</ele><time>2026-03-25T14:52:22.049Z</time></trkpt><trkpt lat="44.1878867" lon="12.1265183"><ele>33.0</ele><time>2026-03-25T14:52:24.049Z</time></trkpt><trkpt lat="44.1878033" lon="12.1265"><ele>32.833333333333336</ele><time>2026-03-25T14:52:26.049Z</time></trkpt><trkpt lat="44.1877183" lon="12.126495"><ele>32.666666666666664</ele><time>2026-03-25T14:52:28.049Z</time></trkpt><trkpt lat="44.18765" lon="12.1264717"><ele>32.5</ele><time>2026-03-25T14:52:30.048Z</time></trkpt><trkpt lat="44.1875567" lon="12.1264633"><ele>32.33333333333333</ele><time>2026-03-25T14:52:33.049Z</time></trkpt><trkpt lat="44.1874833" lon="12.12638"><ele>32.166666666666664</ele><time>2026-03-25T14:52:36.048Z</time></trkpt><trkpt lat="44.1874333" lon="12.1262983"><ele>32.0</ele><time>2026-03-25T14:52:38.048Z</time></trkpt><trkpt lat="44.18738" lon="12.1262183"><ele>31.833333333333332</ele><time>2026-03-25T14:52:40.048Z</time></trkpt><trkpt lat="44.1873283" lon="12.1261367"><ele>31.666666666666664</ele><time>2026-03-25T14:52:42.048Z</time></trkpt><trkpt lat="44.1872617" lon="12.12607"><ele>31.5</ele><time>2026-03-25T14:52:44.049Z</time></trkpt><trkpt lat="44.1871867" lon="12.1260267"><ele>31.333333333333336</ele><time>2026-03-25T14:52:46.049Z</time></trkpt><trkpt lat="44.1871217" lon="12.1260017"><ele>31.166666666666668</ele><time>2026-03-25T14:52:48.048Z</time></trkpt><trkpt lat="44.1870317" lon="12.1259983"><ele>31.0</ele><time>2026-03-25T14:52:51.048Z</time></trkpt><trkpt lat="44.1869583" lon="12.126"><ele>31.0</ele><time>2026-03-25T14:52:53.049Z</time></trkpt><trkpt lat="44.1868817" lon="12.1259783"><ele>31.000000000000004</ele><time>2026-03-25T14:52:55.049Z</time></trkpt><trkpt lat="44.1868183" lon="12.1259283"><ele>31.0</ele><time>2026-03-25T14:52:57.048Z</time></trkpt><trkpt lat="44.186755" lon="12.1258883"><ele>31.0</ele><time>2026-03-25T14:52:59.049Z</time></trkpt><trkpt lat="44.1866933" lon="12.1258567"><ele>31.000000000000004</ele><time>2026-03-25T14:53:01.049Z</time></trkpt><trkpt lat="44.1866433" lon="12.1257717"><ele>31.0</ele><time>2026-03-25T14:53:04.049Z</time></trkpt><trkpt lat="44.1866233" lon="12.1256617"><ele>31.0</ele><time>2026-03-25T14:53:07.048Z</time></trkpt><trkpt lat="44.1866067" lon="12.1255617"><ele>31.000000000000004</ele><time>2026-03-25T14:53:09.049Z</time></trkpt><trkpt lat="44.1866033" lon="12.1254467"><ele>31.0</ele><time>2026-03-25T14:53:11.048Z</time></trkpt><trkpt lat="44.186615" lon="12.1253317"><ele>31.0</ele><time>2026-03-25T14:53:13.048Z</time></trkpt><trkpt lat="44.18663" lon="12.1252117"><ele>31.0</ele><time>2026-03-25T14:53:15.048Z</time></trkpt><trkpt lat="44.1866467" lon="12.1250983"><ele>31.000000000000004</ele><time>2026-03-25T14:53:17.049Z</time></trkpt><trkpt lat="44.1866583" lon="12.1249783"><ele>31.0</ele><time>2026-03-25T14:53:19.049Z</time></trkpt><trkpt lat="44.186685" lon="12.12485"><ele>30.833333333333336</ele><time>2026-03-25T14:53:21.048Z</time></trkpt><trkpt lat="44.1867" lon="12.1247417"><ele>30.666666666666668</ele><time>2026-03-25T14:53:23.048Z</time></trkpt><trkpt lat="44.1866667" lon="12.1246483"><ele>30.5</ele><time>2026-03-25T14:53:25.049Z</time></trkpt><trkpt lat="44.1866" lon="12.1245633"><ele>30.333333333333336</ele><time>2026-03-25T14:53:27.049Z</time></trkpt><trkpt lat="44.18652" lon="12.1244967"><ele>30.166666666666668</ele><time>2026-03-25T14:53:29.048Z</time></trkpt><trkpt lat="44.1864367" lon="12.1244233"><ele>30.0</ele><time>2026-03-25T14:53:31.048Z</time></trkpt><trkpt lat="44.1863533" lon="12.12434"><ele>30.2</ele><time>2026-03-25T14:53:33.048Z</time></trkpt><trkpt lat="44.1862683" lon="12.12426"><ele>30.4</ele><time>2026-03-25T14:53:35.048Z</time></trkpt><trkpt lat="44.1861867" lon="12.12419"><ele>30.6</ele><time>2026-03-25T14:53:37.048Z</time></trkpt><trkpt lat="44.186095" lon="12.1241233"><ele>30.8</ele><time>2026-03-25T14:53:39.048Z</time></trkpt><trkpt lat="44.1860017" lon="12.1240583"><ele>31.0</ele><time>2026-03-25T14:53:41.049Z</time></trkpt><trkpt lat="44.1859183" lon="12.1239917"><ele>31.0</ele><time>2026-03-25T14:53:43.049Z</time></trkpt><trkpt lat="44.185845" lon="12.123925"><ele>31.0</ele><time>2026-03-25T14:53:45.048Z</time></trkpt><trkpt lat="44.1857433" lon="12.12383"><ele>31.0</ele><time>2026-03-25T14:53:48.048Z</time></trkpt><trkpt lat="44.1856817" lon="12.12377"><ele>31.0</ele><time>2026-03-25T14:53:50.049Z</time></trkpt><trkpt lat="44.18562" lon="12.1237083"><ele>31.0</ele><time>2026-03-25T14:53:52.049Z</time></trkpt><trkpt lat="44.1855483" lon="12.123635"><ele>31.0</ele><time>2026-03-25T14:53:55.048Z</time></trkpt><trkpt lat="44.1855617" lon="12.123515"><ele>31.0</ele><time>2026-03-25T14:53:58.049Z</time></trkpt><trkpt lat="44.1856" lon="12.1234233"><ele>31.0</ele><time>2026-03-25T14:54:00.048Z</time></trkpt><trkpt lat="44.1856633" lon="12.1233333"><ele>31.0</ele><time>2026-03-25T14:54:02.049Z</time></trkpt><trkpt lat="44.1857367" lon="12.123245"><ele>31.0</ele><time>2026-03-25T14:54:04.048Z</time></trkpt><trkpt lat="44.1858217" lon="12.1231533"><ele>30.6</ele><time>2026-03-25T14:54:06.048Z</time></trkpt><trkpt lat="44.1859083" lon="12.1230733"><ele>30.200000000000003</ele><time>2026-03-25T14:54:08.049Z</time></trkpt><trkpt lat="44.1859917" lon="12.1229833"><ele>29.799999999999997</ele><time>2026-03-25T14:54:10.048Z</time></trkpt><trkpt lat="44.1860717" lon="12.1228933"><ele>29.4</ele><time>2026-03-25T14:54:12.049Z</time></trkpt><trkpt lat="44.1861583" lon="12.1228183"><ele>29.0</ele><time>2026-03-25T14:54:14.048Z</time></trkpt><trkpt lat="44.186235" lon="12.1227383"><ele>29.0</ele><time>2026-03-25T14:54:16.049Z</time></trkpt><trkpt lat="44.18631" lon="12.1226483"><ele>29.0</ele><time>2026-03-25T14:54:18.049Z</time></trkpt><trkpt lat="44.1863833" lon="12.1225583"><ele>29.0</ele><time>2026-03-25T14:54:20.048Z</time></trkpt><trkpt lat="44.18646" lon="12.122455"><ele>29.0</ele><time>2026-03-25T14:54:22.048Z</time></trkpt><trkpt lat="44.1865167" lon="12.122345"><ele>29.0</ele><time>2026-03-25T14:54:24.049Z</time></trkpt><trkpt lat="44.1865767" lon="12.1222317"><ele>29.0</ele><time>2026-03-25T14:54:26.048Z</time></trkpt><trkpt lat="44.1866333" lon="12.1221033"><ele>29.0</ele><time>2026-03-25T14:54:28.049Z</time></trkpt><trkpt lat="44.186685" lon="12.1219983"><ele>29.0</ele><time>2026-03-25T14:54:30.048Z</time></trkpt><trkpt lat="44.1867317" lon="12.121885"><ele>29.0</ele><time>2026-03-25T14:54:32.048Z</time></trkpt><trkpt lat="44.1867867" lon="12.12175"><ele>29.0</ele><time>2026-03-25T14:54:34.049Z</time></trkpt><trkpt lat="44.1868367" lon="12.1216183"><ele>29.2</ele><time>2026-03-25T14:54:36.048Z</time></trkpt><trkpt lat="44.1868883" lon="12.1214933"><ele>29.4</ele><time>2026-03-25T14:54:38.049Z</time></trkpt><trkpt lat="44.18694" lon="12.12135"><ele>29.6</ele><time>2026-03-25T14:54:40.048Z</time></trkpt><trkpt lat="44.1869783" lon="12.1212017"><ele>29.8</ele><time>2026-03-25T14:54:42.049Z</time></trkpt><trkpt lat="44.1870017" lon="12.1210583"><ele>30.0</ele><time>2026-03-25T14:54:44.048Z</time></trkpt><trkpt lat="44.1870467" lon="12.12092"><ele>30.0</ele><time>2026-03-25T14:54:46.049Z</time></trkpt><trkpt lat="44.1871017" lon="12.120795"><ele>30.0</ele><time>2026-03-25T14:54:48.048Z</time></trkpt><trkpt lat="44.1871267" lon="12.1206533"><ele>30.0</ele><time>2026-03-25T14:54:50.048Z</time></trkpt><trkpt lat="44.18711" lon="12.1205033"><ele>30.0</ele><time>2026-03-25T14:54:52.049Z</time></trkpt><trkpt lat="44.1870833" lon="12.1203583"><ele>30.0</ele><time>2026-03-25T14:54:54.048Z</time></trkpt><trkpt lat="44.18705" lon="12.12021"><ele>29.8</ele><time>2026-03-25T14:54:56.048Z</time></trkpt><trkpt lat="44.1870117" lon="12.1200667"><ele>29.6</ele><time>2026-03-25T14:54:58.048Z</time></trkpt><trkpt lat="44.1869767" lon="12.1199183"><ele>29.4</ele><time>2026-03-25T14:55:00.048Z</time></trkpt><trkpt lat="44.1869367" lon="12.11978"><ele>29.2</ele><time>2026-03-25T14:55:02.048Z</time></trkpt><trkpt lat="44.1868867" lon="12.1196433"><ele>29.0</ele><time>2026-03-25T14:55:04.048Z</time></trkpt><trkpt lat="44.1868383" lon="12.1195233"><ele>29.0</ele><time>2026-03-25T14:55:06.049Z</time></trkpt><trkpt lat="44.1867833" lon="12.1194067"><ele>29.0</ele><time>2026-03-25T14:55:08.049Z</time></trkpt><trkpt lat="44.1867067" lon="12.1193083"><ele>29.0</ele><time>2026-03-25T14:55:10.049Z</time></trkpt><trkpt lat="44.1866333" lon="12.1192167"><ele>29.0</ele><time>2026-03-25T14:55:12.049Z</time></trkpt><trkpt lat="44.1865567" lon="12.1191267"><ele>29.0</ele><time>2026-03-25T14:55:14.048Z</time></trkpt><trkpt lat="44.1864833" lon="12.1190267"><ele>28.799999999999997</ele><time>2026-03-25T14:55:16.048Z</time></trkpt><trkpt lat="44.186415" lon="12.118915"><ele>28.599999999999998</ele><time>2026-03-25T14:55:18.049Z</time></trkpt><trkpt lat="44.1863733" lon="12.1187817"><ele>28.4</ele><time>2026-03-25T14:55:20.048Z</time></trkpt><trkpt lat="44.18636" lon="12.1186433"><ele>28.2</ele><time>2026-03-25T14:55:22.049Z</time></trkpt><trkpt lat="44.1863717" lon="12.1184933"><ele>28.0</ele><time>2026-03-25T14:55:24.048Z</time></trkpt><trkpt lat="44.1864" lon="12.11836"><ele>28.2</ele><time>2026-03-25T14:55:26.049Z</time></trkpt><trkpt lat="44.1864233" lon="12.1182283"><ele>28.4</ele><time>2026-03-25T14:55:28.048Z</time></trkpt><trkpt lat="44.1864383" lon="12.1180933"><ele>28.599999999999998</ele><time>2026-03-25T14:55:30.049Z</time></trkpt><trkpt lat="44.1864583" lon="12.1179433"><ele>28.799999999999997</ele><time>2026-03-25T14:55:32.049Z</time></trkpt><trkpt lat="44.1864717" lon="12.1178"><ele>29.0</ele><time>2026-03-25T14:55:34.049Z</time></trkpt><trkpt lat="44.1864867" lon="12.1176483"><ele>29.0</ele><time>2026-03-25T14:55:36.049Z</time></trkpt><trkpt lat="44.1865083" lon="12.1174833"><ele>29.0</ele><time>2026-03-25T14:55:38.049Z</time></trkpt><trkpt lat="44.1865367" lon="12.11733"><ele>29.0</ele><time>2026-03-25T14:55:40.048Z</time></trkpt><trkpt lat="44.1865633" lon="12.1171817"><ele>29.0</ele><time>2026-03-25T14:55:42.049Z</time></trkpt><trkpt lat="44.1865933" lon="12.117045"><ele>29.0</ele><time>2026-03-25T14:55:44.049Z</time></trkpt><trkpt lat="44.1866417" lon="12.1169017"><ele>28.799999999999997</ele><time>2026-03-25T14:55:46.048Z</time></trkpt><trkpt lat="44.1866683" lon="12.1168167"><ele>28.599999999999998</ele><time>2026-03-25T14:55:47.049Z</time></trkpt><trkpt lat="44.186725" lon="12.116665"><ele>28.4</ele><time>2026-03-25T14:55:49.049Z</time></trkpt><trkpt lat="44.1867767" lon="12.1165067"><ele>28.2</ele><time>2026-03-25T14:55:51.049Z</time></trkpt><trkpt lat="44.1868317" lon="12.11637"><ele>28.0</ele><time>2026-03-25T14:55:53.049Z</time></trkpt><trkpt lat="44.1868817" lon="12.1162217"><ele>28.0</ele><time>2026-03-25T14:55:55.048Z</time></trkpt><trkpt lat="44.1869367" lon="12.1160783"><ele>27.999999999999996</ele><time>2026-03-25T14:55:57.049Z</time></trkpt><trkpt lat="44.18699" lon="12.1159417"><ele>27.999999999999996</ele><time>2026-03-25T14:55:59.049Z</time></trkpt><trkpt lat="44.1870417" lon="12.1158117"><ele>28.0</ele><time>2026-03-25T14:56:01.048Z</time></trkpt><trkpt lat="44.187075" lon="12.115685"><ele>28.0</ele><time>2026-03-25T14:56:03.049Z</time></trkpt><trkpt lat="44.187085" lon="12.1155517"><ele>28.0</ele><time>2026-03-25T14:56:05.048Z</time></trkpt><trkpt lat="44.1870483" lon="12.11543"><ele>27.999999999999996</ele><time>2026-03-25T14:56:07.048Z</time></trkpt><trkpt lat="44.18697" lon="12.1153383"><ele>27.999999999999996</ele><time>2026-03-25T14:56:09.048Z</time></trkpt><trkpt lat="44.1868783" lon="12.1152533"><ele>28.0</ele><time>2026-03-25T14:56:11.048Z</time></trkpt><trkpt lat="44.1867867" lon="12.1151683"><ele>28.0</ele><time>2026-03-25T14:56:13.049Z</time></trkpt><trkpt lat="44.1866983" lon="12.115085"><ele>28.0</ele><time>2026-03-25T14:56:15.049Z</time></trkpt><trkpt lat="44.18661" lon="12.1150133"><ele>27.999999999999996</ele><time>2026-03-25T14:56:17.048Z</time></trkpt><trkpt lat="44.1865183" lon="12.1149333"><ele>27.999999999999996</ele><time>2026-03-25T14:56:19.048Z</time></trkpt><trkpt lat="44.1864367" lon="12.1148717"><ele>28.0</ele><time>2026-03-25T14:56:21.049Z</time></trkpt><trkpt lat="44.1863533" lon="12.1148183"><ele>28.0</ele><time>2026-03-25T14:56:23.048Z</time></trkpt><trkpt lat="44.1862783" lon="12.11477"><ele>28.0</ele><time>2026-03-25T14:56:25.048Z</time></trkpt><trkpt lat="44.1862" lon="12.1147183"><ele>27.999999999999996</ele><time>2026-03-25T14:56:27.049Z</time></trkpt><trkpt lat="44.18613" lon="12.1146333"><ele>27.999999999999996</ele><time>2026-03-25T14:56:29.049Z</time></trkpt><trkpt lat="44.186045" lon="12.114565"><ele>28.0</ele><time>2026-03-25T14:56:31.049Z</time></trkpt><trkpt lat="44.185955" lon="12.11451"><ele>28.0</ele><time>2026-03-25T14:56:33.049Z</time></trkpt><trkpt lat="44.1858667" lon="12.1144333"><ele>28.0</ele><time>2026-03-25T14:56:35.048Z</time></trkpt><trkpt lat="44.1857817" lon="12.114365"><ele>27.999999999999996</ele><time>2026-03-25T14:56:37.048Z</time></trkpt><trkpt lat="44.1856883" lon="12.1143"><ele>27.999999999999996</ele><time>2026-03-25T14:56:39.048Z</time></trkpt><trkpt lat="44.1856" lon="12.1142133"><ele>28.0</ele><time>2026-03-25T14:56:41.049Z</time></trkpt><trkpt lat="44.1855117" lon="12.1141567"><ele>28.0</ele><time>2026-03-25T14:56:43.049Z</time></trkpt><trkpt lat="44.1854283" lon="12.11412"><ele>28.0</ele><time>2026-03-25T14:56:45.049Z</time></trkpt><trkpt lat="44.1853583" lon="12.1140733"><ele>28.0</ele><time>2026-03-25T14:56:47.048Z</time></trkpt><trkpt lat="44.1852983" lon="12.1140267"><ele>28.0</ele><time>2026-03-25T14:56:49.048Z</time></trkpt><trkpt lat="44.1852333" lon="12.11398"><ele>28.0</ele><time>2026-03-25T14:56:51.048Z</time></trkpt><trkpt lat="44.185165" lon="12.1139267"><ele>28.0</ele><time>2026-03-25T14:56:53.049Z</time></trkpt><trkpt lat="44.1851033" lon="12.1138967"><ele>28.0</ele><time>2026-03-25T14:56:55.048Z</time></trkpt><trkpt lat="44.1850333" lon="12.1139467"><ele>28.0</ele><time>2026-03-25T14:56:58.048Z</time></trkpt><trkpt lat="44.18498" lon="12.11405"><ele>28.000000000000004</ele><time>2026-03-25T14:57:01.048Z</time></trkpt><trkpt lat="44.1849517" lon="12.11413"><ele>28.0</ele><time>2026-03-25T14:57:03.049Z</time></trkpt><trkpt lat="44.1849167" lon="12.1142117"><ele>28.0</ele><time>2026-03-25T14:57:05.049Z</time></trkpt><trkpt lat="44.1849017" lon="12.1143317"><ele>28.0</ele><time>2026-03-25T14:57:08.048Z</time></trkpt><trkpt lat="44.1849617" lon="12.11441"><ele>28.000000000000004</ele><time>2026-03-25T14:57:11.048Z</time></trkpt><trkpt lat="44.18502" lon="12.11448"><ele>28.0</ele><time>2026-03-25T14:57:14.048Z</time></trkpt><trkpt lat="44.18503" lon="12.1145883"><ele>28.0</ele><time>2026-03-25T14:57:17.048Z</time></trkpt><trkpt lat="44.185005" lon="12.1147133"><ele>28.0</ele><time>2026-03-25T14:57:20.048Z</time></trkpt><trkpt lat="44.1849867" lon="12.11482"><ele>28.0</ele><time>2026-03-25T14:57:23.048Z</time></trkpt></trkseg></trk></gpx>